<?xml version="1.0" encoding="UTF-8" standalone="no" ?>
<gpx xmlns="http://www.topografix.com/GPX/1/1" xmlns:xsi="http://www.w3.org/2001/XMLSchema-instance" xsi:schemaLocation="http://www.topografix.com/GPX/1/1 http://www.topografix.com/GPX/1/1/gpx.xsd" version="1.1" creator="VisuGPX - https://www.visugpx.com">
  <metadata>
    <name>pc 2025 2</name>
  </metadata>
  <trk>
    <name><![CDATA[pc 2025 2]]></name>
    <trkseg>
      <trkpt lat="50.53865" lon="3.12649">
        <ele>33.01</ele>
        <time>2025-05-17T19:59:26.000Z</time>
      </trkpt>
      <trkpt lat="50.53852" lon="3.1263">
        <ele>32.73</ele>
        <time>2025-05-17T19:59:26.003Z</time>
      </trkpt>
      <trkpt lat="50.5384" lon="3.1261">
        <ele>32.4</ele>
        <time>2025-05-17T19:59:26.009Z</time>
      </trkpt>
      <trkpt lat="50.53814" lon="3.12595">
        <ele>31.85</ele>
        <time>2025-05-17T19:59:26.020Z</time>
      </trkpt>
      <trkpt lat="50.53792" lon="3.12596">
        <ele>31.33</ele>
        <time>2025-05-17T19:59:26.034Z</time>
      </trkpt>
      <trkpt lat="50.53771" lon="3.12597">
        <ele>30.9</ele>
        <time>2025-05-17T19:59:26.052Z</time>
      </trkpt>
      <trkpt lat="50.5375" lon="3.12598">
        <ele>30.52</ele>
        <time>2025-05-17T19:59:26.073Z</time>
      </trkpt>
      <trkpt lat="50.53735" lon="3.12598">
        <ele>30.21</ele>
        <time>2025-05-17T19:59:26.097Z</time>
      </trkpt>
      <trkpt lat="50.53708" lon="3.12603">
        <ele>29.91</ele>
        <time>2025-05-17T19:59:26.125Z</time>
      </trkpt>
      <trkpt lat="50.53681" lon="3.12609">
        <ele>29.53</ele>
        <time>2025-05-17T19:59:26.158Z</time>
      </trkpt>
      <trkpt lat="50.53655" lon="3.12614">
        <ele>29.18</ele>
        <time>2025-05-17T19:59:26.195Z</time>
      </trkpt>
      <trkpt lat="50.53628" lon="3.1262">
        <ele>29.01</ele>
        <time>2025-05-17T19:59:26.237Z</time>
      </trkpt>
      <trkpt lat="50.53601" lon="3.12625">
        <ele>28.89</ele>
        <time>2025-05-17T19:59:26.283Z</time>
      </trkpt>
      <trkpt lat="50.53575" lon="3.12631">
        <ele>28.83</ele>
        <time>2025-05-17T19:59:26.334Z</time>
      </trkpt>
      <trkpt lat="50.53548" lon="3.12636">
        <ele>28.81</ele>
        <time>2025-05-17T19:59:26.390Z</time>
      </trkpt>
      <trkpt lat="50.53521" lon="3.12642">
        <ele>28.78</ele>
        <time>2025-05-17T19:59:26.450Z</time>
      </trkpt>
      <trkpt lat="50.53493" lon="3.12648">
        <ele>28.92</ele>
        <time>2025-05-17T19:59:26.515Z</time>
      </trkpt>
      <trkpt lat="50.53466" lon="3.12653">
        <ele>29.14</ele>
        <time>2025-05-17T19:59:26.584Z</time>
      </trkpt>
      <trkpt lat="50.53451" lon="3.12662">
        <ele>29.47</ele>
        <time>2025-05-17T19:59:26.656Z</time>
      </trkpt>
      <trkpt lat="50.53426" lon="3.12685">
        <ele>29.82</ele>
        <time>2025-05-17T19:59:26.733Z</time>
      </trkpt>
      <trkpt lat="50.53403" lon="3.12707">
        <ele>30.09</ele>
        <time>2025-05-17T19:59:26.814Z</time>
      </trkpt>
      <trkpt lat="50.53381" lon="3.12728">
        <ele>30.44</ele>
        <time>2025-05-17T19:59:26.900Z</time>
      </trkpt>
      <trkpt lat="50.53359" lon="3.1275">
        <ele>30.78</ele>
        <time>2025-05-17T19:59:26.990Z</time>
      </trkpt>
      <trkpt lat="50.53346" lon="3.12758">
        <ele>31.02</ele>
        <time>2025-05-17T19:59:27.082Z</time>
      </trkpt>
      <trkpt lat="50.53338" lon="3.12752">
        <ele>31.26</ele>
        <time>2025-05-17T19:59:27.176Z</time>
      </trkpt>
      <trkpt lat="50.53325" lon="3.12724">
        <ele>31.49</ele>
        <time>2025-05-17T19:59:27.274Z</time>
      </trkpt>
      <trkpt lat="50.53312" lon="3.12696">
        <ele>31.67</ele>
        <time>2025-05-17T19:59:27.375Z</time>
      </trkpt>
      <trkpt lat="50.53303" lon="3.12692">
        <ele>31.82</ele>
        <time>2025-05-17T19:59:27.478Z</time>
      </trkpt>
      <trkpt lat="50.53295" lon="3.12694">
        <ele>31.95</ele>
        <time>2025-05-17T19:59:27.582Z</time>
      </trkpt>
      <trkpt lat="50.53274" lon="3.12725">
        <ele>32.2</ele>
        <time>2025-05-17T19:59:27.691Z</time>
      </trkpt>
      <trkpt lat="50.53253" lon="3.12756">
        <ele>32.46</ele>
        <time>2025-05-17T19:59:27.805Z</time>
      </trkpt>
      <trkpt lat="50.53232" lon="3.12788">
        <ele>32.55</ele>
        <time>2025-05-17T19:59:27.924Z</time>
      </trkpt>
      <trkpt lat="50.53211" lon="3.12819">
        <ele>32.46</ele>
        <time>2025-05-17T19:59:28.048Z</time>
      </trkpt>
      <trkpt lat="50.53202" lon="3.12831">
        <ele>32.42</ele>
        <time>2025-05-17T19:59:28.174Z</time>
      </trkpt>
      <trkpt lat="50.53183" lon="3.12857">
        <ele>32.28</ele>
        <time>2025-05-17T19:59:28.304Z</time>
      </trkpt>
      <trkpt lat="50.53174" lon="3.12864">
        <ele>32.16</ele>
        <time>2025-05-17T19:59:28.436Z</time>
      </trkpt>
      <trkpt lat="50.53162" lon="3.12853">
        <ele>32.01</ele>
        <time>2025-05-17T19:59:28.570Z</time>
      </trkpt>
      <trkpt lat="50.53141" lon="3.12823">
        <ele>31.85</ele>
        <time>2025-05-17T19:59:28.709Z</time>
      </trkpt>
      <trkpt lat="50.5312" lon="3.12793">
        <ele>31.78</ele>
        <time>2025-05-17T19:59:28.852Z</time>
      </trkpt>
      <trkpt lat="50.531" lon="3.12764">
        <ele>31.75</ele>
        <time>2025-05-17T19:59:29.000Z</time>
      </trkpt>
      <trkpt lat="50.53079" lon="3.12734">
        <ele>31.72</ele>
        <time>2025-05-17T19:59:29.153Z</time>
      </trkpt>
      <trkpt lat="50.53059" lon="3.12704">
        <ele>31.64</ele>
        <time>2025-05-17T19:59:29.311Z</time>
      </trkpt>
      <trkpt lat="50.53038" lon="3.12674">
        <ele>31.66</ele>
        <time>2025-05-17T19:59:29.473Z</time>
      </trkpt>
      <trkpt lat="50.53018" lon="3.12645">
        <ele>31.69</ele>
        <time>2025-05-17T19:59:29.640Z</time>
      </trkpt>
      <trkpt lat="50.52997" lon="3.12618">
        <ele>31.72</ele>
        <time>2025-05-17T19:59:29.811Z</time>
      </trkpt>
      <trkpt lat="50.52977" lon="3.12591">
        <ele>31.82</ele>
        <time>2025-05-17T19:59:29.987Z</time>
      </trkpt>
      <trkpt lat="50.52953" lon="3.12561">
        <ele>31.9</ele>
        <time>2025-05-17T19:59:30.168Z</time>
      </trkpt>
      <trkpt lat="50.5293" lon="3.1253">
        <ele>31.98</ele>
        <time>2025-05-17T19:59:30.354Z</time>
      </trkpt>
      <trkpt lat="50.52906" lon="3.125">
        <ele>32.12</ele>
        <time>2025-05-17T19:59:30.545Z</time>
      </trkpt>
      <trkpt lat="50.52883" lon="3.12469">
        <ele>32.28</ele>
        <time>2025-05-17T19:59:30.741Z</time>
      </trkpt>
      <trkpt lat="50.52859" lon="3.12439">
        <ele>32.38</ele>
        <time>2025-05-17T19:59:30.943Z</time>
      </trkpt>
      <trkpt lat="50.52843" lon="3.12414">
        <ele>32.45</ele>
        <time>2025-05-17T19:59:31.148Z</time>
      </trkpt>
      <trkpt lat="50.52826" lon="3.1239">
        <ele>32.54</ele>
        <time>2025-05-17T19:59:31.357Z</time>
      </trkpt>
      <trkpt lat="50.5281" lon="3.12366">
        <ele>32.65</ele>
        <time>2025-05-17T19:59:31.570Z</time>
      </trkpt>
      <trkpt lat="50.52801" lon="3.12361">
        <ele>32.75</ele>
        <time>2025-05-17T19:59:31.784Z</time>
      </trkpt>
      <trkpt lat="50.52793" lon="3.12366">
        <ele>32.85</ele>
        <time>2025-05-17T19:59:32.000Z</time>
      </trkpt>
      <trkpt lat="50.52772" lon="3.12395">
        <ele>33.01</ele>
        <time>2025-05-17T19:59:32.221Z</time>
      </trkpt>
      <trkpt lat="50.52752" lon="3.12424">
        <ele>33.12</ele>
        <time>2025-05-17T19:59:32.446Z</time>
      </trkpt>
      <trkpt lat="50.5273" lon="3.12447">
        <ele>33.23</ele>
        <time>2025-05-17T19:59:32.676Z</time>
      </trkpt>
      <trkpt lat="50.52707" lon="3.1247">
        <ele>33.37</ele>
        <time>2025-05-17T19:59:32.910Z</time>
      </trkpt>
      <trkpt lat="50.52685" lon="3.12492">
        <ele>33.53</ele>
        <time>2025-05-17T19:59:33.149Z</time>
      </trkpt>
      <trkpt lat="50.52679" lon="3.12505">
        <ele>33.65</ele>
        <time>2025-05-17T19:59:33.389Z</time>
      </trkpt>
      <trkpt lat="50.52667" lon="3.12533">
        <ele>33.78</ele>
        <time>2025-05-17T19:59:33.633Z</time>
      </trkpt>
      <trkpt lat="50.52656" lon="3.12561">
        <ele>33.87</ele>
        <time>2025-05-17T19:59:33.880Z</time>
      </trkpt>
      <trkpt lat="50.52644" lon="3.12589">
        <ele>33.89</ele>
        <time>2025-05-17T19:59:34.131Z</time>
      </trkpt>
      <trkpt lat="50.52628" lon="3.12622">
        <ele>33.92</ele>
        <time>2025-05-17T19:59:34.386Z</time>
      </trkpt>
      <trkpt lat="50.52611" lon="3.12656">
        <ele>33.99</ele>
        <time>2025-05-17T19:59:34.646Z</time>
      </trkpt>
      <trkpt lat="50.52595" lon="3.12689">
        <ele>33.96</ele>
        <time>2025-05-17T19:59:34.911Z</time>
      </trkpt>
      <trkpt lat="50.52578" lon="3.12722">
        <ele>33.99</ele>
        <time>2025-05-17T19:59:35.180Z</time>
      </trkpt>
      <trkpt lat="50.52557" lon="3.12754">
        <ele>33.98</ele>
        <time>2025-05-17T19:59:35.454Z</time>
      </trkpt>
      <trkpt lat="50.52536" lon="3.12786">
        <ele>33.97</ele>
        <time>2025-05-17T19:59:35.733Z</time>
      </trkpt>
      <trkpt lat="50.52516" lon="3.12819">
        <ele>33.93</ele>
        <time>2025-05-17T19:59:36.017Z</time>
      </trkpt>
      <trkpt lat="50.52501" lon="3.12797">
        <ele>33.93</ele>
        <time>2025-05-17T19:59:36.304Z</time>
      </trkpt>
      <trkpt lat="50.52494" lon="3.12776">
        <ele>33.91</ele>
        <time>2025-05-17T19:59:36.594Z</time>
      </trkpt>
      <trkpt lat="50.52497" lon="3.12736">
        <ele>33.89</ele>
        <time>2025-05-17T19:59:36.888Z</time>
      </trkpt>
      <trkpt lat="50.525" lon="3.12697">
        <ele>33.87</ele>
        <time>2025-05-17T19:59:37.186Z</time>
      </trkpt>
      <trkpt lat="50.52503" lon="3.12658">
        <ele>33.85</ele>
        <time>2025-05-17T19:59:37.488Z</time>
      </trkpt>
      <trkpt lat="50.525" lon="3.12632">
        <ele>33.83</ele>
        <time>2025-05-17T19:59:37.793Z</time>
      </trkpt>
      <trkpt lat="50.52496" lon="3.12606">
        <ele>33.81</ele>
        <time>2025-05-17T19:59:38.101Z</time>
      </trkpt>
      <trkpt lat="50.52489" lon="3.12566">
        <ele>33.76</ele>
        <time>2025-05-17T19:59:38.413Z</time>
      </trkpt>
      <trkpt lat="50.52481" lon="3.12527">
        <ele>33.74</ele>
        <time>2025-05-17T19:59:38.730Z</time>
      </trkpt>
      <trkpt lat="50.52471" lon="3.12488">
        <ele>33.74</ele>
        <time>2025-05-17T19:59:39.051Z</time>
      </trkpt>
      <trkpt lat="50.5246" lon="3.12449">
        <ele>33.79</ele>
        <time>2025-05-17T19:59:39.377Z</time>
      </trkpt>
      <trkpt lat="50.52451" lon="3.12426">
        <ele>33.81</ele>
        <time>2025-05-17T19:59:39.706Z</time>
      </trkpt>
      <trkpt lat="50.52436" lon="3.12407">
        <ele>33.85</ele>
        <time>2025-05-17T19:59:40.038Z</time>
      </trkpt>
      <trkpt lat="50.52418" lon="3.12394">
        <ele>33.89</ele>
        <time>2025-05-17T19:59:40.373Z</time>
      </trkpt>
      <trkpt lat="50.524" lon="3.12381">
        <ele>33.9</ele>
        <time>2025-05-17T19:59:40.712Z</time>
      </trkpt>
      <trkpt lat="50.52398" lon="3.12366">
        <ele>33.95</ele>
        <time>2025-05-17T19:59:41.052Z</time>
      </trkpt>
      <trkpt lat="50.52385" lon="3.12353">
        <ele>34</ele>
        <time>2025-05-17T19:59:41.395Z</time>
      </trkpt>
      <trkpt lat="50.52372" lon="3.12336">
        <ele>34.08</ele>
        <time>2025-05-17T19:59:41.741Z</time>
      </trkpt>
      <trkpt lat="50.52351" lon="3.12308">
        <ele>34.18</ele>
        <time>2025-05-17T19:59:42.092Z</time>
      </trkpt>
      <trkpt lat="50.52342" lon="3.12312">
        <ele>34.3</ele>
        <time>2025-05-17T19:59:42.444Z</time>
      </trkpt>
      <trkpt lat="50.52323" lon="3.12273">
        <ele>34.44</ele>
        <time>2025-05-17T19:59:42.801Z</time>
      </trkpt>
      <trkpt lat="50.52304" lon="3.12235">
        <ele>34.6</ele>
        <time>2025-05-17T19:59:43.164Z</time>
      </trkpt>
      <trkpt lat="50.52285" lon="3.12196">
        <ele>34.77</ele>
        <time>2025-05-17T19:59:43.532Z</time>
      </trkpt>
      <trkpt lat="50.52266" lon="3.12157">
        <ele>34.93</ele>
        <time>2025-05-17T19:59:43.905Z</time>
      </trkpt>
      <trkpt lat="50.52247" lon="3.12119">
        <ele>35.06</ele>
        <time>2025-05-17T19:59:44.283Z</time>
      </trkpt>
      <trkpt lat="50.52228" lon="3.1208">
        <ele>35.18</ele>
        <time>2025-05-17T19:59:44.666Z</time>
      </trkpt>
      <trkpt lat="50.52213" lon="3.12065">
        <ele>35.33</ele>
        <time>2025-05-17T19:59:45.052Z</time>
      </trkpt>
      <trkpt lat="50.52191" lon="3.1205">
        <ele>35.48</ele>
        <time>2025-05-17T19:59:45.442Z</time>
      </trkpt>
      <trkpt lat="50.52169" lon="3.12034">
        <ele>35.65</ele>
        <time>2025-05-17T19:59:45.837Z</time>
      </trkpt>
      <trkpt lat="50.52147" lon="3.12018">
        <ele>35.78</ele>
        <time>2025-05-17T19:59:46.236Z</time>
      </trkpt>
      <trkpt lat="50.52147" lon="3.12018">
        <ele>35.93</ele>
        <time>2025-05-17T19:59:46.635Z</time>
      </trkpt>
      <trkpt lat="50.52123" lon="3.11992">
        <ele>36.11</ele>
        <time>2025-05-17T19:59:47.038Z</time>
      </trkpt>
      <trkpt lat="50.52112" lon="3.11973">
        <ele>36.28</ele>
        <time>2025-05-17T19:59:47.444Z</time>
      </trkpt>
      <trkpt lat="50.52112" lon="3.11946">
        <ele>36.43</ele>
        <time>2025-05-17T19:59:47.853Z</time>
      </trkpt>
      <trkpt lat="50.52112" lon="3.11919">
        <ele>36.58</ele>
        <time>2025-05-17T19:59:48.265Z</time>
      </trkpt>
      <trkpt lat="50.52104" lon="3.11902">
        <ele>36.72</ele>
        <time>2025-05-17T19:59:48.679Z</time>
      </trkpt>
      <trkpt lat="50.52087" lon="3.11879">
        <ele>36.85</ele>
        <time>2025-05-17T19:59:49.097Z</time>
      </trkpt>
      <trkpt lat="50.5208" lon="3.11868">
        <ele>36.99</ele>
        <time>2025-05-17T19:59:49.517Z</time>
      </trkpt>
      <trkpt lat="50.52066" lon="3.11848">
        <ele>37.16</ele>
        <time>2025-05-17T19:59:49.940Z</time>
      </trkpt>
      <trkpt lat="50.52052" lon="3.11827">
        <ele>37.28</ele>
        <time>2025-05-17T19:59:50.366Z</time>
      </trkpt>
      <trkpt lat="50.52035" lon="3.11791">
        <ele>37.38</ele>
        <time>2025-05-17T19:59:50.797Z</time>
      </trkpt>
      <trkpt lat="50.52037" lon="3.11763">
        <ele>37.44</ele>
        <time>2025-05-17T19:59:51.231Z</time>
      </trkpt>
      <trkpt lat="50.52022" lon="3.11736">
        <ele>37.55</ele>
        <time>2025-05-17T19:59:51.669Z</time>
      </trkpt>
      <trkpt lat="50.52007" lon="3.11709">
        <ele>37.64</ele>
        <time>2025-05-17T19:59:52.111Z</time>
      </trkpt>
      <trkpt lat="50.52001" lon="3.11668">
        <ele>37.71</ele>
        <time>2025-05-17T19:59:52.557Z</time>
      </trkpt>
      <trkpt lat="50.51984" lon="3.11638">
        <ele>37.79</ele>
        <time>2025-05-17T19:59:53.007Z</time>
      </trkpt>
      <trkpt lat="50.51966" lon="3.11607">
        <ele>37.83</ele>
        <time>2025-05-17T19:59:53.462Z</time>
      </trkpt>
      <trkpt lat="50.51949" lon="3.11576">
        <ele>37.81</ele>
        <time>2025-05-17T19:59:53.921Z</time>
      </trkpt>
      <trkpt lat="50.51945" lon="3.11557">
        <ele>37.81</ele>
        <time>2025-05-17T19:59:54.382Z</time>
      </trkpt>
      <trkpt lat="50.51971" lon="3.1154">
        <ele>37.79</ele>
        <time>2025-05-17T19:59:54.848Z</time>
      </trkpt>
      <trkpt lat="50.51996" lon="3.11522">
        <ele>37.77</ele>
        <time>2025-05-17T19:59:55.319Z</time>
      </trkpt>
      <trkpt lat="50.52006" lon="3.11511">
        <ele>37.72</ele>
        <time>2025-05-17T19:59:55.792Z</time>
      </trkpt>
      <trkpt lat="50.52026" lon="3.11485">
        <ele>37.66</ele>
        <time>2025-05-17T19:59:56.269Z</time>
      </trkpt>
      <trkpt lat="50.52047" lon="3.11458">
        <ele>37.59</ele>
        <time>2025-05-17T19:59:56.751Z</time>
      </trkpt>
      <trkpt lat="50.52067" lon="3.11432">
        <ele>37.51</ele>
        <time>2025-05-17T19:59:57.237Z</time>
      </trkpt>
      <trkpt lat="50.52082" lon="3.11417">
        <ele>37.43</ele>
        <time>2025-05-17T19:59:57.726Z</time>
      </trkpt>
      <trkpt lat="50.52108" lon="3.11404">
        <ele>37.28</ele>
        <time>2025-05-17T19:59:58.220Z</time>
      </trkpt>
      <trkpt lat="50.52131" lon="3.11394">
        <ele>37.16</ele>
        <time>2025-05-17T19:59:58.718Z</time>
      </trkpt>
      <trkpt lat="50.52153" lon="3.11383">
        <ele>37.02</ele>
        <time>2025-05-17T19:59:59.220Z</time>
      </trkpt>
      <trkpt lat="50.52179" lon="3.11372">
        <ele>36.86</ele>
        <time>2025-05-17T19:59:59.726Z</time>
      </trkpt>
      <trkpt lat="50.52201" lon="3.11368">
        <ele>36.74</ele>
        <time>2025-05-17T20:00:00.236Z</time>
      </trkpt>
      <trkpt lat="50.52223" lon="3.11364">
        <ele>36.61</ele>
        <time>2025-05-17T20:00:00.750Z</time>
      </trkpt>
      <trkpt lat="50.52245" lon="3.11359">
        <ele>36.48</ele>
        <time>2025-05-17T20:00:01.267Z</time>
      </trkpt>
      <trkpt lat="50.5226" lon="3.11357">
        <ele>36.38</ele>
        <time>2025-05-17T20:00:01.787Z</time>
      </trkpt>
      <trkpt lat="50.52275" lon="3.11351">
        <ele>36.26</ele>
        <time>2025-05-17T20:00:02.309Z</time>
      </trkpt>
      <trkpt lat="50.52296" lon="3.11328">
        <ele>36.11</ele>
        <time>2025-05-17T20:00:02.836Z</time>
      </trkpt>
      <trkpt lat="50.52316" lon="3.11306">
        <ele>35.98</ele>
        <time>2025-05-17T20:00:03.367Z</time>
      </trkpt>
      <trkpt lat="50.52325" lon="3.11295">
        <ele>35.84</ele>
        <time>2025-05-17T20:00:03.900Z</time>
      </trkpt>
      <trkpt lat="50.52346" lon="3.11275">
        <ele>35.71</ele>
        <time>2025-05-17T20:00:04.437Z</time>
      </trkpt>
      <trkpt lat="50.52368" lon="3.11254">
        <ele>35.6</ele>
        <time>2025-05-17T20:00:04.978Z</time>
      </trkpt>
      <trkpt lat="50.52387" lon="3.11239">
        <ele>35.51</ele>
        <time>2025-05-17T20:00:05.523Z</time>
      </trkpt>
      <trkpt lat="50.52408" lon="3.11225">
        <ele>35.46</ele>
        <time>2025-05-17T20:00:06.072Z</time>
      </trkpt>
      <trkpt lat="50.5243" lon="3.11211">
        <ele>35.38</ele>
        <time>2025-05-17T20:00:06.624Z</time>
      </trkpt>
      <trkpt lat="50.52426" lon="3.11205">
        <ele>35.3</ele>
        <time>2025-05-17T20:00:07.177Z</time>
      </trkpt>
      <trkpt lat="50.52419" lon="3.1119">
        <ele>35.22</ele>
        <time>2025-05-17T20:00:07.732Z</time>
      </trkpt>
      <trkpt lat="50.52406" lon="3.11166">
        <ele>35.15</ele>
        <time>2025-05-17T20:00:08.291Z</time>
      </trkpt>
      <trkpt lat="50.52393" lon="3.11143">
        <ele>35.08</ele>
        <time>2025-05-17T20:00:08.853Z</time>
      </trkpt>
      <trkpt lat="50.52385" lon="3.11115">
        <ele>35.05</ele>
        <time>2025-05-17T20:00:09.418Z</time>
      </trkpt>
      <trkpt lat="50.52374" lon="3.11074">
        <ele>35.06</ele>
        <time>2025-05-17T20:00:09.988Z</time>
      </trkpt>
      <trkpt lat="50.52363" lon="3.11033">
        <ele>35.03</ele>
        <time>2025-05-17T20:00:10.563Z</time>
      </trkpt>
      <trkpt lat="50.52356" lon="3.11005">
        <ele>34.93</ele>
        <time>2025-05-17T20:00:11.141Z</time>
      </trkpt>
      <trkpt lat="50.52348" lon="3.10977">
        <ele>34.81</ele>
        <time>2025-05-17T20:00:11.722Z</time>
      </trkpt>
      <trkpt lat="50.52338" lon="3.10956">
        <ele>34.71</ele>
        <time>2025-05-17T20:00:12.306Z</time>
      </trkpt>
      <trkpt lat="50.52329" lon="3.10943">
        <ele>34.62</ele>
        <time>2025-05-17T20:00:12.892Z</time>
      </trkpt>
      <trkpt lat="50.52327" lon="3.10937">
        <ele>34.55</ele>
        <time>2025-05-17T20:00:13.479Z</time>
      </trkpt>
      <trkpt lat="50.52316" lon="3.10909">
        <ele>34.46</ele>
        <time>2025-05-17T20:00:14.069Z</time>
      </trkpt>
      <trkpt lat="50.52312" lon="3.10902">
        <ele>34.38</ele>
        <time>2025-05-17T20:00:14.660Z</time>
      </trkpt>
      <trkpt lat="50.52303" lon="3.10875">
        <ele>34.3</ele>
        <time>2025-05-17T20:00:15.255Z</time>
      </trkpt>
      <trkpt lat="50.52295" lon="3.10849">
        <ele>34.22</ele>
        <time>2025-05-17T20:00:15.853Z</time>
      </trkpt>
      <trkpt lat="50.52295" lon="3.10849">
        <ele>34.16</ele>
        <time>2025-05-17T20:00:16.451Z</time>
      </trkpt>
      <trkpt lat="50.52289" lon="3.10806">
        <ele>34.11</ele>
        <time>2025-05-17T20:00:17.054Z</time>
      </trkpt>
      <trkpt lat="50.52284" lon="3.10763">
        <ele>34.11</ele>
        <time>2025-05-17T20:00:17.661Z</time>
      </trkpt>
      <trkpt lat="50.52272" lon="3.10724">
        <ele>34.1</ele>
        <time>2025-05-17T20:00:18.273Z</time>
      </trkpt>
      <trkpt lat="50.5226" lon="3.10686">
        <ele>34.05</ele>
        <time>2025-05-17T20:00:18.889Z</time>
      </trkpt>
      <trkpt lat="50.52254" lon="3.10673">
        <ele>34</ele>
        <time>2025-05-17T20:00:19.507Z</time>
      </trkpt>
      <trkpt lat="50.52245" lon="3.10666">
        <ele>33.96</ele>
        <time>2025-05-17T20:00:20.127Z</time>
      </trkpt>
      <trkpt lat="50.52224" lon="3.10671">
        <ele>33.89</ele>
        <time>2025-05-17T20:00:20.750Z</time>
      </trkpt>
      <trkpt lat="50.522" lon="3.10681">
        <ele>33.79</ele>
        <time>2025-05-17T20:00:21.378Z</time>
      </trkpt>
      <trkpt lat="50.52177" lon="3.10691">
        <ele>33.7</ele>
        <time>2025-05-17T20:00:22.010Z</time>
      </trkpt>
      <trkpt lat="50.52153" lon="3.10701">
        <ele>33.66</ele>
        <time>2025-05-17T20:00:22.646Z</time>
      </trkpt>
      <trkpt lat="50.52128" lon="3.10717">
        <ele>33.58</ele>
        <time>2025-05-17T20:00:23.286Z</time>
      </trkpt>
      <trkpt lat="50.52102" lon="3.10732">
        <ele>33.58</ele>
        <time>2025-05-17T20:00:23.931Z</time>
      </trkpt>
      <trkpt lat="50.52077" lon="3.10748">
        <ele>33.61</ele>
        <time>2025-05-17T20:00:24.580Z</time>
      </trkpt>
      <trkpt lat="50.52052" lon="3.10764">
        <ele>33.61</ele>
        <time>2025-05-17T20:00:25.234Z</time>
      </trkpt>
      <trkpt lat="50.52027" lon="3.1078">
        <ele>33.6</ele>
        <time>2025-05-17T20:00:25.893Z</time>
      </trkpt>
      <trkpt lat="50.51996" lon="3.10782">
        <ele>33.64</ele>
        <time>2025-05-17T20:00:26.557Z</time>
      </trkpt>
      <trkpt lat="50.51977" lon="3.10769">
        <ele>33.67</ele>
        <time>2025-05-17T20:00:27.224Z</time>
      </trkpt>
      <trkpt lat="50.51959" lon="3.10743">
        <ele>33.7</ele>
        <time>2025-05-17T20:00:27.895Z</time>
      </trkpt>
      <trkpt lat="50.51941" lon="3.10716">
        <ele>33.75</ele>
        <time>2025-05-17T20:00:28.570Z</time>
      </trkpt>
      <trkpt lat="50.51924" lon="3.1069">
        <ele>33.83</ele>
        <time>2025-05-17T20:00:29.250Z</time>
      </trkpt>
      <trkpt lat="50.51915" lon="3.10679">
        <ele>33.9</ele>
        <time>2025-05-17T20:00:29.932Z</time>
      </trkpt>
      <trkpt lat="50.51896" lon="3.10654">
        <ele>33.96</ele>
        <time>2025-05-17T20:00:30.618Z</time>
      </trkpt>
      <trkpt lat="50.51876" lon="3.10629">
        <ele>33.99</ele>
        <time>2025-05-17T20:00:31.308Z</time>
      </trkpt>
      <trkpt lat="50.51857" lon="3.10604">
        <ele>34.1</ele>
        <time>2025-05-17T20:00:32.002Z</time>
      </trkpt>
      <trkpt lat="50.51842" lon="3.10576">
        <ele>34.18</ele>
        <time>2025-05-17T20:00:32.700Z</time>
      </trkpt>
      <trkpt lat="50.51836" lon="3.10546">
        <ele>34.3</ele>
        <time>2025-05-17T20:00:33.401Z</time>
      </trkpt>
      <trkpt lat="50.51833" lon="3.10507">
        <ele>34.4</ele>
        <time>2025-05-17T20:00:34.107Z</time>
      </trkpt>
      <trkpt lat="50.5183" lon="3.10469">
        <ele>34.5</ele>
        <time>2025-05-17T20:00:34.817Z</time>
      </trkpt>
      <trkpt lat="50.51827" lon="3.1043">
        <ele>34.58</ele>
        <time>2025-05-17T20:00:35.531Z</time>
      </trkpt>
      <trkpt lat="50.51825" lon="3.10392">
        <ele>34.65</ele>
        <time>2025-05-17T20:00:36.249Z</time>
      </trkpt>
      <trkpt lat="50.51821" lon="3.10351">
        <ele>34.7</ele>
        <time>2025-05-17T20:00:36.971Z</time>
      </trkpt>
      <trkpt lat="50.51808" lon="3.10309">
        <ele>34.74</ele>
        <time>2025-05-17T20:00:37.698Z</time>
      </trkpt>
      <trkpt lat="50.51795" lon="3.10267">
        <ele>34.8</ele>
        <time>2025-05-17T20:00:38.430Z</time>
      </trkpt>
      <trkpt lat="50.51782" lon="3.10226">
        <ele>34.9</ele>
        <time>2025-05-17T20:00:39.167Z</time>
      </trkpt>
      <trkpt lat="50.51769" lon="3.10184">
        <ele>34.94</ele>
        <time>2025-05-17T20:00:39.909Z</time>
      </trkpt>
      <trkpt lat="50.51756" lon="3.10143">
        <ele>34.98</ele>
        <time>2025-05-17T20:00:40.656Z</time>
      </trkpt>
      <trkpt lat="50.51745" lon="3.10098">
        <ele>35.03</ele>
        <time>2025-05-17T20:00:41.408Z</time>
      </trkpt>
      <trkpt lat="50.51734" lon="3.10052">
        <ele>35.05</ele>
        <time>2025-05-17T20:00:42.166Z</time>
      </trkpt>
      <trkpt lat="50.51723" lon="3.10007">
        <ele>35.12</ele>
        <time>2025-05-17T20:00:42.929Z</time>
      </trkpt>
      <trkpt lat="50.51712" lon="3.09962">
        <ele>35.21</ele>
        <time>2025-05-17T20:00:43.697Z</time>
      </trkpt>
      <trkpt lat="50.51701" lon="3.09917">
        <ele>35.19</ele>
        <time>2025-05-17T20:00:44.470Z</time>
      </trkpt>
      <trkpt lat="50.5169" lon="3.09872">
        <ele>35.18</ele>
        <time>2025-05-17T20:00:45.248Z</time>
      </trkpt>
      <trkpt lat="50.51679" lon="3.09827">
        <ele>35.21</ele>
        <time>2025-05-17T20:00:46.031Z</time>
      </trkpt>
      <trkpt lat="50.51679" lon="3.09804">
        <ele>35.23</ele>
        <time>2025-05-17T20:00:46.817Z</time>
      </trkpt>
      <trkpt lat="50.51685" lon="3.09771">
        <ele>35.24</ele>
        <time>2025-05-17T20:00:47.607Z</time>
      </trkpt>
      <trkpt lat="50.5169" lon="3.09738">
        <ele>35.24</ele>
        <time>2025-05-17T20:00:48.400Z</time>
      </trkpt>
      <trkpt lat="50.51696" lon="3.09705">
        <ele>35.28</ele>
        <time>2025-05-17T20:00:49.197Z</time>
      </trkpt>
      <trkpt lat="50.51668" lon="3.09684">
        <ele>35.24</ele>
        <time>2025-05-17T20:00:49.999Z</time>
      </trkpt>
      <trkpt lat="50.51653" lon="3.09666">
        <ele>35.27</ele>
        <time>2025-05-17T20:00:50.804Z</time>
      </trkpt>
      <trkpt lat="50.5164" lon="3.09634">
        <ele>35.3</ele>
        <time>2025-05-17T20:00:51.613Z</time>
      </trkpt>
      <trkpt lat="50.51634" lon="3.09596">
        <ele>35.35</ele>
        <time>2025-05-17T20:00:52.427Z</time>
      </trkpt>
      <trkpt lat="50.51627" lon="3.09587">
        <ele>35.43</ele>
        <time>2025-05-17T20:00:53.242Z</time>
      </trkpt>
      <trkpt lat="50.51608" lon="3.09578">
        <ele>35.51</ele>
        <time>2025-05-17T20:00:54.060Z</time>
      </trkpt>
      <trkpt lat="50.51584" lon="3.09582">
        <ele>35.58</ele>
        <time>2025-05-17T20:00:54.882Z</time>
      </trkpt>
      <trkpt lat="50.51561" lon="3.09585">
        <ele>35.63</ele>
        <time>2025-05-17T20:00:55.708Z</time>
      </trkpt>
      <trkpt lat="50.51542" lon="3.09578">
        <ele>35.7</ele>
        <time>2025-05-17T20:00:56.538Z</time>
      </trkpt>
      <trkpt lat="50.51542" lon="3.09578">
        <ele>35.8</ele>
        <time>2025-05-17T20:00:57.368Z</time>
      </trkpt>
      <trkpt lat="50.51535" lon="3.09566">
        <ele>35.91</ele>
        <time>2025-05-17T20:00:58.199Z</time>
      </trkpt>
      <trkpt lat="50.51533" lon="3.09555">
        <ele>36.04</ele>
        <time>2025-05-17T20:00:59.032Z</time>
      </trkpt>
      <trkpt lat="50.51532" lon="3.0952">
        <ele>36.18</ele>
        <time>2025-05-17T20:00:59.868Z</time>
      </trkpt>
      <trkpt lat="50.51532" lon="3.09486">
        <ele>36.4</ele>
        <time>2025-05-17T20:01:00.708Z</time>
      </trkpt>
      <trkpt lat="50.51531" lon="3.09452">
        <ele>36.62</ele>
        <time>2025-05-17T20:01:01.552Z</time>
      </trkpt>
      <trkpt lat="50.51529" lon="3.09404">
        <ele>36.76</ele>
        <time>2025-05-17T20:01:02.401Z</time>
      </trkpt>
      <trkpt lat="50.51527" lon="3.09356">
        <ele>36.97</ele>
        <time>2025-05-17T20:01:03.255Z</time>
      </trkpt>
      <trkpt lat="50.51524" lon="3.09309">
        <ele>37.2</ele>
        <time>2025-05-17T20:01:04.114Z</time>
      </trkpt>
      <trkpt lat="50.51522" lon="3.09261">
        <ele>37.45</ele>
        <time>2025-05-17T20:01:04.978Z</time>
      </trkpt>
      <trkpt lat="50.5152" lon="3.09213">
        <ele>37.75</ele>
        <time>2025-05-17T20:01:05.847Z</time>
      </trkpt>
      <trkpt lat="50.51518" lon="3.09166">
        <ele>38.02</ele>
        <time>2025-05-17T20:01:06.721Z</time>
      </trkpt>
      <trkpt lat="50.51518" lon="3.09139">
        <ele>38.28</ele>
        <time>2025-05-17T20:01:07.598Z</time>
      </trkpt>
      <trkpt lat="50.51523" lon="3.09105">
        <ele>38.57</ele>
        <time>2025-05-17T20:01:08.479Z</time>
      </trkpt>
      <trkpt lat="50.51528" lon="3.09071">
        <ele>38.91</ele>
        <time>2025-05-17T20:01:09.364Z</time>
      </trkpt>
      <trkpt lat="50.51533" lon="3.09038">
        <ele>39.21</ele>
        <time>2025-05-17T20:01:10.252Z</time>
      </trkpt>
      <trkpt lat="50.51533" lon="3.09005">
        <ele>39.52</ele>
        <time>2025-05-17T20:01:11.144Z</time>
      </trkpt>
      <trkpt lat="50.51531" lon="3.08981">
        <ele>39.83</ele>
        <time>2025-05-17T20:01:12.038Z</time>
      </trkpt>
      <trkpt lat="50.51529" lon="3.08956">
        <ele>40.15</ele>
        <time>2025-05-17T20:01:12.935Z</time>
      </trkpt>
      <trkpt lat="50.51524" lon="3.08915">
        <ele>40.53</ele>
        <time>2025-05-17T20:01:13.837Z</time>
      </trkpt>
      <trkpt lat="50.51519" lon="3.08873">
        <ele>40.85</ele>
        <time>2025-05-17T20:01:14.743Z</time>
      </trkpt>
      <trkpt lat="50.51514" lon="3.08832">
        <ele>41.12</ele>
        <time>2025-05-17T20:01:15.654Z</time>
      </trkpt>
      <trkpt lat="50.51488" lon="3.08838">
        <ele>41.44</ele>
        <time>2025-05-17T20:01:16.569Z</time>
      </trkpt>
      <trkpt lat="50.51461" lon="3.08835">
        <ele>41.73</ele>
        <time>2025-05-17T20:01:17.489Z</time>
      </trkpt>
      <trkpt lat="50.51434" lon="3.08832">
        <ele>42.09</ele>
        <time>2025-05-17T20:01:18.413Z</time>
      </trkpt>
      <trkpt lat="50.51415" lon="3.08826">
        <ele>42.46</ele>
        <time>2025-05-17T20:01:19.340Z</time>
      </trkpt>
      <trkpt lat="50.51396" lon="3.08821">
        <ele>42.85</ele>
        <time>2025-05-17T20:01:20.271Z</time>
      </trkpt>
      <trkpt lat="50.51367" lon="3.08809">
        <ele>43.09</ele>
        <time>2025-05-17T20:01:21.207Z</time>
      </trkpt>
      <trkpt lat="50.51338" lon="3.08797">
        <ele>43.16</ele>
        <time>2025-05-17T20:01:22.148Z</time>
      </trkpt>
      <trkpt lat="50.51322" lon="3.08788">
        <ele>43.24</ele>
        <time>2025-05-17T20:01:23.092Z</time>
      </trkpt>
      <trkpt lat="50.51306" lon="3.08778">
        <ele>43.29</ele>
        <time>2025-05-17T20:01:24.039Z</time>
      </trkpt>
      <trkpt lat="50.51289" lon="3.08765">
        <ele>43.31</ele>
        <time>2025-05-17T20:01:24.989Z</time>
      </trkpt>
      <trkpt lat="50.51273" lon="3.08752">
        <ele>43.34</ele>
        <time>2025-05-17T20:01:25.942Z</time>
      </trkpt>
      <trkpt lat="50.51252" lon="3.08732">
        <ele>43.36</ele>
        <time>2025-05-17T20:01:26.899Z</time>
      </trkpt>
      <trkpt lat="50.51245" lon="3.08724">
        <ele>43.38</ele>
        <time>2025-05-17T20:01:27.857Z</time>
      </trkpt>
      <trkpt lat="50.51226" lon="3.08707">
        <ele>43.39</ele>
        <time>2025-05-17T20:01:28.819Z</time>
      </trkpt>
      <trkpt lat="50.51208" lon="3.08689">
        <ele>43.38</ele>
        <time>2025-05-17T20:01:29.784Z</time>
      </trkpt>
      <trkpt lat="50.5119" lon="3.08671">
        <ele>43.36</ele>
        <time>2025-05-17T20:01:30.753Z</time>
      </trkpt>
      <trkpt lat="50.51179" lon="3.0866">
        <ele>43.32</ele>
        <time>2025-05-17T20:01:31.724Z</time>
      </trkpt>
      <trkpt lat="50.51153" lon="3.08643">
        <ele>43.3</ele>
        <time>2025-05-17T20:01:32.700Z</time>
      </trkpt>
      <trkpt lat="50.51127" lon="3.08626">
        <ele>43.28</ele>
        <time>2025-05-17T20:01:33.681Z</time>
      </trkpt>
      <trkpt lat="50.51101" lon="3.08609">
        <ele>43.17</ele>
        <time>2025-05-17T20:01:34.666Z</time>
      </trkpt>
      <trkpt lat="50.51075" lon="3.08592">
        <ele>43.05</ele>
        <time>2025-05-17T20:01:35.656Z</time>
      </trkpt>
      <trkpt lat="50.51049" lon="3.08575">
        <ele>42.98</ele>
        <time>2025-05-17T20:01:36.651Z</time>
      </trkpt>
      <trkpt lat="50.51023" lon="3.08559">
        <ele>42.91</ele>
        <time>2025-05-17T20:01:37.651Z</time>
      </trkpt>
      <trkpt lat="50.50997" lon="3.08542">
        <ele>42.79</ele>
        <time>2025-05-17T20:01:38.655Z</time>
      </trkpt>
      <trkpt lat="50.50971" lon="3.08525">
        <ele>42.58</ele>
        <time>2025-05-17T20:01:39.664Z</time>
      </trkpt>
      <trkpt lat="50.50945" lon="3.08518">
        <ele>42.39</ele>
        <time>2025-05-17T20:01:40.677Z</time>
      </trkpt>
      <trkpt lat="50.50927" lon="3.08525">
        <ele>42.18</ele>
        <time>2025-05-17T20:01:41.694Z</time>
      </trkpt>
      <trkpt lat="50.50909" lon="3.08531">
        <ele>42.01</ele>
        <time>2025-05-17T20:01:42.714Z</time>
      </trkpt>
      <trkpt lat="50.50883" lon="3.0854">
        <ele>41.83</ele>
        <time>2025-05-17T20:01:43.738Z</time>
      </trkpt>
      <trkpt lat="50.50854" lon="3.08534">
        <ele>41.64</ele>
        <time>2025-05-17T20:01:44.767Z</time>
      </trkpt>
      <trkpt lat="50.50825" lon="3.08529">
        <ele>41.41</ele>
        <time>2025-05-17T20:01:45.801Z</time>
      </trkpt>
      <trkpt lat="50.50806" lon="3.08537">
        <ele>41.2</ele>
        <time>2025-05-17T20:01:46.838Z</time>
      </trkpt>
      <trkpt lat="50.50786" lon="3.08544">
        <ele>41</ele>
        <time>2025-05-17T20:01:47.879Z</time>
      </trkpt>
      <trkpt lat="50.50771" lon="3.08546">
        <ele>40.84</ele>
        <time>2025-05-17T20:01:48.922Z</time>
      </trkpt>
      <trkpt lat="50.50754" lon="3.08543">
        <ele>40.7</ele>
        <time>2025-05-17T20:01:49.968Z</time>
      </trkpt>
      <trkpt lat="50.50737" lon="3.0854">
        <ele>40.56</ele>
        <time>2025-05-17T20:01:51.017Z</time>
      </trkpt>
      <trkpt lat="50.5072" lon="3.0853">
        <ele>40.42</ele>
        <time>2025-05-17T20:01:52.069Z</time>
      </trkpt>
      <trkpt lat="50.50703" lon="3.08521">
        <ele>40.29</ele>
        <time>2025-05-17T20:01:53.124Z</time>
      </trkpt>
      <trkpt lat="50.50689" lon="3.08504">
        <ele>40.16</ele>
        <time>2025-05-17T20:01:54.182Z</time>
      </trkpt>
      <trkpt lat="50.50675" lon="3.08488">
        <ele>40.04</ele>
        <time>2025-05-17T20:01:55.243Z</time>
      </trkpt>
      <trkpt lat="50.50668" lon="3.08478">
        <ele>39.95</ele>
        <time>2025-05-17T20:01:56.305Z</time>
      </trkpt>
      <trkpt lat="50.50658" lon="3.08452">
        <ele>39.9</ele>
        <time>2025-05-17T20:01:57.371Z</time>
      </trkpt>
      <trkpt lat="50.50653" lon="3.08426">
        <ele>39.85</ele>
        <time>2025-05-17T20:01:58.440Z</time>
      </trkpt>
      <trkpt lat="50.50649" lon="3.084">
        <ele>39.83</ele>
        <time>2025-05-17T20:01:59.511Z</time>
      </trkpt>
      <trkpt lat="50.5064" lon="3.08379">
        <ele>39.79</ele>
        <time>2025-05-17T20:02:00.585Z</time>
      </trkpt>
      <trkpt lat="50.5062" lon="3.08356">
        <ele>39.7</ele>
        <time>2025-05-17T20:02:01.663Z</time>
      </trkpt>
      <trkpt lat="50.506" lon="3.08333">
        <ele>39.66</ele>
        <time>2025-05-17T20:02:02.746Z</time>
      </trkpt>
      <trkpt lat="50.50579" lon="3.0831">
        <ele>39.67</ele>
        <time>2025-05-17T20:02:03.833Z</time>
      </trkpt>
      <trkpt lat="50.50559" lon="3.08287">
        <ele>39.68</ele>
        <time>2025-05-17T20:02:04.924Z</time>
      </trkpt>
      <trkpt lat="50.50544" lon="3.08302">
        <ele>39.73</ele>
        <time>2025-05-17T20:02:06.018Z</time>
      </trkpt>
      <trkpt lat="50.50533" lon="3.08308">
        <ele>39.79</ele>
        <time>2025-05-17T20:02:07.114Z</time>
      </trkpt>
      <trkpt lat="50.50507" lon="3.08325">
        <ele>39.86</ele>
        <time>2025-05-17T20:02:08.215Z</time>
      </trkpt>
      <trkpt lat="50.50482" lon="3.08342">
        <ele>39.94</ele>
        <time>2025-05-17T20:02:09.320Z</time>
      </trkpt>
      <trkpt lat="50.50457" lon="3.0836">
        <ele>40.04</ele>
        <time>2025-05-17T20:02:10.430Z</time>
      </trkpt>
      <trkpt lat="50.50432" lon="3.08377">
        <ele>40.15</ele>
        <time>2025-05-17T20:02:11.544Z</time>
      </trkpt>
      <trkpt lat="50.50408" lon="3.08394">
        <ele>40.26</ele>
        <time>2025-05-17T20:02:12.663Z</time>
      </trkpt>
      <trkpt lat="50.50384" lon="3.08411">
        <ele>40.36</ele>
        <time>2025-05-17T20:02:13.786Z</time>
      </trkpt>
      <trkpt lat="50.50359" lon="3.08428">
        <ele>40.47</ele>
        <time>2025-05-17T20:02:14.914Z</time>
      </trkpt>
      <trkpt lat="50.50334" lon="3.08448">
        <ele>40.58</ele>
        <time>2025-05-17T20:02:16.047Z</time>
      </trkpt>
      <trkpt lat="50.50309" lon="3.08468">
        <ele>40.69</ele>
        <time>2025-05-17T20:02:17.184Z</time>
      </trkpt>
      <trkpt lat="50.50284" lon="3.08488">
        <ele>40.81</ele>
        <time>2025-05-17T20:02:18.326Z</time>
      </trkpt>
      <trkpt lat="50.50267" lon="3.08512">
        <ele>40.95</ele>
        <time>2025-05-17T20:02:19.472Z</time>
      </trkpt>
      <trkpt lat="50.50254" lon="3.08544">
        <ele>41.15</ele>
        <time>2025-05-17T20:02:20.622Z</time>
      </trkpt>
      <trkpt lat="50.50235" lon="3.08576">
        <ele>41.33</ele>
        <time>2025-05-17T20:02:21.777Z</time>
      </trkpt>
      <trkpt lat="50.50215" lon="3.08609">
        <ele>41.46</ele>
        <time>2025-05-17T20:02:22.936Z</time>
      </trkpt>
      <trkpt lat="50.50194" lon="3.08636">
        <ele>41.55</ele>
        <time>2025-05-17T20:02:24.100Z</time>
      </trkpt>
      <trkpt lat="50.50175" lon="3.08658">
        <ele>41.68</ele>
        <time>2025-05-17T20:02:25.268Z</time>
      </trkpt>
      <trkpt lat="50.50155" lon="3.08679">
        <ele>41.77</ele>
        <time>2025-05-17T20:02:26.440Z</time>
      </trkpt>
      <trkpt lat="50.50136" lon="3.08701">
        <ele>41.92</ele>
        <time>2025-05-17T20:02:27.616Z</time>
      </trkpt>
      <trkpt lat="50.50117" lon="3.08722">
        <ele>42.04</ele>
        <time>2025-05-17T20:02:28.796Z</time>
      </trkpt>
      <trkpt lat="50.50095" lon="3.08746">
        <ele>42.21</ele>
        <time>2025-05-17T20:02:29.980Z</time>
      </trkpt>
      <trkpt lat="50.50073" lon="3.0877">
        <ele>42.41</ele>
        <time>2025-05-17T20:02:31.169Z</time>
      </trkpt>
      <trkpt lat="50.50051" lon="3.08794">
        <ele>42.59</ele>
        <time>2025-05-17T20:02:32.362Z</time>
      </trkpt>
      <trkpt lat="50.5005" lon="3.08795">
        <ele>42.78</ele>
        <time>2025-05-17T20:02:33.556Z</time>
      </trkpt>
      <trkpt lat="50.50028" lon="3.08823">
        <ele>43.02</ele>
        <time>2025-05-17T20:02:34.754Z</time>
      </trkpt>
      <trkpt lat="50.50006" lon="3.0885">
        <ele>43.23</ele>
        <time>2025-05-17T20:02:35.957Z</time>
      </trkpt>
      <trkpt lat="50.49984" lon="3.08878">
        <ele>43.45</ele>
        <time>2025-05-17T20:02:37.165Z</time>
      </trkpt>
      <trkpt lat="50.49962" lon="3.08906">
        <ele>43.69</ele>
        <time>2025-05-17T20:02:38.378Z</time>
      </trkpt>
      <trkpt lat="50.4994" lon="3.08933">
        <ele>43.89</ele>
        <time>2025-05-17T20:02:39.595Z</time>
      </trkpt>
      <trkpt lat="50.49918" lon="3.08961">
        <ele>44.16</ele>
        <time>2025-05-17T20:02:40.817Z</time>
      </trkpt>
      <trkpt lat="50.49896" lon="3.08988">
        <ele>44.52</ele>
        <time>2025-05-17T20:02:42.044Z</time>
      </trkpt>
      <trkpt lat="50.49878" lon="3.09011">
        <ele>44.8</ele>
        <time>2025-05-17T20:02:43.275Z</time>
      </trkpt>
      <trkpt lat="50.49859" lon="3.09033">
        <ele>45.09</ele>
        <time>2025-05-17T20:02:44.510Z</time>
      </trkpt>
      <trkpt lat="50.49842" lon="3.09055">
        <ele>45.41</ele>
        <time>2025-05-17T20:02:45.748Z</time>
      </trkpt>
      <trkpt lat="50.49825" lon="3.09081">
        <ele>45.78</ele>
        <time>2025-05-17T20:02:46.990Z</time>
      </trkpt>
      <trkpt lat="50.49808" lon="3.09108">
        <ele>46.19</ele>
        <time>2025-05-17T20:02:48.236Z</time>
      </trkpt>
      <trkpt lat="50.49791" lon="3.09134">
        <ele>46.56</ele>
        <time>2025-05-17T20:02:49.486Z</time>
      </trkpt>
      <trkpt lat="50.49771" lon="3.09172">
        <ele>46.94</ele>
        <time>2025-05-17T20:02:50.742Z</time>
      </trkpt>
      <trkpt lat="50.49752" lon="3.09211">
        <ele>47.42</ele>
        <time>2025-05-17T20:02:52.003Z</time>
      </trkpt>
      <trkpt lat="50.49733" lon="3.09249">
        <ele>47.9</ele>
        <time>2025-05-17T20:02:53.269Z</time>
      </trkpt>
      <trkpt lat="50.49713" lon="3.09287">
        <ele>48.3</ele>
        <time>2025-05-17T20:02:54.540Z</time>
      </trkpt>
      <trkpt lat="50.49703" lon="3.09304">
        <ele>48.73</ele>
        <time>2025-05-17T20:02:55.814Z</time>
      </trkpt>
      <trkpt lat="50.49681" lon="3.0932">
        <ele>49.19</ele>
        <time>2025-05-17T20:02:57.092Z</time>
      </trkpt>
      <trkpt lat="50.4966" lon="3.09336">
        <ele>49.64</ele>
        <time>2025-05-17T20:02:58.374Z</time>
      </trkpt>
      <trkpt lat="50.49638" lon="3.09352">
        <ele>50.05</ele>
        <time>2025-05-17T20:02:59.660Z</time>
      </trkpt>
      <trkpt lat="50.49617" lon="3.09368">
        <ele>50.46</ele>
        <time>2025-05-17T20:03:00.950Z</time>
      </trkpt>
      <trkpt lat="50.49595" lon="3.09376">
        <ele>50.85</ele>
        <time>2025-05-17T20:03:02.244Z</time>
      </trkpt>
      <trkpt lat="50.49572" lon="3.09384">
        <ele>51.26</ele>
        <time>2025-05-17T20:03:03.541Z</time>
      </trkpt>
      <trkpt lat="50.4955" lon="3.09392">
        <ele>51.72</ele>
        <time>2025-05-17T20:03:04.842Z</time>
      </trkpt>
      <trkpt lat="50.49522" lon="3.09405">
        <ele>52.17</ele>
        <time>2025-05-17T20:03:06.148Z</time>
      </trkpt>
      <trkpt lat="50.49494" lon="3.09419">
        <ele>52.6</ele>
        <time>2025-05-17T20:03:07.459Z</time>
      </trkpt>
      <trkpt lat="50.49467" lon="3.09433">
        <ele>53.03</ele>
        <time>2025-05-17T20:03:08.775Z</time>
      </trkpt>
      <trkpt lat="50.49438" lon="3.09438">
        <ele>53.45</ele>
        <time>2025-05-17T20:03:10.096Z</time>
      </trkpt>
      <trkpt lat="50.49409" lon="3.09443">
        <ele>53.89</ele>
        <time>2025-05-17T20:03:11.422Z</time>
      </trkpt>
      <trkpt lat="50.49381" lon="3.09448">
        <ele>54.33</ele>
        <time>2025-05-17T20:03:12.753Z</time>
      </trkpt>
      <trkpt lat="50.49358" lon="3.09457">
        <ele>54.72</ele>
        <time>2025-05-17T20:03:14.087Z</time>
      </trkpt>
      <trkpt lat="50.49336" lon="3.09467">
        <ele>55.16</ele>
        <time>2025-05-17T20:03:15.425Z</time>
      </trkpt>
      <trkpt lat="50.49326" lon="3.09425">
        <ele>55.55</ele>
        <time>2025-05-17T20:03:16.768Z</time>
      </trkpt>
      <trkpt lat="50.49317" lon="3.09383">
        <ele>55.93</ele>
        <time>2025-05-17T20:03:18.116Z</time>
      </trkpt>
      <trkpt lat="50.49308" lon="3.09341">
        <ele>56.3</ele>
        <time>2025-05-17T20:03:19.469Z</time>
      </trkpt>
      <trkpt lat="50.49298" lon="3.09299">
        <ele>56.67</ele>
        <time>2025-05-17T20:03:20.826Z</time>
      </trkpt>
      <trkpt lat="50.49289" lon="3.09257">
        <ele>56.95</ele>
        <time>2025-05-17T20:03:22.188Z</time>
      </trkpt>
      <trkpt lat="50.4928" lon="3.09216">
        <ele>57.16</ele>
        <time>2025-05-17T20:03:23.555Z</time>
      </trkpt>
      <trkpt lat="50.49276" lon="3.09178">
        <ele>57.3</ele>
        <time>2025-05-17T20:03:24.926Z</time>
      </trkpt>
      <trkpt lat="50.49271" lon="3.09141">
        <ele>57.46</ele>
        <time>2025-05-17T20:03:26.301Z</time>
      </trkpt>
      <trkpt lat="50.49261" lon="3.09128">
        <ele>57.59</ele>
        <time>2025-05-17T20:03:27.678Z</time>
      </trkpt>
      <trkpt lat="50.49238" lon="3.09109">
        <ele>57.72</ele>
        <time>2025-05-17T20:03:29.060Z</time>
      </trkpt>
      <trkpt lat="50.49215" lon="3.09091">
        <ele>57.79</ele>
        <time>2025-05-17T20:03:30.446Z</time>
      </trkpt>
      <trkpt lat="50.49192" lon="3.09072">
        <ele>57.79</ele>
        <time>2025-05-17T20:03:31.836Z</time>
      </trkpt>
      <trkpt lat="50.49186" lon="3.09063">
        <ele>57.74</ele>
        <time>2025-05-17T20:03:33.228Z</time>
      </trkpt>
      <trkpt lat="50.49181" lon="3.09055">
        <ele>57.65</ele>
        <time>2025-05-17T20:03:34.621Z</time>
      </trkpt>
      <trkpt lat="50.49183" lon="3.09033">
        <ele>57.5</ele>
        <time>2025-05-17T20:03:36.016Z</time>
      </trkpt>
      <trkpt lat="50.49196" lon="3.0899">
        <ele>57.36</ele>
        <time>2025-05-17T20:03:37.416Z</time>
      </trkpt>
      <trkpt lat="50.49209" lon="3.08946">
        <ele>57.17</ele>
        <time>2025-05-17T20:03:38.822Z</time>
      </trkpt>
      <trkpt lat="50.49222" lon="3.08903">
        <ele>56.94</ele>
        <time>2025-05-17T20:03:40.233Z</time>
      </trkpt>
      <trkpt lat="50.49225" lon="3.08869">
        <ele>56.69</ele>
        <time>2025-05-17T20:03:41.647Z</time>
      </trkpt>
      <trkpt lat="50.49228" lon="3.08835">
        <ele>56.37</ele>
        <time>2025-05-17T20:03:43.065Z</time>
      </trkpt>
      <trkpt lat="50.49231" lon="3.08802">
        <ele>56</ele>
        <time>2025-05-17T20:03:44.487Z</time>
      </trkpt>
      <trkpt lat="50.49234" lon="3.08777">
        <ele>55.57</ele>
        <time>2025-05-17T20:03:45.911Z</time>
      </trkpt>
      <trkpt lat="50.49237" lon="3.08752">
        <ele>55.1</ele>
        <time>2025-05-17T20:03:47.338Z</time>
      </trkpt>
      <trkpt lat="50.49237" lon="3.08723">
        <ele>54.61</ele>
        <time>2025-05-17T20:03:48.768Z</time>
      </trkpt>
      <trkpt lat="50.49237" lon="3.08694">
        <ele>54.11</ele>
        <time>2025-05-17T20:03:50.201Z</time>
      </trkpt>
      <trkpt lat="50.49233" lon="3.0867">
        <ele>53.61</ele>
        <time>2025-05-17T20:03:51.637Z</time>
      </trkpt>
      <trkpt lat="50.49228" lon="3.08645">
        <ele>53.12</ele>
        <time>2025-05-17T20:03:53.076Z</time>
      </trkpt>
      <trkpt lat="50.4922" lon="3.08619">
        <ele>52.63</ele>
        <time>2025-05-17T20:03:54.518Z</time>
      </trkpt>
      <trkpt lat="50.49211" lon="3.08594">
        <ele>52.12</ele>
        <time>2025-05-17T20:03:55.963Z</time>
      </trkpt>
      <trkpt lat="50.49198" lon="3.08574">
        <ele>51.64</ele>
        <time>2025-05-17T20:03:57.411Z</time>
      </trkpt>
      <trkpt lat="50.49174" lon="3.08546">
        <ele>51.15</ele>
        <time>2025-05-17T20:03:58.864Z</time>
      </trkpt>
      <trkpt lat="50.49149" lon="3.08518">
        <ele>50.67</ele>
        <time>2025-05-17T20:04:00.322Z</time>
      </trkpt>
      <trkpt lat="50.49125" lon="3.0849">
        <ele>50.26</ele>
        <time>2025-05-17T20:04:01.785Z</time>
      </trkpt>
      <trkpt lat="50.491" lon="3.08462">
        <ele>49.93</ele>
        <time>2025-05-17T20:04:03.253Z</time>
      </trkpt>
      <trkpt lat="50.49076" lon="3.08435">
        <ele>49.66</ele>
        <time>2025-05-17T20:04:04.726Z</time>
      </trkpt>
      <trkpt lat="50.4907" lon="3.08422">
        <ele>49.41</ele>
        <time>2025-05-17T20:04:06.201Z</time>
      </trkpt>
      <trkpt lat="50.4906" lon="3.08389">
        <ele>49.19</ele>
        <time>2025-05-17T20:04:07.680Z</time>
      </trkpt>
      <trkpt lat="50.4905" lon="3.08355">
        <ele>48.99</ele>
        <time>2025-05-17T20:04:09.163Z</time>
      </trkpt>
      <trkpt lat="50.49033" lon="3.08372">
        <ele>48.92</ele>
        <time>2025-05-17T20:04:10.649Z</time>
      </trkpt>
      <trkpt lat="50.49016" lon="3.08375">
        <ele>48.9</ele>
        <time>2025-05-17T20:04:12.138Z</time>
      </trkpt>
      <trkpt lat="50.48998" lon="3.08349">
        <ele>48.89</ele>
        <time>2025-05-17T20:04:13.631Z</time>
      </trkpt>
      <trkpt lat="50.4898" lon="3.08323">
        <ele>48.99</ele>
        <time>2025-05-17T20:04:15.128Z</time>
      </trkpt>
      <trkpt lat="50.48956" lon="3.08302">
        <ele>49.19</ele>
        <time>2025-05-17T20:04:16.630Z</time>
      </trkpt>
      <trkpt lat="50.48933" lon="3.08328">
        <ele>49.44</ele>
        <time>2025-05-17T20:04:18.137Z</time>
      </trkpt>
      <trkpt lat="50.48911" lon="3.08354">
        <ele>49.8</ele>
        <time>2025-05-17T20:04:19.648Z</time>
      </trkpt>
      <trkpt lat="50.48888" lon="3.08381">
        <ele>50.28</ele>
        <time>2025-05-17T20:04:21.164Z</time>
      </trkpt>
      <trkpt lat="50.48866" lon="3.08407">
        <ele>50.76</ele>
        <time>2025-05-17T20:04:22.685Z</time>
      </trkpt>
      <trkpt lat="50.48842" lon="3.08437">
        <ele>51.31</ele>
        <time>2025-05-17T20:04:24.211Z</time>
      </trkpt>
      <trkpt lat="50.48819" lon="3.08467">
        <ele>51.95</ele>
        <time>2025-05-17T20:04:25.742Z</time>
      </trkpt>
      <trkpt lat="50.48796" lon="3.08497">
        <ele>52.67</ele>
        <time>2025-05-17T20:04:27.278Z</time>
      </trkpt>
      <trkpt lat="50.48772" lon="3.08527">
        <ele>53.49</ele>
        <time>2025-05-17T20:04:28.819Z</time>
      </trkpt>
      <trkpt lat="50.48749" lon="3.08557">
        <ele>54.4</ele>
        <time>2025-05-17T20:04:30.365Z</time>
      </trkpt>
      <trkpt lat="50.48725" lon="3.08587">
        <ele>55.37</ele>
        <time>2025-05-17T20:04:31.916Z</time>
      </trkpt>
      <trkpt lat="50.48702" lon="3.08617">
        <ele>56.38</ele>
        <time>2025-05-17T20:04:33.472Z</time>
      </trkpt>
      <trkpt lat="50.48679" lon="3.08647">
        <ele>57.54</ele>
        <time>2025-05-17T20:04:35.033Z</time>
      </trkpt>
      <trkpt lat="50.48656" lon="3.08677">
        <ele>58.75</ele>
        <time>2025-05-17T20:04:36.600Z</time>
      </trkpt>
      <trkpt lat="50.48637" lon="3.08705">
        <ele>60.02</ele>
        <time>2025-05-17T20:04:38.171Z</time>
      </trkpt>
      <trkpt lat="50.48619" lon="3.08733">
        <ele>61.31</ele>
        <time>2025-05-17T20:04:39.746Z</time>
      </trkpt>
      <trkpt lat="50.48601" lon="3.08761">
        <ele>62.66</ele>
        <time>2025-05-17T20:04:41.325Z</time>
      </trkpt>
      <trkpt lat="50.48583" lon="3.08789">
        <ele>64</ele>
        <time>2025-05-17T20:04:42.909Z</time>
      </trkpt>
      <trkpt lat="50.48565" lon="3.08817">
        <ele>65.36</ele>
        <time>2025-05-17T20:04:44.497Z</time>
      </trkpt>
      <trkpt lat="50.4854" lon="3.0884">
        <ele>66.75</ele>
        <time>2025-05-17T20:04:46.090Z</time>
      </trkpt>
      <trkpt lat="50.48531" lon="3.08838">
        <ele>68.14</ele>
        <time>2025-05-17T20:04:47.684Z</time>
      </trkpt>
      <trkpt lat="50.48509" lon="3.08824">
        <ele>69.63</ele>
        <time>2025-05-17T20:04:49.282Z</time>
      </trkpt>
      <trkpt lat="50.48486" lon="3.08809">
        <ele>71.1</ele>
        <time>2025-05-17T20:04:50.884Z</time>
      </trkpt>
      <trkpt lat="50.48463" lon="3.08795">
        <ele>72.59</ele>
        <time>2025-05-17T20:04:52.491Z</time>
      </trkpt>
      <trkpt lat="50.48441" lon="3.0878">
        <ele>74.1</ele>
        <time>2025-05-17T20:04:54.102Z</time>
      </trkpt>
      <trkpt lat="50.48422" lon="3.08772">
        <ele>75.6</ele>
        <time>2025-05-17T20:04:55.716Z</time>
      </trkpt>
      <trkpt lat="50.48402" lon="3.08763">
        <ele>77.02</ele>
        <time>2025-05-17T20:04:57.333Z</time>
      </trkpt>
      <trkpt lat="50.48389" lon="3.08759">
        <ele>78.4</ele>
        <time>2025-05-17T20:04:58.953Z</time>
      </trkpt>
      <trkpt lat="50.48366" lon="3.08767">
        <ele>79.84</ele>
        <time>2025-05-17T20:05:00.577Z</time>
      </trkpt>
      <trkpt lat="50.48372" lon="3.08787">
        <ele>81.26</ele>
        <time>2025-05-17T20:05:02.203Z</time>
      </trkpt>
      <trkpt lat="50.48379" lon="3.08825">
        <ele>82.65</ele>
        <time>2025-05-17T20:05:03.833Z</time>
      </trkpt>
      <trkpt lat="50.48374" lon="3.08866">
        <ele>84.03</ele>
        <time>2025-05-17T20:05:05.468Z</time>
      </trkpt>
      <trkpt lat="50.48362" lon="3.08903">
        <ele>85.34</ele>
        <time>2025-05-17T20:05:07.107Z</time>
      </trkpt>
      <trkpt lat="50.48351" lon="3.08941">
        <ele>86.62</ele>
        <time>2025-05-17T20:05:08.751Z</time>
      </trkpt>
      <trkpt lat="50.48339" lon="3.08978">
        <ele>87.89</ele>
        <time>2025-05-17T20:05:10.399Z</time>
      </trkpt>
      <trkpt lat="50.48327" lon="3.09015">
        <ele>89.09</ele>
        <time>2025-05-17T20:05:12.052Z</time>
      </trkpt>
      <trkpt lat="50.48315" lon="3.09052">
        <ele>90.17</ele>
        <time>2025-05-17T20:05:13.709Z</time>
      </trkpt>
      <trkpt lat="50.48305" lon="3.09084">
        <ele>91.19</ele>
        <time>2025-05-17T20:05:15.370Z</time>
      </trkpt>
      <trkpt lat="50.48295" lon="3.09115">
        <ele>92.15</ele>
        <time>2025-05-17T20:05:17.034Z</time>
      </trkpt>
      <trkpt lat="50.48282" lon="3.09139">
        <ele>93.08</ele>
        <time>2025-05-17T20:05:18.702Z</time>
      </trkpt>
      <trkpt lat="50.4826" lon="3.09167">
        <ele>93.92</ele>
        <time>2025-05-17T20:05:20.375Z</time>
      </trkpt>
      <trkpt lat="50.48238" lon="3.09195">
        <ele>94.68</ele>
        <time>2025-05-17T20:05:22.052Z</time>
      </trkpt>
      <trkpt lat="50.48216" lon="3.09224">
        <ele>95.35</ele>
        <time>2025-05-17T20:05:23.734Z</time>
      </trkpt>
      <trkpt lat="50.48194" lon="3.09252">
        <ele>95.94</ele>
        <time>2025-05-17T20:05:25.421Z</time>
      </trkpt>
      <trkpt lat="50.48173" lon="3.0928">
        <ele>96.46</ele>
        <time>2025-05-17T20:05:27.113Z</time>
      </trkpt>
      <trkpt lat="50.48157" lon="3.09303">
        <ele>96.92</ele>
        <time>2025-05-17T20:05:28.808Z</time>
      </trkpt>
      <trkpt lat="50.48141" lon="3.09325">
        <ele>97.33</ele>
        <time>2025-05-17T20:05:30.507Z</time>
      </trkpt>
      <trkpt lat="50.48141" lon="3.09325">
        <ele>97.67</ele>
        <time>2025-05-17T20:05:32.206Z</time>
      </trkpt>
      <trkpt lat="50.48129" lon="3.0935">
        <ele>97.95</ele>
        <time>2025-05-17T20:05:33.908Z</time>
      </trkpt>
      <trkpt lat="50.48117" lon="3.09375">
        <ele>98.12</ele>
        <time>2025-05-17T20:05:35.613Z</time>
      </trkpt>
      <trkpt lat="50.4811" lon="3.09398">
        <ele>98.25</ele>
        <time>2025-05-17T20:05:37.321Z</time>
      </trkpt>
      <trkpt lat="50.48104" lon="3.09422">
        <ele>98.32</ele>
        <time>2025-05-17T20:05:39.032Z</time>
      </trkpt>
      <trkpt lat="50.48099" lon="3.09455">
        <ele>98.4</ele>
        <time>2025-05-17T20:05:40.747Z</time>
      </trkpt>
      <trkpt lat="50.48093" lon="3.09488">
        <ele>98.42</ele>
        <time>2025-05-17T20:05:42.465Z</time>
      </trkpt>
      <trkpt lat="50.4809" lon="3.09527">
        <ele>98.47</ele>
        <time>2025-05-17T20:05:44.188Z</time>
      </trkpt>
      <trkpt lat="50.48086" lon="3.09566">
        <ele>98.46</ele>
        <time>2025-05-17T20:05:45.915Z</time>
      </trkpt>
      <trkpt lat="50.48083" lon="3.09604">
        <ele>98.39</ele>
        <time>2025-05-17T20:05:47.646Z</time>
      </trkpt>
      <trkpt lat="50.4808" lon="3.09639">
        <ele>98.35</ele>
        <time>2025-05-17T20:05:49.381Z</time>
      </trkpt>
      <trkpt lat="50.48076" lon="3.09679">
        <ele>98.22</ele>
        <time>2025-05-17T20:05:51.120Z</time>
      </trkpt>
      <trkpt lat="50.48071" lon="3.09714">
        <ele>98.05</ele>
        <time>2025-05-17T20:05:52.863Z</time>
      </trkpt>
      <trkpt lat="50.48065" lon="3.09748">
        <ele>97.8</ele>
        <time>2025-05-17T20:05:54.610Z</time>
      </trkpt>
      <trkpt lat="50.48065" lon="3.09748">
        <ele>97.55</ele>
        <time>2025-05-17T20:05:56.357Z</time>
      </trkpt>
      <trkpt lat="50.48058" lon="3.09786">
        <ele>97.25</ele>
        <time>2025-05-17T20:05:58.108Z</time>
      </trkpt>
      <trkpt lat="50.4805" lon="3.09824">
        <ele>96.93</ele>
        <time>2025-05-17T20:05:59.863Z</time>
      </trkpt>
      <trkpt lat="50.48042" lon="3.09862">
        <ele>96.54</ele>
        <time>2025-05-17T20:06:01.622Z</time>
      </trkpt>
      <trkpt lat="50.48034" lon="3.09899">
        <ele>96.14</ele>
        <time>2025-05-17T20:06:03.386Z</time>
      </trkpt>
      <trkpt lat="50.48027" lon="3.09937">
        <ele>95.7</ele>
        <time>2025-05-17T20:06:05.154Z</time>
      </trkpt>
      <trkpt lat="50.4802" lon="3.09959">
        <ele>95.25</ele>
        <time>2025-05-17T20:06:06.924Z</time>
      </trkpt>
      <trkpt lat="50.48014" lon="3.09982">
        <ele>94.75</ele>
        <time>2025-05-17T20:06:08.697Z</time>
      </trkpt>
      <trkpt lat="50.48012" lon="3.0999">
        <ele>94.25</ele>
        <time>2025-05-17T20:06:10.471Z</time>
      </trkpt>
      <trkpt lat="50.4801" lon="3.09997">
        <ele>93.72</ele>
        <time>2025-05-17T20:06:12.246Z</time>
      </trkpt>
      <trkpt lat="50.48004" lon="3.10031">
        <ele>93.15</ele>
        <time>2025-05-17T20:06:14.025Z</time>
      </trkpt>
      <trkpt lat="50.47999" lon="3.10066">
        <ele>92.53</ele>
        <time>2025-05-17T20:06:15.807Z</time>
      </trkpt>
      <trkpt lat="50.47995" lon="3.10096">
        <ele>91.92</ele>
        <time>2025-05-17T20:06:17.593Z</time>
      </trkpt>
      <trkpt lat="50.47984" lon="3.10115">
        <ele>91.27</ele>
        <time>2025-05-17T20:06:19.382Z</time>
      </trkpt>
      <trkpt lat="50.47963" lon="3.10132">
        <ele>90.61</ele>
        <time>2025-05-17T20:06:21.174Z</time>
      </trkpt>
      <trkpt lat="50.47943" lon="3.10149">
        <ele>89.96</ele>
        <time>2025-05-17T20:06:22.970Z</time>
      </trkpt>
      <trkpt lat="50.47941" lon="3.10169">
        <ele>89.26</ele>
        <time>2025-05-17T20:06:24.768Z</time>
      </trkpt>
      <trkpt lat="50.47948" lon="3.10214">
        <ele>88.49</ele>
        <time>2025-05-17T20:06:26.571Z</time>
      </trkpt>
      <trkpt lat="50.47955" lon="3.1025">
        <ele>87.63</ele>
        <time>2025-05-17T20:06:28.378Z</time>
      </trkpt>
      <trkpt lat="50.47956" lon="3.10259">
        <ele>86.84</ele>
        <time>2025-05-17T20:06:30.186Z</time>
      </trkpt>
      <trkpt lat="50.4796" lon="3.10304">
        <ele>85.93</ele>
        <time>2025-05-17T20:06:31.999Z</time>
      </trkpt>
      <trkpt lat="50.47955" lon="3.10345">
        <ele>85.07</ele>
        <time>2025-05-17T20:06:33.817Z</time>
      </trkpt>
      <trkpt lat="50.47949" lon="3.10387">
        <ele>84.16</ele>
        <time>2025-05-17T20:06:35.639Z</time>
      </trkpt>
      <trkpt lat="50.47943" lon="3.10428">
        <ele>83.28</ele>
        <time>2025-05-17T20:06:37.466Z</time>
      </trkpt>
      <trkpt lat="50.47941" lon="3.10445">
        <ele>82.42</ele>
        <time>2025-05-17T20:06:39.295Z</time>
      </trkpt>
      <trkpt lat="50.47935" lon="3.10447">
        <ele>81.58</ele>
        <time>2025-05-17T20:06:41.125Z</time>
      </trkpt>
      <trkpt lat="50.4793" lon="3.10456">
        <ele>80.72</ele>
        <time>2025-05-17T20:06:42.956Z</time>
      </trkpt>
      <trkpt lat="50.4793" lon="3.10467">
        <ele>79.85</ele>
        <time>2025-05-17T20:06:44.788Z</time>
      </trkpt>
      <trkpt lat="50.47937" lon="3.10473">
        <ele>78.99</ele>
        <time>2025-05-17T20:06:46.621Z</time>
      </trkpt>
      <trkpt lat="50.47945" lon="3.10471">
        <ele>78.16</ele>
        <time>2025-05-17T20:06:48.456Z</time>
      </trkpt>
      <trkpt lat="50.47958" lon="3.10501">
        <ele>77.22</ele>
        <time>2025-05-17T20:06:50.295Z</time>
      </trkpt>
      <trkpt lat="50.47979" lon="3.10529">
        <ele>76.31</ele>
        <time>2025-05-17T20:06:52.138Z</time>
      </trkpt>
      <trkpt lat="50.48" lon="3.10557">
        <ele>75.48</ele>
        <time>2025-05-17T20:06:53.986Z</time>
      </trkpt>
      <trkpt lat="50.4802" lon="3.10585">
        <ele>74.66</ele>
        <time>2025-05-17T20:06:55.839Z</time>
      </trkpt>
      <trkpt lat="50.48033" lon="3.10606">
        <ele>73.85</ele>
        <time>2025-05-17T20:06:57.695Z</time>
      </trkpt>
      <trkpt lat="50.4805" lon="3.10644">
        <ele>73.04</ele>
        <time>2025-05-17T20:06:59.556Z</time>
      </trkpt>
      <trkpt lat="50.48067" lon="3.10683">
        <ele>72.23</ele>
        <time>2025-05-17T20:07:01.422Z</time>
      </trkpt>
      <trkpt lat="50.48083" lon="3.10721">
        <ele>71.51</ele>
        <time>2025-05-17T20:07:03.293Z</time>
      </trkpt>
      <trkpt lat="50.481" lon="3.10759">
        <ele>70.81</ele>
        <time>2025-05-17T20:07:05.169Z</time>
      </trkpt>
      <trkpt lat="50.48108" lon="3.10802">
        <ele>70.01</ele>
        <time>2025-05-17T20:07:07.049Z</time>
      </trkpt>
      <trkpt lat="50.48108" lon="3.10838">
        <ele>69.28</ele>
        <time>2025-05-17T20:07:08.933Z</time>
      </trkpt>
      <trkpt lat="50.48108" lon="3.10874">
        <ele>68.63</ele>
        <time>2025-05-17T20:07:10.821Z</time>
      </trkpt>
      <trkpt lat="50.48108" lon="3.10912">
        <ele>68.06</ele>
        <time>2025-05-17T20:07:12.713Z</time>
      </trkpt>
      <trkpt lat="50.48108" lon="3.1095">
        <ele>67.5</ele>
        <time>2025-05-17T20:07:14.609Z</time>
      </trkpt>
      <trkpt lat="50.48108" lon="3.10991">
        <ele>66.88</ele>
        <time>2025-05-17T20:07:16.510Z</time>
      </trkpt>
      <trkpt lat="50.48108" lon="3.11032">
        <ele>66.22</ele>
        <time>2025-05-17T20:07:18.415Z</time>
      </trkpt>
      <trkpt lat="50.48108" lon="3.11074">
        <ele>65.67</ele>
        <time>2025-05-17T20:07:20.325Z</time>
      </trkpt>
      <trkpt lat="50.48108" lon="3.11115">
        <ele>65.13</ele>
        <time>2025-05-17T20:07:22.239Z</time>
      </trkpt>
      <trkpt lat="50.4811" lon="3.11151">
        <ele>64.58</ele>
        <time>2025-05-17T20:07:24.157Z</time>
      </trkpt>
      <trkpt lat="50.48113" lon="3.11187">
        <ele>64.02</ele>
        <time>2025-05-17T20:07:26.079Z</time>
      </trkpt>
      <trkpt lat="50.48115" lon="3.11222">
        <ele>63.45</ele>
        <time>2025-05-17T20:07:28.004Z</time>
      </trkpt>
      <trkpt lat="50.48121" lon="3.11246">
        <ele>62.84</ele>
        <time>2025-05-17T20:07:29.932Z</time>
      </trkpt>
      <trkpt lat="50.48128" lon="3.11263">
        <ele>62.26</ele>
        <time>2025-05-17T20:07:31.862Z</time>
      </trkpt>
      <trkpt lat="50.48141" lon="3.1128">
        <ele>61.66</ele>
        <time>2025-05-17T20:07:33.795Z</time>
      </trkpt>
      <trkpt lat="50.4816" lon="3.11293">
        <ele>61.1</ele>
        <time>2025-05-17T20:07:35.732Z</time>
      </trkpt>
      <trkpt lat="50.48179" lon="3.11306">
        <ele>60.55</ele>
        <time>2025-05-17T20:07:37.672Z</time>
      </trkpt>
      <trkpt lat="50.48198" lon="3.11327">
        <ele>60.02</ele>
        <time>2025-05-17T20:07:39.616Z</time>
      </trkpt>
      <trkpt lat="50.48217" lon="3.11358">
        <ele>59.46</ele>
        <time>2025-05-17T20:07:41.565Z</time>
      </trkpt>
      <trkpt lat="50.48236" lon="3.11389">
        <ele>58.91</ele>
        <time>2025-05-17T20:07:43.518Z</time>
      </trkpt>
      <trkpt lat="50.48254" lon="3.11419">
        <ele>58.36</ele>
        <time>2025-05-17T20:07:45.476Z</time>
      </trkpt>
      <trkpt lat="50.4827" lon="3.1145">
        <ele>57.83</ele>
        <time>2025-05-17T20:07:47.438Z</time>
      </trkpt>
      <trkpt lat="50.48286" lon="3.11481">
        <ele>57.31</ele>
        <time>2025-05-17T20:07:49.404Z</time>
      </trkpt>
      <trkpt lat="50.48301" lon="3.11512">
        <ele>56.79</ele>
        <time>2025-05-17T20:07:51.374Z</time>
      </trkpt>
      <trkpt lat="50.48316" lon="3.11531">
        <ele>56.29</ele>
        <time>2025-05-17T20:07:53.348Z</time>
      </trkpt>
      <trkpt lat="50.48332" lon="3.1155">
        <ele>55.81</ele>
        <time>2025-05-17T20:07:55.325Z</time>
      </trkpt>
      <trkpt lat="50.48331" lon="3.1155">
        <ele>55.35</ele>
        <time>2025-05-17T20:07:57.302Z</time>
      </trkpt>
      <trkpt lat="50.48354" lon="3.1158">
        <ele>54.92</ele>
        <time>2025-05-17T20:07:59.284Z</time>
      </trkpt>
      <trkpt lat="50.48377" lon="3.11611">
        <ele>54.46</ele>
        <time>2025-05-17T20:08:01.271Z</time>
      </trkpt>
      <trkpt lat="50.484" lon="3.11641">
        <ele>54.02</ele>
        <time>2025-05-17T20:08:03.263Z</time>
      </trkpt>
      <trkpt lat="50.48421" lon="3.11675">
        <ele>53.61</ele>
        <time>2025-05-17T20:08:05.260Z</time>
      </trkpt>
      <trkpt lat="50.48441" lon="3.11709">
        <ele>53.27</ele>
        <time>2025-05-17T20:08:07.262Z</time>
      </trkpt>
      <trkpt lat="50.48454" lon="3.11746">
        <ele>52.91</ele>
        <time>2025-05-17T20:08:09.269Z</time>
      </trkpt>
      <trkpt lat="50.48462" lon="3.11777">
        <ele>52.58</ele>
        <time>2025-05-17T20:08:11.279Z</time>
      </trkpt>
      <trkpt lat="50.4847" lon="3.11809">
        <ele>52.29</ele>
        <time>2025-05-17T20:08:13.293Z</time>
      </trkpt>
      <trkpt lat="50.48477" lon="3.1184">
        <ele>52.04</ele>
        <time>2025-05-17T20:08:15.310Z</time>
      </trkpt>
      <trkpt lat="50.48494" lon="3.11879">
        <ele>51.81</ele>
        <time>2025-05-17T20:08:17.332Z</time>
      </trkpt>
      <trkpt lat="50.4851" lon="3.11919">
        <ele>51.64</ele>
        <time>2025-05-17T20:08:19.360Z</time>
      </trkpt>
      <trkpt lat="50.48527" lon="3.11958">
        <ele>51.51</ele>
        <time>2025-05-17T20:08:21.393Z</time>
      </trkpt>
      <trkpt lat="50.48543" lon="3.11998">
        <ele>51.43</ele>
        <time>2025-05-17T20:08:23.431Z</time>
      </trkpt>
      <trkpt lat="50.4856" lon="3.12037">
        <ele>51.37</ele>
        <time>2025-05-17T20:08:25.474Z</time>
      </trkpt>
      <trkpt lat="50.48576" lon="3.12076">
        <ele>51.34</ele>
        <time>2025-05-17T20:08:27.522Z</time>
      </trkpt>
      <trkpt lat="50.48589" lon="3.12102">
        <ele>51.36</ele>
        <time>2025-05-17T20:08:29.573Z</time>
      </trkpt>
      <trkpt lat="50.48602" lon="3.12128">
        <ele>51.44</ele>
        <time>2025-05-17T20:08:31.628Z</time>
      </trkpt>
      <trkpt lat="50.48577" lon="3.12153">
        <ele>51.63</ele>
        <time>2025-05-17T20:08:33.688Z</time>
      </trkpt>
      <trkpt lat="50.48553" lon="3.12179">
        <ele>51.76</ele>
        <time>2025-05-17T20:08:35.753Z</time>
      </trkpt>
      <trkpt lat="50.48522" lon="3.12182">
        <ele>51.98</ele>
        <time>2025-05-17T20:08:37.823Z</time>
      </trkpt>
      <trkpt lat="50.48491" lon="3.12186">
        <ele>52.27</ele>
        <time>2025-05-17T20:08:39.898Z</time>
      </trkpt>
      <trkpt lat="50.48461" lon="3.12189">
        <ele>52.58</ele>
        <time>2025-05-17T20:08:41.978Z</time>
      </trkpt>
      <trkpt lat="50.4843" lon="3.12192">
        <ele>52.96</ele>
        <time>2025-05-17T20:08:44.063Z</time>
      </trkpt>
      <trkpt lat="50.48417" lon="3.12203">
        <ele>53.34</ele>
        <time>2025-05-17T20:08:46.151Z</time>
      </trkpt>
      <trkpt lat="50.48397" lon="3.1223">
        <ele>53.74</ele>
        <time>2025-05-17T20:08:48.243Z</time>
      </trkpt>
      <trkpt lat="50.48377" lon="3.12256">
        <ele>54.22</ele>
        <time>2025-05-17T20:08:50.340Z</time>
      </trkpt>
      <trkpt lat="50.48357" lon="3.12283">
        <ele>54.74</ele>
        <time>2025-05-17T20:08:52.441Z</time>
      </trkpt>
      <trkpt lat="50.48337" lon="3.1231">
        <ele>55.26</ele>
        <time>2025-05-17T20:08:54.546Z</time>
      </trkpt>
      <trkpt lat="50.48317" lon="3.12337">
        <ele>55.8</ele>
        <time>2025-05-17T20:08:56.656Z</time>
      </trkpt>
      <trkpt lat="50.48297" lon="3.12364">
        <ele>56.39</ele>
        <time>2025-05-17T20:08:58.770Z</time>
      </trkpt>
      <trkpt lat="50.48278" lon="3.12372">
        <ele>57.02</ele>
        <time>2025-05-17T20:09:00.888Z</time>
      </trkpt>
      <trkpt lat="50.48259" lon="3.12381">
        <ele>57.66</ele>
        <time>2025-05-17T20:09:03.009Z</time>
      </trkpt>
      <trkpt lat="50.48235" lon="3.12385">
        <ele>58.29</ele>
        <time>2025-05-17T20:09:05.134Z</time>
      </trkpt>
      <trkpt lat="50.48211" lon="3.12389">
        <ele>58.92</ele>
        <time>2025-05-17T20:09:07.263Z</time>
      </trkpt>
      <trkpt lat="50.48182" lon="3.12396">
        <ele>59.57</ele>
        <time>2025-05-17T20:09:09.397Z</time>
      </trkpt>
      <trkpt lat="50.48153" lon="3.12402">
        <ele>60.25</ele>
        <time>2025-05-17T20:09:11.536Z</time>
      </trkpt>
      <trkpt lat="50.48124" lon="3.12409">
        <ele>60.91</ele>
        <time>2025-05-17T20:09:13.680Z</time>
      </trkpt>
      <trkpt lat="50.48097" lon="3.12415">
        <ele>61.58</ele>
        <time>2025-05-17T20:09:15.828Z</time>
      </trkpt>
      <trkpt lat="50.4807" lon="3.12421">
        <ele>62.21</ele>
        <time>2025-05-17T20:09:17.981Z</time>
      </trkpt>
      <trkpt lat="50.48043" lon="3.12427">
        <ele>62.85</ele>
        <time>2025-05-17T20:09:20.138Z</time>
      </trkpt>
      <trkpt lat="50.48016" lon="3.12433">
        <ele>63.47</ele>
        <time>2025-05-17T20:09:22.300Z</time>
      </trkpt>
      <trkpt lat="50.47989" lon="3.12439">
        <ele>64.11</ele>
        <time>2025-05-17T20:09:24.467Z</time>
      </trkpt>
      <trkpt lat="50.47962" lon="3.12445">
        <ele>64.72</ele>
        <time>2025-05-17T20:09:26.638Z</time>
      </trkpt>
      <trkpt lat="50.47934" lon="3.12455">
        <ele>65.3</ele>
        <time>2025-05-17T20:09:28.814Z</time>
      </trkpt>
      <trkpt lat="50.47906" lon="3.12464">
        <ele>65.81</ele>
        <time>2025-05-17T20:09:30.995Z</time>
      </trkpt>
      <trkpt lat="50.47877" lon="3.12474">
        <ele>66.28</ele>
        <time>2025-05-17T20:09:33.181Z</time>
      </trkpt>
      <trkpt lat="50.47849" lon="3.12484">
        <ele>66.72</ele>
        <time>2025-05-17T20:09:35.372Z</time>
      </trkpt>
      <trkpt lat="50.47837" lon="3.12453">
        <ele>67.19</ele>
        <time>2025-05-17T20:09:37.567Z</time>
      </trkpt>
      <trkpt lat="50.47824" lon="3.12422">
        <ele>67.62</ele>
        <time>2025-05-17T20:09:39.765Z</time>
      </trkpt>
      <trkpt lat="50.47812" lon="3.12392">
        <ele>68.02</ele>
        <time>2025-05-17T20:09:41.967Z</time>
      </trkpt>
      <trkpt lat="50.47801" lon="3.12359">
        <ele>68.4</ele>
        <time>2025-05-17T20:09:44.173Z</time>
      </trkpt>
      <trkpt lat="50.47791" lon="3.12327">
        <ele>68.76</ele>
        <time>2025-05-17T20:09:46.383Z</time>
      </trkpt>
      <trkpt lat="50.47783" lon="3.12283">
        <ele>69.12</ele>
        <time>2025-05-17T20:09:48.598Z</time>
      </trkpt>
      <trkpt lat="50.47776" lon="3.1224">
        <ele>69.37</ele>
        <time>2025-05-17T20:09:50.818Z</time>
      </trkpt>
      <trkpt lat="50.47768" lon="3.12196">
        <ele>69.63</ele>
        <time>2025-05-17T20:09:53.043Z</time>
      </trkpt>
      <trkpt lat="50.47761" lon="3.12152">
        <ele>69.78</ele>
        <time>2025-05-17T20:09:55.273Z</time>
      </trkpt>
      <trkpt lat="50.47753" lon="3.12108">
        <ele>69.89</ele>
        <time>2025-05-17T20:09:57.507Z</time>
      </trkpt>
      <trkpt lat="50.47746" lon="3.12065">
        <ele>69.97</ele>
        <time>2025-05-17T20:09:59.746Z</time>
      </trkpt>
      <trkpt lat="50.47742" lon="3.12034">
        <ele>70.03</ele>
        <time>2025-05-17T20:10:01.989Z</time>
      </trkpt>
      <trkpt lat="50.47739" lon="3.12003">
        <ele>70.04</ele>
        <time>2025-05-17T20:10:04.235Z</time>
      </trkpt>
      <trkpt lat="50.47738" lon="3.11959">
        <ele>69.96</ele>
        <time>2025-05-17T20:10:06.486Z</time>
      </trkpt>
      <trkpt lat="50.47738" lon="3.11914">
        <ele>69.85</ele>
        <time>2025-05-17T20:10:08.741Z</time>
      </trkpt>
      <trkpt lat="50.47737" lon="3.1187">
        <ele>69.68</ele>
        <time>2025-05-17T20:10:11.001Z</time>
      </trkpt>
      <trkpt lat="50.47736" lon="3.11826">
        <ele>69.44</ele>
        <time>2025-05-17T20:10:13.266Z</time>
      </trkpt>
      <trkpt lat="50.47735" lon="3.11782">
        <ele>69.17</ele>
        <time>2025-05-17T20:10:15.536Z</time>
      </trkpt>
      <trkpt lat="50.47735" lon="3.11782">
        <ele>68.85</ele>
        <time>2025-05-17T20:10:17.806Z</time>
      </trkpt>
      <trkpt lat="50.47735" lon="3.11778">
        <ele>68.48</ele>
        <time>2025-05-17T20:10:20.076Z</time>
      </trkpt>
      <trkpt lat="50.47712" lon="3.11777">
        <ele>68.03</ele>
        <time>2025-05-17T20:10:22.350Z</time>
      </trkpt>
      <trkpt lat="50.47689" lon="3.11776">
        <ele>67.54</ele>
        <time>2025-05-17T20:10:24.628Z</time>
      </trkpt>
      <trkpt lat="50.47666" lon="3.11776">
        <ele>67.04</ele>
        <time>2025-05-17T20:10:26.910Z</time>
      </trkpt>
      <trkpt lat="50.47642" lon="3.11779">
        <ele>66.43</ele>
        <time>2025-05-17T20:10:29.196Z</time>
      </trkpt>
      <trkpt lat="50.47618" lon="3.11783">
        <ele>65.8</ele>
        <time>2025-05-17T20:10:31.486Z</time>
      </trkpt>
      <trkpt lat="50.47593" lon="3.11787">
        <ele>65.15</ele>
        <time>2025-05-17T20:10:33.780Z</time>
      </trkpt>
      <trkpt lat="50.47569" lon="3.11791">
        <ele>64.46</ele>
        <time>2025-05-17T20:10:36.078Z</time>
      </trkpt>
      <trkpt lat="50.47542" lon="3.11795">
        <ele>63.71</ele>
        <time>2025-05-17T20:10:38.381Z</time>
      </trkpt>
      <trkpt lat="50.47516" lon="3.11804">
        <ele>62.92</ele>
        <time>2025-05-17T20:10:40.688Z</time>
      </trkpt>
      <trkpt lat="50.4749" lon="3.11812">
        <ele>62.1</ele>
        <time>2025-05-17T20:10:42.999Z</time>
      </trkpt>
      <trkpt lat="50.47465" lon="3.11821">
        <ele>61.28</ele>
        <time>2025-05-17T20:10:45.315Z</time>
      </trkpt>
      <trkpt lat="50.47439" lon="3.11829">
        <ele>60.48</ele>
        <time>2025-05-17T20:10:47.635Z</time>
      </trkpt>
      <trkpt lat="50.47413" lon="3.11838">
        <ele>59.68</ele>
        <time>2025-05-17T20:10:49.960Z</time>
      </trkpt>
      <trkpt lat="50.47387" lon="3.11846">
        <ele>58.81</ele>
        <time>2025-05-17T20:10:52.289Z</time>
      </trkpt>
      <trkpt lat="50.4737" lon="3.11827">
        <ele>57.89</ele>
        <time>2025-05-17T20:10:54.622Z</time>
      </trkpt>
      <trkpt lat="50.4735" lon="3.11793">
        <ele>56.99</ele>
        <time>2025-05-17T20:10:56.960Z</time>
      </trkpt>
      <trkpt lat="50.4733" lon="3.11758">
        <ele>56.06</ele>
        <time>2025-05-17T20:10:59.303Z</time>
      </trkpt>
      <trkpt lat="50.47311" lon="3.11724">
        <ele>55.12</ele>
        <time>2025-05-17T20:11:01.651Z</time>
      </trkpt>
      <trkpt lat="50.47291" lon="3.1169">
        <ele>54.2</ele>
        <time>2025-05-17T20:11:04.004Z</time>
      </trkpt>
      <trkpt lat="50.47291" lon="3.1169">
        <ele>53.31</ele>
        <time>2025-05-17T20:11:06.357Z</time>
      </trkpt>
      <trkpt lat="50.47267" lon="3.11706">
        <ele>52.39</ele>
        <time>2025-05-17T20:11:08.714Z</time>
      </trkpt>
      <trkpt lat="50.47244" lon="3.11721">
        <ele>51.5</ele>
        <time>2025-05-17T20:11:11.075Z</time>
      </trkpt>
      <trkpt lat="50.4722" lon="3.11737">
        <ele>50.57</ele>
        <time>2025-05-17T20:11:13.440Z</time>
      </trkpt>
      <trkpt lat="50.47199" lon="3.11746">
        <ele>49.66</ele>
        <time>2025-05-17T20:11:15.809Z</time>
      </trkpt>
      <trkpt lat="50.47178" lon="3.11756">
        <ele>48.76</ele>
        <time>2025-05-17T20:11:18.182Z</time>
      </trkpt>
      <trkpt lat="50.47158" lon="3.11765">
        <ele>47.88</ele>
        <time>2025-05-17T20:11:20.558Z</time>
      </trkpt>
      <trkpt lat="50.47128" lon="3.11774">
        <ele>47.03</ele>
        <time>2025-05-17T20:11:22.940Z</time>
      </trkpt>
      <trkpt lat="50.47097" lon="3.11782">
        <ele>46.22</ele>
        <time>2025-05-17T20:11:25.327Z</time>
      </trkpt>
      <trkpt lat="50.47067" lon="3.11791">
        <ele>45.34</ele>
        <time>2025-05-17T20:11:27.719Z</time>
      </trkpt>
      <trkpt lat="50.47037" lon="3.11799">
        <ele>44.48</ele>
        <time>2025-05-17T20:11:30.116Z</time>
      </trkpt>
      <trkpt lat="50.47007" lon="3.11808">
        <ele>43.61</ele>
        <time>2025-05-17T20:11:32.518Z</time>
      </trkpt>
      <trkpt lat="50.46976" lon="3.11816">
        <ele>42.84</ele>
        <time>2025-05-17T20:11:34.925Z</time>
      </trkpt>
      <trkpt lat="50.46946" lon="3.11825">
        <ele>42.08</ele>
        <time>2025-05-17T20:11:37.337Z</time>
      </trkpt>
      <trkpt lat="50.46916" lon="3.11834">
        <ele>41.32</ele>
        <time>2025-05-17T20:11:39.755Z</time>
      </trkpt>
      <trkpt lat="50.46886" lon="3.11842">
        <ele>40.6</ele>
        <time>2025-05-17T20:11:42.178Z</time>
      </trkpt>
      <trkpt lat="50.46855" lon="3.11851">
        <ele>39.97</ele>
        <time>2025-05-17T20:11:44.606Z</time>
      </trkpt>
      <trkpt lat="50.46825" lon="3.11859">
        <ele>39.4</ele>
        <time>2025-05-17T20:11:47.039Z</time>
      </trkpt>
      <trkpt lat="50.46795" lon="3.11864">
        <ele>38.78</ele>
        <time>2025-05-17T20:11:49.477Z</time>
      </trkpt>
      <trkpt lat="50.46765" lon="3.11868">
        <ele>38.16</ele>
        <time>2025-05-17T20:11:51.920Z</time>
      </trkpt>
      <trkpt lat="50.46735" lon="3.11872">
        <ele>37.61</ele>
        <time>2025-05-17T20:11:54.368Z</time>
      </trkpt>
      <trkpt lat="50.4671" lon="3.11876">
        <ele>37.12</ele>
        <time>2025-05-17T20:11:56.820Z</time>
      </trkpt>
      <trkpt lat="50.46686" lon="3.1188">
        <ele>36.64</ele>
        <time>2025-05-17T20:11:59.277Z</time>
      </trkpt>
      <trkpt lat="50.46661" lon="3.11884">
        <ele>36.22</ele>
        <time>2025-05-17T20:12:01.738Z</time>
      </trkpt>
      <trkpt lat="50.46636" lon="3.11887">
        <ele>35.83</ele>
        <time>2025-05-17T20:12:04.203Z</time>
      </trkpt>
      <trkpt lat="50.46608" lon="3.11898">
        <ele>35.55</ele>
        <time>2025-05-17T20:12:06.673Z</time>
      </trkpt>
      <trkpt lat="50.46584" lon="3.11917">
        <ele>35.39</ele>
        <time>2025-05-17T20:12:09.147Z</time>
      </trkpt>
      <trkpt lat="50.46559" lon="3.11937">
        <ele>35.24</ele>
        <time>2025-05-17T20:12:11.626Z</time>
      </trkpt>
      <trkpt lat="50.46534" lon="3.11956">
        <ele>35.12</ele>
        <time>2025-05-17T20:12:14.110Z</time>
      </trkpt>
      <trkpt lat="50.4651" lon="3.11975">
        <ele>35.07</ele>
        <time>2025-05-17T20:12:16.598Z</time>
      </trkpt>
      <trkpt lat="50.46485" lon="3.11995">
        <ele>35.02</ele>
        <time>2025-05-17T20:12:19.091Z</time>
      </trkpt>
      <trkpt lat="50.4646" lon="3.12014">
        <ele>34.96</ele>
        <time>2025-05-17T20:12:21.589Z</time>
      </trkpt>
      <trkpt lat="50.46436" lon="3.12033">
        <ele>34.98</ele>
        <time>2025-05-17T20:12:24.091Z</time>
      </trkpt>
      <trkpt lat="50.46411" lon="3.12052">
        <ele>35.07</ele>
        <time>2025-05-17T20:12:26.598Z</time>
      </trkpt>
      <trkpt lat="50.46409" lon="3.12057">
        <ele>35.16</ele>
        <time>2025-05-17T20:12:29.105Z</time>
      </trkpt>
      <trkpt lat="50.46379" lon="3.12065">
        <ele>35.32</ele>
        <time>2025-05-17T20:12:31.618Z</time>
      </trkpt>
      <trkpt lat="50.46348" lon="3.12074">
        <ele>35.45</ele>
        <time>2025-05-17T20:12:34.136Z</time>
      </trkpt>
      <trkpt lat="50.46318" lon="3.12083">
        <ele>35.58</ele>
        <time>2025-05-17T20:12:36.659Z</time>
      </trkpt>
      <trkpt lat="50.46288" lon="3.12091">
        <ele>35.76</ele>
        <time>2025-05-17T20:12:39.187Z</time>
      </trkpt>
      <trkpt lat="50.46257" lon="3.121">
        <ele>36.01</ele>
        <time>2025-05-17T20:12:41.720Z</time>
      </trkpt>
      <trkpt lat="50.46227" lon="3.12108">
        <ele>36.25</ele>
        <time>2025-05-17T20:12:44.258Z</time>
      </trkpt>
      <trkpt lat="50.46197" lon="3.12117">
        <ele>36.59</ele>
        <time>2025-05-17T20:12:46.802Z</time>
      </trkpt>
      <trkpt lat="50.46166" lon="3.12125">
        <ele>36.93</ele>
        <time>2025-05-17T20:12:49.351Z</time>
      </trkpt>
      <trkpt lat="50.46136" lon="3.12134">
        <ele>37.22</ele>
        <time>2025-05-17T20:12:51.905Z</time>
      </trkpt>
      <trkpt lat="50.46106" lon="3.12143">
        <ele>37.48</ele>
        <time>2025-05-17T20:12:54.464Z</time>
      </trkpt>
      <trkpt lat="50.46075" lon="3.12151">
        <ele>37.77</ele>
        <time>2025-05-17T20:12:57.028Z</time>
      </trkpt>
      <trkpt lat="50.46045" lon="3.1216">
        <ele>38.09</ele>
        <time>2025-05-17T20:12:59.598Z</time>
      </trkpt>
      <trkpt lat="50.46015" lon="3.12168">
        <ele>38.38</ele>
        <time>2025-05-17T20:13:02.173Z</time>
      </trkpt>
      <trkpt lat="50.45984" lon="3.12177">
        <ele>38.71</ele>
        <time>2025-05-17T20:13:04.753Z</time>
      </trkpt>
      <trkpt lat="50.45954" lon="3.12186">
        <ele>39.01</ele>
        <time>2025-05-17T20:13:07.338Z</time>
      </trkpt>
      <trkpt lat="50.45924" lon="3.12194">
        <ele>39.3</ele>
        <time>2025-05-17T20:13:09.928Z</time>
      </trkpt>
      <trkpt lat="50.45895" lon="3.12203">
        <ele>39.6</ele>
        <time>2025-05-17T20:13:12.523Z</time>
      </trkpt>
      <trkpt lat="50.45865" lon="3.12211">
        <ele>39.85</ele>
        <time>2025-05-17T20:13:15.123Z</time>
      </trkpt>
      <trkpt lat="50.45836" lon="3.1222">
        <ele>40.12</ele>
        <time>2025-05-17T20:13:17.728Z</time>
      </trkpt>
      <trkpt lat="50.45807" lon="3.12228">
        <ele>40.41</ele>
        <time>2025-05-17T20:13:20.338Z</time>
      </trkpt>
      <trkpt lat="50.45777" lon="3.12237">
        <ele>40.65</ele>
        <time>2025-05-17T20:13:22.953Z</time>
      </trkpt>
      <trkpt lat="50.45748" lon="3.12246">
        <ele>40.84</ele>
        <time>2025-05-17T20:13:25.573Z</time>
      </trkpt>
      <trkpt lat="50.45724" lon="3.12258">
        <ele>41.06</ele>
        <time>2025-05-17T20:13:28.198Z</time>
      </trkpt>
      <trkpt lat="50.457" lon="3.12271">
        <ele>41.26</ele>
        <time>2025-05-17T20:13:30.827Z</time>
      </trkpt>
      <trkpt lat="50.45676" lon="3.12284">
        <ele>41.48</ele>
        <time>2025-05-17T20:13:33.460Z</time>
      </trkpt>
      <trkpt lat="50.45651" lon="3.12297">
        <ele>41.69</ele>
        <time>2025-05-17T20:13:36.097Z</time>
      </trkpt>
      <trkpt lat="50.45621" lon="3.12309">
        <ele>41.87</ele>
        <time>2025-05-17T20:13:38.740Z</time>
      </trkpt>
      <trkpt lat="50.45591" lon="3.1232">
        <ele>42</ele>
        <time>2025-05-17T20:13:41.388Z</time>
      </trkpt>
      <trkpt lat="50.45561" lon="3.12331">
        <ele>42.12</ele>
        <time>2025-05-17T20:13:44.041Z</time>
      </trkpt>
      <trkpt lat="50.45532" lon="3.12337">
        <ele>42.2</ele>
        <time>2025-05-17T20:13:46.699Z</time>
      </trkpt>
      <trkpt lat="50.45503" lon="3.12343">
        <ele>42.26</ele>
        <time>2025-05-17T20:13:49.362Z</time>
      </trkpt>
      <trkpt lat="50.45474" lon="3.12348">
        <ele>42.29</ele>
        <time>2025-05-17T20:13:52.030Z</time>
      </trkpt>
      <trkpt lat="50.45445" lon="3.12354">
        <ele>42.41</ele>
        <time>2025-05-17T20:13:54.703Z</time>
      </trkpt>
      <trkpt lat="50.45416" lon="3.1236">
        <ele>42.45</ele>
        <time>2025-05-17T20:13:57.380Z</time>
      </trkpt>
      <trkpt lat="50.45387" lon="3.12365">
        <ele>42.45</ele>
        <time>2025-05-17T20:14:00.062Z</time>
      </trkpt>
      <trkpt lat="50.45359" lon="3.12371">
        <ele>42.42</ele>
        <time>2025-05-17T20:14:02.749Z</time>
      </trkpt>
      <trkpt lat="50.4533" lon="3.12376">
        <ele>42.42</ele>
        <time>2025-05-17T20:14:05.441Z</time>
      </trkpt>
      <trkpt lat="50.4533" lon="3.12376">
        <ele>42.37</ele>
        <time>2025-05-17T20:14:08.133Z</time>
      </trkpt>
      <trkpt lat="50.45306" lon="3.12382">
        <ele>42.39</ele>
        <time>2025-05-17T20:14:10.829Z</time>
      </trkpt>
      <trkpt lat="50.45282" lon="3.12387">
        <ele>42.3</ele>
        <time>2025-05-17T20:14:13.529Z</time>
      </trkpt>
      <trkpt lat="50.45259" lon="3.12392">
        <ele>42.17</ele>
        <time>2025-05-17T20:14:16.233Z</time>
      </trkpt>
      <trkpt lat="50.45259" lon="3.12392">
        <ele>42.05</ele>
        <time>2025-05-17T20:14:18.937Z</time>
      </trkpt>
      <trkpt lat="50.45235" lon="3.12396">
        <ele>41.88</ele>
        <time>2025-05-17T20:14:21.645Z</time>
      </trkpt>
      <trkpt lat="50.45212" lon="3.124">
        <ele>41.66</ele>
        <time>2025-05-17T20:14:24.357Z</time>
      </trkpt>
      <trkpt lat="50.45199" lon="3.12398">
        <ele>41.47</ele>
        <time>2025-05-17T20:14:27.071Z</time>
      </trkpt>
      <trkpt lat="50.45174" lon="3.12382">
        <ele>41.29</ele>
        <time>2025-05-17T20:14:29.790Z</time>
      </trkpt>
      <trkpt lat="50.45149" lon="3.12367">
        <ele>41.14</ele>
        <time>2025-05-17T20:14:32.513Z</time>
      </trkpt>
      <trkpt lat="50.45125" lon="3.12351">
        <ele>40.97</ele>
        <time>2025-05-17T20:14:35.241Z</time>
      </trkpt>
      <trkpt lat="50.451" lon="3.12336">
        <ele>40.78</ele>
        <time>2025-05-17T20:14:37.973Z</time>
      </trkpt>
      <trkpt lat="50.45077" lon="3.12321">
        <ele>40.59</ele>
        <time>2025-05-17T20:14:40.709Z</time>
      </trkpt>
      <trkpt lat="50.45054" lon="3.12306">
        <ele>40.43</ele>
        <time>2025-05-17T20:14:43.450Z</time>
      </trkpt>
      <trkpt lat="50.45031" lon="3.12291">
        <ele>40.23</ele>
        <time>2025-05-17T20:14:46.195Z</time>
      </trkpt>
      <trkpt lat="50.45008" lon="3.12276">
        <ele>40</ele>
        <time>2025-05-17T20:14:48.944Z</time>
      </trkpt>
      <trkpt lat="50.44991" lon="3.12269">
        <ele>39.81</ele>
        <time>2025-05-17T20:14:51.696Z</time>
      </trkpt>
      <trkpt lat="50.44976" lon="3.12282">
        <ele>39.63</ele>
        <time>2025-05-17T20:14:54.451Z</time>
      </trkpt>
      <trkpt lat="50.44958" lon="3.12315">
        <ele>39.44</ele>
        <time>2025-05-17T20:14:57.210Z</time>
      </trkpt>
      <trkpt lat="50.4494" lon="3.12348">
        <ele>39.27</ele>
        <time>2025-05-17T20:14:59.974Z</time>
      </trkpt>
      <trkpt lat="50.44922" lon="3.12382">
        <ele>39.05</ele>
        <time>2025-05-17T20:15:02.743Z</time>
      </trkpt>
      <trkpt lat="50.44904" lon="3.12415">
        <ele>38.89</ele>
        <time>2025-05-17T20:15:05.516Z</time>
      </trkpt>
      <trkpt lat="50.44886" lon="3.12448">
        <ele>38.74</ele>
        <time>2025-05-17T20:15:08.294Z</time>
      </trkpt>
      <trkpt lat="50.44869" lon="3.12481">
        <ele>38.55</ele>
        <time>2025-05-17T20:15:11.077Z</time>
      </trkpt>
      <trkpt lat="50.44851" lon="3.12514">
        <ele>38.35</ele>
        <time>2025-05-17T20:15:13.864Z</time>
      </trkpt>
      <trkpt lat="50.44834" lon="3.12542">
        <ele>38.11</ele>
        <time>2025-05-17T20:15:16.655Z</time>
      </trkpt>
      <trkpt lat="50.44809" lon="3.12567">
        <ele>38.01</ele>
        <time>2025-05-17T20:15:19.451Z</time>
      </trkpt>
      <trkpt lat="50.44784" lon="3.12592">
        <ele>37.87</ele>
        <time>2025-05-17T20:15:22.252Z</time>
      </trkpt>
      <trkpt lat="50.44758" lon="3.12617">
        <ele>37.67</ele>
        <time>2025-05-17T20:15:25.058Z</time>
      </trkpt>
      <trkpt lat="50.44733" lon="3.12642">
        <ele>37.51</ele>
        <time>2025-05-17T20:15:27.869Z</time>
      </trkpt>
      <trkpt lat="50.44708" lon="3.12667">
        <ele>37.34</ele>
        <time>2025-05-17T20:15:30.685Z</time>
      </trkpt>
      <trkpt lat="50.44683" lon="3.12692">
        <ele>37.18</ele>
        <time>2025-05-17T20:15:33.506Z</time>
      </trkpt>
      <trkpt lat="50.44658" lon="3.12717">
        <ele>37.06</ele>
        <time>2025-05-17T20:15:36.332Z</time>
      </trkpt>
      <trkpt lat="50.44632" lon="3.12742">
        <ele>36.88</ele>
        <time>2025-05-17T20:15:39.163Z</time>
      </trkpt>
      <trkpt lat="50.44607" lon="3.12767">
        <ele>36.66</ele>
        <time>2025-05-17T20:15:42.000Z</time>
      </trkpt>
      <trkpt lat="50.44582" lon="3.12792">
        <ele>36.4</ele>
        <time>2025-05-17T20:15:44.842Z</time>
      </trkpt>
      <trkpt lat="50.44557" lon="3.12816">
        <ele>36.2</ele>
        <time>2025-05-17T20:15:47.688Z</time>
      </trkpt>
      <trkpt lat="50.44549" lon="3.12831">
        <ele>36.03</ele>
        <time>2025-05-17T20:15:50.537Z</time>
      </trkpt>
      <trkpt lat="50.44544" lon="3.12866">
        <ele>35.83</ele>
        <time>2025-05-17T20:15:53.389Z</time>
      </trkpt>
      <trkpt lat="50.44547" lon="3.12913">
        <ele>35.66</ele>
        <time>2025-05-17T20:15:56.246Z</time>
      </trkpt>
      <trkpt lat="50.44549" lon="3.1296">
        <ele>35.48</ele>
        <time>2025-05-17T20:15:59.109Z</time>
      </trkpt>
      <trkpt lat="50.44552" lon="3.13007">
        <ele>35.22</ele>
        <time>2025-05-17T20:16:01.977Z</time>
      </trkpt>
      <trkpt lat="50.44554" lon="3.13055">
        <ele>35.01</ele>
        <time>2025-05-17T20:16:04.850Z</time>
      </trkpt>
      <trkpt lat="50.44557" lon="3.13102">
        <ele>34.82</ele>
        <time>2025-05-17T20:16:07.728Z</time>
      </trkpt>
      <trkpt lat="50.4456" lon="3.13149">
        <ele>34.65</ele>
        <time>2025-05-17T20:16:10.611Z</time>
      </trkpt>
      <trkpt lat="50.44562" lon="3.13195">
        <ele>34.53</ele>
        <time>2025-05-17T20:16:13.499Z</time>
      </trkpt>
      <trkpt lat="50.44564" lon="3.1324">
        <ele>34.33</ele>
        <time>2025-05-17T20:16:16.392Z</time>
      </trkpt>
      <trkpt lat="50.44567" lon="3.13284">
        <ele>34.15</ele>
        <time>2025-05-17T20:16:19.289Z</time>
      </trkpt>
      <trkpt lat="50.44569" lon="3.13328">
        <ele>34.01</ele>
        <time>2025-05-17T20:16:22.191Z</time>
      </trkpt>
      <trkpt lat="50.44572" lon="3.13372">
        <ele>33.86</ele>
        <time>2025-05-17T20:16:25.098Z</time>
      </trkpt>
      <trkpt lat="50.44574" lon="3.13417">
        <ele>33.71</ele>
        <time>2025-05-17T20:16:28.010Z</time>
      </trkpt>
      <trkpt lat="50.44576" lon="3.1346">
        <ele>33.54</ele>
        <time>2025-05-17T20:16:30.926Z</time>
      </trkpt>
      <trkpt lat="50.44576" lon="3.13467">
        <ele>33.38</ele>
        <time>2025-05-17T20:16:33.843Z</time>
      </trkpt>
      <trkpt lat="50.44549" lon="3.13479">
        <ele>33.2</ele>
        <time>2025-05-17T20:16:36.765Z</time>
      </trkpt>
      <trkpt lat="50.44522" lon="3.13491">
        <ele>33.01</ele>
        <time>2025-05-17T20:16:39.691Z</time>
      </trkpt>
      <trkpt lat="50.44495" lon="3.13503">
        <ele>32.86</ele>
        <time>2025-05-17T20:16:42.622Z</time>
      </trkpt>
      <trkpt lat="50.44468" lon="3.13515">
        <ele>32.72</ele>
        <time>2025-05-17T20:16:45.558Z</time>
      </trkpt>
      <trkpt lat="50.44441" lon="3.13527">
        <ele>32.56</ele>
        <time>2025-05-17T20:16:48.499Z</time>
      </trkpt>
      <trkpt lat="50.44414" lon="3.13532">
        <ele>32.42</ele>
        <time>2025-05-17T20:16:51.444Z</time>
      </trkpt>
      <trkpt lat="50.44387" lon="3.13537">
        <ele>32.27</ele>
        <time>2025-05-17T20:16:54.394Z</time>
      </trkpt>
      <trkpt lat="50.4436" lon="3.13542">
        <ele>32.19</ele>
        <time>2025-05-17T20:16:57.348Z</time>
      </trkpt>
      <trkpt lat="50.44364" lon="3.13567">
        <ele>32.05</ele>
        <time>2025-05-17T20:17:00.305Z</time>
      </trkpt>
      <trkpt lat="50.44377" lon="3.1361">
        <ele>31.94</ele>
        <time>2025-05-17T20:17:03.267Z</time>
      </trkpt>
      <trkpt lat="50.44391" lon="3.13653">
        <ele>31.87</ele>
        <time>2025-05-17T20:17:06.234Z</time>
      </trkpt>
      <trkpt lat="50.44404" lon="3.13695">
        <ele>31.8</ele>
        <time>2025-05-17T20:17:09.207Z</time>
      </trkpt>
      <trkpt lat="50.44417" lon="3.13738">
        <ele>31.75</ele>
        <time>2025-05-17T20:17:12.185Z</time>
      </trkpt>
      <trkpt lat="50.4443" lon="3.13781">
        <ele>31.68</ele>
        <time>2025-05-17T20:17:15.168Z</time>
      </trkpt>
      <trkpt lat="50.44443" lon="3.13823">
        <ele>31.61</ele>
        <time>2025-05-17T20:17:18.156Z</time>
      </trkpt>
      <trkpt lat="50.44452" lon="3.13857">
        <ele>31.49</ele>
        <time>2025-05-17T20:17:21.148Z</time>
      </trkpt>
      <trkpt lat="50.44456" lon="3.13904">
        <ele>31.4</ele>
        <time>2025-05-17T20:17:24.145Z</time>
      </trkpt>
      <trkpt lat="50.4446" lon="3.13952">
        <ele>31.35</ele>
        <time>2025-05-17T20:17:27.147Z</time>
      </trkpt>
      <trkpt lat="50.44464" lon="3.13999">
        <ele>31.29</ele>
        <time>2025-05-17T20:17:30.154Z</time>
      </trkpt>
      <trkpt lat="50.44468" lon="3.14046">
        <ele>31.21</ele>
        <time>2025-05-17T20:17:33.166Z</time>
      </trkpt>
      <trkpt lat="50.44472" lon="3.14094">
        <ele>31.16</ele>
        <time>2025-05-17T20:17:36.183Z</time>
      </trkpt>
      <trkpt lat="50.44476" lon="3.1414">
        <ele>31.11</ele>
        <time>2025-05-17T20:17:39.205Z</time>
      </trkpt>
      <trkpt lat="50.44481" lon="3.14184">
        <ele>31.01</ele>
        <time>2025-05-17T20:17:42.232Z</time>
      </trkpt>
      <trkpt lat="50.44486" lon="3.14227">
        <ele>30.99</ele>
        <time>2025-05-17T20:17:45.264Z</time>
      </trkpt>
      <trkpt lat="50.44492" lon="3.14271">
        <ele>30.99</ele>
        <time>2025-05-17T20:17:48.301Z</time>
      </trkpt>
      <trkpt lat="50.44497" lon="3.14314">
        <ele>30.96</ele>
        <time>2025-05-17T20:17:51.342Z</time>
      </trkpt>
      <trkpt lat="50.44497" lon="3.14314">
        <ele>30.93</ele>
        <time>2025-05-17T20:17:54.383Z</time>
      </trkpt>
      <trkpt lat="50.44503" lon="3.1436">
        <ele>30.9</ele>
        <time>2025-05-17T20:17:57.429Z</time>
      </trkpt>
      <trkpt lat="50.44509" lon="3.14406">
        <ele>30.85</ele>
        <time>2025-05-17T20:18:00.480Z</time>
      </trkpt>
      <trkpt lat="50.44515" lon="3.14451">
        <ele>30.83</ele>
        <time>2025-05-17T20:18:03.536Z</time>
      </trkpt>
      <trkpt lat="50.44521" lon="3.14497">
        <ele>30.8</ele>
        <time>2025-05-17T20:18:06.597Z</time>
      </trkpt>
      <trkpt lat="50.44525" lon="3.14516">
        <ele>30.76</ele>
        <time>2025-05-17T20:18:09.660Z</time>
      </trkpt>
      <trkpt lat="50.44542" lon="3.14545">
        <ele>30.67</ele>
        <time>2025-05-17T20:18:12.728Z</time>
      </trkpt>
      <trkpt lat="50.44558" lon="3.14575">
        <ele>30.68</ele>
        <time>2025-05-17T20:18:15.800Z</time>
      </trkpt>
      <trkpt lat="50.44575" lon="3.14605">
        <ele>30.66</ele>
        <time>2025-05-17T20:18:18.876Z</time>
      </trkpt>
      <trkpt lat="50.44592" lon="3.14634">
        <ele>30.61</ele>
        <time>2025-05-17T20:18:21.956Z</time>
      </trkpt>
      <trkpt lat="50.44609" lon="3.14664">
        <ele>30.52</ele>
        <time>2025-05-17T20:18:25.041Z</time>
      </trkpt>
      <trkpt lat="50.44624" lon="3.14703">
        <ele>30.46</ele>
        <time>2025-05-17T20:18:28.131Z</time>
      </trkpt>
      <trkpt lat="50.44639" lon="3.14741">
        <ele>30.4</ele>
        <time>2025-05-17T20:18:31.225Z</time>
      </trkpt>
      <trkpt lat="50.44641" lon="3.14748">
        <ele>30.32</ele>
        <time>2025-05-17T20:18:34.320Z</time>
      </trkpt>
      <trkpt lat="50.44648" lon="3.14792">
        <ele>30.25</ele>
        <time>2025-05-17T20:18:37.420Z</time>
      </trkpt>
      <trkpt lat="50.44656" lon="3.14836">
        <ele>30.17</ele>
        <time>2025-05-17T20:18:40.525Z</time>
      </trkpt>
      <trkpt lat="50.44662" lon="3.14869">
        <ele>30.08</ele>
        <time>2025-05-17T20:18:43.634Z</time>
      </trkpt>
      <trkpt lat="50.44669" lon="3.14903">
        <ele>29.99</ele>
        <time>2025-05-17T20:18:46.746Z</time>
      </trkpt>
      <trkpt lat="50.44675" lon="3.14936">
        <ele>29.88</ele>
        <time>2025-05-17T20:18:49.862Z</time>
      </trkpt>
      <trkpt lat="50.44679" lon="3.14971">
        <ele>29.72</ele>
        <time>2025-05-17T20:18:52.982Z</time>
      </trkpt>
      <trkpt lat="50.44677" lon="3.15014">
        <ele>29.62</ele>
        <time>2025-05-17T20:18:56.107Z</time>
      </trkpt>
      <trkpt lat="50.44674" lon="3.15058">
        <ele>29.54</ele>
        <time>2025-05-17T20:18:59.236Z</time>
      </trkpt>
      <trkpt lat="50.44672" lon="3.15101">
        <ele>29.47</ele>
        <time>2025-05-17T20:19:02.370Z</time>
      </trkpt>
      <trkpt lat="50.44669" lon="3.15144">
        <ele>29.39</ele>
        <time>2025-05-17T20:19:05.509Z</time>
      </trkpt>
      <trkpt lat="50.44667" lon="3.15188">
        <ele>29.29</ele>
        <time>2025-05-17T20:19:08.652Z</time>
      </trkpt>
      <trkpt lat="50.44664" lon="3.1523">
        <ele>29.19</ele>
        <time>2025-05-17T20:19:11.800Z</time>
      </trkpt>
      <trkpt lat="50.44665" lon="3.15257">
        <ele>29.09</ele>
        <time>2025-05-17T20:19:14.951Z</time>
      </trkpt>
      <trkpt lat="50.44667" lon="3.15284">
        <ele>28.99</ele>
        <time>2025-05-17T20:19:18.105Z</time>
      </trkpt>
      <trkpt lat="50.44672" lon="3.15331">
        <ele>28.87</ele>
        <time>2025-05-17T20:19:21.264Z</time>
      </trkpt>
      <trkpt lat="50.44677" lon="3.15377">
        <ele>28.72</ele>
        <time>2025-05-17T20:19:24.428Z</time>
      </trkpt>
      <trkpt lat="50.44682" lon="3.15423">
        <ele>28.6</ele>
        <time>2025-05-17T20:19:27.597Z</time>
      </trkpt>
      <trkpt lat="50.44705" lon="3.15423">
        <ele>28.49</ele>
        <time>2025-05-17T20:19:30.770Z</time>
      </trkpt>
      <trkpt lat="50.44727" lon="3.15428">
        <ele>28.4</ele>
        <time>2025-05-17T20:19:33.946Z</time>
      </trkpt>
      <trkpt lat="50.44748" lon="3.15433">
        <ele>28.35</ele>
        <time>2025-05-17T20:19:37.126Z</time>
      </trkpt>
      <trkpt lat="50.4477" lon="3.15439">
        <ele>28.35</ele>
        <time>2025-05-17T20:19:40.310Z</time>
      </trkpt>
      <trkpt lat="50.44782" lon="3.15456">
        <ele>28.35</ele>
        <time>2025-05-17T20:19:43.497Z</time>
      </trkpt>
      <trkpt lat="50.44797" lon="3.15496">
        <ele>28.36</ele>
        <time>2025-05-17T20:19:46.689Z</time>
      </trkpt>
      <trkpt lat="50.44812" lon="3.15536">
        <ele>28.38</ele>
        <time>2025-05-17T20:19:49.886Z</time>
      </trkpt>
      <trkpt lat="50.44827" lon="3.15576">
        <ele>28.38</ele>
        <time>2025-05-17T20:19:53.088Z</time>
      </trkpt>
      <trkpt lat="50.44838" lon="3.15597">
        <ele>28.39</ele>
        <time>2025-05-17T20:19:56.292Z</time>
      </trkpt>
      <trkpt lat="50.44849" lon="3.15619">
        <ele>28.46</ele>
        <time>2025-05-17T20:19:59.499Z</time>
      </trkpt>
      <trkpt lat="50.44864" lon="3.15636">
        <ele>28.54</ele>
        <time>2025-05-17T20:20:02.709Z</time>
      </trkpt>
      <trkpt lat="50.44879" lon="3.15653">
        <ele>28.59</ele>
        <time>2025-05-17T20:20:05.923Z</time>
      </trkpt>
      <trkpt lat="50.44901" lon="3.15673">
        <ele>28.65</ele>
        <time>2025-05-17T20:20:09.141Z</time>
      </trkpt>
      <trkpt lat="50.44924" lon="3.15693">
        <ele>28.76</ele>
        <time>2025-05-17T20:20:12.363Z</time>
      </trkpt>
      <trkpt lat="50.44946" lon="3.15714">
        <ele>28.92</ele>
        <time>2025-05-17T20:20:15.590Z</time>
      </trkpt>
      <trkpt lat="50.44968" lon="3.15734">
        <ele>29.1</ele>
        <time>2025-05-17T20:20:18.821Z</time>
      </trkpt>
      <trkpt lat="50.44991" lon="3.15754">
        <ele>29.25</ele>
        <time>2025-05-17T20:20:22.056Z</time>
      </trkpt>
      <trkpt lat="50.45012" lon="3.15778">
        <ele>29.44</ele>
        <time>2025-05-17T20:20:25.296Z</time>
      </trkpt>
      <trkpt lat="50.45033" lon="3.15801">
        <ele>29.64</ele>
        <time>2025-05-17T20:20:28.540Z</time>
      </trkpt>
      <trkpt lat="50.45051" lon="3.15826">
        <ele>29.83</ele>
        <time>2025-05-17T20:20:31.788Z</time>
      </trkpt>
      <trkpt lat="50.45069" lon="3.15851">
        <ele>30</ele>
        <time>2025-05-17T20:20:35.040Z</time>
      </trkpt>
      <trkpt lat="50.45087" lon="3.15876">
        <ele>30.18</ele>
        <time>2025-05-17T20:20:38.296Z</time>
      </trkpt>
      <trkpt lat="50.45107" lon="3.1591">
        <ele>30.42</ele>
        <time>2025-05-17T20:20:41.557Z</time>
      </trkpt>
      <trkpt lat="50.45127" lon="3.15944">
        <ele>30.66</ele>
        <time>2025-05-17T20:20:44.823Z</time>
      </trkpt>
      <trkpt lat="50.45146" lon="3.15978">
        <ele>30.89</ele>
        <time>2025-05-17T20:20:48.094Z</time>
      </trkpt>
      <trkpt lat="50.45166" lon="3.16012">
        <ele>31.1</ele>
        <time>2025-05-17T20:20:51.370Z</time>
      </trkpt>
      <trkpt lat="50.45186" lon="3.16046">
        <ele>31.34</ele>
        <time>2025-05-17T20:20:54.651Z</time>
      </trkpt>
      <trkpt lat="50.45202" lon="3.16074">
        <ele>31.54</ele>
        <time>2025-05-17T20:20:57.936Z</time>
      </trkpt>
      <trkpt lat="50.45219" lon="3.16103">
        <ele>31.72</ele>
        <time>2025-05-17T20:21:01.225Z</time>
      </trkpt>
      <trkpt lat="50.45236" lon="3.16131">
        <ele>31.89</ele>
        <time>2025-05-17T20:21:04.518Z</time>
      </trkpt>
      <trkpt lat="50.45252" lon="3.16159">
        <ele>32.1</ele>
        <time>2025-05-17T20:21:07.815Z</time>
      </trkpt>
      <trkpt lat="50.45276" lon="3.16184">
        <ele>32.32</ele>
        <time>2025-05-17T20:21:11.117Z</time>
      </trkpt>
      <trkpt lat="50.453" lon="3.16208">
        <ele>32.52</ele>
        <time>2025-05-17T20:21:14.424Z</time>
      </trkpt>
      <trkpt lat="50.45323" lon="3.16232">
        <ele>32.68</ele>
        <time>2025-05-17T20:21:17.735Z</time>
      </trkpt>
      <trkpt lat="50.45339" lon="3.16243">
        <ele>32.83</ele>
        <time>2025-05-17T20:21:21.049Z</time>
      </trkpt>
      <trkpt lat="50.45355" lon="3.16254">
        <ele>32.98</ele>
        <time>2025-05-17T20:21:24.366Z</time>
      </trkpt>
      <trkpt lat="50.45383" lon="3.16265">
        <ele>33.1</ele>
        <time>2025-05-17T20:21:27.688Z</time>
      </trkpt>
      <trkpt lat="50.45411" lon="3.16275">
        <ele>33.16</ele>
        <time>2025-05-17T20:21:31.015Z</time>
      </trkpt>
      <trkpt lat="50.45439" lon="3.16286">
        <ele>33.21</ele>
        <time>2025-05-17T20:21:34.347Z</time>
      </trkpt>
      <trkpt lat="50.45452" lon="3.16293">
        <ele>33.26</ele>
        <time>2025-05-17T20:21:37.681Z</time>
      </trkpt>
      <trkpt lat="50.45469" lon="3.16298">
        <ele>33.29</ele>
        <time>2025-05-17T20:21:41.018Z</time>
      </trkpt>
      <trkpt lat="50.45486" lon="3.16303">
        <ele>33.3</ele>
        <time>2025-05-17T20:21:44.358Z</time>
      </trkpt>
      <trkpt lat="50.45503" lon="3.1632">
        <ele>33.29</ele>
        <time>2025-05-17T20:21:47.701Z</time>
      </trkpt>
      <trkpt lat="50.45524" lon="3.16335">
        <ele>33.28</ele>
        <time>2025-05-17T20:21:51.048Z</time>
      </trkpt>
      <trkpt lat="50.45544" lon="3.1635">
        <ele>33.26</ele>
        <time>2025-05-17T20:21:54.399Z</time>
      </trkpt>
      <trkpt lat="50.45565" lon="3.16365">
        <ele>33.2</ele>
        <time>2025-05-17T20:21:57.754Z</time>
      </trkpt>
      <trkpt lat="50.45586" lon="3.16381">
        <ele>33.1</ele>
        <time>2025-05-17T20:22:01.113Z</time>
      </trkpt>
      <trkpt lat="50.45606" lon="3.16396">
        <ele>32.97</ele>
        <time>2025-05-17T20:22:04.475Z</time>
      </trkpt>
      <trkpt lat="50.45606" lon="3.16396">
        <ele>32.85</ele>
        <time>2025-05-17T20:22:07.837Z</time>
      </trkpt>
      <trkpt lat="50.45622" lon="3.16407">
        <ele>32.68</ele>
        <time>2025-05-17T20:22:11.202Z</time>
      </trkpt>
      <trkpt lat="50.45639" lon="3.16419">
        <ele>32.51</ele>
        <time>2025-05-17T20:22:14.570Z</time>
      </trkpt>
      <trkpt lat="50.4566" lon="3.16436">
        <ele>32.35</ele>
        <time>2025-05-17T20:22:17.942Z</time>
      </trkpt>
      <trkpt lat="50.45682" lon="3.16453">
        <ele>32.2</ele>
        <time>2025-05-17T20:22:21.319Z</time>
      </trkpt>
      <trkpt lat="50.45703" lon="3.16471">
        <ele>32</ele>
        <time>2025-05-17T20:22:24.700Z</time>
      </trkpt>
      <trkpt lat="50.45727" lon="3.16494">
        <ele>31.75</ele>
        <time>2025-05-17T20:22:28.085Z</time>
      </trkpt>
      <trkpt lat="50.45746" lon="3.16512">
        <ele>31.55</ele>
        <time>2025-05-17T20:22:31.474Z</time>
      </trkpt>
      <trkpt lat="50.45765" lon="3.16531">
        <ele>31.35</ele>
        <time>2025-05-17T20:22:34.867Z</time>
      </trkpt>
      <trkpt lat="50.45789" lon="3.16551">
        <ele>31.15</ele>
        <time>2025-05-17T20:22:38.264Z</time>
      </trkpt>
      <trkpt lat="50.45812" lon="3.16571">
        <ele>30.96</ele>
        <time>2025-05-17T20:22:41.666Z</time>
      </trkpt>
      <trkpt lat="50.45836" lon="3.16592">
        <ele>30.76</ele>
        <time>2025-05-17T20:22:45.072Z</time>
      </trkpt>
      <trkpt lat="50.4586" lon="3.16612">
        <ele>30.54</ele>
        <time>2025-05-17T20:22:48.483Z</time>
      </trkpt>
      <trkpt lat="50.45882" lon="3.16639">
        <ele>30.26</ele>
        <time>2025-05-17T20:22:51.899Z</time>
      </trkpt>
      <trkpt lat="50.45905" lon="3.16666">
        <ele>29.99</ele>
        <time>2025-05-17T20:22:55.319Z</time>
      </trkpt>
      <trkpt lat="50.45926" lon="3.16677">
        <ele>29.79</ele>
        <time>2025-05-17T20:22:58.743Z</time>
      </trkpt>
      <trkpt lat="50.45948" lon="3.16682">
        <ele>29.61</ele>
        <time>2025-05-17T20:23:02.171Z</time>
      </trkpt>
      <trkpt lat="50.45969" lon="3.16688">
        <ele>29.41</ele>
        <time>2025-05-17T20:23:05.603Z</time>
      </trkpt>
      <trkpt lat="50.4599" lon="3.16694">
        <ele>29.26</ele>
        <time>2025-05-17T20:23:09.038Z</time>
      </trkpt>
      <trkpt lat="50.4601" lon="3.16705">
        <ele>29.14</ele>
        <time>2025-05-17T20:23:12.477Z</time>
      </trkpt>
      <trkpt lat="50.46027" lon="3.1673">
        <ele>29.07</ele>
        <time>2025-05-17T20:23:15.920Z</time>
      </trkpt>
      <trkpt lat="50.46033" lon="3.1675">
        <ele>29</ele>
        <time>2025-05-17T20:23:19.365Z</time>
      </trkpt>
      <trkpt lat="50.46036" lon="3.16771">
        <ele>28.96</ele>
        <time>2025-05-17T20:23:22.812Z</time>
      </trkpt>
      <trkpt lat="50.46036" lon="3.16792">
        <ele>28.93</ele>
        <time>2025-05-17T20:23:26.262Z</time>
      </trkpt>
      <trkpt lat="50.46031" lon="3.16812">
        <ele>28.88</ele>
        <time>2025-05-17T20:23:29.714Z</time>
      </trkpt>
      <trkpt lat="50.46015" lon="3.16849">
        <ele>28.76</ele>
        <time>2025-05-17T20:23:33.171Z</time>
      </trkpt>
      <trkpt lat="50.45999" lon="3.16887">
        <ele>28.6</ele>
        <time>2025-05-17T20:23:36.633Z</time>
      </trkpt>
      <trkpt lat="50.45983" lon="3.16925">
        <ele>28.49</ele>
        <time>2025-05-17T20:23:40.099Z</time>
      </trkpt>
      <trkpt lat="50.45967" lon="3.16962">
        <ele>28.41</ele>
        <time>2025-05-17T20:23:43.570Z</time>
      </trkpt>
      <trkpt lat="50.45955" lon="3.17002">
        <ele>28.29</ele>
        <time>2025-05-17T20:23:47.046Z</time>
      </trkpt>
      <trkpt lat="50.45943" lon="3.17041">
        <ele>28.27</ele>
        <time>2025-05-17T20:23:50.527Z</time>
      </trkpt>
      <trkpt lat="50.45931" lon="3.17081">
        <ele>28.23</ele>
        <time>2025-05-17T20:23:54.012Z</time>
      </trkpt>
      <trkpt lat="50.45919" lon="3.1712">
        <ele>28.22</ele>
        <time>2025-05-17T20:23:57.502Z</time>
      </trkpt>
      <trkpt lat="50.45907" lon="3.17159">
        <ele>28.2</ele>
        <time>2025-05-17T20:24:00.997Z</time>
      </trkpt>
      <trkpt lat="50.45891" lon="3.17192">
        <ele>28.18</ele>
        <time>2025-05-17T20:24:04.496Z</time>
      </trkpt>
      <trkpt lat="50.45875" lon="3.17224">
        <ele>28.2</ele>
        <time>2025-05-17T20:24:07.999Z</time>
      </trkpt>
      <trkpt lat="50.45858" lon="3.17256">
        <ele>28.18</ele>
        <time>2025-05-17T20:24:11.507Z</time>
      </trkpt>
      <trkpt lat="50.45842" lon="3.17288">
        <ele>28.14</ele>
        <time>2025-05-17T20:24:15.019Z</time>
      </trkpt>
      <trkpt lat="50.45829" lon="3.17326">
        <ele>28.11</ele>
        <time>2025-05-17T20:24:18.536Z</time>
      </trkpt>
      <trkpt lat="50.45816" lon="3.17363">
        <ele>28.06</ele>
        <time>2025-05-17T20:24:22.057Z</time>
      </trkpt>
      <trkpt lat="50.45802" lon="3.17401">
        <ele>28.03</ele>
        <time>2025-05-17T20:24:25.583Z</time>
      </trkpt>
      <trkpt lat="50.45789" lon="3.17438">
        <ele>28.01</ele>
        <time>2025-05-17T20:24:29.114Z</time>
      </trkpt>
      <trkpt lat="50.4577" lon="3.17474">
        <ele>28.02</ele>
        <time>2025-05-17T20:24:32.650Z</time>
      </trkpt>
      <trkpt lat="50.45751" lon="3.17509">
        <ele>28.06</ele>
        <time>2025-05-17T20:24:36.191Z</time>
      </trkpt>
      <trkpt lat="50.45732" lon="3.17545">
        <ele>28.07</ele>
        <time>2025-05-17T20:24:39.736Z</time>
      </trkpt>
      <trkpt lat="50.45714" lon="3.1758">
        <ele>28.12</ele>
        <time>2025-05-17T20:24:43.286Z</time>
      </trkpt>
      <trkpt lat="50.45701" lon="3.17617">
        <ele>28.17</ele>
        <time>2025-05-17T20:24:46.841Z</time>
      </trkpt>
      <trkpt lat="50.45688" lon="3.17653">
        <ele>28.19</ele>
        <time>2025-05-17T20:24:50.400Z</time>
      </trkpt>
      <trkpt lat="50.45675" lon="3.17689">
        <ele>28.27</ele>
        <time>2025-05-17T20:24:53.964Z</time>
      </trkpt>
      <trkpt lat="50.45662" lon="3.17728">
        <ele>28.32</ele>
        <time>2025-05-17T20:24:57.532Z</time>
      </trkpt>
      <trkpt lat="50.45654" lon="3.17771">
        <ele>28.37</ele>
        <time>2025-05-17T20:25:01.105Z</time>
      </trkpt>
      <trkpt lat="50.45648" lon="3.17817">
        <ele>28.44</ele>
        <time>2025-05-17T20:25:04.683Z</time>
      </trkpt>
      <trkpt lat="50.45642" lon="3.17862">
        <ele>28.5</ele>
        <time>2025-05-17T20:25:08.266Z</time>
      </trkpt>
      <trkpt lat="50.45636" lon="3.17908">
        <ele>28.48</ele>
        <time>2025-05-17T20:25:11.854Z</time>
      </trkpt>
      <trkpt lat="50.4563" lon="3.17954">
        <ele>28.41</ele>
        <time>2025-05-17T20:25:15.447Z</time>
      </trkpt>
      <trkpt lat="50.45624" lon="3.17999">
        <ele>28.4</ele>
        <time>2025-05-17T20:25:19.045Z</time>
      </trkpt>
      <trkpt lat="50.45618" lon="3.18045">
        <ele>28.39</ele>
        <time>2025-05-17T20:25:22.648Z</time>
      </trkpt>
      <trkpt lat="50.45612" lon="3.18091">
        <ele>28.42</ele>
        <time>2025-05-17T20:25:26.256Z</time>
      </trkpt>
      <trkpt lat="50.45606" lon="3.18136">
        <ele>28.46</ele>
        <time>2025-05-17T20:25:29.869Z</time>
      </trkpt>
      <trkpt lat="50.456" lon="3.18181">
        <ele>28.44</ele>
        <time>2025-05-17T20:25:33.487Z</time>
      </trkpt>
      <trkpt lat="50.45592" lon="3.18214">
        <ele>28.36</ele>
        <time>2025-05-17T20:25:37.109Z</time>
      </trkpt>
      <trkpt lat="50.45584" lon="3.18248">
        <ele>28.29</ele>
        <time>2025-05-17T20:25:40.735Z</time>
      </trkpt>
      <trkpt lat="50.45576" lon="3.18282">
        <ele>28.2</ele>
        <time>2025-05-17T20:25:44.365Z</time>
      </trkpt>
      <trkpt lat="50.45576" lon="3.18282">
        <ele>28.13</ele>
        <time>2025-05-17T20:25:47.995Z</time>
      </trkpt>
      <trkpt lat="50.45566" lon="3.18321">
        <ele>28.03</ele>
        <time>2025-05-17T20:25:51.629Z</time>
      </trkpt>
      <trkpt lat="50.45556" lon="3.18361">
        <ele>27.96</ele>
        <time>2025-05-17T20:25:55.268Z</time>
      </trkpt>
      <trkpt lat="50.45546" lon="3.18401">
        <ele>27.85</ele>
        <time>2025-05-17T20:25:58.911Z</time>
      </trkpt>
      <trkpt lat="50.45536" lon="3.1844">
        <ele>27.76</ele>
        <time>2025-05-17T20:26:02.559Z</time>
      </trkpt>
      <trkpt lat="50.45532" lon="3.18481">
        <ele>27.65</ele>
        <time>2025-05-17T20:26:06.211Z</time>
      </trkpt>
      <trkpt lat="50.45528" lon="3.18522">
        <ele>27.54</ele>
        <time>2025-05-17T20:26:09.868Z</time>
      </trkpt>
      <trkpt lat="50.45524" lon="3.18563">
        <ele>27.47</ele>
        <time>2025-05-17T20:26:13.529Z</time>
      </trkpt>
      <trkpt lat="50.45521" lon="3.18604">
        <ele>27.43</ele>
        <time>2025-05-17T20:26:17.195Z</time>
      </trkpt>
      <trkpt lat="50.45518" lon="3.18651">
        <ele>27.36</ele>
        <time>2025-05-17T20:26:20.866Z</time>
      </trkpt>
      <trkpt lat="50.45516" lon="3.18699">
        <ele>27.23</ele>
        <time>2025-05-17T20:26:24.542Z</time>
      </trkpt>
      <trkpt lat="50.45514" lon="3.18747">
        <ele>27.13</ele>
        <time>2025-05-17T20:26:28.223Z</time>
      </trkpt>
      <trkpt lat="50.45512" lon="3.18794">
        <ele>27.04</ele>
        <time>2025-05-17T20:26:31.909Z</time>
      </trkpt>
      <trkpt lat="50.45513" lon="3.18843">
        <ele>26.94</ele>
        <time>2025-05-17T20:26:35.600Z</time>
      </trkpt>
      <trkpt lat="50.45515" lon="3.18892">
        <ele>26.84</ele>
        <time>2025-05-17T20:26:39.297Z</time>
      </trkpt>
      <trkpt lat="50.45516" lon="3.1894">
        <ele>26.73</ele>
        <time>2025-05-17T20:26:42.999Z</time>
      </trkpt>
      <trkpt lat="50.45514" lon="3.18968">
        <ele>26.62</ele>
        <time>2025-05-17T20:26:46.704Z</time>
      </trkpt>
      <trkpt lat="50.45504" lon="3.19005">
        <ele>26.46</ele>
        <time>2025-05-17T20:26:50.413Z</time>
      </trkpt>
      <trkpt lat="50.45495" lon="3.19041">
        <ele>26.33</ele>
        <time>2025-05-17T20:26:54.126Z</time>
      </trkpt>
      <trkpt lat="50.45488" lon="3.19088">
        <ele>26.23</ele>
        <time>2025-05-17T20:26:57.844Z</time>
      </trkpt>
      <trkpt lat="50.4549" lon="3.19129">
        <ele>26.16</ele>
        <time>2025-05-17T20:27:01.567Z</time>
      </trkpt>
      <trkpt lat="50.45491" lon="3.19169">
        <ele>26.14</ele>
        <time>2025-05-17T20:27:05.294Z</time>
      </trkpt>
      <trkpt lat="50.45493" lon="3.19209">
        <ele>26.09</ele>
        <time>2025-05-17T20:27:09.025Z</time>
      </trkpt>
      <trkpt lat="50.45496" lon="3.19251">
        <ele>26.04</ele>
        <time>2025-05-17T20:27:12.761Z</time>
      </trkpt>
      <trkpt lat="50.45498" lon="3.19293">
        <ele>25.99</ele>
        <time>2025-05-17T20:27:16.502Z</time>
      </trkpt>
      <trkpt lat="50.45501" lon="3.19335">
        <ele>25.95</ele>
        <time>2025-05-17T20:27:20.247Z</time>
      </trkpt>
      <trkpt lat="50.45497" lon="3.19379">
        <ele>25.88</ele>
        <time>2025-05-17T20:27:23.997Z</time>
      </trkpt>
      <trkpt lat="50.45493" lon="3.19423">
        <ele>25.86</ele>
        <time>2025-05-17T20:27:27.752Z</time>
      </trkpt>
      <trkpt lat="50.4549" lon="3.19467">
        <ele>25.88</ele>
        <time>2025-05-17T20:27:31.511Z</time>
      </trkpt>
      <trkpt lat="50.45486" lon="3.19511">
        <ele>25.89</ele>
        <time>2025-05-17T20:27:35.275Z</time>
      </trkpt>
      <trkpt lat="50.45482" lon="3.19554">
        <ele>25.94</ele>
        <time>2025-05-17T20:27:39.044Z</time>
      </trkpt>
      <trkpt lat="50.45478" lon="3.1959">
        <ele>25.95</ele>
        <time>2025-05-17T20:27:42.817Z</time>
      </trkpt>
      <trkpt lat="50.45473" lon="3.19625">
        <ele>25.95</ele>
        <time>2025-05-17T20:27:46.593Z</time>
      </trkpt>
      <trkpt lat="50.45473" lon="3.19625">
        <ele>25.97</ele>
        <time>2025-05-17T20:27:50.369Z</time>
      </trkpt>
      <trkpt lat="50.45467" lon="3.19668">
        <ele>25.94</ele>
        <time>2025-05-17T20:27:54.150Z</time>
      </trkpt>
      <trkpt lat="50.4546" lon="3.19711">
        <ele>25.93</ele>
        <time>2025-05-17T20:27:57.936Z</time>
      </trkpt>
      <trkpt lat="50.45454" lon="3.19754">
        <ele>26.01</ele>
        <time>2025-05-17T20:28:01.727Z</time>
      </trkpt>
      <trkpt lat="50.45445" lon="3.19793">
        <ele>26.09</ele>
        <time>2025-05-17T20:28:05.522Z</time>
      </trkpt>
      <trkpt lat="50.45436" lon="3.19833">
        <ele>26.09</ele>
        <time>2025-05-17T20:28:09.322Z</time>
      </trkpt>
      <trkpt lat="50.45427" lon="3.19873">
        <ele>26.14</ele>
        <time>2025-05-17T20:28:13.126Z</time>
      </trkpt>
      <trkpt lat="50.45418" lon="3.19912">
        <ele>26.18</ele>
        <time>2025-05-17T20:28:16.935Z</time>
      </trkpt>
      <trkpt lat="50.45409" lon="3.19948">
        <ele>26.2</ele>
        <time>2025-05-17T20:28:20.748Z</time>
      </trkpt>
      <trkpt lat="50.454" lon="3.19984">
        <ele>26.26</ele>
        <time>2025-05-17T20:28:24.565Z</time>
      </trkpt>
      <trkpt lat="50.45392" lon="3.2002">
        <ele>26.31</ele>
        <time>2025-05-17T20:28:28.386Z</time>
      </trkpt>
      <trkpt lat="50.45381" lon="3.2006">
        <ele>26.37</ele>
        <time>2025-05-17T20:28:32.212Z</time>
      </trkpt>
      <trkpt lat="50.4537" lon="3.20099">
        <ele>26.43</ele>
        <time>2025-05-17T20:28:36.042Z</time>
      </trkpt>
      <trkpt lat="50.45362" lon="3.20134">
        <ele>26.53</ele>
        <time>2025-05-17T20:28:39.876Z</time>
      </trkpt>
      <trkpt lat="50.45353" lon="3.20168">
        <ele>26.62</ele>
        <time>2025-05-17T20:28:43.714Z</time>
      </trkpt>
      <trkpt lat="50.45345" lon="3.20202">
        <ele>26.7</ele>
        <time>2025-05-17T20:28:47.556Z</time>
      </trkpt>
      <trkpt lat="50.4533" lon="3.20189">
        <ele>26.75</ele>
        <time>2025-05-17T20:28:51.401Z</time>
      </trkpt>
      <trkpt lat="50.45315" lon="3.20176">
        <ele>26.8</ele>
        <time>2025-05-17T20:28:55.249Z</time>
      </trkpt>
      <trkpt lat="50.45297" lon="3.20167">
        <ele>26.83</ele>
        <time>2025-05-17T20:28:59.100Z</time>
      </trkpt>
      <trkpt lat="50.4528" lon="3.20157">
        <ele>26.85</ele>
        <time>2025-05-17T20:29:02.954Z</time>
      </trkpt>
      <trkpt lat="50.45274" lon="3.20204">
        <ele>26.89</ele>
        <time>2025-05-17T20:29:06.813Z</time>
      </trkpt>
      <trkpt lat="50.45269" lon="3.20252">
        <ele>26.95</ele>
        <time>2025-05-17T20:29:10.677Z</time>
      </trkpt>
      <trkpt lat="50.45263" lon="3.20299">
        <ele>26.96</ele>
        <time>2025-05-17T20:29:14.546Z</time>
      </trkpt>
      <trkpt lat="50.45254" lon="3.20345">
        <ele>26.91</ele>
        <time>2025-05-17T20:29:18.421Z</time>
      </trkpt>
      <trkpt lat="50.45246" lon="3.20391">
        <ele>26.88</ele>
        <time>2025-05-17T20:29:22.301Z</time>
      </trkpt>
      <trkpt lat="50.45241" lon="3.2043">
        <ele>26.84</ele>
        <time>2025-05-17T20:29:26.185Z</time>
      </trkpt>
      <trkpt lat="50.45236" lon="3.2047">
        <ele>26.75</ele>
        <time>2025-05-17T20:29:30.073Z</time>
      </trkpt>
      <trkpt lat="50.45231" lon="3.20509">
        <ele>26.7</ele>
        <time>2025-05-17T20:29:33.966Z</time>
      </trkpt>
      <trkpt lat="50.45229" lon="3.2055">
        <ele>26.65</ele>
        <time>2025-05-17T20:29:37.863Z</time>
      </trkpt>
      <trkpt lat="50.45227" lon="3.20591">
        <ele>26.59</ele>
        <time>2025-05-17T20:29:41.764Z</time>
      </trkpt>
      <trkpt lat="50.45224" lon="3.20632">
        <ele>26.53</ele>
        <time>2025-05-17T20:29:45.670Z</time>
      </trkpt>
      <trkpt lat="50.45222" lon="3.20672">
        <ele>26.4</ele>
        <time>2025-05-17T20:29:49.580Z</time>
      </trkpt>
      <trkpt lat="50.45218" lon="3.20719">
        <ele>26.24</ele>
        <time>2025-05-17T20:29:53.495Z</time>
      </trkpt>
      <trkpt lat="50.45214" lon="3.20767">
        <ele>26.12</ele>
        <time>2025-05-17T20:29:57.415Z</time>
      </trkpt>
      <trkpt lat="50.45209" lon="3.20814">
        <ele>25.99</ele>
        <time>2025-05-17T20:30:01.341Z</time>
      </trkpt>
      <trkpt lat="50.45206" lon="3.20842">
        <ele>25.87</ele>
        <time>2025-05-17T20:30:05.270Z</time>
      </trkpt>
      <trkpt lat="50.45203" lon="3.20869">
        <ele>25.77</ele>
        <time>2025-05-17T20:30:09.202Z</time>
      </trkpt>
      <trkpt lat="50.45197" lon="3.20904">
        <ele>25.68</ele>
        <time>2025-05-17T20:30:13.137Z</time>
      </trkpt>
      <trkpt lat="50.45189" lon="3.20929">
        <ele>25.61</ele>
        <time>2025-05-17T20:30:17.075Z</time>
      </trkpt>
      <trkpt lat="50.45182" lon="3.20953">
        <ele>25.5</ele>
        <time>2025-05-17T20:30:21.016Z</time>
      </trkpt>
      <trkpt lat="50.45169" lon="3.20986">
        <ele>25.41</ele>
        <time>2025-05-17T20:30:24.961Z</time>
      </trkpt>
      <trkpt lat="50.45157" lon="3.21019">
        <ele>25.33</ele>
        <time>2025-05-17T20:30:28.910Z</time>
      </trkpt>
      <trkpt lat="50.45144" lon="3.21052">
        <ele>25.24</ele>
        <time>2025-05-17T20:30:32.864Z</time>
      </trkpt>
      <trkpt lat="50.45132" lon="3.21084">
        <ele>25.16</ele>
        <time>2025-05-17T20:30:36.822Z</time>
      </trkpt>
      <trkpt lat="50.45115" lon="3.21116">
        <ele>25.11</ele>
        <time>2025-05-17T20:30:40.784Z</time>
      </trkpt>
      <trkpt lat="50.45094" lon="3.21145">
        <ele>25.04</ele>
        <time>2025-05-17T20:30:44.751Z</time>
      </trkpt>
      <trkpt lat="50.45072" lon="3.21174">
        <ele>24.99</ele>
        <time>2025-05-17T20:30:48.723Z</time>
      </trkpt>
      <trkpt lat="50.45051" lon="3.21194">
        <ele>24.9</ele>
        <time>2025-05-17T20:30:52.699Z</time>
      </trkpt>
      <trkpt lat="50.45031" lon="3.21214">
        <ele>24.83</ele>
        <time>2025-05-17T20:30:56.679Z</time>
      </trkpt>
      <trkpt lat="50.4501" lon="3.21234">
        <ele>24.77</ele>
        <time>2025-05-17T20:31:00.663Z</time>
      </trkpt>
      <trkpt lat="50.4501" lon="3.21234">
        <ele>24.71</ele>
        <time>2025-05-17T20:31:04.647Z</time>
      </trkpt>
      <trkpt lat="50.44986" lon="3.21258">
        <ele>24.62</ele>
        <time>2025-05-17T20:31:08.636Z</time>
      </trkpt>
      <trkpt lat="50.44963" lon="3.21281">
        <ele>24.53</ele>
        <time>2025-05-17T20:31:12.629Z</time>
      </trkpt>
      <trkpt lat="50.44939" lon="3.21305">
        <ele>24.47</ele>
        <time>2025-05-17T20:31:16.627Z</time>
      </trkpt>
      <trkpt lat="50.44928" lon="3.21322">
        <ele>24.41</ele>
        <time>2025-05-17T20:31:20.628Z</time>
      </trkpt>
      <trkpt lat="50.44924" lon="3.21342">
        <ele>24.36</ele>
        <time>2025-05-17T20:31:24.631Z</time>
      </trkpt>
      <trkpt lat="50.44918" lon="3.21388">
        <ele>24.3</ele>
        <time>2025-05-17T20:31:28.639Z</time>
      </trkpt>
      <trkpt lat="50.44911" lon="3.21435">
        <ele>24.25</ele>
        <time>2025-05-17T20:31:32.652Z</time>
      </trkpt>
      <trkpt lat="50.44905" lon="3.21481">
        <ele>24.19</ele>
        <time>2025-05-17T20:31:36.670Z</time>
      </trkpt>
      <trkpt lat="50.44907" lon="3.215">
        <ele>24.14</ele>
        <time>2025-05-17T20:31:40.690Z</time>
      </trkpt>
      <trkpt lat="50.44917" lon="3.2154">
        <ele>24.08</ele>
        <time>2025-05-17T20:31:44.715Z</time>
      </trkpt>
      <trkpt lat="50.44926" lon="3.2158">
        <ele>24.03</ele>
        <time>2025-05-17T20:31:48.744Z</time>
      </trkpt>
      <trkpt lat="50.4493" lon="3.21606">
        <ele>23.97</ele>
        <time>2025-05-17T20:31:52.776Z</time>
      </trkpt>
      <trkpt lat="50.44935" lon="3.21631">
        <ele>23.9</ele>
        <time>2025-05-17T20:31:56.811Z</time>
      </trkpt>
      <trkpt lat="50.44935" lon="3.21631">
        <ele>23.84</ele>
        <time>2025-05-17T20:32:00.846Z</time>
      </trkpt>
      <trkpt lat="50.44936" lon="3.21679">
        <ele>23.74</ele>
        <time>2025-05-17T20:32:04.886Z</time>
      </trkpt>
      <trkpt lat="50.44937" lon="3.21726">
        <ele>23.69</ele>
        <time>2025-05-17T20:32:08.931Z</time>
      </trkpt>
      <trkpt lat="50.4493" lon="3.21741">
        <ele>23.63</ele>
        <time>2025-05-17T20:32:12.978Z</time>
      </trkpt>
      <trkpt lat="50.44909" lon="3.21764">
        <ele>23.58</ele>
        <time>2025-05-17T20:32:17.029Z</time>
      </trkpt>
      <trkpt lat="50.44896" lon="3.21762">
        <ele>23.52</ele>
        <time>2025-05-17T20:32:21.083Z</time>
      </trkpt>
      <trkpt lat="50.44882" lon="3.21749">
        <ele>23.44</ele>
        <time>2025-05-17T20:32:25.139Z</time>
      </trkpt>
      <trkpt lat="50.44868" lon="3.21736">
        <ele>23.37</ele>
        <time>2025-05-17T20:32:29.198Z</time>
      </trkpt>
      <trkpt lat="50.44851" lon="3.21731">
        <ele>23.29</ele>
        <time>2025-05-17T20:32:33.260Z</time>
      </trkpt>
      <trkpt lat="50.44834" lon="3.21726">
        <ele>23.19</ele>
        <time>2025-05-17T20:32:37.325Z</time>
      </trkpt>
      <trkpt lat="50.44809" lon="3.2172">
        <ele>23.09</ele>
        <time>2025-05-17T20:32:41.394Z</time>
      </trkpt>
      <trkpt lat="50.44785" lon="3.21714">
        <ele>22.95</ele>
        <time>2025-05-17T20:32:45.467Z</time>
      </trkpt>
      <trkpt lat="50.4476" lon="3.21708">
        <ele>22.82</ele>
        <time>2025-05-17T20:32:49.545Z</time>
      </trkpt>
      <trkpt lat="50.44735" lon="3.21702">
        <ele>22.69</ele>
        <time>2025-05-17T20:32:53.627Z</time>
      </trkpt>
      <trkpt lat="50.44711" lon="3.21698">
        <ele>22.54</ele>
        <time>2025-05-17T20:32:57.713Z</time>
      </trkpt>
      <trkpt lat="50.44686" lon="3.21693">
        <ele>22.43</ele>
        <time>2025-05-17T20:33:01.803Z</time>
      </trkpt>
      <trkpt lat="50.44662" lon="3.21691">
        <ele>22.31</ele>
        <time>2025-05-17T20:33:05.897Z</time>
      </trkpt>
      <trkpt lat="50.44639" lon="3.21688">
        <ele>22.15</ele>
        <time>2025-05-17T20:33:09.995Z</time>
      </trkpt>
      <trkpt lat="50.44615" lon="3.21685">
        <ele>21.96</ele>
        <time>2025-05-17T20:33:14.097Z</time>
      </trkpt>
      <trkpt lat="50.44589" lon="3.21693">
        <ele>21.85</ele>
        <time>2025-05-17T20:33:18.203Z</time>
      </trkpt>
      <trkpt lat="50.44564" lon="3.21702">
        <ele>21.78</ele>
        <time>2025-05-17T20:33:22.314Z</time>
      </trkpt>
      <trkpt lat="50.44538" lon="3.21711">
        <ele>21.68</ele>
        <time>2025-05-17T20:33:26.429Z</time>
      </trkpt>
      <trkpt lat="50.44508" lon="3.21715">
        <ele>21.59</ele>
        <time>2025-05-17T20:33:30.549Z</time>
      </trkpt>
      <trkpt lat="50.44501" lon="3.21723">
        <ele>21.51</ele>
        <time>2025-05-17T20:33:34.671Z</time>
      </trkpt>
      <trkpt lat="50.44491" lon="3.21758">
        <ele>21.45</ele>
        <time>2025-05-17T20:33:38.797Z</time>
      </trkpt>
      <trkpt lat="50.44478" lon="3.21776">
        <ele>21.37</ele>
        <time>2025-05-17T20:33:42.926Z</time>
      </trkpt>
      <trkpt lat="50.44465" lon="3.21794">
        <ele>21.31</ele>
        <time>2025-05-17T20:33:47.058Z</time>
      </trkpt>
      <trkpt lat="50.44456" lon="3.21818">
        <ele>21.22</ele>
        <time>2025-05-17T20:33:51.193Z</time>
      </trkpt>
      <trkpt lat="50.44444" lon="3.21863">
        <ele>21.21</ele>
        <time>2025-05-17T20:33:55.333Z</time>
      </trkpt>
      <trkpt lat="50.44432" lon="3.21907">
        <ele>21.22</ele>
        <time>2025-05-17T20:33:59.478Z</time>
      </trkpt>
      <trkpt lat="50.4442" lon="3.21952">
        <ele>21.18</ele>
        <time>2025-05-17T20:34:03.628Z</time>
      </trkpt>
      <trkpt lat="50.44407" lon="3.21997">
        <ele>21.12</ele>
        <time>2025-05-17T20:34:07.783Z</time>
      </trkpt>
      <trkpt lat="50.44395" lon="3.22042">
        <ele>21.06</ele>
        <time>2025-05-17T20:34:11.944Z</time>
      </trkpt>
      <trkpt lat="50.44383" lon="3.22086">
        <ele>21.08</ele>
        <time>2025-05-17T20:34:16.110Z</time>
      </trkpt>
      <trkpt lat="50.44376" lon="3.22129">
        <ele>21.13</ele>
        <time>2025-05-17T20:34:20.281Z</time>
      </trkpt>
      <trkpt lat="50.44368" lon="3.22172">
        <ele>21.19</ele>
        <time>2025-05-17T20:34:24.456Z</time>
      </trkpt>
      <trkpt lat="50.4436" lon="3.22193">
        <ele>21.18</ele>
        <time>2025-05-17T20:34:28.634Z</time>
      </trkpt>
      <trkpt lat="50.44351" lon="3.22215">
        <ele>21.2</ele>
        <time>2025-05-17T20:34:32.815Z</time>
      </trkpt>
      <trkpt lat="50.44326" lon="3.22241">
        <ele>21.16</ele>
        <time>2025-05-17T20:34:37.001Z</time>
      </trkpt>
      <trkpt lat="50.44302" lon="3.22266">
        <ele>21.19</ele>
        <time>2025-05-17T20:34:41.192Z</time>
      </trkpt>
      <trkpt lat="50.44277" lon="3.22292">
        <ele>21.22</ele>
        <time>2025-05-17T20:34:45.388Z</time>
      </trkpt>
      <trkpt lat="50.44252" lon="3.22318">
        <ele>21.26</ele>
        <time>2025-05-17T20:34:49.589Z</time>
      </trkpt>
      <trkpt lat="50.44234" lon="3.22346">
        <ele>21.27</ele>
        <time>2025-05-17T20:34:53.794Z</time>
      </trkpt>
      <trkpt lat="50.44217" lon="3.22374">
        <ele>21.36</ele>
        <time>2025-05-17T20:34:58.003Z</time>
      </trkpt>
      <trkpt lat="50.44199" lon="3.22402">
        <ele>21.4</ele>
        <time>2025-05-17T20:35:02.216Z</time>
      </trkpt>
      <trkpt lat="50.44186" lon="3.22438">
        <ele>21.5</ele>
        <time>2025-05-17T20:35:06.434Z</time>
      </trkpt>
      <trkpt lat="50.44184" lon="3.22479">
        <ele>21.54</ele>
        <time>2025-05-17T20:35:10.656Z</time>
      </trkpt>
      <trkpt lat="50.44186" lon="3.22523">
        <ele>21.59</ele>
        <time>2025-05-17T20:35:14.883Z</time>
      </trkpt>
      <trkpt lat="50.44187" lon="3.22568">
        <ele>21.63</ele>
        <time>2025-05-17T20:35:19.115Z</time>
      </trkpt>
      <trkpt lat="50.44189" lon="3.22612">
        <ele>21.62</ele>
        <time>2025-05-17T20:35:23.352Z</time>
      </trkpt>
      <trkpt lat="50.44191" lon="3.22657">
        <ele>21.62</ele>
        <time>2025-05-17T20:35:27.593Z</time>
      </trkpt>
      <trkpt lat="50.44193" lon="3.22701">
        <ele>21.65</ele>
        <time>2025-05-17T20:35:31.839Z</time>
      </trkpt>
      <trkpt lat="50.44194" lon="3.22745">
        <ele>21.7</ele>
        <time>2025-05-17T20:35:36.090Z</time>
      </trkpt>
      <trkpt lat="50.4419" lon="3.22771">
        <ele>21.77</ele>
        <time>2025-05-17T20:35:40.344Z</time>
      </trkpt>
      <trkpt lat="50.44173" lon="3.22804">
        <ele>21.82</ele>
        <time>2025-05-17T20:35:44.602Z</time>
      </trkpt>
      <trkpt lat="50.44156" lon="3.22837">
        <ele>21.84</ele>
        <time>2025-05-17T20:35:48.865Z</time>
      </trkpt>
      <trkpt lat="50.4414" lon="3.22871">
        <ele>21.89</ele>
        <time>2025-05-17T20:35:53.132Z</time>
      </trkpt>
      <trkpt lat="50.44123" lon="3.22904">
        <ele>21.93</ele>
        <time>2025-05-17T20:35:57.404Z</time>
      </trkpt>
      <trkpt lat="50.44106" lon="3.22937">
        <ele>21.97</ele>
        <time>2025-05-17T20:36:01.681Z</time>
      </trkpt>
      <trkpt lat="50.44089" lon="3.2297">
        <ele>21.99</ele>
        <time>2025-05-17T20:36:05.962Z</time>
      </trkpt>
      <trkpt lat="50.44077" lon="3.23007">
        <ele>22.02</ele>
        <time>2025-05-17T20:36:10.247Z</time>
      </trkpt>
      <trkpt lat="50.44065" lon="3.23043">
        <ele>22.07</ele>
        <time>2025-05-17T20:36:14.537Z</time>
      </trkpt>
      <trkpt lat="50.44053" lon="3.2308">
        <ele>22.11</ele>
        <time>2025-05-17T20:36:18.831Z</time>
      </trkpt>
      <trkpt lat="50.44036" lon="3.23113">
        <ele>22.14</ele>
        <time>2025-05-17T20:36:23.130Z</time>
      </trkpt>
      <trkpt lat="50.44018" lon="3.23147">
        <ele>22.17</ele>
        <time>2025-05-17T20:36:27.434Z</time>
      </trkpt>
      <trkpt lat="50.44001" lon="3.2318">
        <ele>22.23</ele>
        <time>2025-05-17T20:36:31.742Z</time>
      </trkpt>
      <trkpt lat="50.43994" lon="3.23213">
        <ele>22.27</ele>
        <time>2025-05-17T20:36:36.054Z</time>
      </trkpt>
      <trkpt lat="50.43986" lon="3.23245">
        <ele>22.34</ele>
        <time>2025-05-17T20:36:40.369Z</time>
      </trkpt>
      <trkpt lat="50.43972" lon="3.23276">
        <ele>22.33</ele>
        <time>2025-05-17T20:36:44.689Z</time>
      </trkpt>
      <trkpt lat="50.43958" lon="3.23307">
        <ele>22.36</ele>
        <time>2025-05-17T20:36:49.013Z</time>
      </trkpt>
      <trkpt lat="50.43943" lon="3.23335">
        <ele>22.34</ele>
        <time>2025-05-17T20:36:53.341Z</time>
      </trkpt>
      <trkpt lat="50.43928" lon="3.23363">
        <ele>22.33</ele>
        <time>2025-05-17T20:36:57.672Z</time>
      </trkpt>
      <trkpt lat="50.43913" lon="3.23391">
        <ele>22.31</ele>
        <time>2025-05-17T20:37:02.007Z</time>
      </trkpt>
      <trkpt lat="50.43899" lon="3.23407">
        <ele>22.35</ele>
        <time>2025-05-17T20:37:06.345Z</time>
      </trkpt>
      <trkpt lat="50.43885" lon="3.23423">
        <ele>22.39</ele>
        <time>2025-05-17T20:37:10.686Z</time>
      </trkpt>
      <trkpt lat="50.43865" lon="3.23443">
        <ele>22.41</ele>
        <time>2025-05-17T20:37:15.031Z</time>
      </trkpt>
      <trkpt lat="50.43844" lon="3.23463">
        <ele>22.43</ele>
        <time>2025-05-17T20:37:19.380Z</time>
      </trkpt>
      <trkpt lat="50.43823" lon="3.23482">
        <ele>22.45</ele>
        <time>2025-05-17T20:37:23.734Z</time>
      </trkpt>
      <trkpt lat="50.43802" lon="3.23502">
        <ele>22.47</ele>
        <time>2025-05-17T20:37:28.092Z</time>
      </trkpt>
      <trkpt lat="50.43789" lon="3.23519">
        <ele>22.5</ele>
        <time>2025-05-17T20:37:32.452Z</time>
      </trkpt>
      <trkpt lat="50.43776" lon="3.23537">
        <ele>22.52</ele>
        <time>2025-05-17T20:37:36.815Z</time>
      </trkpt>
      <trkpt lat="50.43758" lon="3.23566">
        <ele>22.57</ele>
        <time>2025-05-17T20:37:41.183Z</time>
      </trkpt>
      <trkpt lat="50.43739" lon="3.23595">
        <ele>22.59</ele>
        <time>2025-05-17T20:37:45.555Z</time>
      </trkpt>
      <trkpt lat="50.43721" lon="3.23624">
        <ele>22.6</ele>
        <time>2025-05-17T20:37:49.932Z</time>
      </trkpt>
      <trkpt lat="50.43702" lon="3.23654">
        <ele>22.67</ele>
        <time>2025-05-17T20:37:54.313Z</time>
      </trkpt>
      <trkpt lat="50.43684" lon="3.23683">
        <ele>22.7</ele>
        <time>2025-05-17T20:37:58.698Z</time>
      </trkpt>
      <trkpt lat="50.43671" lon="3.23706">
        <ele>22.7</ele>
        <time>2025-05-17T20:38:03.087Z</time>
      </trkpt>
      <trkpt lat="50.43658" lon="3.2373">
        <ele>22.72</ele>
        <time>2025-05-17T20:38:07.479Z</time>
      </trkpt>
      <trkpt lat="50.43645" lon="3.23738">
        <ele>22.77</ele>
        <time>2025-05-17T20:38:11.873Z</time>
      </trkpt>
      <trkpt lat="50.43642" lon="3.23775">
        <ele>22.76</ele>
        <time>2025-05-17T20:38:16.271Z</time>
      </trkpt>
      <trkpt lat="50.43639" lon="3.23811">
        <ele>22.78</ele>
        <time>2025-05-17T20:38:20.673Z</time>
      </trkpt>
      <trkpt lat="50.43637" lon="3.23848">
        <ele>22.81</ele>
        <time>2025-05-17T20:38:25.079Z</time>
      </trkpt>
      <trkpt lat="50.43637" lon="3.23891">
        <ele>22.84</ele>
        <time>2025-05-17T20:38:29.490Z</time>
      </trkpt>
      <trkpt lat="50.43637" lon="3.23934">
        <ele>22.9</ele>
        <time>2025-05-17T20:38:33.905Z</time>
      </trkpt>
      <trkpt lat="50.43637" lon="3.23978">
        <ele>22.94</ele>
        <time>2025-05-17T20:38:38.325Z</time>
      </trkpt>
      <trkpt lat="50.43637" lon="3.24021">
        <ele>22.98</ele>
        <time>2025-05-17T20:38:42.750Z</time>
      </trkpt>
      <trkpt lat="50.43637" lon="3.24064">
        <ele>22.99</ele>
        <time>2025-05-17T20:38:47.179Z</time>
      </trkpt>
      <trkpt lat="50.43645" lon="3.2411">
        <ele>22.95</ele>
        <time>2025-05-17T20:38:51.613Z</time>
      </trkpt>
      <trkpt lat="50.43654" lon="3.24141">
        <ele>22.93</ele>
        <time>2025-05-17T20:38:56.051Z</time>
      </trkpt>
      <trkpt lat="50.43662" lon="3.24173">
        <ele>22.91</ele>
        <time>2025-05-17T20:39:00.493Z</time>
      </trkpt>
      <trkpt lat="50.43671" lon="3.24204">
        <ele>22.91</ele>
        <time>2025-05-17T20:39:04.938Z</time>
      </trkpt>
      <trkpt lat="50.43675" lon="3.24236">
        <ele>22.9</ele>
        <time>2025-05-17T20:39:09.387Z</time>
      </trkpt>
      <trkpt lat="50.43671" lon="3.24255">
        <ele>22.87</ele>
        <time>2025-05-17T20:39:13.838Z</time>
      </trkpt>
      <trkpt lat="50.43664" lon="3.24268">
        <ele>22.85</ele>
        <time>2025-05-17T20:39:18.291Z</time>
      </trkpt>
      <trkpt lat="50.4364" lon="3.24295">
        <ele>22.88</ele>
        <time>2025-05-17T20:39:22.749Z</time>
      </trkpt>
      <trkpt lat="50.43615" lon="3.24322">
        <ele>22.89</ele>
        <time>2025-05-17T20:39:27.212Z</time>
      </trkpt>
      <trkpt lat="50.43595" lon="3.24346">
        <ele>22.82</ele>
        <time>2025-05-17T20:39:31.679Z</time>
      </trkpt>
      <trkpt lat="50.43574" lon="3.2437">
        <ele>22.76</ele>
        <time>2025-05-17T20:39:36.151Z</time>
      </trkpt>
      <trkpt lat="50.43554" lon="3.24394">
        <ele>22.68</ele>
        <time>2025-05-17T20:39:40.627Z</time>
      </trkpt>
      <trkpt lat="50.43534" lon="3.24419">
        <ele>22.63</ele>
        <time>2025-05-17T20:39:45.107Z</time>
      </trkpt>
      <trkpt lat="50.43515" lon="3.24443">
        <ele>22.58</ele>
        <time>2025-05-17T20:39:49.591Z</time>
      </trkpt>
      <trkpt lat="50.43496" lon="3.24467">
        <ele>22.56</ele>
        <time>2025-05-17T20:39:54.079Z</time>
      </trkpt>
      <trkpt lat="50.43478" lon="3.24492">
        <ele>22.5</ele>
        <time>2025-05-17T20:39:58.571Z</time>
      </trkpt>
      <trkpt lat="50.43467" lon="3.24507">
        <ele>22.43</ele>
        <time>2025-05-17T20:40:03.066Z</time>
      </trkpt>
      <trkpt lat="50.43461" lon="3.24517">
        <ele>22.34</ele>
        <time>2025-05-17T20:40:07.562Z</time>
      </trkpt>
      <trkpt lat="50.43447" lon="3.24539">
        <ele>22.23</ele>
        <time>2025-05-17T20:40:12.062Z</time>
      </trkpt>
      <trkpt lat="50.43433" lon="3.2456">
        <ele>22.14</ele>
        <time>2025-05-17T20:40:16.565Z</time>
      </trkpt>
      <trkpt lat="50.43426" lon="3.24571">
        <ele>22.05</ele>
        <time>2025-05-17T20:40:21.070Z</time>
      </trkpt>
      <trkpt lat="50.43409" lon="3.2459">
        <ele>21.95</ele>
        <time>2025-05-17T20:40:25.578Z</time>
      </trkpt>
      <trkpt lat="50.43392" lon="3.2461">
        <ele>21.86</ele>
        <time>2025-05-17T20:40:30.090Z</time>
      </trkpt>
      <trkpt lat="50.43368" lon="3.24629">
        <ele>21.77</ele>
        <time>2025-05-17T20:40:34.606Z</time>
      </trkpt>
      <trkpt lat="50.43345" lon="3.24652">
        <ele>21.69</ele>
        <time>2025-05-17T20:40:39.127Z</time>
      </trkpt>
      <trkpt lat="50.43323" lon="3.24667">
        <ele>21.58</ele>
        <time>2025-05-17T20:40:43.652Z</time>
      </trkpt>
      <trkpt lat="50.43302" lon="3.24682">
        <ele>21.46</ele>
        <time>2025-05-17T20:40:48.181Z</time>
      </trkpt>
      <trkpt lat="50.4328" lon="3.24695">
        <ele>21.32</ele>
        <time>2025-05-17T20:40:52.714Z</time>
      </trkpt>
      <trkpt lat="50.43267" lon="3.24706">
        <ele>21.21</ele>
        <time>2025-05-17T20:40:57.249Z</time>
      </trkpt>
      <trkpt lat="50.43259" lon="3.24721">
        <ele>21.1</ele>
        <time>2025-05-17T20:41:01.786Z</time>
      </trkpt>
      <trkpt lat="50.4325" lon="3.24753">
        <ele>21</ele>
        <time>2025-05-17T20:41:06.327Z</time>
      </trkpt>
      <trkpt lat="50.43248" lon="3.24794">
        <ele>20.91</ele>
        <time>2025-05-17T20:41:10.872Z</time>
      </trkpt>
      <trkpt lat="50.43243" lon="3.24836">
        <ele>20.79</ele>
        <time>2025-05-17T20:41:15.422Z</time>
      </trkpt>
      <trkpt lat="50.43237" lon="3.24878">
        <ele>20.69</ele>
        <time>2025-05-17T20:41:19.976Z</time>
      </trkpt>
      <trkpt lat="50.43232" lon="3.24918">
        <ele>20.59</ele>
        <time>2025-05-17T20:41:24.535Z</time>
      </trkpt>
      <trkpt lat="50.43227" lon="3.24957">
        <ele>20.49</ele>
        <time>2025-05-17T20:41:29.098Z</time>
      </trkpt>
      <trkpt lat="50.43227" lon="3.24991">
        <ele>20.43</ele>
        <time>2025-05-17T20:41:33.665Z</time>
      </trkpt>
      <trkpt lat="50.43222" lon="3.25034">
        <ele>20.36</ele>
        <time>2025-05-17T20:41:38.237Z</time>
      </trkpt>
      <trkpt lat="50.43218" lon="3.25077">
        <ele>20.29</ele>
        <time>2025-05-17T20:41:42.813Z</time>
      </trkpt>
      <trkpt lat="50.43213" lon="3.2512">
        <ele>20.21</ele>
        <time>2025-05-17T20:41:47.394Z</time>
      </trkpt>
      <trkpt lat="50.43208" lon="3.25163">
        <ele>20.17</ele>
        <time>2025-05-17T20:41:51.979Z</time>
      </trkpt>
      <trkpt lat="50.43204" lon="3.25205">
        <ele>20.13</ele>
        <time>2025-05-17T20:41:56.569Z</time>
      </trkpt>
      <trkpt lat="50.43199" lon="3.25248">
        <ele>20.09</ele>
        <time>2025-05-17T20:42:01.164Z</time>
      </trkpt>
      <trkpt lat="50.43195" lon="3.25291">
        <ele>20.09</ele>
        <time>2025-05-17T20:42:05.763Z</time>
      </trkpt>
      <trkpt lat="50.4319" lon="3.25333">
        <ele>20.05</ele>
        <time>2025-05-17T20:42:10.367Z</time>
      </trkpt>
      <trkpt lat="50.4322" lon="3.25326">
        <ele>20.04</ele>
        <time>2025-05-17T20:42:14.976Z</time>
      </trkpt>
      <trkpt lat="50.43248" lon="3.25307">
        <ele>19.97</ele>
        <time>2025-05-17T20:42:19.590Z</time>
      </trkpt>
      <trkpt lat="50.43276" lon="3.25288">
        <ele>19.91</ele>
        <time>2025-05-17T20:42:24.209Z</time>
      </trkpt>
      <trkpt lat="50.43287" lon="3.25263">
        <ele>19.9</ele>
        <time>2025-05-17T20:42:28.832Z</time>
      </trkpt>
      <trkpt lat="50.43302" lon="3.2523">
        <ele>19.89</ele>
        <time>2025-05-17T20:42:33.459Z</time>
      </trkpt>
      <trkpt lat="50.43317" lon="3.25198">
        <ele>19.87</ele>
        <time>2025-05-17T20:42:38.090Z</time>
      </trkpt>
      <trkpt lat="50.43332" lon="3.25165">
        <ele>19.89</ele>
        <time>2025-05-17T20:42:42.725Z</time>
      </trkpt>
      <trkpt lat="50.43332" lon="3.25165">
        <ele>19.89</ele>
        <time>2025-05-17T20:42:47.360Z</time>
      </trkpt>
      <trkpt lat="50.43345" lon="3.25135">
        <ele>19.92</ele>
        <time>2025-05-17T20:42:51.999Z</time>
      </trkpt>
      <trkpt lat="50.43351" lon="3.25131">
        <ele>19.94</ele>
        <time>2025-05-17T20:42:56.639Z</time>
      </trkpt>
      <trkpt lat="50.4336" lon="3.25131">
        <ele>19.96</ele>
        <time>2025-05-17T20:43:01.281Z</time>
      </trkpt>
      <trkpt lat="50.43385" lon="3.25147">
        <ele>20</ele>
        <time>2025-05-17T20:43:05.927Z</time>
      </trkpt>
      <trkpt lat="50.4341" lon="3.25164">
        <ele>20.04</ele>
        <time>2025-05-17T20:43:10.578Z</time>
      </trkpt>
      <trkpt lat="50.43435" lon="3.2518">
        <ele>20.02</ele>
        <time>2025-05-17T20:43:15.234Z</time>
      </trkpt>
      <trkpt lat="50.4345" lon="3.25185">
        <ele>19.99</ele>
        <time>2025-05-17T20:43:19.892Z</time>
      </trkpt>
      <trkpt lat="50.43472" lon="3.25178">
        <ele>19.95</ele>
        <time>2025-05-17T20:43:24.554Z</time>
      </trkpt>
      <trkpt lat="50.43495" lon="3.25172">
        <ele>19.97</ele>
        <time>2025-05-17T20:43:29.220Z</time>
      </trkpt>
      <trkpt lat="50.43521" lon="3.25178">
        <ele>20</ele>
        <time>2025-05-17T20:43:33.890Z</time>
      </trkpt>
      <trkpt lat="50.43548" lon="3.25185">
        <ele>20.05</ele>
        <time>2025-05-17T20:43:38.565Z</time>
      </trkpt>
      <trkpt lat="50.43574" lon="3.25191">
        <ele>20.02</ele>
        <time>2025-05-17T20:43:43.244Z</time>
      </trkpt>
      <trkpt lat="50.43572" lon="3.25223">
        <ele>19.93</ele>
        <time>2025-05-17T20:43:47.927Z</time>
      </trkpt>
      <trkpt lat="50.43572" lon="3.25253">
        <ele>19.85</ele>
        <time>2025-05-17T20:43:52.613Z</time>
      </trkpt>
      <trkpt lat="50.43578" lon="3.25298">
        <ele>19.75</ele>
        <time>2025-05-17T20:43:57.304Z</time>
      </trkpt>
      <trkpt lat="50.43584" lon="3.25343">
        <ele>19.68</ele>
        <time>2025-05-17T20:44:02.000Z</time>
      </trkpt>
      <trkpt lat="50.4359" lon="3.25387">
        <ele>19.56</ele>
        <time>2025-05-17T20:44:06.701Z</time>
      </trkpt>
      <trkpt lat="50.43596" lon="3.25432">
        <ele>19.54</ele>
        <time>2025-05-17T20:44:11.407Z</time>
      </trkpt>
      <trkpt lat="50.43596" lon="3.25433">
        <ele>19.49</ele>
        <time>2025-05-17T20:44:16.113Z</time>
      </trkpt>
      <trkpt lat="50.43601" lon="3.25459">
        <ele>19.45</ele>
        <time>2025-05-17T20:44:20.822Z</time>
      </trkpt>
      <trkpt lat="50.43607" lon="3.25485">
        <ele>19.41</ele>
        <time>2025-05-17T20:44:25.534Z</time>
      </trkpt>
      <trkpt lat="50.43623" lon="3.25523">
        <ele>19.33</ele>
        <time>2025-05-17T20:44:30.250Z</time>
      </trkpt>
      <trkpt lat="50.43639" lon="3.2556">
        <ele>19.3</ele>
        <time>2025-05-17T20:44:34.971Z</time>
      </trkpt>
      <trkpt lat="50.43649" lon="3.25599">
        <ele>19.28</ele>
        <time>2025-05-17T20:44:39.697Z</time>
      </trkpt>
      <trkpt lat="50.4366" lon="3.25637">
        <ele>19.27</ele>
        <time>2025-05-17T20:44:44.427Z</time>
      </trkpt>
      <trkpt lat="50.43673" lon="3.25665">
        <ele>19.27</ele>
        <time>2025-05-17T20:44:49.161Z</time>
      </trkpt>
      <trkpt lat="50.43692" lon="3.25685">
        <ele>19.28</ele>
        <time>2025-05-17T20:44:53.899Z</time>
      </trkpt>
      <trkpt lat="50.43712" lon="3.25704">
        <ele>19.31</ele>
        <time>2025-05-17T20:44:58.641Z</time>
      </trkpt>
      <trkpt lat="50.43729" lon="3.25712">
        <ele>19.35</ele>
        <time>2025-05-17T20:45:03.386Z</time>
      </trkpt>
      <trkpt lat="50.43746" lon="3.25715">
        <ele>19.4</ele>
        <time>2025-05-17T20:45:08.134Z</time>
      </trkpt>
      <trkpt lat="50.43751" lon="3.25758">
        <ele>19.51</ele>
        <time>2025-05-17T20:45:12.886Z</time>
      </trkpt>
      <trkpt lat="50.43756" lon="3.25802">
        <ele>19.59</ele>
        <time>2025-05-17T20:45:17.643Z</time>
      </trkpt>
      <trkpt lat="50.43761" lon="3.25845">
        <ele>19.74</ele>
        <time>2025-05-17T20:45:22.405Z</time>
      </trkpt>
      <trkpt lat="50.43765" lon="3.25888">
        <ele>19.85</ele>
        <time>2025-05-17T20:45:27.172Z</time>
      </trkpt>
      <trkpt lat="50.43763" lon="3.25928">
        <ele>19.95</ele>
        <time>2025-05-17T20:45:31.943Z</time>
      </trkpt>
      <trkpt lat="50.4376" lon="3.25968">
        <ele>20.08</ele>
        <time>2025-05-17T20:45:36.718Z</time>
      </trkpt>
      <trkpt lat="50.43758" lon="3.26008">
        <ele>20.26</ele>
        <time>2025-05-17T20:45:41.497Z</time>
      </trkpt>
      <trkpt lat="50.43755" lon="3.26048">
        <ele>20.44</ele>
        <time>2025-05-17T20:45:46.281Z</time>
      </trkpt>
      <trkpt lat="50.43752" lon="3.26088">
        <ele>20.63</ele>
        <time>2025-05-17T20:45:51.069Z</time>
      </trkpt>
      <trkpt lat="50.43747" lon="3.26134">
        <ele>20.84</ele>
        <time>2025-05-17T20:45:55.862Z</time>
      </trkpt>
      <trkpt lat="50.43742" lon="3.2618">
        <ele>21.06</ele>
        <time>2025-05-17T20:46:00.660Z</time>
      </trkpt>
      <trkpt lat="50.43746" lon="3.26229">
        <ele>21.34</ele>
        <time>2025-05-17T20:46:05.463Z</time>
      </trkpt>
      <trkpt lat="50.4375" lon="3.26277">
        <ele>21.6</ele>
        <time>2025-05-17T20:46:10.272Z</time>
      </trkpt>
      <trkpt lat="50.4375" lon="3.26283">
        <ele>21.85</ele>
        <time>2025-05-17T20:46:15.081Z</time>
      </trkpt>
      <trkpt lat="50.43767" lon="3.26281">
        <ele>22.08</ele>
        <time>2025-05-17T20:46:19.893Z</time>
      </trkpt>
      <trkpt lat="50.43767" lon="3.26281">
        <ele>22.35</ele>
        <time>2025-05-17T20:46:24.705Z</time>
      </trkpt>
      <trkpt lat="50.43773" lon="3.26328">
        <ele>22.62</ele>
        <time>2025-05-17T20:46:29.522Z</time>
      </trkpt>
      <trkpt lat="50.43779" lon="3.26376">
        <ele>22.91</ele>
        <time>2025-05-17T20:46:34.345Z</time>
      </trkpt>
      <trkpt lat="50.43786" lon="3.26423">
        <ele>23.2</ele>
        <time>2025-05-17T20:46:39.173Z</time>
      </trkpt>
      <trkpt lat="50.43792" lon="3.2647">
        <ele>23.5</ele>
        <time>2025-05-17T20:46:44.006Z</time>
      </trkpt>
      <trkpt lat="50.43797" lon="3.26517">
        <ele>23.78</ele>
        <time>2025-05-17T20:46:48.844Z</time>
      </trkpt>
      <trkpt lat="50.43797" lon="3.26561">
        <ele>24.12</ele>
        <time>2025-05-17T20:46:53.687Z</time>
      </trkpt>
      <trkpt lat="50.43798" lon="3.26605">
        <ele>24.52</ele>
        <time>2025-05-17T20:46:58.534Z</time>
      </trkpt>
      <trkpt lat="50.43795" lon="3.2665">
        <ele>24.95</ele>
        <time>2025-05-17T20:47:03.386Z</time>
      </trkpt>
      <trkpt lat="50.43793" lon="3.26695">
        <ele>25.3</ele>
        <time>2025-05-17T20:47:08.243Z</time>
      </trkpt>
      <trkpt lat="50.43791" lon="3.2674">
        <ele>25.62</ele>
        <time>2025-05-17T20:47:13.105Z</time>
      </trkpt>
      <trkpt lat="50.43789" lon="3.26784">
        <ele>25.94</ele>
        <time>2025-05-17T20:47:17.972Z</time>
      </trkpt>
      <trkpt lat="50.43787" lon="3.26829">
        <ele>26.29</ele>
        <time>2025-05-17T20:47:22.844Z</time>
      </trkpt>
      <trkpt lat="50.43785" lon="3.26873">
        <ele>26.66</ele>
        <time>2025-05-17T20:47:27.720Z</time>
      </trkpt>
      <trkpt lat="50.43782" lon="3.26923">
        <ele>26.94</ele>
        <time>2025-05-17T20:47:32.602Z</time>
      </trkpt>
      <trkpt lat="50.4378" lon="3.26972">
        <ele>27.18</ele>
        <time>2025-05-17T20:47:37.489Z</time>
      </trkpt>
      <trkpt lat="50.43778" lon="3.27021">
        <ele>27.41</ele>
        <time>2025-05-17T20:47:42.381Z</time>
      </trkpt>
      <trkpt lat="50.43776" lon="3.2707">
        <ele>27.63</ele>
        <time>2025-05-17T20:47:47.278Z</time>
      </trkpt>
      <trkpt lat="50.43774" lon="3.27119">
        <ele>27.86</ele>
        <time>2025-05-17T20:47:52.181Z</time>
      </trkpt>
      <trkpt lat="50.43772" lon="3.27169">
        <ele>28.08</ele>
        <time>2025-05-17T20:47:57.089Z</time>
      </trkpt>
      <trkpt lat="50.4377" lon="3.27218">
        <ele>28.29</ele>
        <time>2025-05-17T20:48:02.002Z</time>
      </trkpt>
      <trkpt lat="50.43767" lon="3.27266">
        <ele>28.49</ele>
        <time>2025-05-17T20:48:06.920Z</time>
      </trkpt>
      <trkpt lat="50.43765" lon="3.27314">
        <ele>28.76</ele>
        <time>2025-05-17T20:48:11.844Z</time>
      </trkpt>
      <trkpt lat="50.43763" lon="3.27362">
        <ele>29.04</ele>
        <time>2025-05-17T20:48:16.773Z</time>
      </trkpt>
      <trkpt lat="50.43761" lon="3.2741">
        <ele>29.27</ele>
        <time>2025-05-17T20:48:21.707Z</time>
      </trkpt>
      <trkpt lat="50.43759" lon="3.27459">
        <ele>29.37</ele>
        <time>2025-05-17T20:48:26.646Z</time>
      </trkpt>
      <trkpt lat="50.43757" lon="3.27507">
        <ele>29.49</ele>
        <time>2025-05-17T20:48:31.590Z</time>
      </trkpt>
      <trkpt lat="50.43755" lon="3.27555">
        <ele>29.63</ele>
        <time>2025-05-17T20:48:36.540Z</time>
      </trkpt>
      <trkpt lat="50.43753" lon="3.27603">
        <ele>29.83</ele>
        <time>2025-05-17T20:48:41.495Z</time>
      </trkpt>
      <trkpt lat="50.43751" lon="3.27651">
        <ele>29.91</ele>
        <time>2025-05-17T20:48:46.455Z</time>
      </trkpt>
      <trkpt lat="50.43749" lon="3.27699">
        <ele>29.98</ele>
        <time>2025-05-17T20:48:51.420Z</time>
      </trkpt>
      <trkpt lat="50.43747" lon="3.27747">
        <ele>30.12</ele>
        <time>2025-05-17T20:48:56.390Z</time>
      </trkpt>
      <trkpt lat="50.43745" lon="3.27796">
        <ele>30.21</ele>
        <time>2025-05-17T20:49:01.365Z</time>
      </trkpt>
      <trkpt lat="50.43743" lon="3.27844">
        <ele>30.22</ele>
        <time>2025-05-17T20:49:06.346Z</time>
      </trkpt>
      <trkpt lat="50.43741" lon="3.27892">
        <ele>30.26</ele>
        <time>2025-05-17T20:49:11.332Z</time>
      </trkpt>
      <trkpt lat="50.43739" lon="3.2794">
        <ele>30.31</ele>
        <time>2025-05-17T20:49:16.323Z</time>
      </trkpt>
      <trkpt lat="50.43737" lon="3.27988">
        <ele>30.38</ele>
        <time>2025-05-17T20:49:21.319Z</time>
      </trkpt>
      <trkpt lat="50.43735" lon="3.28034">
        <ele>30.44</ele>
        <time>2025-05-17T20:49:26.320Z</time>
      </trkpt>
      <trkpt lat="50.43733" lon="3.28043">
        <ele>30.52</ele>
        <time>2025-05-17T20:49:31.322Z</time>
      </trkpt>
      <trkpt lat="50.43733" lon="3.28058">
        <ele>30.6</ele>
        <time>2025-05-17T20:49:36.326Z</time>
      </trkpt>
      <trkpt lat="50.43731" lon="3.28104">
        <ele>30.72</ele>
        <time>2025-05-17T20:49:41.335Z</time>
      </trkpt>
      <trkpt lat="50.43729" lon="3.28151">
        <ele>30.87</ele>
        <time>2025-05-17T20:49:46.349Z</time>
      </trkpt>
      <trkpt lat="50.43728" lon="3.28198">
        <ele>30.97</ele>
        <time>2025-05-17T20:49:51.368Z</time>
      </trkpt>
      <trkpt lat="50.43726" lon="3.28245">
        <ele>31.03</ele>
        <time>2025-05-17T20:49:56.392Z</time>
      </trkpt>
      <trkpt lat="50.43724" lon="3.28291">
        <ele>31.12</ele>
        <time>2025-05-17T20:50:01.421Z</time>
      </trkpt>
      <trkpt lat="50.43722" lon="3.28338">
        <ele>31.25</ele>
        <time>2025-05-17T20:50:06.455Z</time>
      </trkpt>
      <trkpt lat="50.4372" lon="3.28384">
        <ele>31.38</ele>
        <time>2025-05-17T20:50:11.494Z</time>
      </trkpt>
      <trkpt lat="50.43718" lon="3.28408">
        <ele>31.47</ele>
        <time>2025-05-17T20:50:16.535Z</time>
      </trkpt>
      <trkpt lat="50.43716" lon="3.28452">
        <ele>31.61</ele>
        <time>2025-05-17T20:50:21.581Z</time>
      </trkpt>
      <trkpt lat="50.43715" lon="3.28497">
        <ele>31.7</ele>
        <time>2025-05-17T20:50:26.632Z</time>
      </trkpt>
      <trkpt lat="50.43713" lon="3.28541">
        <ele>31.79</ele>
        <time>2025-05-17T20:50:31.688Z</time>
      </trkpt>
      <trkpt lat="50.43711" lon="3.28586">
        <ele>31.86</ele>
        <time>2025-05-17T20:50:36.748Z</time>
      </trkpt>
      <trkpt lat="50.43709" lon="3.2863">
        <ele>31.99</ele>
        <time>2025-05-17T20:50:41.813Z</time>
      </trkpt>
      <trkpt lat="50.43708" lon="3.28675">
        <ele>32.04</ele>
        <time>2025-05-17T20:50:46.883Z</time>
      </trkpt>
      <trkpt lat="50.43706" lon="3.28719">
        <ele>32.08</ele>
        <time>2025-05-17T20:50:51.958Z</time>
      </trkpt>
      <trkpt lat="50.43704" lon="3.28764">
        <ele>32.14</ele>
        <time>2025-05-17T20:50:57.038Z</time>
      </trkpt>
      <trkpt lat="50.43703" lon="3.28808">
        <ele>32.15</ele>
        <time>2025-05-17T20:51:02.122Z</time>
      </trkpt>
      <trkpt lat="50.43701" lon="3.28852">
        <ele>32.15</ele>
        <time>2025-05-17T20:51:07.211Z</time>
      </trkpt>
      <trkpt lat="50.43699" lon="3.28893">
        <ele>32.17</ele>
        <time>2025-05-17T20:51:12.304Z</time>
      </trkpt>
      <trkpt lat="50.43698" lon="3.28935">
        <ele>32.2</ele>
        <time>2025-05-17T20:51:17.402Z</time>
      </trkpt>
      <trkpt lat="50.43696" lon="3.28976">
        <ele>32.22</ele>
        <time>2025-05-17T20:51:22.504Z</time>
      </trkpt>
      <trkpt lat="50.43695" lon="3.29017">
        <ele>32.2</ele>
        <time>2025-05-17T20:51:27.611Z</time>
      </trkpt>
      <trkpt lat="50.43692" lon="3.2903">
        <ele>32.19</ele>
        <time>2025-05-17T20:51:32.719Z</time>
      </trkpt>
      <trkpt lat="50.43691" lon="3.29069">
        <ele>32.2</ele>
        <time>2025-05-17T20:51:37.831Z</time>
      </trkpt>
      <trkpt lat="50.43689" lon="3.29108">
        <ele>32.2</ele>
        <time>2025-05-17T20:51:42.948Z</time>
      </trkpt>
      <trkpt lat="50.43687" lon="3.29148">
        <ele>32.19</ele>
        <time>2025-05-17T20:51:48.069Z</time>
      </trkpt>
      <trkpt lat="50.43686" lon="3.29187">
        <ele>32.18</ele>
        <time>2025-05-17T20:51:53.194Z</time>
      </trkpt>
      <trkpt lat="50.43684" lon="3.29228">
        <ele>32.19</ele>
        <time>2025-05-17T20:51:58.323Z</time>
      </trkpt>
      <trkpt lat="50.43682" lon="3.2927">
        <ele>32.21</ele>
        <time>2025-05-17T20:52:03.457Z</time>
      </trkpt>
      <trkpt lat="50.43681" lon="3.29312">
        <ele>32.18</ele>
        <time>2025-05-17T20:52:08.595Z</time>
      </trkpt>
      <trkpt lat="50.43679" lon="3.29353">
        <ele>32.14</ele>
        <time>2025-05-17T20:52:13.738Z</time>
      </trkpt>
      <trkpt lat="50.43677" lon="3.29395">
        <ele>32.08</ele>
        <time>2025-05-17T20:52:18.885Z</time>
      </trkpt>
      <trkpt lat="50.43679" lon="3.29425">
        <ele>31.97</ele>
        <time>2025-05-17T20:52:24.036Z</time>
      </trkpt>
      <trkpt lat="50.43685" lon="3.29452">
        <ele>31.85</ele>
        <time>2025-05-17T20:52:29.190Z</time>
      </trkpt>
      <trkpt lat="50.4369" lon="3.29478">
        <ele>31.78</ele>
        <time>2025-05-17T20:52:34.347Z</time>
      </trkpt>
      <trkpt lat="50.43699" lon="3.29478">
        <ele>31.72</ele>
        <time>2025-05-17T20:52:39.505Z</time>
      </trkpt>
      <trkpt lat="50.43716" lon="3.29476">
        <ele>31.69</ele>
        <time>2025-05-17T20:52:44.666Z</time>
      </trkpt>
      <trkpt lat="50.43739" lon="3.29474">
        <ele>31.67</ele>
        <time>2025-05-17T20:52:49.831Z</time>
      </trkpt>
      <trkpt lat="50.43762" lon="3.29472">
        <ele>31.63</ele>
        <time>2025-05-17T20:52:55.000Z</time>
      </trkpt>
      <trkpt lat="50.43785" lon="3.2947">
        <ele>31.57</ele>
        <time>2025-05-17T20:53:00.173Z</time>
      </trkpt>
      <trkpt lat="50.43811" lon="3.29466">
        <ele>31.49</ele>
        <time>2025-05-17T20:53:05.350Z</time>
      </trkpt>
      <trkpt lat="50.43838" lon="3.29463">
        <ele>31.37</ele>
        <time>2025-05-17T20:53:10.532Z</time>
      </trkpt>
      <trkpt lat="50.43862" lon="3.29465">
        <ele>31.25</ele>
        <time>2025-05-17T20:53:15.718Z</time>
      </trkpt>
      <trkpt lat="50.43885" lon="3.29468">
        <ele>31.17</ele>
        <time>2025-05-17T20:53:20.907Z</time>
      </trkpt>
      <trkpt lat="50.43916" lon="3.29463">
        <ele>31.07</ele>
        <time>2025-05-17T20:53:26.102Z</time>
      </trkpt>
      <trkpt lat="50.43942" lon="3.29446">
        <ele>30.92</ele>
        <time>2025-05-17T20:53:31.301Z</time>
      </trkpt>
      <trkpt lat="50.43969" lon="3.29428">
        <ele>30.83</ele>
        <time>2025-05-17T20:53:36.505Z</time>
      </trkpt>
      <trkpt lat="50.43996" lon="3.2941">
        <ele>30.74</ele>
        <time>2025-05-17T20:53:41.714Z</time>
      </trkpt>
      <trkpt lat="50.44023" lon="3.29392">
        <ele>30.64</ele>
        <time>2025-05-17T20:53:46.928Z</time>
      </trkpt>
      <trkpt lat="50.4404" lon="3.29386">
        <ele>30.5</ele>
        <time>2025-05-17T20:53:52.145Z</time>
      </trkpt>
      <trkpt lat="50.44061" lon="3.2938">
        <ele>30.36</ele>
        <time>2025-05-17T20:53:57.366Z</time>
      </trkpt>
      <trkpt lat="50.44081" lon="3.29373">
        <ele>30.22</ele>
        <time>2025-05-17T20:54:02.590Z</time>
      </trkpt>
      <trkpt lat="50.44102" lon="3.29367">
        <ele>30.03</ele>
        <time>2025-05-17T20:54:07.818Z</time>
      </trkpt>
      <trkpt lat="50.44128" lon="3.29353">
        <ele>29.82</ele>
        <time>2025-05-17T20:54:13.050Z</time>
      </trkpt>
      <trkpt lat="50.44154" lon="3.29339">
        <ele>29.59</ele>
        <time>2025-05-17T20:54:18.287Z</time>
      </trkpt>
      <trkpt lat="50.44179" lon="3.29326">
        <ele>29.34</ele>
        <time>2025-05-17T20:54:23.528Z</time>
      </trkpt>
      <trkpt lat="50.44197" lon="3.29322">
        <ele>29.07</ele>
        <time>2025-05-17T20:54:28.772Z</time>
      </trkpt>
      <trkpt lat="50.44214" lon="3.29326">
        <ele>28.78</ele>
        <time>2025-05-17T20:54:34.019Z</time>
      </trkpt>
      <trkpt lat="50.44241" lon="3.29343">
        <ele>28.47</ele>
        <time>2025-05-17T20:54:39.271Z</time>
      </trkpt>
      <trkpt lat="50.44267" lon="3.2936">
        <ele>28.15</ele>
        <time>2025-05-17T20:54:44.528Z</time>
      </trkpt>
      <trkpt lat="50.44294" lon="3.29377">
        <ele>27.83</ele>
        <time>2025-05-17T20:54:49.790Z</time>
      </trkpt>
      <trkpt lat="50.44321" lon="3.29393">
        <ele>27.45</ele>
        <time>2025-05-17T20:54:55.057Z</time>
      </trkpt>
      <trkpt lat="50.44347" lon="3.2941">
        <ele>27.02</ele>
        <time>2025-05-17T20:55:00.328Z</time>
      </trkpt>
      <trkpt lat="50.44374" lon="3.29427">
        <ele>26.54</ele>
        <time>2025-05-17T20:55:05.604Z</time>
      </trkpt>
      <trkpt lat="50.44402" lon="3.29445">
        <ele>26.01</ele>
        <time>2025-05-17T20:55:10.885Z</time>
      </trkpt>
      <trkpt lat="50.4443" lon="3.29462">
        <ele>25.55</ele>
        <time>2025-05-17T20:55:16.171Z</time>
      </trkpt>
      <trkpt lat="50.44458" lon="3.2948">
        <ele>25.13</ele>
        <time>2025-05-17T20:55:21.462Z</time>
      </trkpt>
      <trkpt lat="50.44486" lon="3.29498">
        <ele>24.7</ele>
        <time>2025-05-17T20:55:26.759Z</time>
      </trkpt>
      <trkpt lat="50.44514" lon="3.29515">
        <ele>24.27</ele>
        <time>2025-05-17T20:55:32.061Z</time>
      </trkpt>
      <trkpt lat="50.44542" lon="3.29533">
        <ele>23.86</ele>
        <time>2025-05-17T20:55:37.368Z</time>
      </trkpt>
      <trkpt lat="50.4457" lon="3.29551">
        <ele>23.47</ele>
        <time>2025-05-17T20:55:42.680Z</time>
      </trkpt>
      <trkpt lat="50.44598" lon="3.29568">
        <ele>23.04</ele>
        <time>2025-05-17T20:55:47.997Z</time>
      </trkpt>
      <trkpt lat="50.44598" lon="3.29568">
        <ele>22.69</ele>
        <time>2025-05-17T20:55:53.314Z</time>
      </trkpt>
      <trkpt lat="50.44621" lon="3.29584">
        <ele>22.33</ele>
        <time>2025-05-17T20:55:58.635Z</time>
      </trkpt>
      <trkpt lat="50.44645" lon="3.29601">
        <ele>22.02</ele>
        <time>2025-05-17T20:56:03.960Z</time>
      </trkpt>
      <trkpt lat="50.44672" lon="3.29621">
        <ele>21.73</ele>
        <time>2025-05-17T20:56:09.291Z</time>
      </trkpt>
      <trkpt lat="50.44699" lon="3.29642">
        <ele>21.49</ele>
        <time>2025-05-17T20:56:14.627Z</time>
      </trkpt>
      <trkpt lat="50.44727" lon="3.29663">
        <ele>21.23</ele>
        <time>2025-05-17T20:56:19.968Z</time>
      </trkpt>
      <trkpt lat="50.44735" lon="3.29669">
        <ele>20.99</ele>
        <time>2025-05-17T20:56:25.310Z</time>
      </trkpt>
      <trkpt lat="50.44757" lon="3.29677">
        <ele>20.77</ele>
        <time>2025-05-17T20:56:30.656Z</time>
      </trkpt>
      <trkpt lat="50.4478" lon="3.29685">
        <ele>20.59</ele>
        <time>2025-05-17T20:56:36.006Z</time>
      </trkpt>
      <trkpt lat="50.44802" lon="3.29693">
        <ele>20.41</ele>
        <time>2025-05-17T20:56:41.360Z</time>
      </trkpt>
      <trkpt lat="50.44821" lon="3.29693">
        <ele>20.26</ele>
        <time>2025-05-17T20:56:46.717Z</time>
      </trkpt>
      <trkpt lat="50.4484" lon="3.29693">
        <ele>20.12</ele>
        <time>2025-05-17T20:56:52.077Z</time>
      </trkpt>
      <trkpt lat="50.4484" lon="3.29693">
        <ele>20</ele>
        <time>2025-05-17T20:56:57.437Z</time>
      </trkpt>
      <trkpt lat="50.44864" lon="3.29691">
        <ele>19.93</ele>
        <time>2025-05-17T20:57:02.801Z</time>
      </trkpt>
      <trkpt lat="50.44888" lon="3.29689">
        <ele>19.8</ele>
        <time>2025-05-17T20:57:08.169Z</time>
      </trkpt>
      <trkpt lat="50.44912" lon="3.29692">
        <ele>19.73</ele>
        <time>2025-05-17T20:57:13.541Z</time>
      </trkpt>
      <trkpt lat="50.44936" lon="3.29695">
        <ele>19.66</ele>
        <time>2025-05-17T20:57:18.917Z</time>
      </trkpt>
      <trkpt lat="50.4496" lon="3.29698">
        <ele>19.59</ele>
        <time>2025-05-17T20:57:24.297Z</time>
      </trkpt>
      <trkpt lat="50.44984" lon="3.29701">
        <ele>19.54</ele>
        <time>2025-05-17T20:57:29.681Z</time>
      </trkpt>
      <trkpt lat="50.45009" lon="3.29694">
        <ele>19.52</ele>
        <time>2025-05-17T20:57:35.070Z</time>
      </trkpt>
      <trkpt lat="50.45034" lon="3.29687">
        <ele>19.52</ele>
        <time>2025-05-17T20:57:40.463Z</time>
      </trkpt>
      <trkpt lat="50.45059" lon="3.2968">
        <ele>19.52</ele>
        <time>2025-05-17T20:57:45.860Z</time>
      </trkpt>
      <trkpt lat="50.45077" lon="3.29672">
        <ele>19.53</ele>
        <time>2025-05-17T20:57:51.260Z</time>
      </trkpt>
      <trkpt lat="50.45096" lon="3.29665">
        <ele>19.55</ele>
        <time>2025-05-17T20:57:56.664Z</time>
      </trkpt>
      <trkpt lat="50.45124" lon="3.29651">
        <ele>19.61</ele>
        <time>2025-05-17T20:58:02.072Z</time>
      </trkpt>
      <trkpt lat="50.45151" lon="3.29638">
        <ele>19.65</ele>
        <time>2025-05-17T20:58:07.485Z</time>
      </trkpt>
      <trkpt lat="50.45179" lon="3.29624">
        <ele>19.69</ele>
        <time>2025-05-17T20:58:12.903Z</time>
      </trkpt>
      <trkpt lat="50.45198" lon="3.29619">
        <ele>19.74</ele>
        <time>2025-05-17T20:58:18.324Z</time>
      </trkpt>
      <trkpt lat="50.45216" lon="3.29613">
        <ele>19.81</ele>
        <time>2025-05-17T20:58:23.749Z</time>
      </trkpt>
      <trkpt lat="50.45241" lon="3.29612">
        <ele>19.85</ele>
        <time>2025-05-17T20:58:29.178Z</time>
      </trkpt>
      <trkpt lat="50.45266" lon="3.29611">
        <ele>19.91</ele>
        <time>2025-05-17T20:58:34.611Z</time>
      </trkpt>
      <trkpt lat="50.45291" lon="3.29609">
        <ele>19.95</ele>
        <time>2025-05-17T20:58:40.048Z</time>
      </trkpt>
      <trkpt lat="50.45315" lon="3.29605">
        <ele>19.97</ele>
        <time>2025-05-17T20:58:45.489Z</time>
      </trkpt>
      <trkpt lat="50.45338" lon="3.29601">
        <ele>20</ele>
        <time>2025-05-17T20:58:50.934Z</time>
      </trkpt>
      <trkpt lat="50.45362" lon="3.29596">
        <ele>20.07</ele>
        <time>2025-05-17T20:58:56.383Z</time>
      </trkpt>
      <trkpt lat="50.45378" lon="3.29586">
        <ele>20.12</ele>
        <time>2025-05-17T20:59:01.835Z</time>
      </trkpt>
      <trkpt lat="50.45394" lon="3.29575">
        <ele>20.19</ele>
        <time>2025-05-17T20:59:07.290Z</time>
      </trkpt>
      <trkpt lat="50.45411" lon="3.29561">
        <ele>20.22</ele>
        <time>2025-05-17T20:59:12.748Z</time>
      </trkpt>
      <trkpt lat="50.45428" lon="3.29547">
        <ele>20.25</ele>
        <time>2025-05-17T20:59:18.209Z</time>
      </trkpt>
      <trkpt lat="50.45443" lon="3.29531">
        <ele>20.31</ele>
        <time>2025-05-17T20:59:23.674Z</time>
      </trkpt>
      <trkpt lat="50.45458" lon="3.29515">
        <ele>20.39</ele>
        <time>2025-05-17T20:59:29.142Z</time>
      </trkpt>
      <trkpt lat="50.45478" lon="3.29491">
        <ele>20.46</ele>
        <time>2025-05-17T20:59:34.614Z</time>
      </trkpt>
      <trkpt lat="50.45497" lon="3.29468">
        <ele>20.52</ele>
        <time>2025-05-17T20:59:40.090Z</time>
      </trkpt>
      <trkpt lat="50.45515" lon="3.29495">
        <ele>20.54</ele>
        <time>2025-05-17T20:59:45.570Z</time>
      </trkpt>
      <trkpt lat="50.45533" lon="3.29523">
        <ele>20.58</ele>
        <time>2025-05-17T20:59:51.054Z</time>
      </trkpt>
      <trkpt lat="50.45552" lon="3.29551">
        <ele>20.68</ele>
        <time>2025-05-17T20:59:56.543Z</time>
      </trkpt>
      <trkpt lat="50.4557" lon="3.29579">
        <ele>20.73</ele>
        <time>2025-05-17T21:00:02.036Z</time>
      </trkpt>
      <trkpt lat="50.45578" lon="3.29619">
        <ele>20.78</ele>
        <time>2025-05-17T21:00:07.533Z</time>
      </trkpt>
      <trkpt lat="50.45587" lon="3.29659">
        <ele>20.83</ele>
        <time>2025-05-17T21:00:13.035Z</time>
      </trkpt>
      <trkpt lat="50.45596" lon="3.29699">
        <ele>20.91</ele>
        <time>2025-05-17T21:00:18.542Z</time>
      </trkpt>
      <trkpt lat="50.45598" lon="3.29732">
        <ele>20.94</ele>
        <time>2025-05-17T21:00:24.052Z</time>
      </trkpt>
      <trkpt lat="50.456" lon="3.29765">
        <ele>21.02</ele>
        <time>2025-05-17T21:00:29.566Z</time>
      </trkpt>
      <trkpt lat="50.45602" lon="3.29798">
        <ele>21.08</ele>
        <time>2025-05-17T21:00:35.083Z</time>
      </trkpt>
      <trkpt lat="50.45596" lon="3.29826">
        <ele>21.13</ele>
        <time>2025-05-17T21:00:40.603Z</time>
      </trkpt>
      <trkpt lat="50.45586" lon="3.29855">
        <ele>21.19</ele>
        <time>2025-05-17T21:00:46.127Z</time>
      </trkpt>
      <trkpt lat="50.45576" lon="3.29885">
        <ele>21.21</ele>
        <time>2025-05-17T21:00:51.654Z</time>
      </trkpt>
      <trkpt lat="50.45566" lon="3.29914">
        <ele>21.22</ele>
        <time>2025-05-17T21:00:57.185Z</time>
      </trkpt>
      <trkpt lat="50.45561" lon="3.29937">
        <ele>21.26</ele>
        <time>2025-05-17T21:01:02.719Z</time>
      </trkpt>
      <trkpt lat="50.45559" lon="3.29963">
        <ele>21.3</ele>
        <time>2025-05-17T21:01:08.255Z</time>
      </trkpt>
      <trkpt lat="50.45557" lon="3.29989">
        <ele>21.36</ele>
        <time>2025-05-17T21:01:13.794Z</time>
      </trkpt>
      <trkpt lat="50.45558" lon="3.30027">
        <ele>21.46</ele>
        <time>2025-05-17T21:01:19.337Z</time>
      </trkpt>
      <trkpt lat="50.4556" lon="3.30065">
        <ele>21.57</ele>
        <time>2025-05-17T21:01:24.884Z</time>
      </trkpt>
      <trkpt lat="50.45561" lon="3.30103">
        <ele>21.66</ele>
        <time>2025-05-17T21:01:30.435Z</time>
      </trkpt>
      <trkpt lat="50.45555" lon="3.30146">
        <ele>21.68</ele>
        <time>2025-05-17T21:01:35.991Z</time>
      </trkpt>
      <trkpt lat="50.45549" lon="3.30189">
        <ele>21.76</ele>
        <time>2025-05-17T21:01:41.552Z</time>
      </trkpt>
      <trkpt lat="50.45544" lon="3.30232">
        <ele>21.81</ele>
        <time>2025-05-17T21:01:47.118Z</time>
      </trkpt>
      <trkpt lat="50.45538" lon="3.30274">
        <ele>21.89</ele>
        <time>2025-05-17T21:01:52.688Z</time>
      </trkpt>
      <trkpt lat="50.45526" lon="3.30312">
        <ele>21.93</ele>
        <time>2025-05-17T21:01:58.263Z</time>
      </trkpt>
      <trkpt lat="50.45514" lon="3.30349">
        <ele>22.04</ele>
        <time>2025-05-17T21:02:03.842Z</time>
      </trkpt>
      <trkpt lat="50.45503" lon="3.30374">
        <ele>22.13</ele>
        <time>2025-05-17T21:02:09.424Z</time>
      </trkpt>
      <trkpt lat="50.45493" lon="3.30399">
        <ele>22.2</ele>
        <time>2025-05-17T21:02:15.010Z</time>
      </trkpt>
      <trkpt lat="50.45514" lon="3.30425">
        <ele>22.29</ele>
        <time>2025-05-17T21:02:20.600Z</time>
      </trkpt>
      <trkpt lat="50.45536" lon="3.3045">
        <ele>22.37</ele>
        <time>2025-05-17T21:02:26.195Z</time>
      </trkpt>
      <trkpt lat="50.45527" lon="3.30491">
        <ele>22.41</ele>
        <time>2025-05-17T21:02:31.794Z</time>
      </trkpt>
      <trkpt lat="50.45518" lon="3.30532">
        <ele>22.48</ele>
        <time>2025-05-17T21:02:37.398Z</time>
      </trkpt>
      <trkpt lat="50.45518" lon="3.3056">
        <ele>22.53</ele>
        <time>2025-05-17T21:02:43.005Z</time>
      </trkpt>
      <trkpt lat="50.4553" lon="3.3052">
        <ele>22.66</ele>
        <time>2025-05-17T21:02:48.617Z</time>
      </trkpt>
      <trkpt lat="50.45542" lon="3.3048">
        <ele>22.79</ele>
        <time>2025-05-17T21:02:54.233Z</time>
      </trkpt>
      <trkpt lat="50.45554" lon="3.3044">
        <ele>22.87</ele>
        <time>2025-05-17T21:02:59.854Z</time>
      </trkpt>
      <trkpt lat="50.45566" lon="3.30399">
        <ele>22.97</ele>
        <time>2025-05-17T21:03:05.480Z</time>
      </trkpt>
      <trkpt lat="50.45578" lon="3.30359">
        <ele>23.06</ele>
        <time>2025-05-17T21:03:11.111Z</time>
      </trkpt>
      <trkpt lat="50.45589" lon="3.30319">
        <ele>23.19</ele>
        <time>2025-05-17T21:03:16.746Z</time>
      </trkpt>
      <trkpt lat="50.45601" lon="3.30279">
        <ele>23.28</ele>
        <time>2025-05-17T21:03:22.386Z</time>
      </trkpt>
      <trkpt lat="50.45613" lon="3.3024">
        <ele>23.38</ele>
        <time>2025-05-17T21:03:28.031Z</time>
      </trkpt>
      <trkpt lat="50.45625" lon="3.302">
        <ele>23.41</ele>
        <time>2025-05-17T21:03:33.680Z</time>
      </trkpt>
      <trkpt lat="50.45636" lon="3.3016">
        <ele>23.42</ele>
        <time>2025-05-17T21:03:39.334Z</time>
      </trkpt>
      <trkpt lat="50.45648" lon="3.30121">
        <ele>23.41</ele>
        <time>2025-05-17T21:03:44.993Z</time>
      </trkpt>
      <trkpt lat="50.4566" lon="3.30081">
        <ele>23.41</ele>
        <time>2025-05-17T21:03:50.656Z</time>
      </trkpt>
      <trkpt lat="50.45672" lon="3.30039">
        <ele>23.43</ele>
        <time>2025-05-17T21:03:56.324Z</time>
      </trkpt>
      <trkpt lat="50.45684" lon="3.29997">
        <ele>23.39</ele>
        <time>2025-05-17T21:04:01.997Z</time>
      </trkpt>
      <trkpt lat="50.45697" lon="3.29955">
        <ele>23.36</ele>
        <time>2025-05-17T21:04:07.675Z</time>
      </trkpt>
      <trkpt lat="50.45709" lon="3.29913">
        <ele>23.34</ele>
        <time>2025-05-17T21:04:13.358Z</time>
      </trkpt>
      <trkpt lat="50.45721" lon="3.29872">
        <ele>23.39</ele>
        <time>2025-05-17T21:04:19.046Z</time>
      </trkpt>
      <trkpt lat="50.45733" lon="3.2983">
        <ele>23.42</ele>
        <time>2025-05-17T21:04:24.739Z</time>
      </trkpt>
      <trkpt lat="50.45738" lon="3.29805">
        <ele>23.36</ele>
        <time>2025-05-17T21:04:30.435Z</time>
      </trkpt>
      <trkpt lat="50.45744" lon="3.29781">
        <ele>23.3</ele>
        <time>2025-05-17T21:04:36.134Z</time>
      </trkpt>
      <trkpt lat="50.4575" lon="3.29734">
        <ele>23.19</ele>
        <time>2025-05-17T21:04:41.838Z</time>
      </trkpt>
      <trkpt lat="50.45754" lon="3.29693">
        <ele>23.09</ele>
        <time>2025-05-17T21:04:47.546Z</time>
      </trkpt>
      <trkpt lat="50.45756" lon="3.29662">
        <ele>22.99</ele>
        <time>2025-05-17T21:04:53.258Z</time>
      </trkpt>
      <trkpt lat="50.45757" lon="3.29631">
        <ele>22.88</ele>
        <time>2025-05-17T21:04:58.973Z</time>
      </trkpt>
      <trkpt lat="50.45754" lon="3.29593">
        <ele>22.79</ele>
        <time>2025-05-17T21:05:04.692Z</time>
      </trkpt>
      <trkpt lat="50.45752" lon="3.29555">
        <ele>22.74</ele>
        <time>2025-05-17T21:05:10.415Z</time>
      </trkpt>
      <trkpt lat="50.4575" lon="3.29518">
        <ele>22.74</ele>
        <time>2025-05-17T21:05:16.142Z</time>
      </trkpt>
      <trkpt lat="50.45748" lon="3.2948">
        <ele>22.69</ele>
        <time>2025-05-17T21:05:21.873Z</time>
      </trkpt>
      <trkpt lat="50.45748" lon="3.29459">
        <ele>22.66</ele>
        <time>2025-05-17T21:05:27.606Z</time>
      </trkpt>
      <trkpt lat="50.45752" lon="3.2942">
        <ele>22.63</ele>
        <time>2025-05-17T21:05:33.344Z</time>
      </trkpt>
      <trkpt lat="50.45757" lon="3.29393">
        <ele>22.63</ele>
        <time>2025-05-17T21:05:39.085Z</time>
      </trkpt>
      <trkpt lat="50.45761" lon="3.29367">
        <ele>22.61</ele>
        <time>2025-05-17T21:05:44.829Z</time>
      </trkpt>
      <trkpt lat="50.45768" lon="3.29331">
        <ele>22.62</ele>
        <time>2025-05-17T21:05:50.577Z</time>
      </trkpt>
      <trkpt lat="50.45776" lon="3.29296">
        <ele>22.6</ele>
        <time>2025-05-17T21:05:56.329Z</time>
      </trkpt>
      <trkpt lat="50.45784" lon="3.29255">
        <ele>22.59</ele>
        <time>2025-05-17T21:06:02.085Z</time>
      </trkpt>
      <trkpt lat="50.45789" lon="3.29236">
        <ele>22.58</ele>
        <time>2025-05-17T21:06:07.843Z</time>
      </trkpt>
      <trkpt lat="50.45797" lon="3.29198">
        <ele>22.61</ele>
        <time>2025-05-17T21:06:13.606Z</time>
      </trkpt>
      <trkpt lat="50.45805" lon="3.29159">
        <ele>22.67</ele>
        <time>2025-05-17T21:06:19.373Z</time>
      </trkpt>
      <trkpt lat="50.45813" lon="3.29121">
        <ele>22.65</ele>
        <time>2025-05-17T21:06:25.144Z</time>
      </trkpt>
      <trkpt lat="50.45821" lon="3.29083">
        <ele>22.64</ele>
        <time>2025-05-17T21:06:30.920Z</time>
      </trkpt>
      <trkpt lat="50.45828" lon="3.29049">
        <ele>22.67</ele>
        <time>2025-05-17T21:06:36.699Z</time>
      </trkpt>
      <trkpt lat="50.45835" lon="3.29015">
        <ele>22.67</ele>
        <time>2025-05-17T21:06:42.482Z</time>
      </trkpt>
      <trkpt lat="50.45842" lon="3.2898">
        <ele>22.66</ele>
        <time>2025-05-17T21:06:48.269Z</time>
      </trkpt>
      <trkpt lat="50.45847" lon="3.28961">
        <ele>22.63</ele>
        <time>2025-05-17T21:06:54.058Z</time>
      </trkpt>
      <trkpt lat="50.45853" lon="3.28932">
        <ele>22.61</ele>
        <time>2025-05-17T21:06:59.851Z</time>
      </trkpt>
      <trkpt lat="50.4586" lon="3.28903">
        <ele>22.6</ele>
        <time>2025-05-17T21:07:05.647Z</time>
      </trkpt>
      <trkpt lat="50.45862" lon="3.2889">
        <ele>22.59</ele>
        <time>2025-05-17T21:07:11.444Z</time>
      </trkpt>
      <trkpt lat="50.45881" lon="3.28892">
        <ele>22.59</ele>
        <time>2025-05-17T21:07:17.245Z</time>
      </trkpt>
      <trkpt lat="50.45907" lon="3.28886">
        <ele>22.61</ele>
        <time>2025-05-17T21:07:23.050Z</time>
      </trkpt>
      <trkpt lat="50.45907" lon="3.28886">
        <ele>22.6</ele>
        <time>2025-05-17T21:07:28.855Z</time>
      </trkpt>
      <trkpt lat="50.45933" lon="3.28873">
        <ele>22.58</ele>
        <time>2025-05-17T21:07:34.665Z</time>
      </trkpt>
      <trkpt lat="50.4596" lon="3.2886">
        <ele>22.58</ele>
        <time>2025-05-17T21:07:40.479Z</time>
      </trkpt>
      <trkpt lat="50.45986" lon="3.28847">
        <ele>22.58</ele>
        <time>2025-05-17T21:07:46.298Z</time>
      </trkpt>
      <trkpt lat="50.46012" lon="3.28831">
        <ele>22.53</ele>
        <time>2025-05-17T21:07:52.122Z</time>
      </trkpt>
      <trkpt lat="50.46038" lon="3.28814">
        <ele>22.51</ele>
        <time>2025-05-17T21:07:57.950Z</time>
      </trkpt>
      <trkpt lat="50.46063" lon="3.28797">
        <ele>22.49</ele>
        <time>2025-05-17T21:08:03.783Z</time>
      </trkpt>
      <trkpt lat="50.46089" lon="3.28781">
        <ele>22.47</ele>
        <time>2025-05-17T21:08:09.621Z</time>
      </trkpt>
      <trkpt lat="50.46113" lon="3.28765">
        <ele>22.47</ele>
        <time>2025-05-17T21:08:15.463Z</time>
      </trkpt>
      <trkpt lat="50.46136" lon="3.28749">
        <ele>22.48</ele>
        <time>2025-05-17T21:08:21.309Z</time>
      </trkpt>
      <trkpt lat="50.4616" lon="3.28734">
        <ele>22.48</ele>
        <time>2025-05-17T21:08:27.160Z</time>
      </trkpt>
      <trkpt lat="50.4618" lon="3.2872">
        <ele>22.5</ele>
        <time>2025-05-17T21:08:33.014Z</time>
      </trkpt>
      <trkpt lat="50.462" lon="3.28706">
        <ele>22.51</ele>
        <time>2025-05-17T21:08:38.872Z</time>
      </trkpt>
      <trkpt lat="50.4622" lon="3.28693">
        <ele>22.56</ele>
        <time>2025-05-17T21:08:44.734Z</time>
      </trkpt>
      <trkpt lat="50.46239" lon="3.28689">
        <ele>22.6</ele>
        <time>2025-05-17T21:08:50.599Z</time>
      </trkpt>
      <trkpt lat="50.46254" lon="3.28693">
        <ele>22.66</ele>
        <time>2025-05-17T21:08:56.466Z</time>
      </trkpt>
      <trkpt lat="50.46281" lon="3.28708">
        <ele>22.77</ele>
        <time>2025-05-17T21:09:02.338Z</time>
      </trkpt>
      <trkpt lat="50.46307" lon="3.28724">
        <ele>22.8</ele>
        <time>2025-05-17T21:09:08.215Z</time>
      </trkpt>
      <trkpt lat="50.46334" lon="3.28739">
        <ele>22.83</ele>
        <time>2025-05-17T21:09:14.097Z</time>
      </trkpt>
      <trkpt lat="50.4636" lon="3.28755">
        <ele>22.95</ele>
        <time>2025-05-17T21:09:19.983Z</time>
      </trkpt>
      <trkpt lat="50.46387" lon="3.2877">
        <ele>23.08</ele>
        <time>2025-05-17T21:09:25.874Z</time>
      </trkpt>
      <trkpt lat="50.46413" lon="3.28786">
        <ele>23.19</ele>
        <time>2025-05-17T21:09:31.770Z</time>
      </trkpt>
      <trkpt lat="50.4644" lon="3.28801">
        <ele>23.26</ele>
        <time>2025-05-17T21:09:37.671Z</time>
      </trkpt>
      <trkpt lat="50.46466" lon="3.28817">
        <ele>23.33</ele>
        <time>2025-05-17T21:09:43.576Z</time>
      </trkpt>
      <trkpt lat="50.46493" lon="3.28832">
        <ele>23.45</ele>
        <time>2025-05-17T21:09:49.486Z</time>
      </trkpt>
      <trkpt lat="50.46507" lon="3.28845">
        <ele>23.57</ele>
        <time>2025-05-17T21:09:55.399Z</time>
      </trkpt>
      <trkpt lat="50.4652" lon="3.28858">
        <ele>23.71</ele>
        <time>2025-05-17T21:10:01.315Z</time>
      </trkpt>
      <trkpt lat="50.4654" lon="3.28893">
        <ele>23.86</ele>
        <time>2025-05-17T21:10:07.235Z</time>
      </trkpt>
      <trkpt lat="50.46559" lon="3.28927">
        <ele>23.98</ele>
        <time>2025-05-17T21:10:13.160Z</time>
      </trkpt>
      <trkpt lat="50.46574" lon="3.28953">
        <ele>24.08</ele>
        <time>2025-05-17T21:10:19.089Z</time>
      </trkpt>
      <trkpt lat="50.46587" lon="3.28965">
        <ele>24.19</ele>
        <time>2025-05-17T21:10:25.021Z</time>
      </trkpt>
      <trkpt lat="50.46611" lon="3.28984">
        <ele>24.29</ele>
        <time>2025-05-17T21:10:30.957Z</time>
      </trkpt>
      <trkpt lat="50.46635" lon="3.29003">
        <ele>24.41</ele>
        <time>2025-05-17T21:10:36.898Z</time>
      </trkpt>
      <trkpt lat="50.46655" lon="3.29019">
        <ele>24.73</ele>
        <time>2025-05-17T21:10:42.842Z</time>
      </trkpt>
      <trkpt lat="50.46675" lon="3.29034">
        <ele>24.91</ele>
        <time>2025-05-17T21:10:48.790Z</time>
      </trkpt>
      <trkpt lat="50.46695" lon="3.2905">
        <ele>25.09</ele>
        <time>2025-05-17T21:10:54.742Z</time>
      </trkpt>
      <trkpt lat="50.46714" lon="3.29064">
        <ele>25.24</ele>
        <time>2025-05-17T21:11:00.697Z</time>
      </trkpt>
      <trkpt lat="50.46741" lon="3.29075">
        <ele>25.39</ele>
        <time>2025-05-17T21:11:06.657Z</time>
      </trkpt>
      <trkpt lat="50.46758" lon="3.29068">
        <ele>25.57</ele>
        <time>2025-05-17T21:11:12.620Z</time>
      </trkpt>
      <trkpt lat="50.46774" lon="3.29062">
        <ele>25.73</ele>
        <time>2025-05-17T21:11:18.586Z</time>
      </trkpt>
      <trkpt lat="50.4678" lon="3.2906">
        <ele>25.89</ele>
        <time>2025-05-17T21:11:24.553Z</time>
      </trkpt>
      <trkpt lat="50.46789" lon="3.29023">
        <ele>26.04</ele>
        <time>2025-05-17T21:11:30.524Z</time>
      </trkpt>
      <trkpt lat="50.46794" lon="3.28986">
        <ele>26.21</ele>
        <time>2025-05-17T21:11:36.499Z</time>
      </trkpt>
      <trkpt lat="50.468" lon="3.28949">
        <ele>26.36</ele>
        <time>2025-05-17T21:11:42.478Z</time>
      </trkpt>
      <trkpt lat="50.46806" lon="3.28912">
        <ele>26.51</ele>
        <time>2025-05-17T21:11:48.461Z</time>
      </trkpt>
      <trkpt lat="50.46808" lon="3.28869">
        <ele>26.59</ele>
        <time>2025-05-17T21:11:54.449Z</time>
      </trkpt>
      <trkpt lat="50.46807" lon="3.28835">
        <ele>26.67</ele>
        <time>2025-05-17T21:12:00.441Z</time>
      </trkpt>
      <trkpt lat="50.46807" lon="3.28824">
        <ele>26.76</ele>
        <time>2025-05-17T21:12:06.434Z</time>
      </trkpt>
      <trkpt lat="50.46807" lon="3.28813">
        <ele>26.85</ele>
        <time>2025-05-17T21:12:12.428Z</time>
      </trkpt>
      <trkpt lat="50.46807" lon="3.28803">
        <ele>26.93</ele>
        <time>2025-05-17T21:12:18.423Z</time>
      </trkpt>
      <trkpt lat="50.46808" lon="3.28793">
        <ele>27.01</ele>
        <time>2025-05-17T21:12:24.419Z</time>
      </trkpt>
      <trkpt lat="50.46826" lon="3.28672">
        <ele>27.21</ele>
        <time>2025-05-17T21:12:30.428Z</time>
      </trkpt>
      <trkpt lat="50.46827" lon="3.28663">
        <ele>27.3</ele>
        <time>2025-05-17T21:12:36.438Z</time>
      </trkpt>
      <trkpt lat="50.46827" lon="3.28654">
        <ele>27.38</ele>
        <time>2025-05-17T21:12:42.449Z</time>
      </trkpt>
      <trkpt lat="50.46828" lon="3.28645">
        <ele>27.44</ele>
        <time>2025-05-17T21:12:48.461Z</time>
      </trkpt>
      <trkpt lat="50.46828" lon="3.28637">
        <ele>27.49</ele>
        <time>2025-05-17T21:12:54.474Z</time>
      </trkpt>
      <trkpt lat="50.46829" lon="3.2863">
        <ele>27.53</ele>
        <time>2025-05-17T21:13:00.488Z</time>
      </trkpt>
      <trkpt lat="50.46829" lon="3.28623">
        <ele>27.57</ele>
        <time>2025-05-17T21:13:06.503Z</time>
      </trkpt>
      <trkpt lat="50.46829" lon="3.28619">
        <ele>27.59</ele>
        <time>2025-05-17T21:13:12.518Z</time>
      </trkpt>
      <trkpt lat="50.4683" lon="3.28615">
        <ele>27.61</ele>
        <time>2025-05-17T21:13:18.534Z</time>
      </trkpt>
      <trkpt lat="50.4683" lon="3.28614">
        <ele>27.62</ele>
        <time>2025-05-17T21:13:24.550Z</time>
      </trkpt>
      <trkpt lat="50.46831" lon="3.28604">
        <ele>27.63</ele>
        <time>2025-05-17T21:13:30.567Z</time>
      </trkpt>
      <trkpt lat="50.46832" lon="3.28601">
        <ele>27.62</ele>
        <time>2025-05-17T21:13:36.584Z</time>
      </trkpt>
      <trkpt lat="50.46833" lon="3.28599">
        <ele>27.61</ele>
        <time>2025-05-17T21:13:42.601Z</time>
      </trkpt>
      <trkpt lat="50.46833" lon="3.28598">
        <ele>27.6</ele>
        <time>2025-05-17T21:13:48.619Z</time>
      </trkpt>
      <trkpt lat="50.46839" lon="3.28594">
        <ele>27.57</ele>
        <time>2025-05-17T21:13:54.638Z</time>
      </trkpt>
      <trkpt lat="50.46841" lon="3.28594">
        <ele>27.55</ele>
        <time>2025-05-17T21:14:00.657Z</time>
      </trkpt>
      <trkpt lat="50.46844" lon="3.28594">
        <ele>27.53</ele>
        <time>2025-05-17T21:14:06.676Z</time>
      </trkpt>
      <trkpt lat="50.46846" lon="3.28595">
        <ele>27.51</ele>
        <time>2025-05-17T21:14:12.696Z</time>
      </trkpt>
      <trkpt lat="50.46849" lon="3.28595">
        <ele>27.49</ele>
        <time>2025-05-17T21:14:18.716Z</time>
      </trkpt>
      <trkpt lat="50.46851" lon="3.28595">
        <ele>27.47</ele>
        <time>2025-05-17T21:14:24.737Z</time>
      </trkpt>
      <trkpt lat="50.46854" lon="3.28595">
        <ele>27.45</ele>
        <time>2025-05-17T21:14:30.758Z</time>
      </trkpt>
      <trkpt lat="50.46856" lon="3.28595">
        <ele>27.44</ele>
        <time>2025-05-17T21:14:36.780Z</time>
      </trkpt>
      <trkpt lat="50.46859" lon="3.28595">
        <ele>27.43</ele>
        <time>2025-05-17T21:14:42.802Z</time>
      </trkpt>
      <trkpt lat="50.46861" lon="3.28595">
        <ele>27.43</ele>
        <time>2025-05-17T21:14:48.824Z</time>
      </trkpt>
      <trkpt lat="50.46863" lon="3.28596">
        <ele>27.42</ele>
        <time>2025-05-17T21:14:54.847Z</time>
      </trkpt>
      <trkpt lat="50.46866" lon="3.28596">
        <ele>27.43</ele>
        <time>2025-05-17T21:15:00.870Z</time>
      </trkpt>
      <trkpt lat="50.46868" lon="3.28596">
        <ele>27.44</ele>
        <time>2025-05-17T21:15:06.893Z</time>
      </trkpt>
      <trkpt lat="50.4687" lon="3.28596">
        <ele>27.45</ele>
        <time>2025-05-17T21:15:12.917Z</time>
      </trkpt>
      <trkpt lat="50.46872" lon="3.28597">
        <ele>27.47</ele>
        <time>2025-05-17T21:15:18.941Z</time>
      </trkpt>
      <trkpt lat="50.46876" lon="3.28597">
        <ele>27.49</ele>
        <time>2025-05-17T21:15:24.966Z</time>
      </trkpt>
      <trkpt lat="50.4688" lon="3.28597">
        <ele>27.52</ele>
        <time>2025-05-17T21:15:30.991Z</time>
      </trkpt>
      <trkpt lat="50.46884" lon="3.28597">
        <ele>27.56</ele>
        <time>2025-05-17T21:15:37.017Z</time>
      </trkpt>
      <trkpt lat="50.46888" lon="3.28597">
        <ele>27.6</ele>
        <time>2025-05-17T21:15:43.044Z</time>
      </trkpt>
      <trkpt lat="50.46893" lon="3.28597">
        <ele>27.66</ele>
        <time>2025-05-17T21:15:49.072Z</time>
      </trkpt>
      <trkpt lat="50.46898" lon="3.28596">
        <ele>27.72</ele>
        <time>2025-05-17T21:15:55.101Z</time>
      </trkpt>
      <trkpt lat="50.46903" lon="3.28596">
        <ele>27.78</ele>
        <time>2025-05-17T21:16:01.130Z</time>
      </trkpt>
      <trkpt lat="50.46908" lon="3.28597">
        <ele>27.85</ele>
        <time>2025-05-17T21:16:07.160Z</time>
      </trkpt>
      <trkpt lat="50.46913" lon="3.28597">
        <ele>27.92</ele>
        <time>2025-05-17T21:16:13.191Z</time>
      </trkpt>
      <trkpt lat="50.46919" lon="3.28597">
        <ele>28</ele>
        <time>2025-05-17T21:16:19.223Z</time>
      </trkpt>
      <trkpt lat="50.46924" lon="3.28597">
        <ele>28.08</ele>
        <time>2025-05-17T21:16:25.256Z</time>
      </trkpt>
      <trkpt lat="50.4693" lon="3.28598">
        <ele>28.16</ele>
        <time>2025-05-17T21:16:31.290Z</time>
      </trkpt>
      <trkpt lat="50.46935" lon="3.28598">
        <ele>28.24</ele>
        <time>2025-05-17T21:16:37.325Z</time>
      </trkpt>
      <trkpt lat="50.46941" lon="3.28598">
        <ele>28.31</ele>
        <time>2025-05-17T21:16:43.361Z</time>
      </trkpt>
      <trkpt lat="50.46946" lon="3.28599">
        <ele>28.39</ele>
        <time>2025-05-17T21:16:49.398Z</time>
      </trkpt>
      <trkpt lat="50.4695" lon="3.28599">
        <ele>28.46</ele>
        <time>2025-05-17T21:16:55.435Z</time>
      </trkpt>
      <trkpt lat="50.46955" lon="3.28599">
        <ele>28.53</ele>
        <time>2025-05-17T21:17:01.473Z</time>
      </trkpt>
      <trkpt lat="50.4696" lon="3.28599">
        <ele>28.59</ele>
        <time>2025-05-17T21:17:07.512Z</time>
      </trkpt>
      <trkpt lat="50.46964" lon="3.28599">
        <ele>28.66</ele>
        <time>2025-05-17T21:17:13.552Z</time>
      </trkpt>
      <trkpt lat="50.46969" lon="3.28598">
        <ele>28.73</ele>
        <time>2025-05-17T21:17:19.592Z</time>
      </trkpt>
      <trkpt lat="50.46973" lon="3.28596">
        <ele>28.79</ele>
        <time>2025-05-17T21:17:25.633Z</time>
      </trkpt>
      <trkpt lat="50.46978" lon="3.28595">
        <ele>28.85</ele>
        <time>2025-05-17T21:17:31.675Z</time>
      </trkpt>
      <trkpt lat="50.46982" lon="3.28594">
        <ele>28.9</ele>
        <time>2025-05-17T21:17:37.718Z</time>
      </trkpt>
      <trkpt lat="50.46987" lon="3.28592">
        <ele>28.95</ele>
        <time>2025-05-17T21:17:43.762Z</time>
      </trkpt>
      <trkpt lat="50.46993" lon="3.2859">
        <ele>28.99</ele>
        <time>2025-05-17T21:17:49.806Z</time>
      </trkpt>
      <trkpt lat="50.46998" lon="3.28589">
        <ele>29.03</ele>
        <time>2025-05-17T21:17:55.851Z</time>
      </trkpt>
      <trkpt lat="50.47003" lon="3.28587">
        <ele>29.07</ele>
        <time>2025-05-17T21:18:01.897Z</time>
      </trkpt>
      <trkpt lat="50.47008" lon="3.28585">
        <ele>29.11</ele>
        <time>2025-05-17T21:18:07.944Z</time>
      </trkpt>
      <trkpt lat="50.47013" lon="3.28584">
        <ele>29.15</ele>
        <time>2025-05-17T21:18:13.992Z</time>
      </trkpt>
      <trkpt lat="50.47019" lon="3.28582">
        <ele>29.19</ele>
        <time>2025-05-17T21:18:20.041Z</time>
      </trkpt>
      <trkpt lat="50.47024" lon="3.28581">
        <ele>29.22</ele>
        <time>2025-05-17T21:18:26.091Z</time>
      </trkpt>
      <trkpt lat="50.47029" lon="3.28579">
        <ele>29.26</ele>
        <time>2025-05-17T21:18:32.142Z</time>
      </trkpt>
      <trkpt lat="50.47035" lon="3.28577">
        <ele>29.3</ele>
        <time>2025-05-17T21:18:38.194Z</time>
      </trkpt>
      <trkpt lat="50.4704" lon="3.28575">
        <ele>29.34</ele>
        <time>2025-05-17T21:18:44.247Z</time>
      </trkpt>
      <trkpt lat="50.47045" lon="3.28573">
        <ele>29.39</ele>
        <time>2025-05-17T21:18:50.300Z</time>
      </trkpt>
      <trkpt lat="50.4705" lon="3.28572">
        <ele>29.42</ele>
        <time>2025-05-17T21:18:56.354Z</time>
      </trkpt>
      <trkpt lat="50.47055" lon="3.2857">
        <ele>29.44</ele>
        <time>2025-05-17T21:19:02.409Z</time>
      </trkpt>
      <trkpt lat="50.4706" lon="3.28568">
        <ele>29.47</ele>
        <time>2025-05-17T21:19:08.465Z</time>
      </trkpt>
      <trkpt lat="50.47065" lon="3.28565">
        <ele>29.49</ele>
        <time>2025-05-17T21:19:14.522Z</time>
      </trkpt>
      <trkpt lat="50.4707" lon="3.28562">
        <ele>29.52</ele>
        <time>2025-05-17T21:19:20.580Z</time>
      </trkpt>
      <trkpt lat="50.47075" lon="3.28558">
        <ele>29.56</ele>
        <time>2025-05-17T21:19:26.639Z</time>
      </trkpt>
      <trkpt lat="50.47079" lon="3.28554">
        <ele>29.6</ele>
        <time>2025-05-17T21:19:32.699Z</time>
      </trkpt>
      <trkpt lat="50.47083" lon="3.28549">
        <ele>29.64</ele>
        <time>2025-05-17T21:19:38.759Z</time>
      </trkpt>
      <trkpt lat="50.47087" lon="3.28545">
        <ele>29.67</ele>
        <time>2025-05-17T21:19:44.820Z</time>
      </trkpt>
      <trkpt lat="50.4709" lon="3.2854">
        <ele>29.7</ele>
        <time>2025-05-17T21:19:50.882Z</time>
      </trkpt>
      <trkpt lat="50.47093" lon="3.28536">
        <ele>29.74</ele>
        <time>2025-05-17T21:19:56.945Z</time>
      </trkpt>
      <trkpt lat="50.47096" lon="3.28532">
        <ele>29.78</ele>
        <time>2025-05-17T21:20:03.008Z</time>
      </trkpt>
      <trkpt lat="50.47098" lon="3.2853">
        <ele>29.83</ele>
        <time>2025-05-17T21:20:09.072Z</time>
      </trkpt>
      <trkpt lat="50.47098" lon="3.28529">
        <ele>29.87</ele>
        <time>2025-05-17T21:20:15.136Z</time>
      </trkpt>
      <trkpt lat="50.47102" lon="3.28525">
        <ele>29.92</ele>
        <time>2025-05-17T21:20:21.201Z</time>
      </trkpt>
      <trkpt lat="50.47103" lon="3.28523">
        <ele>29.98</ele>
        <time>2025-05-17T21:20:27.266Z</time>
      </trkpt>
      <trkpt lat="50.47104" lon="3.28521">
        <ele>30.04</ele>
        <time>2025-05-17T21:20:33.331Z</time>
      </trkpt>
      <trkpt lat="50.47105" lon="3.28518">
        <ele>30.12</ele>
        <time>2025-05-17T21:20:39.396Z</time>
      </trkpt>
      <trkpt lat="50.47106" lon="3.28515">
        <ele>30.19</ele>
        <time>2025-05-17T21:20:45.462Z</time>
      </trkpt>
      <trkpt lat="50.47108" lon="3.28512">
        <ele>30.27</ele>
        <time>2025-05-17T21:20:51.528Z</time>
      </trkpt>
      <trkpt lat="50.47109" lon="3.28509">
        <ele>30.35</ele>
        <time>2025-05-17T21:20:57.595Z</time>
      </trkpt>
      <trkpt lat="50.47111" lon="3.28506">
        <ele>30.43</ele>
        <time>2025-05-17T21:21:03.662Z</time>
      </trkpt>
      <trkpt lat="50.47113" lon="3.28503">
        <ele>30.53</ele>
        <time>2025-05-17T21:21:09.729Z</time>
      </trkpt>
      <trkpt lat="50.47114" lon="3.28499">
        <ele>30.62</ele>
        <time>2025-05-17T21:21:15.797Z</time>
      </trkpt>
      <trkpt lat="50.47116" lon="3.28496">
        <ele>30.73</ele>
        <time>2025-05-17T21:21:21.866Z</time>
      </trkpt>
      <trkpt lat="50.47119" lon="3.28491">
        <ele>30.84</ele>
        <time>2025-05-17T21:21:27.935Z</time>
      </trkpt>
      <trkpt lat="50.47122" lon="3.28486">
        <ele>30.96</ele>
        <time>2025-05-17T21:21:34.005Z</time>
      </trkpt>
      <trkpt lat="50.47125" lon="3.28481">
        <ele>31.08</ele>
        <time>2025-05-17T21:21:40.076Z</time>
      </trkpt>
      <trkpt lat="50.47128" lon="3.28474">
        <ele>31.21</ele>
        <time>2025-05-17T21:21:46.147Z</time>
      </trkpt>
      <trkpt lat="50.4713" lon="3.28467">
        <ele>31.34</ele>
        <time>2025-05-17T21:21:52.219Z</time>
      </trkpt>
      <trkpt lat="50.47133" lon="3.2846">
        <ele>31.46</ele>
        <time>2025-05-17T21:21:58.292Z</time>
      </trkpt>
      <trkpt lat="50.47137" lon="3.28452">
        <ele>31.57</ele>
        <time>2025-05-17T21:22:04.366Z</time>
      </trkpt>
      <trkpt lat="50.4714" lon="3.28445">
        <ele>31.69</ele>
        <time>2025-05-17T21:22:10.441Z</time>
      </trkpt>
      <trkpt lat="50.47143" lon="3.28438">
        <ele>31.81</ele>
        <time>2025-05-17T21:22:16.517Z</time>
      </trkpt>
      <trkpt lat="50.47146" lon="3.2843">
        <ele>31.94</ele>
        <time>2025-05-17T21:22:22.594Z</time>
      </trkpt>
      <trkpt lat="50.47149" lon="3.28423">
        <ele>32.07</ele>
        <time>2025-05-17T21:22:28.672Z</time>
      </trkpt>
      <trkpt lat="50.47152" lon="3.28416">
        <ele>32.18</ele>
        <time>2025-05-17T21:22:34.751Z</time>
      </trkpt>
      <trkpt lat="50.47156" lon="3.28408">
        <ele>32.28</ele>
        <time>2025-05-17T21:22:40.831Z</time>
      </trkpt>
      <trkpt lat="50.47159" lon="3.28401">
        <ele>32.37</ele>
        <time>2025-05-17T21:22:46.912Z</time>
      </trkpt>
      <trkpt lat="50.47162" lon="3.28393">
        <ele>32.48</ele>
        <time>2025-05-17T21:22:52.994Z</time>
      </trkpt>
      <trkpt lat="50.47166" lon="3.28386">
        <ele>32.58</ele>
        <time>2025-05-17T21:22:59.077Z</time>
      </trkpt>
      <trkpt lat="50.4717" lon="3.28379">
        <ele>32.68</ele>
        <time>2025-05-17T21:23:05.161Z</time>
      </trkpt>
      <trkpt lat="50.47174" lon="3.28373">
        <ele>32.77</ele>
        <time>2025-05-17T21:23:11.246Z</time>
      </trkpt>
      <trkpt lat="50.47178" lon="3.28366">
        <ele>32.86</ele>
        <time>2025-05-17T21:23:17.332Z</time>
      </trkpt>
      <trkpt lat="50.47182" lon="3.2836">
        <ele>32.95</ele>
        <time>2025-05-17T21:23:23.419Z</time>
      </trkpt>
      <trkpt lat="50.47187" lon="3.28355">
        <ele>33.03</ele>
        <time>2025-05-17T21:23:29.507Z</time>
      </trkpt>
      <trkpt lat="50.47192" lon="3.2835">
        <ele>33.12</ele>
        <time>2025-05-17T21:23:35.596Z</time>
      </trkpt>
      <trkpt lat="50.47197" lon="3.28346">
        <ele>33.2</ele>
        <time>2025-05-17T21:23:41.686Z</time>
      </trkpt>
      <trkpt lat="50.47202" lon="3.28343">
        <ele>33.28</ele>
        <time>2025-05-17T21:23:47.777Z</time>
      </trkpt>
      <trkpt lat="50.47208" lon="3.28341">
        <ele>33.36</ele>
        <time>2025-05-17T21:23:53.869Z</time>
      </trkpt>
      <trkpt lat="50.47213" lon="3.28339">
        <ele>33.44</ele>
        <time>2025-05-17T21:23:59.962Z</time>
      </trkpt>
      <trkpt lat="50.47218" lon="3.28336">
        <ele>33.52</ele>
        <time>2025-05-17T21:24:06.055Z</time>
      </trkpt>
      <trkpt lat="50.47223" lon="3.28334">
        <ele>33.6</ele>
        <time>2025-05-17T21:24:12.149Z</time>
      </trkpt>
      <trkpt lat="50.47228" lon="3.28333">
        <ele>33.68</ele>
        <time>2025-05-17T21:24:18.244Z</time>
      </trkpt>
      <trkpt lat="50.47233" lon="3.28332">
        <ele>33.77</ele>
        <time>2025-05-17T21:24:24.340Z</time>
      </trkpt>
      <trkpt lat="50.47238" lon="3.28329">
        <ele>33.86</ele>
        <time>2025-05-17T21:24:30.437Z</time>
      </trkpt>
      <trkpt lat="50.47243" lon="3.28326">
        <ele>33.95</ele>
        <time>2025-05-17T21:24:36.535Z</time>
      </trkpt>
      <trkpt lat="50.47248" lon="3.28322">
        <ele>34.04</ele>
        <time>2025-05-17T21:24:42.634Z</time>
      </trkpt>
      <trkpt lat="50.47252" lon="3.28317">
        <ele>34.11</ele>
        <time>2025-05-17T21:24:48.734Z</time>
      </trkpt>
      <trkpt lat="50.47256" lon="3.28312">
        <ele>34.19</ele>
        <time>2025-05-17T21:24:54.834Z</time>
      </trkpt>
      <trkpt lat="50.4726" lon="3.28307">
        <ele>34.27</ele>
        <time>2025-05-17T21:25:00.935Z</time>
      </trkpt>
      <trkpt lat="50.47265" lon="3.28301">
        <ele>34.36</ele>
        <time>2025-05-17T21:25:07.037Z</time>
      </trkpt>
      <trkpt lat="50.47269" lon="3.28296">
        <ele>34.45</ele>
        <time>2025-05-17T21:25:13.140Z</time>
      </trkpt>
      <trkpt lat="50.47273" lon="3.28291">
        <ele>34.52</ele>
        <time>2025-05-17T21:25:19.244Z</time>
      </trkpt>
      <trkpt lat="50.47277" lon="3.28286">
        <ele>34.6</ele>
        <time>2025-05-17T21:25:25.349Z</time>
      </trkpt>
      <trkpt lat="50.47281" lon="3.28281">
        <ele>34.67</ele>
        <time>2025-05-17T21:25:31.455Z</time>
      </trkpt>
      <trkpt lat="50.47286" lon="3.28276">
        <ele>34.74</ele>
        <time>2025-05-17T21:25:37.562Z</time>
      </trkpt>
      <trkpt lat="50.4729" lon="3.2827">
        <ele>34.81</ele>
        <time>2025-05-17T21:25:43.670Z</time>
      </trkpt>
      <trkpt lat="50.47294" lon="3.28264">
        <ele>34.87</ele>
        <time>2025-05-17T21:25:49.779Z</time>
      </trkpt>
      <trkpt lat="50.47298" lon="3.28258">
        <ele>34.94</ele>
        <time>2025-05-17T21:25:55.889Z</time>
      </trkpt>
      <trkpt lat="50.47301" lon="3.28252">
        <ele>35</ele>
        <time>2025-05-17T21:26:01.999Z</time>
      </trkpt>
      <trkpt lat="50.47305" lon="3.28247">
        <ele>35.07</ele>
        <time>2025-05-17T21:26:08.110Z</time>
      </trkpt>
      <trkpt lat="50.4731" lon="3.28242">
        <ele>35.13</ele>
        <time>2025-05-17T21:26:14.222Z</time>
      </trkpt>
      <trkpt lat="50.47314" lon="3.28237">
        <ele>35.19</ele>
        <time>2025-05-17T21:26:20.335Z</time>
      </trkpt>
      <trkpt lat="50.47318" lon="3.28232">
        <ele>35.26</ele>
        <time>2025-05-17T21:26:26.449Z</time>
      </trkpt>
      <trkpt lat="50.47323" lon="3.28227">
        <ele>35.32</ele>
        <time>2025-05-17T21:26:32.564Z</time>
      </trkpt>
      <trkpt lat="50.47327" lon="3.28222">
        <ele>35.38</ele>
        <time>2025-05-17T21:26:38.680Z</time>
      </trkpt>
      <trkpt lat="50.47331" lon="3.28218">
        <ele>35.45</ele>
        <time>2025-05-17T21:26:44.797Z</time>
      </trkpt>
      <trkpt lat="50.47335" lon="3.28212">
        <ele>35.52</ele>
        <time>2025-05-17T21:26:50.915Z</time>
      </trkpt>
      <trkpt lat="50.47339" lon="3.28207">
        <ele>35.59</ele>
        <time>2025-05-17T21:26:57.033Z</time>
      </trkpt>
      <trkpt lat="50.47343" lon="3.28202">
        <ele>35.66</ele>
        <time>2025-05-17T21:27:03.152Z</time>
      </trkpt>
      <trkpt lat="50.47347" lon="3.28198">
        <ele>35.73</ele>
        <time>2025-05-17T21:27:09.272Z</time>
      </trkpt>
      <trkpt lat="50.47351" lon="3.28193">
        <ele>35.8</ele>
        <time>2025-05-17T21:27:15.393Z</time>
      </trkpt>
      <trkpt lat="50.47355" lon="3.28189">
        <ele>35.87</ele>
        <time>2025-05-17T21:27:21.515Z</time>
      </trkpt>
      <trkpt lat="50.4736" lon="3.28185">
        <ele>35.95</ele>
        <time>2025-05-17T21:27:27.638Z</time>
      </trkpt>
      <trkpt lat="50.47364" lon="3.2818">
        <ele>36.02</ele>
        <time>2025-05-17T21:27:33.761Z</time>
      </trkpt>
      <trkpt lat="50.47368" lon="3.28175">
        <ele>36.09</ele>
        <time>2025-05-17T21:27:39.885Z</time>
      </trkpt>
      <trkpt lat="50.47373" lon="3.28171">
        <ele>36.16</ele>
        <time>2025-05-17T21:27:46.010Z</time>
      </trkpt>
      <trkpt lat="50.47377" lon="3.28166">
        <ele>36.23</ele>
        <time>2025-05-17T21:27:52.136Z</time>
      </trkpt>
      <trkpt lat="50.47382" lon="3.28161">
        <ele>36.3</ele>
        <time>2025-05-17T21:27:58.263Z</time>
      </trkpt>
      <trkpt lat="50.47386" lon="3.28157">
        <ele>36.37</ele>
        <time>2025-05-17T21:28:04.391Z</time>
      </trkpt>
      <trkpt lat="50.4739" lon="3.28152">
        <ele>36.43</ele>
        <time>2025-05-17T21:28:10.520Z</time>
      </trkpt>
      <trkpt lat="50.47394" lon="3.28148">
        <ele>36.49</ele>
        <time>2025-05-17T21:28:16.650Z</time>
      </trkpt>
      <trkpt lat="50.47399" lon="3.28144">
        <ele>36.55</ele>
        <time>2025-05-17T21:28:22.780Z</time>
      </trkpt>
      <trkpt lat="50.47403" lon="3.2814">
        <ele>36.6</ele>
        <time>2025-05-17T21:28:28.911Z</time>
      </trkpt>
      <trkpt lat="50.47408" lon="3.28136">
        <ele>36.66</ele>
        <time>2025-05-17T21:28:35.043Z</time>
      </trkpt>
      <trkpt lat="50.47413" lon="3.28133">
        <ele>36.72</ele>
        <time>2025-05-17T21:28:41.176Z</time>
      </trkpt>
      <trkpt lat="50.47418" lon="3.28132">
        <ele>36.77</ele>
        <time>2025-05-17T21:28:47.310Z</time>
      </trkpt>
      <trkpt lat="50.47423" lon="3.2813">
        <ele>36.83</ele>
        <time>2025-05-17T21:28:53.445Z</time>
      </trkpt>
      <trkpt lat="50.47429" lon="3.28129">
        <ele>36.89</ele>
        <time>2025-05-17T21:28:59.581Z</time>
      </trkpt>
      <trkpt lat="50.47434" lon="3.28128">
        <ele>36.95</ele>
        <time>2025-05-17T21:29:05.718Z</time>
      </trkpt>
      <trkpt lat="50.4744" lon="3.28127">
        <ele>37.01</ele>
        <time>2025-05-17T21:29:11.856Z</time>
      </trkpt>
      <trkpt lat="50.47445" lon="3.28127">
        <ele>37.07</ele>
        <time>2025-05-17T21:29:17.995Z</time>
      </trkpt>
      <trkpt lat="50.47451" lon="3.28126">
        <ele>37.14</ele>
        <time>2025-05-17T21:29:24.134Z</time>
      </trkpt>
      <trkpt lat="50.47456" lon="3.28126">
        <ele>37.22</ele>
        <time>2025-05-17T21:29:30.274Z</time>
      </trkpt>
      <trkpt lat="50.47461" lon="3.28125">
        <ele>37.3</ele>
        <time>2025-05-17T21:29:36.415Z</time>
      </trkpt>
      <trkpt lat="50.47467" lon="3.28125">
        <ele>37.38</ele>
        <time>2025-05-17T21:29:42.557Z</time>
      </trkpt>
      <trkpt lat="50.47472" lon="3.28124">
        <ele>37.47</ele>
        <time>2025-05-17T21:29:48.700Z</time>
      </trkpt>
      <trkpt lat="50.47477" lon="3.28124">
        <ele>37.56</ele>
        <time>2025-05-17T21:29:54.844Z</time>
      </trkpt>
      <trkpt lat="50.47483" lon="3.28123">
        <ele>37.65</ele>
        <time>2025-05-17T21:30:00.989Z</time>
      </trkpt>
      <trkpt lat="50.47488" lon="3.28123">
        <ele>37.75</ele>
        <time>2025-05-17T21:30:07.135Z</time>
      </trkpt>
      <trkpt lat="50.47493" lon="3.28123">
        <ele>37.84</ele>
        <time>2025-05-17T21:30:13.282Z</time>
      </trkpt>
      <trkpt lat="50.47499" lon="3.28122">
        <ele>37.93</ele>
        <time>2025-05-17T21:30:19.430Z</time>
      </trkpt>
      <trkpt lat="50.47504" lon="3.28122">
        <ele>38.03</ele>
        <time>2025-05-17T21:30:25.579Z</time>
      </trkpt>
      <trkpt lat="50.4751" lon="3.28121">
        <ele>38.14</ele>
        <time>2025-05-17T21:30:31.728Z</time>
      </trkpt>
      <trkpt lat="50.47515" lon="3.28121">
        <ele>38.24</ele>
        <time>2025-05-17T21:30:37.878Z</time>
      </trkpt>
      <trkpt lat="50.4752" lon="3.28121">
        <ele>38.35</ele>
        <time>2025-05-17T21:30:44.029Z</time>
      </trkpt>
      <trkpt lat="50.47526" lon="3.2812">
        <ele>38.47</ele>
        <time>2025-05-17T21:30:50.181Z</time>
      </trkpt>
      <trkpt lat="50.47531" lon="3.28119">
        <ele>38.59</ele>
        <time>2025-05-17T21:30:56.334Z</time>
      </trkpt>
      <trkpt lat="50.47537" lon="3.28119">
        <ele>38.72</ele>
        <time>2025-05-17T21:31:02.488Z</time>
      </trkpt>
      <trkpt lat="50.47542" lon="3.28118">
        <ele>38.85</ele>
        <time>2025-05-17T21:31:08.643Z</time>
      </trkpt>
      <trkpt lat="50.47547" lon="3.28118">
        <ele>39</ele>
        <time>2025-05-17T21:31:14.799Z</time>
      </trkpt>
      <trkpt lat="50.47585" lon="3.28113">
        <ele>39.17</ele>
        <time>2025-05-17T21:31:20.961Z</time>
      </trkpt>
      <trkpt lat="50.4759" lon="3.28113">
        <ele>39.32</ele>
        <time>2025-05-17T21:31:27.124Z</time>
      </trkpt>
      <trkpt lat="50.47596" lon="3.28112">
        <ele>39.48</ele>
        <time>2025-05-17T21:31:33.288Z</time>
      </trkpt>
      <trkpt lat="50.47601" lon="3.28112">
        <ele>39.64</ele>
        <time>2025-05-17T21:31:39.453Z</time>
      </trkpt>
      <trkpt lat="50.47606" lon="3.28111">
        <ele>39.8</ele>
        <time>2025-05-17T21:31:45.619Z</time>
      </trkpt>
      <trkpt lat="50.47612" lon="3.28111">
        <ele>39.96</ele>
        <time>2025-05-17T21:31:51.786Z</time>
      </trkpt>
      <trkpt lat="50.47658" lon="3.28103">
        <ele>40.16</ele>
        <time>2025-05-17T21:31:57.960Z</time>
      </trkpt>
      <trkpt lat="50.47658" lon="3.28103">
        <ele>40.31</ele>
        <time>2025-05-17T21:32:04.134Z</time>
      </trkpt>
      <trkpt lat="50.47663" lon="3.28102">
        <ele>40.47</ele>
        <time>2025-05-17T21:32:10.309Z</time>
      </trkpt>
      <trkpt lat="50.47665" lon="3.28101">
        <ele>40.63</ele>
        <time>2025-05-17T21:32:16.485Z</time>
      </trkpt>
      <trkpt lat="50.47666" lon="3.28099">
        <ele>40.78</ele>
        <time>2025-05-17T21:32:22.661Z</time>
      </trkpt>
      <trkpt lat="50.47668" lon="3.28098">
        <ele>40.93</ele>
        <time>2025-05-17T21:32:28.837Z</time>
      </trkpt>
      <trkpt lat="50.47668" lon="3.28097">
        <ele>41.07</ele>
        <time>2025-05-17T21:32:35.013Z</time>
      </trkpt>
      <trkpt lat="50.47673" lon="3.28093">
        <ele>41.23</ele>
        <time>2025-05-17T21:32:41.190Z</time>
      </trkpt>
      <trkpt lat="50.47675" lon="3.28091">
        <ele>41.37</ele>
        <time>2025-05-17T21:32:47.368Z</time>
      </trkpt>
      <trkpt lat="50.47677" lon="3.28089">
        <ele>41.5</ele>
        <time>2025-05-17T21:32:53.546Z</time>
      </trkpt>
      <trkpt lat="50.47679" lon="3.28087">
        <ele>41.63</ele>
        <time>2025-05-17T21:32:59.725Z</time>
      </trkpt>
      <trkpt lat="50.47682" lon="3.28083">
        <ele>41.75</ele>
        <time>2025-05-17T21:33:05.904Z</time>
      </trkpt>
      <trkpt lat="50.47685" lon="3.2808">
        <ele>41.87</ele>
        <time>2025-05-17T21:33:12.084Z</time>
      </trkpt>
      <trkpt lat="50.47688" lon="3.28076">
        <ele>41.99</ele>
        <time>2025-05-17T21:33:18.264Z</time>
      </trkpt>
      <trkpt lat="50.47691" lon="3.28072">
        <ele>42.1</ele>
        <time>2025-05-17T21:33:24.445Z</time>
      </trkpt>
      <trkpt lat="50.47694" lon="3.28069">
        <ele>42.2</ele>
        <time>2025-05-17T21:33:30.627Z</time>
      </trkpt>
      <trkpt lat="50.47697" lon="3.28065">
        <ele>42.31</ele>
        <time>2025-05-17T21:33:36.809Z</time>
      </trkpt>
      <trkpt lat="50.47701" lon="3.28061">
        <ele>42.41</ele>
        <time>2025-05-17T21:33:42.992Z</time>
      </trkpt>
      <trkpt lat="50.47705" lon="3.28057">
        <ele>42.5</ele>
        <time>2025-05-17T21:33:49.176Z</time>
      </trkpt>
      <trkpt lat="50.47709" lon="3.28052">
        <ele>42.6</ele>
        <time>2025-05-17T21:33:55.361Z</time>
      </trkpt>
      <trkpt lat="50.47713" lon="3.28047">
        <ele>42.69</ele>
        <time>2025-05-17T21:34:01.547Z</time>
      </trkpt>
      <trkpt lat="50.47718" lon="3.28042">
        <ele>42.78</ele>
        <time>2025-05-17T21:34:07.734Z</time>
      </trkpt>
      <trkpt lat="50.47723" lon="3.28037">
        <ele>42.86</ele>
        <time>2025-05-17T21:34:13.921Z</time>
      </trkpt>
      <trkpt lat="50.47728" lon="3.28034">
        <ele>42.95</ele>
        <time>2025-05-17T21:34:20.109Z</time>
      </trkpt>
      <trkpt lat="50.47734" lon="3.28034">
        <ele>43.03</ele>
        <time>2025-05-17T21:34:26.298Z</time>
      </trkpt>
      <trkpt lat="50.4774" lon="3.28036">
        <ele>43.1</ele>
        <time>2025-05-17T21:34:32.488Z</time>
      </trkpt>
      <trkpt lat="50.47745" lon="3.28041">
        <ele>43.18</ele>
        <time>2025-05-17T21:34:38.679Z</time>
      </trkpt>
      <trkpt lat="50.47751" lon="3.28046">
        <ele>43.26</ele>
        <time>2025-05-17T21:34:44.872Z</time>
      </trkpt>
      <trkpt lat="50.47756" lon="3.28051">
        <ele>43.34</ele>
        <time>2025-05-17T21:34:51.066Z</time>
      </trkpt>
      <trkpt lat="50.47761" lon="3.28057">
        <ele>43.42</ele>
        <time>2025-05-17T21:34:57.261Z</time>
      </trkpt>
      <trkpt lat="50.47766" lon="3.28063">
        <ele>43.5</ele>
        <time>2025-05-17T21:35:03.457Z</time>
      </trkpt>
      <trkpt lat="50.47771" lon="3.28068">
        <ele>43.57</ele>
        <time>2025-05-17T21:35:09.654Z</time>
      </trkpt>
      <trkpt lat="50.47776" lon="3.28074">
        <ele>43.64</ele>
        <time>2025-05-17T21:35:15.852Z</time>
      </trkpt>
      <trkpt lat="50.47781" lon="3.28079">
        <ele>43.69</ele>
        <time>2025-05-17T21:35:22.051Z</time>
      </trkpt>
      <trkpt lat="50.47786" lon="3.28085">
        <ele>43.73</ele>
        <time>2025-05-17T21:35:28.251Z</time>
      </trkpt>
      <trkpt lat="50.47791" lon="3.2809">
        <ele>43.77</ele>
        <time>2025-05-17T21:35:34.452Z</time>
      </trkpt>
      <trkpt lat="50.47795" lon="3.28094">
        <ele>43.79</ele>
        <time>2025-05-17T21:35:40.654Z</time>
      </trkpt>
      <trkpt lat="50.47799" lon="3.28099">
        <ele>43.81</ele>
        <time>2025-05-17T21:35:46.857Z</time>
      </trkpt>
      <trkpt lat="50.47803" lon="3.28103">
        <ele>43.82</ele>
        <time>2025-05-17T21:35:53.060Z</time>
      </trkpt>
      <trkpt lat="50.47807" lon="3.28107">
        <ele>43.82</ele>
        <time>2025-05-17T21:35:59.264Z</time>
      </trkpt>
      <trkpt lat="50.4781" lon="3.28111">
        <ele>43.82</ele>
        <time>2025-05-17T21:36:05.469Z</time>
      </trkpt>
      <trkpt lat="50.47813" lon="3.28115">
        <ele>43.81</ele>
        <time>2025-05-17T21:36:11.674Z</time>
      </trkpt>
      <trkpt lat="50.47814" lon="3.28117">
        <ele>43.8</ele>
        <time>2025-05-17T21:36:17.880Z</time>
      </trkpt>
      <trkpt lat="50.47814" lon="3.28118">
        <ele>43.77</ele>
        <time>2025-05-17T21:36:24.086Z</time>
      </trkpt>
      <trkpt lat="50.47818" lon="3.28124">
        <ele>43.74</ele>
        <time>2025-05-17T21:36:30.293Z</time>
      </trkpt>
      <trkpt lat="50.4782" lon="3.28126">
        <ele>43.71</ele>
        <time>2025-05-17T21:36:36.500Z</time>
      </trkpt>
      <trkpt lat="50.47822" lon="3.28129">
        <ele>43.67</ele>
        <time>2025-05-17T21:36:42.708Z</time>
      </trkpt>
      <trkpt lat="50.47824" lon="3.28133">
        <ele>43.63</ele>
        <time>2025-05-17T21:36:48.916Z</time>
      </trkpt>
      <trkpt lat="50.47827" lon="3.28137">
        <ele>43.58</ele>
        <time>2025-05-17T21:36:55.125Z</time>
      </trkpt>
      <trkpt lat="50.47831" lon="3.28142">
        <ele>43.53</ele>
        <time>2025-05-17T21:37:01.335Z</time>
      </trkpt>
      <trkpt lat="50.47834" lon="3.28148">
        <ele>43.47</ele>
        <time>2025-05-17T21:37:07.545Z</time>
      </trkpt>
      <trkpt lat="50.47838" lon="3.28154">
        <ele>43.41</ele>
        <time>2025-05-17T21:37:13.756Z</time>
      </trkpt>
      <trkpt lat="50.47842" lon="3.28159">
        <ele>43.35</ele>
        <time>2025-05-17T21:37:19.968Z</time>
      </trkpt>
      <trkpt lat="50.47846" lon="3.28165">
        <ele>43.29</ele>
        <time>2025-05-17T21:37:26.181Z</time>
      </trkpt>
      <trkpt lat="50.4785" lon="3.28171">
        <ele>43.23</ele>
        <time>2025-05-17T21:37:32.395Z</time>
      </trkpt>
      <trkpt lat="50.47854" lon="3.28178">
        <ele>43.17</ele>
        <time>2025-05-17T21:37:38.610Z</time>
      </trkpt>
      <trkpt lat="50.47858" lon="3.28185">
        <ele>43.12</ele>
        <time>2025-05-17T21:37:44.826Z</time>
      </trkpt>
      <trkpt lat="50.47862" lon="3.28191">
        <ele>43.07</ele>
        <time>2025-05-17T21:37:51.043Z</time>
      </trkpt>
      <trkpt lat="50.47867" lon="3.28197">
        <ele>43.02</ele>
        <time>2025-05-17T21:37:57.261Z</time>
      </trkpt>
      <trkpt lat="50.47871" lon="3.28204">
        <ele>42.98</ele>
        <time>2025-05-17T21:38:03.480Z</time>
      </trkpt>
      <trkpt lat="50.47875" lon="3.28211">
        <ele>42.95</ele>
        <time>2025-05-17T21:38:09.700Z</time>
      </trkpt>
      <trkpt lat="50.4788" lon="3.28218">
        <ele>42.92</ele>
        <time>2025-05-17T21:38:15.921Z</time>
      </trkpt>
      <trkpt lat="50.47884" lon="3.28225">
        <ele>42.9</ele>
        <time>2025-05-17T21:38:22.143Z</time>
      </trkpt>
      <trkpt lat="50.47889" lon="3.28232">
        <ele>42.9</ele>
        <time>2025-05-17T21:38:28.366Z</time>
      </trkpt>
      <trkpt lat="50.47894" lon="3.28238">
        <ele>42.91</ele>
        <time>2025-05-17T21:38:34.590Z</time>
      </trkpt>
      <trkpt lat="50.47899" lon="3.28244">
        <ele>42.94</ele>
        <time>2025-05-17T21:38:40.815Z</time>
      </trkpt>
      <trkpt lat="50.47904" lon="3.2825">
        <ele>42.97</ele>
        <time>2025-05-17T21:38:47.041Z</time>
      </trkpt>
      <trkpt lat="50.47909" lon="3.28256">
        <ele>43.01</ele>
        <time>2025-05-17T21:38:53.269Z</time>
      </trkpt>
      <trkpt lat="50.47915" lon="3.28262">
        <ele>43.06</ele>
        <time>2025-05-17T21:38:59.498Z</time>
      </trkpt>
      <trkpt lat="50.4792" lon="3.28268">
        <ele>43.12</ele>
        <time>2025-05-17T21:39:05.728Z</time>
      </trkpt>
      <trkpt lat="50.47925" lon="3.28274">
        <ele>43.18</ele>
        <time>2025-05-17T21:39:11.959Z</time>
      </trkpt>
      <trkpt lat="50.4793" lon="3.2828">
        <ele>43.24</ele>
        <time>2025-05-17T21:39:18.191Z</time>
      </trkpt>
      <trkpt lat="50.47935" lon="3.28286">
        <ele>43.31</ele>
        <time>2025-05-17T21:39:24.424Z</time>
      </trkpt>
      <trkpt lat="50.47941" lon="3.28293">
        <ele>43.39</ele>
        <time>2025-05-17T21:39:30.658Z</time>
      </trkpt>
      <trkpt lat="50.47946" lon="3.28299">
        <ele>43.48</ele>
        <time>2025-05-17T21:39:36.893Z</time>
      </trkpt>
      <trkpt lat="50.47951" lon="3.28306">
        <ele>43.59</ele>
        <time>2025-05-17T21:39:43.129Z</time>
      </trkpt>
      <trkpt lat="50.47956" lon="3.28312">
        <ele>43.7</ele>
        <time>2025-05-17T21:39:49.366Z</time>
      </trkpt>
      <trkpt lat="50.47961" lon="3.28318">
        <ele>43.82</ele>
        <time>2025-05-17T21:39:55.604Z</time>
      </trkpt>
      <trkpt lat="50.47966" lon="3.28325">
        <ele>43.93</ele>
        <time>2025-05-17T21:40:01.844Z</time>
      </trkpt>
      <trkpt lat="50.47971" lon="3.28331">
        <ele>44.04</ele>
        <time>2025-05-17T21:40:08.085Z</time>
      </trkpt>
      <trkpt lat="50.47976" lon="3.28337">
        <ele>44.14</ele>
        <time>2025-05-17T21:40:14.327Z</time>
      </trkpt>
      <trkpt lat="50.47981" lon="3.28342">
        <ele>44.24</ele>
        <time>2025-05-17T21:40:20.570Z</time>
      </trkpt>
      <trkpt lat="50.47986" lon="3.28348">
        <ele>44.34</ele>
        <time>2025-05-17T21:40:26.814Z</time>
      </trkpt>
      <trkpt lat="50.47991" lon="3.28353">
        <ele>44.43</ele>
        <time>2025-05-17T21:40:33.059Z</time>
      </trkpt>
      <trkpt lat="50.47997" lon="3.28359">
        <ele>44.53</ele>
        <time>2025-05-17T21:40:39.305Z</time>
      </trkpt>
      <trkpt lat="50.48002" lon="3.28364">
        <ele>44.62</ele>
        <time>2025-05-17T21:40:45.552Z</time>
      </trkpt>
      <trkpt lat="50.48008" lon="3.2837">
        <ele>44.7</ele>
        <time>2025-05-17T21:40:51.800Z</time>
      </trkpt>
      <trkpt lat="50.48013" lon="3.28375">
        <ele>44.79</ele>
        <time>2025-05-17T21:40:58.049Z</time>
      </trkpt>
      <trkpt lat="50.48019" lon="3.28381">
        <ele>44.87</ele>
        <time>2025-05-17T21:41:04.299Z</time>
      </trkpt>
      <trkpt lat="50.48025" lon="3.28387">
        <ele>44.94</ele>
        <time>2025-05-17T21:41:10.551Z</time>
      </trkpt>
      <trkpt lat="50.48031" lon="3.28392">
        <ele>45.01</ele>
        <time>2025-05-17T21:41:16.804Z</time>
      </trkpt>
      <trkpt lat="50.48036" lon="3.28398">
        <ele>45.08</ele>
        <time>2025-05-17T21:41:23.058Z</time>
      </trkpt>
      <trkpt lat="50.48041" lon="3.28404">
        <ele>45.14</ele>
        <time>2025-05-17T21:41:29.313Z</time>
      </trkpt>
      <trkpt lat="50.48046" lon="3.2841">
        <ele>45.2</ele>
        <time>2025-05-17T21:41:35.569Z</time>
      </trkpt>
      <trkpt lat="50.48052" lon="3.28417">
        <ele>45.25</ele>
        <time>2025-05-17T21:41:41.826Z</time>
      </trkpt>
      <trkpt lat="50.48057" lon="3.28422">
        <ele>45.31</ele>
        <time>2025-05-17T21:41:48.084Z</time>
      </trkpt>
      <trkpt lat="50.48063" lon="3.28428">
        <ele>45.36</ele>
        <time>2025-05-17T21:41:54.343Z</time>
      </trkpt>
      <trkpt lat="50.48069" lon="3.28435">
        <ele>45.41</ele>
        <time>2025-05-17T21:42:00.603Z</time>
      </trkpt>
      <trkpt lat="50.48074" lon="3.28441">
        <ele>45.46</ele>
        <time>2025-05-17T21:42:06.865Z</time>
      </trkpt>
      <trkpt lat="50.4808" lon="3.28448">
        <ele>45.5</ele>
        <time>2025-05-17T21:42:13.128Z</time>
      </trkpt>
      <trkpt lat="50.48085" lon="3.28455">
        <ele>45.53</ele>
        <time>2025-05-17T21:42:19.392Z</time>
      </trkpt>
      <trkpt lat="50.4809" lon="3.28462">
        <ele>45.55</ele>
        <time>2025-05-17T21:42:25.657Z</time>
      </trkpt>
      <trkpt lat="50.48096" lon="3.28469">
        <ele>45.57</ele>
        <time>2025-05-17T21:42:31.923Z</time>
      </trkpt>
      <trkpt lat="50.48101" lon="3.28476">
        <ele>45.57</ele>
        <time>2025-05-17T21:42:38.191Z</time>
      </trkpt>
      <trkpt lat="50.48107" lon="3.28482">
        <ele>45.57</ele>
        <time>2025-05-17T21:42:44.460Z</time>
      </trkpt>
      <trkpt lat="50.48112" lon="3.28487">
        <ele>45.58</ele>
        <time>2025-05-17T21:42:50.730Z</time>
      </trkpt>
      <trkpt lat="50.48119" lon="3.28491">
        <ele>45.58</ele>
        <time>2025-05-17T21:42:57.001Z</time>
      </trkpt>
      <trkpt lat="50.48125" lon="3.28493">
        <ele>45.58</ele>
        <time>2025-05-17T21:43:03.273Z</time>
      </trkpt>
      <trkpt lat="50.48132" lon="3.28496">
        <ele>45.58</ele>
        <time>2025-05-17T21:43:09.546Z</time>
      </trkpt>
      <trkpt lat="50.48138" lon="3.28499">
        <ele>45.58</ele>
        <time>2025-05-17T21:43:15.820Z</time>
      </trkpt>
      <trkpt lat="50.48145" lon="3.28503">
        <ele>45.59</ele>
        <time>2025-05-17T21:43:22.095Z</time>
      </trkpt>
      <trkpt lat="50.48151" lon="3.28507">
        <ele>45.6</ele>
        <time>2025-05-17T21:43:28.372Z</time>
      </trkpt>
      <trkpt lat="50.48157" lon="3.28511">
        <ele>45.6</ele>
        <time>2025-05-17T21:43:34.650Z</time>
      </trkpt>
      <trkpt lat="50.48163" lon="3.28515">
        <ele>45.61</ele>
        <time>2025-05-17T21:43:40.929Z</time>
      </trkpt>
      <trkpt lat="50.48169" lon="3.28519">
        <ele>45.61</ele>
        <time>2025-05-17T21:43:47.209Z</time>
      </trkpt>
      <trkpt lat="50.48176" lon="3.28523">
        <ele>45.62</ele>
        <time>2025-05-17T21:43:53.490Z</time>
      </trkpt>
      <trkpt lat="50.48182" lon="3.28527">
        <ele>45.63</ele>
        <time>2025-05-17T21:43:59.772Z</time>
      </trkpt>
      <trkpt lat="50.48188" lon="3.28531">
        <ele>45.64</ele>
        <time>2025-05-17T21:44:06.055Z</time>
      </trkpt>
      <trkpt lat="50.48194" lon="3.28535">
        <ele>45.65</ele>
        <time>2025-05-17T21:44:12.339Z</time>
      </trkpt>
      <trkpt lat="50.48201" lon="3.28539">
        <ele>45.66</ele>
        <time>2025-05-17T21:44:18.625Z</time>
      </trkpt>
      <trkpt lat="50.48207" lon="3.28543">
        <ele>45.67</ele>
        <time>2025-05-17T21:44:24.912Z</time>
      </trkpt>
      <trkpt lat="50.48213" lon="3.28547">
        <ele>45.68</ele>
        <time>2025-05-17T21:44:31.200Z</time>
      </trkpt>
      <trkpt lat="50.4822" lon="3.2855">
        <ele>45.69</ele>
        <time>2025-05-17T21:44:37.489Z</time>
      </trkpt>
      <trkpt lat="50.48226" lon="3.28553">
        <ele>45.69</ele>
        <time>2025-05-17T21:44:43.779Z</time>
      </trkpt>
      <trkpt lat="50.48232" lon="3.28556">
        <ele>45.69</ele>
        <time>2025-05-17T21:44:50.070Z</time>
      </trkpt>
      <trkpt lat="50.48239" lon="3.28559">
        <ele>45.69</ele>
        <time>2025-05-17T21:44:56.362Z</time>
      </trkpt>
      <trkpt lat="50.48245" lon="3.28562">
        <ele>45.69</ele>
        <time>2025-05-17T21:45:02.655Z</time>
      </trkpt>
      <trkpt lat="50.48251" lon="3.28565">
        <ele>45.69</ele>
        <time>2025-05-17T21:45:08.950Z</time>
      </trkpt>
      <trkpt lat="50.48257" lon="3.28568">
        <ele>45.68</ele>
        <time>2025-05-17T21:45:15.246Z</time>
      </trkpt>
      <trkpt lat="50.48263" lon="3.28571">
        <ele>45.68</ele>
        <time>2025-05-17T21:45:21.543Z</time>
      </trkpt>
      <trkpt lat="50.48269" lon="3.28574">
        <ele>45.67</ele>
        <time>2025-05-17T21:45:27.841Z</time>
      </trkpt>
      <trkpt lat="50.48274" lon="3.28576">
        <ele>45.67</ele>
        <time>2025-05-17T21:45:34.140Z</time>
      </trkpt>
      <trkpt lat="50.48279" lon="3.28578">
        <ele>45.66</ele>
        <time>2025-05-17T21:45:40.440Z</time>
      </trkpt>
      <trkpt lat="50.48284" lon="3.2858">
        <ele>45.65</ele>
        <time>2025-05-17T21:45:46.740Z</time>
      </trkpt>
      <trkpt lat="50.48289" lon="3.28582">
        <ele>45.65</ele>
        <time>2025-05-17T21:45:53.041Z</time>
      </trkpt>
      <trkpt lat="50.48294" lon="3.28585">
        <ele>45.64</ele>
        <time>2025-05-17T21:45:59.343Z</time>
      </trkpt>
      <trkpt lat="50.48299" lon="3.28587">
        <ele>45.63</ele>
        <time>2025-05-17T21:46:05.646Z</time>
      </trkpt>
      <trkpt lat="50.48303" lon="3.28589">
        <ele>45.63</ele>
        <time>2025-05-17T21:46:11.950Z</time>
      </trkpt>
      <trkpt lat="50.48307" lon="3.28591">
        <ele>45.62</ele>
        <time>2025-05-17T21:46:18.254Z</time>
      </trkpt>
      <trkpt lat="50.4831" lon="3.28593">
        <ele>45.62</ele>
        <time>2025-05-17T21:46:24.559Z</time>
      </trkpt>
      <trkpt lat="50.48312" lon="3.28595">
        <ele>45.61</ele>
        <time>2025-05-17T21:46:30.864Z</time>
      </trkpt>
      <trkpt lat="50.48314" lon="3.28597">
        <ele>45.61</ele>
        <time>2025-05-17T21:46:37.170Z</time>
      </trkpt>
      <trkpt lat="50.48314" lon="3.28599">
        <ele>45.62</ele>
        <time>2025-05-17T21:46:43.476Z</time>
      </trkpt>
      <trkpt lat="50.48314" lon="3.286">
        <ele>45.63</ele>
        <time>2025-05-17T21:46:49.782Z</time>
      </trkpt>
      <trkpt lat="50.48316" lon="3.28603">
        <ele>45.64</ele>
        <time>2025-05-17T21:46:56.088Z</time>
      </trkpt>
      <trkpt lat="50.48317" lon="3.28604">
        <ele>45.66</ele>
        <time>2025-05-17T21:47:02.395Z</time>
      </trkpt>
      <trkpt lat="50.48319" lon="3.28604">
        <ele>45.68</ele>
        <time>2025-05-17T21:47:08.702Z</time>
      </trkpt>
      <trkpt lat="50.48321" lon="3.28602">
        <ele>45.7</ele>
        <time>2025-05-17T21:47:15.009Z</time>
      </trkpt>
      <trkpt lat="50.48322" lon="3.28599">
        <ele>45.73</ele>
        <time>2025-05-17T21:47:21.317Z</time>
      </trkpt>
      <trkpt lat="50.48323" lon="3.28595">
        <ele>45.76</ele>
        <time>2025-05-17T21:47:27.625Z</time>
      </trkpt>
      <trkpt lat="50.48324" lon="3.28592">
        <ele>45.81</ele>
        <time>2025-05-17T21:47:33.933Z</time>
      </trkpt>
      <trkpt lat="50.48325" lon="3.2859">
        <ele>45.86</ele>
        <time>2025-05-17T21:47:40.242Z</time>
      </trkpt>
      <trkpt lat="50.48325" lon="3.28588">
        <ele>45.92</ele>
        <time>2025-05-17T21:47:46.551Z</time>
      </trkpt>
      <trkpt lat="50.48326" lon="3.28588">
        <ele>45.97</ele>
        <time>2025-05-17T21:47:52.860Z</time>
      </trkpt>
      <trkpt lat="50.4833" lon="3.28575">
        <ele>46.05</ele>
        <time>2025-05-17T21:47:59.170Z</time>
      </trkpt>
      <trkpt lat="50.48331" lon="3.2857">
        <ele>46.12</ele>
        <time>2025-05-17T21:48:05.481Z</time>
      </trkpt>
      <trkpt lat="50.48333" lon="3.28565">
        <ele>46.2</ele>
        <time>2025-05-17T21:48:11.793Z</time>
      </trkpt>
      <trkpt lat="50.48335" lon="3.28559">
        <ele>46.29</ele>
        <time>2025-05-17T21:48:18.105Z</time>
      </trkpt>
      <trkpt lat="50.48337" lon="3.28551">
        <ele>46.37</ele>
        <time>2025-05-17T21:48:24.418Z</time>
      </trkpt>
      <trkpt lat="50.4834" lon="3.28543">
        <ele>46.44</ele>
        <time>2025-05-17T21:48:30.732Z</time>
      </trkpt>
      <trkpt lat="50.48343" lon="3.28535">
        <ele>46.51</ele>
        <time>2025-05-17T21:48:37.047Z</time>
      </trkpt>
      <trkpt lat="50.48346" lon="3.28527">
        <ele>46.59</ele>
        <time>2025-05-17T21:48:43.363Z</time>
      </trkpt>
      <trkpt lat="50.48349" lon="3.28518">
        <ele>46.66</ele>
        <time>2025-05-17T21:48:49.680Z</time>
      </trkpt>
      <trkpt lat="50.48351" lon="3.28509">
        <ele>46.73</ele>
        <time>2025-05-17T21:48:55.998Z</time>
      </trkpt>
      <trkpt lat="50.48354" lon="3.285">
        <ele>46.82</ele>
        <time>2025-05-17T21:49:02.318Z</time>
      </trkpt>
      <trkpt lat="50.48357" lon="3.28492">
        <ele>46.9</ele>
        <time>2025-05-17T21:49:08.639Z</time>
      </trkpt>
      <trkpt lat="50.48359" lon="3.28483">
        <ele>46.99</ele>
        <time>2025-05-17T21:49:14.961Z</time>
      </trkpt>
      <trkpt lat="50.48362" lon="3.28474">
        <ele>47.07</ele>
        <time>2025-05-17T21:49:21.284Z</time>
      </trkpt>
      <trkpt lat="50.48364" lon="3.28465">
        <ele>47.16</ele>
        <time>2025-05-17T21:49:27.608Z</time>
      </trkpt>
      <trkpt lat="50.48366" lon="3.28455">
        <ele>47.26</ele>
        <time>2025-05-17T21:49:33.933Z</time>
      </trkpt>
      <trkpt lat="50.48367" lon="3.28445">
        <ele>47.36</ele>
        <time>2025-05-17T21:49:40.259Z</time>
      </trkpt>
      <trkpt lat="50.48368" lon="3.28436">
        <ele>47.45</ele>
        <time>2025-05-17T21:49:46.586Z</time>
      </trkpt>
      <trkpt lat="50.48368" lon="3.28425">
        <ele>47.53</ele>
        <time>2025-05-17T21:49:52.914Z</time>
      </trkpt>
      <trkpt lat="50.48366" lon="3.28415">
        <ele>47.61</ele>
        <time>2025-05-17T21:49:59.243Z</time>
      </trkpt>
      <trkpt lat="50.48365" lon="3.28405">
        <ele>47.67</ele>
        <time>2025-05-17T21:50:05.573Z</time>
      </trkpt>
      <trkpt lat="50.48364" lon="3.28395">
        <ele>47.71</ele>
        <time>2025-05-17T21:50:11.904Z</time>
      </trkpt>
      <trkpt lat="50.48364" lon="3.28385">
        <ele>47.75</ele>
        <time>2025-05-17T21:50:18.236Z</time>
      </trkpt>
      <trkpt lat="50.48364" lon="3.28375">
        <ele>47.79</ele>
        <time>2025-05-17T21:50:24.569Z</time>
      </trkpt>
      <trkpt lat="50.48366" lon="3.28364">
        <ele>47.81</ele>
        <time>2025-05-17T21:50:30.904Z</time>
      </trkpt>
      <trkpt lat="50.48369" lon="3.28354">
        <ele>47.84</ele>
        <time>2025-05-17T21:50:37.240Z</time>
      </trkpt>
      <trkpt lat="50.48372" lon="3.28345">
        <ele>47.83</ele>
        <time>2025-05-17T21:50:43.577Z</time>
      </trkpt>
      <trkpt lat="50.48375" lon="3.28335">
        <ele>47.82</ele>
        <time>2025-05-17T21:50:49.915Z</time>
      </trkpt>
      <trkpt lat="50.48379" lon="3.28326">
        <ele>47.81</ele>
        <time>2025-05-17T21:50:56.254Z</time>
      </trkpt>
      <trkpt lat="50.48382" lon="3.28316">
        <ele>47.78</ele>
        <time>2025-05-17T21:51:02.594Z</time>
      </trkpt>
      <trkpt lat="50.48386" lon="3.28306">
        <ele>47.74</ele>
        <time>2025-05-17T21:51:08.936Z</time>
      </trkpt>
      <trkpt lat="50.48389" lon="3.28297">
        <ele>47.68</ele>
        <time>2025-05-17T21:51:15.279Z</time>
      </trkpt>
      <trkpt lat="50.48393" lon="3.28288">
        <ele>47.62</ele>
        <time>2025-05-17T21:51:21.623Z</time>
      </trkpt>
      <trkpt lat="50.48396" lon="3.28278">
        <ele>47.54</ele>
        <time>2025-05-17T21:51:27.968Z</time>
      </trkpt>
      <trkpt lat="50.484" lon="3.28269">
        <ele>47.47</ele>
        <time>2025-05-17T21:51:34.314Z</time>
      </trkpt>
      <trkpt lat="50.48402" lon="3.28259">
        <ele>47.4</ele>
        <time>2025-05-17T21:51:40.661Z</time>
      </trkpt>
      <trkpt lat="50.48404" lon="3.28248">
        <ele>47.32</ele>
        <time>2025-05-17T21:51:47.010Z</time>
      </trkpt>
      <trkpt lat="50.48405" lon="3.28238">
        <ele>47.25</ele>
        <time>2025-05-17T21:51:53.360Z</time>
      </trkpt>
      <trkpt lat="50.48406" lon="3.28235">
        <ele>47.16</ele>
        <time>2025-05-17T21:51:59.710Z</time>
      </trkpt>
      <trkpt lat="50.48403" lon="3.28234">
        <ele>47.08</ele>
        <time>2025-05-17T21:52:06.061Z</time>
      </trkpt>
      <trkpt lat="50.48404" lon="3.28223">
        <ele>46.98</ele>
        <time>2025-05-17T21:52:12.413Z</time>
      </trkpt>
      <trkpt lat="50.48404" lon="3.28184">
        <ele>46.86</ele>
        <time>2025-05-17T21:52:18.769Z</time>
      </trkpt>
      <trkpt lat="50.48403" lon="3.28145">
        <ele>46.77</ele>
        <time>2025-05-17T21:52:25.129Z</time>
      </trkpt>
      <trkpt lat="50.48402" lon="3.28111">
        <ele>46.7</ele>
        <time>2025-05-17T21:52:31.493Z</time>
      </trkpt>
      <trkpt lat="50.48417" lon="3.28094">
        <ele>46.6</ele>
        <time>2025-05-17T21:52:37.860Z</time>
      </trkpt>
      <trkpt lat="50.48432" lon="3.2807">
        <ele>46.5</ele>
        <time>2025-05-17T21:52:44.230Z</time>
      </trkpt>
      <trkpt lat="50.48446" lon="3.28045">
        <ele>46.4</ele>
        <time>2025-05-17T21:52:50.604Z</time>
      </trkpt>
      <trkpt lat="50.4845" lon="3.28043">
        <ele>46.32</ele>
        <time>2025-05-17T21:52:56.979Z</time>
      </trkpt>
      <trkpt lat="50.48454" lon="3.28035">
        <ele>46.26</ele>
        <time>2025-05-17T21:53:03.355Z</time>
      </trkpt>
      <trkpt lat="50.48459" lon="3.28028">
        <ele>46.19</ele>
        <time>2025-05-17T21:53:09.732Z</time>
      </trkpt>
      <trkpt lat="50.48463" lon="3.2802">
        <ele>46.11</ele>
        <time>2025-05-17T21:53:16.110Z</time>
      </trkpt>
      <trkpt lat="50.48467" lon="3.28013">
        <ele>46.05</ele>
        <time>2025-05-17T21:53:22.489Z</time>
      </trkpt>
      <trkpt lat="50.48471" lon="3.28005">
        <ele>46</ele>
        <time>2025-05-17T21:53:28.869Z</time>
      </trkpt>
      <trkpt lat="50.48475" lon="3.27997">
        <ele>45.95</ele>
        <time>2025-05-17T21:53:35.250Z</time>
      </trkpt>
      <trkpt lat="50.48479" lon="3.27988">
        <ele>45.89</ele>
        <time>2025-05-17T21:53:41.632Z</time>
      </trkpt>
      <trkpt lat="50.48483" lon="3.2798">
        <ele>45.82</ele>
        <time>2025-05-17T21:53:48.015Z</time>
      </trkpt>
      <trkpt lat="50.48486" lon="3.2797">
        <ele>45.78</ele>
        <time>2025-05-17T21:53:54.399Z</time>
      </trkpt>
      <trkpt lat="50.48489" lon="3.27961">
        <ele>45.74</ele>
        <time>2025-05-17T21:54:00.785Z</time>
      </trkpt>
      <trkpt lat="50.48492" lon="3.27951">
        <ele>45.68</ele>
        <time>2025-05-17T21:54:07.172Z</time>
      </trkpt>
      <trkpt lat="50.48494" lon="3.27942">
        <ele>45.63</ele>
        <time>2025-05-17T21:54:13.560Z</time>
      </trkpt>
      <trkpt lat="50.48497" lon="3.27932">
        <ele>45.58</ele>
        <time>2025-05-17T21:54:19.949Z</time>
      </trkpt>
      <trkpt lat="50.485" lon="3.27922">
        <ele>45.53</ele>
        <time>2025-05-17T21:54:26.339Z</time>
      </trkpt>
      <trkpt lat="50.48502" lon="3.27912">
        <ele>45.48</ele>
        <time>2025-05-17T21:54:32.730Z</time>
      </trkpt>
      <trkpt lat="50.48505" lon="3.27902">
        <ele>45.42</ele>
        <time>2025-05-17T21:54:39.122Z</time>
      </trkpt>
      <trkpt lat="50.48508" lon="3.27892">
        <ele>45.37</ele>
        <time>2025-05-17T21:54:45.516Z</time>
      </trkpt>
      <trkpt lat="50.48511" lon="3.27882">
        <ele>45.31</ele>
        <time>2025-05-17T21:54:51.911Z</time>
      </trkpt>
      <trkpt lat="50.48513" lon="3.27872">
        <ele>45.24</ele>
        <time>2025-05-17T21:54:58.307Z</time>
      </trkpt>
      <trkpt lat="50.48516" lon="3.27862">
        <ele>45.17</ele>
        <time>2025-05-17T21:55:04.704Z</time>
      </trkpt>
      <trkpt lat="50.48519" lon="3.27852">
        <ele>45.1</ele>
        <time>2025-05-17T21:55:11.102Z</time>
      </trkpt>
      <trkpt lat="50.48522" lon="3.27842">
        <ele>45.03</ele>
        <time>2025-05-17T21:55:17.502Z</time>
      </trkpt>
      <trkpt lat="50.48525" lon="3.27831">
        <ele>44.95</ele>
        <time>2025-05-17T21:55:23.903Z</time>
      </trkpt>
      <trkpt lat="50.48528" lon="3.27821">
        <ele>44.88</ele>
        <time>2025-05-17T21:55:30.305Z</time>
      </trkpt>
      <trkpt lat="50.4853" lon="3.27811">
        <ele>44.82</ele>
        <time>2025-05-17T21:55:36.708Z</time>
      </trkpt>
      <trkpt lat="50.48533" lon="3.27801">
        <ele>44.76</ele>
        <time>2025-05-17T21:55:43.112Z</time>
      </trkpt>
      <trkpt lat="50.48536" lon="3.2779">
        <ele>44.72</ele>
        <time>2025-05-17T21:55:49.518Z</time>
      </trkpt>
      <trkpt lat="50.48538" lon="3.2778">
        <ele>44.69</ele>
        <time>2025-05-17T21:55:55.925Z</time>
      </trkpt>
      <trkpt lat="50.48541" lon="3.27771">
        <ele>44.62</ele>
        <time>2025-05-17T21:56:02.333Z</time>
      </trkpt>
      <trkpt lat="50.48543" lon="3.2776">
        <ele>44.54</ele>
        <time>2025-05-17T21:56:08.742Z</time>
      </trkpt>
      <trkpt lat="50.48546" lon="3.2775">
        <ele>44.47</ele>
        <time>2025-05-17T21:56:15.152Z</time>
      </trkpt>
      <trkpt lat="50.48549" lon="3.2774">
        <ele>44.4</ele>
        <time>2025-05-17T21:56:21.563Z</time>
      </trkpt>
      <trkpt lat="50.48551" lon="3.2773">
        <ele>44.33</ele>
        <time>2025-05-17T21:56:27.976Z</time>
      </trkpt>
      <trkpt lat="50.48554" lon="3.2772">
        <ele>44.27</ele>
        <time>2025-05-17T21:56:34.390Z</time>
      </trkpt>
      <trkpt lat="50.48558" lon="3.2771">
        <ele>44.2</ele>
        <time>2025-05-17T21:56:40.805Z</time>
      </trkpt>
      <trkpt lat="50.48562" lon="3.27701">
        <ele>44.11</ele>
        <time>2025-05-17T21:56:47.221Z</time>
      </trkpt>
      <trkpt lat="50.48565" lon="3.27691">
        <ele>44.03</ele>
        <time>2025-05-17T21:56:53.638Z</time>
      </trkpt>
      <trkpt lat="50.4857" lon="3.27682">
        <ele>43.95</ele>
        <time>2025-05-17T21:57:00.057Z</time>
      </trkpt>
      <trkpt lat="50.48574" lon="3.27672">
        <ele>43.86</ele>
        <time>2025-05-17T21:57:06.477Z</time>
      </trkpt>
      <trkpt lat="50.48579" lon="3.27664">
        <ele>43.77</ele>
        <time>2025-05-17T21:57:12.898Z</time>
      </trkpt>
      <trkpt lat="50.48584" lon="3.27656">
        <ele>43.68</ele>
        <time>2025-05-17T21:57:19.320Z</time>
      </trkpt>
      <trkpt lat="50.4859" lon="3.2765">
        <ele>43.59</ele>
        <time>2025-05-17T21:57:25.743Z</time>
      </trkpt>
      <trkpt lat="50.48596" lon="3.27644">
        <ele>43.5</ele>
        <time>2025-05-17T21:57:32.168Z</time>
      </trkpt>
      <trkpt lat="50.48603" lon="3.27639">
        <ele>43.42</ele>
        <time>2025-05-17T21:57:38.594Z</time>
      </trkpt>
      <trkpt lat="50.48609" lon="3.27634">
        <ele>43.34</ele>
        <time>2025-05-17T21:57:45.021Z</time>
      </trkpt>
      <trkpt lat="50.48615" lon="3.27629">
        <ele>43.26</ele>
        <time>2025-05-17T21:57:51.449Z</time>
      </trkpt>
      <trkpt lat="50.48622" lon="3.27625">
        <ele>43.19</ele>
        <time>2025-05-17T21:57:57.878Z</time>
      </trkpt>
      <trkpt lat="50.48628" lon="3.2762">
        <ele>43.13</ele>
        <time>2025-05-17T21:58:04.309Z</time>
      </trkpt>
      <trkpt lat="50.48635" lon="3.27616">
        <ele>43.07</ele>
        <time>2025-05-17T21:58:10.741Z</time>
      </trkpt>
      <trkpt lat="50.48641" lon="3.27611">
        <ele>43.01</ele>
        <time>2025-05-17T21:58:17.174Z</time>
      </trkpt>
      <trkpt lat="50.48648" lon="3.27606">
        <ele>42.95</ele>
        <time>2025-05-17T21:58:23.608Z</time>
      </trkpt>
      <trkpt lat="50.48654" lon="3.27601">
        <ele>42.89</ele>
        <time>2025-05-17T21:58:30.043Z</time>
      </trkpt>
      <trkpt lat="50.4866" lon="3.27596">
        <ele>42.84</ele>
        <time>2025-05-17T21:58:36.480Z</time>
      </trkpt>
      <trkpt lat="50.48667" lon="3.27591">
        <ele>42.79</ele>
        <time>2025-05-17T21:58:42.918Z</time>
      </trkpt>
      <trkpt lat="50.48673" lon="3.27586">
        <ele>42.74</ele>
        <time>2025-05-17T21:58:49.357Z</time>
      </trkpt>
      <trkpt lat="50.48679" lon="3.2758">
        <ele>42.71</ele>
        <time>2025-05-17T21:58:55.797Z</time>
      </trkpt>
      <trkpt lat="50.48685" lon="3.27575">
        <ele>42.69</ele>
        <time>2025-05-17T21:59:02.238Z</time>
      </trkpt>
      <trkpt lat="50.48691" lon="3.27569">
        <ele>42.68</ele>
        <time>2025-05-17T21:59:08.680Z</time>
      </trkpt>
      <trkpt lat="50.48697" lon="3.27563">
        <ele>42.65</ele>
        <time>2025-05-17T21:59:15.124Z</time>
      </trkpt>
      <trkpt lat="50.48703" lon="3.27557">
        <ele>42.63</ele>
        <time>2025-05-17T21:59:21.569Z</time>
      </trkpt>
      <trkpt lat="50.4871" lon="3.27551">
        <ele>42.62</ele>
        <time>2025-05-17T21:59:28.015Z</time>
      </trkpt>
      <trkpt lat="50.48716" lon="3.27545">
        <ele>42.61</ele>
        <time>2025-05-17T21:59:34.462Z</time>
      </trkpt>
      <trkpt lat="50.48722" lon="3.27539">
        <ele>42.61</ele>
        <time>2025-05-17T21:59:40.910Z</time>
      </trkpt>
      <trkpt lat="50.48727" lon="3.27533">
        <ele>42.61</ele>
        <time>2025-05-17T21:59:47.360Z</time>
      </trkpt>
      <trkpt lat="50.48733" lon="3.27527">
        <ele>42.61</ele>
        <time>2025-05-17T21:59:53.811Z</time>
      </trkpt>
      <trkpt lat="50.48739" lon="3.27521">
        <ele>42.59</ele>
        <time>2025-05-17T22:00:00.263Z</time>
      </trkpt>
      <trkpt lat="50.48745" lon="3.27514">
        <ele>42.59</ele>
        <time>2025-05-17T22:00:06.716Z</time>
      </trkpt>
      <trkpt lat="50.48751" lon="3.27507">
        <ele>42.6</ele>
        <time>2025-05-17T22:00:13.170Z</time>
      </trkpt>
      <trkpt lat="50.48757" lon="3.275">
        <ele>42.61</ele>
        <time>2025-05-17T22:00:19.626Z</time>
      </trkpt>
      <trkpt lat="50.48762" lon="3.27493">
        <ele>42.62</ele>
        <time>2025-05-17T22:00:26.083Z</time>
      </trkpt>
      <trkpt lat="50.48768" lon="3.27486">
        <ele>42.61</ele>
        <time>2025-05-17T22:00:32.541Z</time>
      </trkpt>
      <trkpt lat="50.48773" lon="3.27479">
        <ele>42.6</ele>
        <time>2025-05-17T22:00:39.000Z</time>
      </trkpt>
      <trkpt lat="50.48779" lon="3.27472">
        <ele>42.6</ele>
        <time>2025-05-17T22:00:45.460Z</time>
      </trkpt>
      <trkpt lat="50.48784" lon="3.27465">
        <ele>42.63</ele>
        <time>2025-05-17T22:00:51.922Z</time>
      </trkpt>
      <trkpt lat="50.48789" lon="3.27458">
        <ele>42.67</ele>
        <time>2025-05-17T22:00:58.385Z</time>
      </trkpt>
      <trkpt lat="50.48794" lon="3.27452">
        <ele>42.71</ele>
        <time>2025-05-17T22:01:04.849Z</time>
      </trkpt>
      <trkpt lat="50.488" lon="3.27445">
        <ele>42.75</ele>
        <time>2025-05-17T22:01:11.314Z</time>
      </trkpt>
      <trkpt lat="50.48805" lon="3.27438">
        <ele>42.8</ele>
        <time>2025-05-17T22:01:17.780Z</time>
      </trkpt>
      <trkpt lat="50.4881" lon="3.27431">
        <ele>42.85</ele>
        <time>2025-05-17T22:01:24.247Z</time>
      </trkpt>
      <trkpt lat="50.48815" lon="3.27425">
        <ele>42.9</ele>
        <time>2025-05-17T22:01:30.715Z</time>
      </trkpt>
      <trkpt lat="50.4882" lon="3.27418">
        <ele>42.96</ele>
        <time>2025-05-17T22:01:37.185Z</time>
      </trkpt>
      <trkpt lat="50.48825" lon="3.27412">
        <ele>43.02</ele>
        <time>2025-05-17T22:01:43.656Z</time>
      </trkpt>
      <trkpt lat="50.4883" lon="3.27407">
        <ele>43.08</ele>
        <time>2025-05-17T22:01:50.128Z</time>
      </trkpt>
      <trkpt lat="50.48834" lon="3.27402">
        <ele>43.15</ele>
        <time>2025-05-17T22:01:56.601Z</time>
      </trkpt>
      <trkpt lat="50.48839" lon="3.27397">
        <ele>43.23</ele>
        <time>2025-05-17T22:02:03.074Z</time>
      </trkpt>
      <trkpt lat="50.48844" lon="3.27392">
        <ele>43.31</ele>
        <time>2025-05-17T22:02:09.548Z</time>
      </trkpt>
      <trkpt lat="50.48849" lon="3.27387">
        <ele>43.4</ele>
        <time>2025-05-17T22:02:16.023Z</time>
      </trkpt>
      <trkpt lat="50.48853" lon="3.27381">
        <ele>43.49</ele>
        <time>2025-05-17T22:02:22.499Z</time>
      </trkpt>
      <trkpt lat="50.48858" lon="3.27377">
        <ele>43.58</ele>
        <time>2025-05-17T22:02:28.976Z</time>
      </trkpt>
      <trkpt lat="50.48863" lon="3.27372">
        <ele>43.67</ele>
        <time>2025-05-17T22:02:35.454Z</time>
      </trkpt>
      <trkpt lat="50.48867" lon="3.27368">
        <ele>43.77</ele>
        <time>2025-05-17T22:02:41.933Z</time>
      </trkpt>
      <trkpt lat="50.48871" lon="3.27364">
        <ele>43.86</ele>
        <time>2025-05-17T22:02:48.413Z</time>
      </trkpt>
      <trkpt lat="50.48875" lon="3.27359">
        <ele>43.94</ele>
        <time>2025-05-17T22:02:54.894Z</time>
      </trkpt>
      <trkpt lat="50.48879" lon="3.27355">
        <ele>44.03</ele>
        <time>2025-05-17T22:03:01.376Z</time>
      </trkpt>
      <trkpt lat="50.48883" lon="3.2735">
        <ele>44.11</ele>
        <time>2025-05-17T22:03:07.858Z</time>
      </trkpt>
      <trkpt lat="50.48887" lon="3.27346">
        <ele>44.21</ele>
        <time>2025-05-17T22:03:14.341Z</time>
      </trkpt>
      <trkpt lat="50.48891" lon="3.27342">
        <ele>44.31</ele>
        <time>2025-05-17T22:03:20.825Z</time>
      </trkpt>
      <trkpt lat="50.48895" lon="3.27339">
        <ele>44.4</ele>
        <time>2025-05-17T22:03:27.310Z</time>
      </trkpt>
      <trkpt lat="50.48899" lon="3.27335">
        <ele>44.5</ele>
        <time>2025-05-17T22:03:33.796Z</time>
      </trkpt>
      <trkpt lat="50.48903" lon="3.27332">
        <ele>44.6</ele>
        <time>2025-05-17T22:03:40.282Z</time>
      </trkpt>
      <trkpt lat="50.48906" lon="3.27328">
        <ele>44.7</ele>
        <time>2025-05-17T22:03:46.769Z</time>
      </trkpt>
      <trkpt lat="50.48909" lon="3.27325">
        <ele>44.8</ele>
        <time>2025-05-17T22:03:53.257Z</time>
      </trkpt>
      <trkpt lat="50.48912" lon="3.27321">
        <ele>44.89</ele>
        <time>2025-05-17T22:03:59.745Z</time>
      </trkpt>
      <trkpt lat="50.48915" lon="3.27318">
        <ele>44.98</ele>
        <time>2025-05-17T22:04:06.234Z</time>
      </trkpt>
      <trkpt lat="50.48918" lon="3.27315">
        <ele>45.07</ele>
        <time>2025-05-17T22:04:12.723Z</time>
      </trkpt>
      <trkpt lat="50.4892" lon="3.27312">
        <ele>45.16</ele>
        <time>2025-05-17T22:04:19.213Z</time>
      </trkpt>
      <trkpt lat="50.48922" lon="3.2731">
        <ele>45.24</ele>
        <time>2025-05-17T22:04:25.703Z</time>
      </trkpt>
      <trkpt lat="50.48923" lon="3.27309">
        <ele>45.31</ele>
        <time>2025-05-17T22:04:32.193Z</time>
      </trkpt>
      <trkpt lat="50.48923" lon="3.27309">
        <ele>45.38</ele>
        <time>2025-05-17T22:04:38.683Z</time>
      </trkpt>
      <trkpt lat="50.48933" lon="3.27305">
        <ele>45.46</ele>
        <time>2025-05-17T22:04:45.175Z</time>
      </trkpt>
      <trkpt lat="50.48935" lon="3.27305">
        <ele>45.53</ele>
        <time>2025-05-17T22:04:51.668Z</time>
      </trkpt>
      <trkpt lat="50.48937" lon="3.27306">
        <ele>45.59</ele>
        <time>2025-05-17T22:04:58.161Z</time>
      </trkpt>
      <trkpt lat="50.48938" lon="3.27307">
        <ele>45.64</ele>
        <time>2025-05-17T22:05:04.654Z</time>
      </trkpt>
      <trkpt lat="50.48944" lon="3.27312">
        <ele>45.69</ele>
        <time>2025-05-17T22:05:11.148Z</time>
      </trkpt>
      <trkpt lat="50.48946" lon="3.27312">
        <ele>45.74</ele>
        <time>2025-05-17T22:05:17.643Z</time>
      </trkpt>
      <trkpt lat="50.48948" lon="3.27309">
        <ele>45.77</ele>
        <time>2025-05-17T22:05:24.138Z</time>
      </trkpt>
      <trkpt lat="50.4895" lon="3.27305">
        <ele>45.81</ele>
        <time>2025-05-17T22:05:30.633Z</time>
      </trkpt>
      <trkpt lat="50.48951" lon="3.27299">
        <ele>45.83</ele>
        <time>2025-05-17T22:05:37.129Z</time>
      </trkpt>
      <trkpt lat="50.48952" lon="3.27294">
        <ele>45.85</ele>
        <time>2025-05-17T22:05:43.626Z</time>
      </trkpt>
      <trkpt lat="50.48953" lon="3.27288">
        <ele>45.85</ele>
        <time>2025-05-17T22:05:50.123Z</time>
      </trkpt>
      <trkpt lat="50.48955" lon="3.27283">
        <ele>45.86</ele>
        <time>2025-05-17T22:05:56.621Z</time>
      </trkpt>
      <trkpt lat="50.48957" lon="3.27277">
        <ele>45.86</ele>
        <time>2025-05-17T22:06:03.120Z</time>
      </trkpt>
      <trkpt lat="50.48959" lon="3.27271">
        <ele>45.86</ele>
        <time>2025-05-17T22:06:09.619Z</time>
      </trkpt>
      <trkpt lat="50.48961" lon="3.27264">
        <ele>45.86</ele>
        <time>2025-05-17T22:06:16.119Z</time>
      </trkpt>
      <trkpt lat="50.48963" lon="3.27259">
        <ele>45.86</ele>
        <time>2025-05-17T22:06:22.620Z</time>
      </trkpt>
      <trkpt lat="50.48966" lon="3.27254">
        <ele>45.85</ele>
        <time>2025-05-17T22:06:29.122Z</time>
      </trkpt>
      <trkpt lat="50.48969" lon="3.27249">
        <ele>45.84</ele>
        <time>2025-05-17T22:06:35.624Z</time>
      </trkpt>
      <trkpt lat="50.48972" lon="3.27244">
        <ele>45.83</ele>
        <time>2025-05-17T22:06:42.127Z</time>
      </trkpt>
      <trkpt lat="50.48976" lon="3.27239">
        <ele>45.83</ele>
        <time>2025-05-17T22:06:48.631Z</time>
      </trkpt>
      <trkpt lat="50.4898" lon="3.27233">
        <ele>45.83</ele>
        <time>2025-05-17T22:06:55.136Z</time>
      </trkpt>
      <trkpt lat="50.48984" lon="3.27226">
        <ele>45.84</ele>
        <time>2025-05-17T22:07:01.642Z</time>
      </trkpt>
      <trkpt lat="50.48988" lon="3.2722">
        <ele>45.82</ele>
        <time>2025-05-17T22:07:08.149Z</time>
      </trkpt>
      <trkpt lat="50.48992" lon="3.27213">
        <ele>45.81</ele>
        <time>2025-05-17T22:07:14.657Z</time>
      </trkpt>
      <trkpt lat="50.48996" lon="3.27207">
        <ele>45.82</ele>
        <time>2025-05-17T22:07:21.166Z</time>
      </trkpt>
      <trkpt lat="50.49" lon="3.27201">
        <ele>45.83</ele>
        <time>2025-05-17T22:07:27.676Z</time>
      </trkpt>
      <trkpt lat="50.49004" lon="3.27195">
        <ele>45.85</ele>
        <time>2025-05-17T22:07:34.187Z</time>
      </trkpt>
      <trkpt lat="50.49008" lon="3.27188">
        <ele>45.86</ele>
        <time>2025-05-17T22:07:40.699Z</time>
      </trkpt>
      <trkpt lat="50.49012" lon="3.27182">
        <ele>45.88</ele>
        <time>2025-05-17T22:07:47.212Z</time>
      </trkpt>
      <trkpt lat="50.49016" lon="3.27175">
        <ele>45.89</ele>
        <time>2025-05-17T22:07:53.726Z</time>
      </trkpt>
      <trkpt lat="50.49047" lon="3.27128">
        <ele>45.88</ele>
        <time>2025-05-17T22:08:00.247Z</time>
      </trkpt>
      <trkpt lat="50.49051" lon="3.27121">
        <ele>45.87</ele>
        <time>2025-05-17T22:08:06.769Z</time>
      </trkpt>
      <trkpt lat="50.49056" lon="3.27114">
        <ele>45.85</ele>
        <time>2025-05-17T22:08:13.292Z</time>
      </trkpt>
      <trkpt lat="50.49061" lon="3.27107">
        <ele>45.84</ele>
        <time>2025-05-17T22:08:19.816Z</time>
      </trkpt>
      <trkpt lat="50.49065" lon="3.271">
        <ele>45.84</ele>
        <time>2025-05-17T22:08:26.341Z</time>
      </trkpt>
      <trkpt lat="50.4907" lon="3.27093">
        <ele>45.85</ele>
        <time>2025-05-17T22:08:32.867Z</time>
      </trkpt>
      <trkpt lat="50.49075" lon="3.27085">
        <ele>45.85</ele>
        <time>2025-05-17T22:08:39.394Z</time>
      </trkpt>
      <trkpt lat="50.49121" lon="3.26979">
        <ele>45.81</ele>
        <time>2025-05-17T22:08:45.935Z</time>
      </trkpt>
      <trkpt lat="50.49124" lon="3.2697">
        <ele>45.81</ele>
        <time>2025-05-17T22:08:52.477Z</time>
      </trkpt>
      <trkpt lat="50.49127" lon="3.26961">
        <ele>45.81</ele>
        <time>2025-05-17T22:08:59.020Z</time>
      </trkpt>
      <trkpt lat="50.4913" lon="3.26952">
        <ele>45.81</ele>
        <time>2025-05-17T22:09:05.564Z</time>
      </trkpt>
      <trkpt lat="50.49133" lon="3.26942">
        <ele>45.82</ele>
        <time>2025-05-17T22:09:12.110Z</time>
      </trkpt>
      <trkpt lat="50.49136" lon="3.26933">
        <ele>45.83</ele>
        <time>2025-05-17T22:09:18.657Z</time>
      </trkpt>
      <trkpt lat="50.49139" lon="3.26923">
        <ele>45.86</ele>
        <time>2025-05-17T22:09:25.205Z</time>
      </trkpt>
      <trkpt lat="50.49142" lon="3.26914">
        <ele>45.88</ele>
        <time>2025-05-17T22:09:31.754Z</time>
      </trkpt>
      <trkpt lat="50.49145" lon="3.26905">
        <ele>45.9</ele>
        <time>2025-05-17T22:09:38.304Z</time>
      </trkpt>
      <trkpt lat="50.49148" lon="3.26895">
        <ele>45.92</ele>
        <time>2025-05-17T22:09:44.855Z</time>
      </trkpt>
      <trkpt lat="50.49152" lon="3.26885">
        <ele>45.97</ele>
        <time>2025-05-17T22:09:51.407Z</time>
      </trkpt>
      <trkpt lat="50.49155" lon="3.26875">
        <ele>46.04</ele>
        <time>2025-05-17T22:09:57.961Z</time>
      </trkpt>
      <trkpt lat="50.49158" lon="3.26865">
        <ele>46.11</ele>
        <time>2025-05-17T22:10:04.516Z</time>
      </trkpt>
      <trkpt lat="50.49161" lon="3.26855">
        <ele>46.18</ele>
        <time>2025-05-17T22:10:11.072Z</time>
      </trkpt>
      <trkpt lat="50.49164" lon="3.26846">
        <ele>46.24</ele>
        <time>2025-05-17T22:10:17.629Z</time>
      </trkpt>
      <trkpt lat="50.49167" lon="3.26836">
        <ele>46.3</ele>
        <time>2025-05-17T22:10:24.187Z</time>
      </trkpt>
      <trkpt lat="50.4917" lon="3.26826">
        <ele>46.36</ele>
        <time>2025-05-17T22:10:30.747Z</time>
      </trkpt>
      <trkpt lat="50.49174" lon="3.26816">
        <ele>46.43</ele>
        <time>2025-05-17T22:10:37.308Z</time>
      </trkpt>
      <trkpt lat="50.49177" lon="3.26806">
        <ele>46.49</ele>
        <time>2025-05-17T22:10:43.870Z</time>
      </trkpt>
      <trkpt lat="50.4918" lon="3.26796">
        <ele>46.53</ele>
        <time>2025-05-17T22:10:50.433Z</time>
      </trkpt>
      <trkpt lat="50.49182" lon="3.26787">
        <ele>46.57</ele>
        <time>2025-05-17T22:10:56.997Z</time>
      </trkpt>
      <trkpt lat="50.49185" lon="3.26777">
        <ele>46.63</ele>
        <time>2025-05-17T22:11:03.562Z</time>
      </trkpt>
      <trkpt lat="50.49188" lon="3.26767">
        <ele>46.66</ele>
        <time>2025-05-17T22:11:10.128Z</time>
      </trkpt>
      <trkpt lat="50.4919" lon="3.26757">
        <ele>46.69</ele>
        <time>2025-05-17T22:11:16.696Z</time>
      </trkpt>
      <trkpt lat="50.49193" lon="3.26747">
        <ele>46.7</ele>
        <time>2025-05-17T22:11:23.265Z</time>
      </trkpt>
      <trkpt lat="50.49195" lon="3.26737">
        <ele>46.71</ele>
        <time>2025-05-17T22:11:29.835Z</time>
      </trkpt>
      <trkpt lat="50.49198" lon="3.26727">
        <ele>46.7</ele>
        <time>2025-05-17T22:11:36.406Z</time>
      </trkpt>
      <trkpt lat="50.492" lon="3.26717">
        <ele>46.68</ele>
        <time>2025-05-17T22:11:42.978Z</time>
      </trkpt>
      <trkpt lat="50.49202" lon="3.26707">
        <ele>46.64</ele>
        <time>2025-05-17T22:11:49.551Z</time>
      </trkpt>
      <trkpt lat="50.49204" lon="3.26697">
        <ele>46.59</ele>
        <time>2025-05-17T22:11:56.125Z</time>
      </trkpt>
      <trkpt lat="50.49206" lon="3.26687">
        <ele>46.56</ele>
        <time>2025-05-17T22:12:02.701Z</time>
      </trkpt>
      <trkpt lat="50.49208" lon="3.26677">
        <ele>46.5</ele>
        <time>2025-05-17T22:12:09.278Z</time>
      </trkpt>
      <trkpt lat="50.4921" lon="3.26667">
        <ele>46.44</ele>
        <time>2025-05-17T22:12:15.856Z</time>
      </trkpt>
      <trkpt lat="50.49212" lon="3.26657">
        <ele>46.38</ele>
        <time>2025-05-17T22:12:22.435Z</time>
      </trkpt>
      <trkpt lat="50.49214" lon="3.26647">
        <ele>46.31</ele>
        <time>2025-05-17T22:12:29.015Z</time>
      </trkpt>
      <trkpt lat="50.49216" lon="3.26637">
        <ele>46.24</ele>
        <time>2025-05-17T22:12:35.596Z</time>
      </trkpt>
      <trkpt lat="50.49218" lon="3.26627">
        <ele>46.17</ele>
        <time>2025-05-17T22:12:42.178Z</time>
      </trkpt>
      <trkpt lat="50.4922" lon="3.26616">
        <ele>46.12</ele>
        <time>2025-05-17T22:12:48.761Z</time>
      </trkpt>
      <trkpt lat="50.49222" lon="3.26606">
        <ele>46.06</ele>
        <time>2025-05-17T22:12:55.346Z</time>
      </trkpt>
      <trkpt lat="50.49224" lon="3.26595">
        <ele>46.01</ele>
        <time>2025-05-17T22:13:01.932Z</time>
      </trkpt>
      <trkpt lat="50.49226" lon="3.26585">
        <ele>45.96</ele>
        <time>2025-05-17T22:13:08.519Z</time>
      </trkpt>
      <trkpt lat="50.49228" lon="3.26575">
        <ele>45.91</ele>
        <time>2025-05-17T22:13:15.107Z</time>
      </trkpt>
      <trkpt lat="50.4923" lon="3.26565">
        <ele>45.86</ele>
        <time>2025-05-17T22:13:21.696Z</time>
      </trkpt>
      <trkpt lat="50.49232" lon="3.26554">
        <ele>45.81</ele>
        <time>2025-05-17T22:13:28.286Z</time>
      </trkpt>
      <trkpt lat="50.49234" lon="3.26544">
        <ele>45.77</ele>
        <time>2025-05-17T22:13:34.878Z</time>
      </trkpt>
      <trkpt lat="50.49236" lon="3.26534">
        <ele>45.72</ele>
        <time>2025-05-17T22:13:41.471Z</time>
      </trkpt>
      <trkpt lat="50.49239" lon="3.26524">
        <ele>45.66</ele>
        <time>2025-05-17T22:13:48.065Z</time>
      </trkpt>
      <trkpt lat="50.49242" lon="3.26515">
        <ele>45.6</ele>
        <time>2025-05-17T22:13:54.660Z</time>
      </trkpt>
      <trkpt lat="50.49245" lon="3.26506">
        <ele>45.56</ele>
        <time>2025-05-17T22:14:01.256Z</time>
      </trkpt>
      <trkpt lat="50.49249" lon="3.26498">
        <ele>45.51</ele>
        <time>2025-05-17T22:14:07.853Z</time>
      </trkpt>
      <trkpt lat="50.49252" lon="3.2649">
        <ele>45.47</ele>
        <time>2025-05-17T22:14:14.451Z</time>
      </trkpt>
      <trkpt lat="50.49256" lon="3.26482">
        <ele>45.44</ele>
        <time>2025-05-17T22:14:21.050Z</time>
      </trkpt>
      <trkpt lat="50.4926" lon="3.26475">
        <ele>45.4</ele>
        <time>2025-05-17T22:14:27.650Z</time>
      </trkpt>
      <trkpt lat="50.49264" lon="3.26468">
        <ele>45.36</ele>
        <time>2025-05-17T22:14:34.251Z</time>
      </trkpt>
      <trkpt lat="50.49268" lon="3.26461">
        <ele>45.33</ele>
        <time>2025-05-17T22:14:40.853Z</time>
      </trkpt>
      <trkpt lat="50.49271" lon="3.26454">
        <ele>45.3</ele>
        <time>2025-05-17T22:14:47.456Z</time>
      </trkpt>
      <trkpt lat="50.49275" lon="3.26448">
        <ele>45.27</ele>
        <time>2025-05-17T22:14:54.060Z</time>
      </trkpt>
      <trkpt lat="50.49279" lon="3.26442">
        <ele>45.23</ele>
        <time>2025-05-17T22:15:00.665Z</time>
      </trkpt>
      <trkpt lat="50.49282" lon="3.26437">
        <ele>45.18</ele>
        <time>2025-05-17T22:15:07.271Z</time>
      </trkpt>
      <trkpt lat="50.49286" lon="3.26432">
        <ele>45.11</ele>
        <time>2025-05-17T22:15:13.878Z</time>
      </trkpt>
      <trkpt lat="50.4929" lon="3.26427">
        <ele>45.04</ele>
        <time>2025-05-17T22:15:20.485Z</time>
      </trkpt>
      <trkpt lat="50.49293" lon="3.26423">
        <ele>44.97</ele>
        <time>2025-05-17T22:15:27.093Z</time>
      </trkpt>
      <trkpt lat="50.49295" lon="3.26419">
        <ele>44.9</ele>
        <time>2025-05-17T22:15:33.702Z</time>
      </trkpt>
      <trkpt lat="50.49296" lon="3.26418">
        <ele>44.84</ele>
        <time>2025-05-17T22:15:40.311Z</time>
      </trkpt>
      <trkpt lat="50.49302" lon="3.26411">
        <ele>44.76</ele>
        <time>2025-05-17T22:15:46.921Z</time>
      </trkpt>
      <trkpt lat="50.49304" lon="3.26409">
        <ele>44.7</ele>
        <time>2025-05-17T22:15:53.531Z</time>
      </trkpt>
      <trkpt lat="50.49306" lon="3.26406">
        <ele>44.64</ele>
        <time>2025-05-17T22:16:00.142Z</time>
      </trkpt>
      <trkpt lat="50.49308" lon="3.26403">
        <ele>44.58</ele>
        <time>2025-05-17T22:16:06.753Z</time>
      </trkpt>
      <trkpt lat="50.49311" lon="3.26401">
        <ele>44.52</ele>
        <time>2025-05-17T22:16:13.365Z</time>
      </trkpt>
      <trkpt lat="50.49314" lon="3.26398">
        <ele>44.47</ele>
        <time>2025-05-17T22:16:19.978Z</time>
      </trkpt>
      <trkpt lat="50.49318" lon="3.26394">
        <ele>44.42</ele>
        <time>2025-05-17T22:16:26.591Z</time>
      </trkpt>
      <trkpt lat="50.49321" lon="3.2639">
        <ele>44.38</ele>
        <time>2025-05-17T22:16:33.205Z</time>
      </trkpt>
      <trkpt lat="50.49324" lon="3.26384">
        <ele>44.35</ele>
        <time>2025-05-17T22:16:39.820Z</time>
      </trkpt>
      <trkpt lat="50.49326" lon="3.26378">
        <ele>44.32</ele>
        <time>2025-05-17T22:16:46.436Z</time>
      </trkpt>
      <trkpt lat="50.49327" lon="3.26371">
        <ele>44.32</ele>
        <time>2025-05-17T22:16:53.052Z</time>
      </trkpt>
      <trkpt lat="50.49327" lon="3.26364">
        <ele>44.33</ele>
        <time>2025-05-17T22:16:59.669Z</time>
      </trkpt>
      <trkpt lat="50.49327" lon="3.26359">
        <ele>44.35</ele>
        <time>2025-05-17T22:17:06.287Z</time>
      </trkpt>
      <trkpt lat="50.49327" lon="3.26355">
        <ele>44.37</ele>
        <time>2025-05-17T22:17:12.905Z</time>
      </trkpt>
      <trkpt lat="50.49327" lon="3.26353">
        <ele>44.39</ele>
        <time>2025-05-17T22:17:19.523Z</time>
      </trkpt>
      <trkpt lat="50.49331" lon="3.26341">
        <ele>44.44</ele>
        <time>2025-05-17T22:17:26.143Z</time>
      </trkpt>
      <trkpt lat="50.49333" lon="3.26336">
        <ele>44.48</ele>
        <time>2025-05-17T22:17:32.763Z</time>
      </trkpt>
      <trkpt lat="50.49335" lon="3.26332">
        <ele>44.53</ele>
        <time>2025-05-17T22:17:39.384Z</time>
      </trkpt>
      <trkpt lat="50.49337" lon="3.26327">
        <ele>44.59</ele>
        <time>2025-05-17T22:17:46.006Z</time>
      </trkpt>
      <trkpt lat="50.4934" lon="3.26322">
        <ele>44.64</ele>
        <time>2025-05-17T22:17:52.628Z</time>
      </trkpt>
      <trkpt lat="50.49343" lon="3.26316">
        <ele>44.71</ele>
        <time>2025-05-17T22:17:59.251Z</time>
      </trkpt>
      <trkpt lat="50.49346" lon="3.26311">
        <ele>44.78</ele>
        <time>2025-05-17T22:18:05.875Z</time>
      </trkpt>
      <trkpt lat="50.49349" lon="3.26304">
        <ele>44.85</ele>
        <time>2025-05-17T22:18:12.500Z</time>
      </trkpt>
      <trkpt lat="50.49352" lon="3.26298">
        <ele>44.93</ele>
        <time>2025-05-17T22:18:19.126Z</time>
      </trkpt>
      <trkpt lat="50.49355" lon="3.26291">
        <ele>45.02</ele>
        <time>2025-05-17T22:18:25.752Z</time>
      </trkpt>
      <trkpt lat="50.49358" lon="3.26285">
        <ele>45.12</ele>
        <time>2025-05-17T22:18:32.379Z</time>
      </trkpt>
      <trkpt lat="50.49361" lon="3.26278">
        <ele>45.22</ele>
        <time>2025-05-17T22:18:39.007Z</time>
      </trkpt>
      <trkpt lat="50.49365" lon="3.2627">
        <ele>45.32</ele>
        <time>2025-05-17T22:18:45.636Z</time>
      </trkpt>
      <trkpt lat="50.49369" lon="3.26263">
        <ele>45.42</ele>
        <time>2025-05-17T22:18:52.266Z</time>
      </trkpt>
      <trkpt lat="50.49373" lon="3.26255">
        <ele>45.52</ele>
        <time>2025-05-17T22:18:58.897Z</time>
      </trkpt>
      <trkpt lat="50.49377" lon="3.26248">
        <ele>45.6</ele>
        <time>2025-05-17T22:19:05.529Z</time>
      </trkpt>
      <trkpt lat="50.49381" lon="3.2624">
        <ele>45.69</ele>
        <time>2025-05-17T22:19:12.162Z</time>
      </trkpt>
      <trkpt lat="50.49385" lon="3.26233">
        <ele>45.78</ele>
        <time>2025-05-17T22:19:18.796Z</time>
      </trkpt>
      <trkpt lat="50.49389" lon="3.26225">
        <ele>45.89</ele>
        <time>2025-05-17T22:19:25.432Z</time>
      </trkpt>
      <trkpt lat="50.49393" lon="3.26218">
        <ele>45.98</ele>
        <time>2025-05-17T22:19:32.069Z</time>
      </trkpt>
      <trkpt lat="50.49398" lon="3.26211">
        <ele>46.08</ele>
        <time>2025-05-17T22:19:38.707Z</time>
      </trkpt>
      <trkpt lat="50.49403" lon="3.26203">
        <ele>46.18</ele>
        <time>2025-05-17T22:19:45.346Z</time>
      </trkpt>
      <trkpt lat="50.49407" lon="3.26194">
        <ele>46.28</ele>
        <time>2025-05-17T22:19:51.986Z</time>
      </trkpt>
      <trkpt lat="50.49411" lon="3.26186">
        <ele>46.37</ele>
        <time>2025-05-17T22:19:58.627Z</time>
      </trkpt>
      <trkpt lat="50.49415" lon="3.26177">
        <ele>46.47</ele>
        <time>2025-05-17T22:20:05.269Z</time>
      </trkpt>
      <trkpt lat="50.49418" lon="3.26167">
        <ele>46.56</ele>
        <time>2025-05-17T22:20:11.912Z</time>
      </trkpt>
      <trkpt lat="50.49421" lon="3.26157">
        <ele>46.66</ele>
        <time>2025-05-17T22:20:18.557Z</time>
      </trkpt>
      <trkpt lat="50.49424" lon="3.26147">
        <ele>46.75</ele>
        <time>2025-05-17T22:20:25.203Z</time>
      </trkpt>
      <trkpt lat="50.49427" lon="3.26137">
        <ele>46.85</ele>
        <time>2025-05-17T22:20:31.850Z</time>
      </trkpt>
      <trkpt lat="50.4943" lon="3.26128">
        <ele>46.95</ele>
        <time>2025-05-17T22:20:38.498Z</time>
      </trkpt>
      <trkpt lat="50.49433" lon="3.26118">
        <ele>47.04</ele>
        <time>2025-05-17T22:20:45.147Z</time>
      </trkpt>
      <trkpt lat="50.49435" lon="3.26109">
        <ele>47.13</ele>
        <time>2025-05-17T22:20:51.797Z</time>
      </trkpt>
      <trkpt lat="50.49438" lon="3.26099">
        <ele>47.22</ele>
        <time>2025-05-17T22:20:58.449Z</time>
      </trkpt>
      <trkpt lat="50.49441" lon="3.26089">
        <ele>47.29</ele>
        <time>2025-05-17T22:21:05.102Z</time>
      </trkpt>
      <trkpt lat="50.49444" lon="3.2608">
        <ele>47.36</ele>
        <time>2025-05-17T22:21:11.756Z</time>
      </trkpt>
      <trkpt lat="50.49447" lon="3.2607">
        <ele>47.43</ele>
        <time>2025-05-17T22:21:18.411Z</time>
      </trkpt>
      <trkpt lat="50.4945" lon="3.26061">
        <ele>47.51</ele>
        <time>2025-05-17T22:21:25.067Z</time>
      </trkpt>
      <trkpt lat="50.49454" lon="3.26051">
        <ele>47.56</ele>
        <time>2025-05-17T22:21:31.724Z</time>
      </trkpt>
      <trkpt lat="50.49457" lon="3.26041">
        <ele>47.6</ele>
        <time>2025-05-17T22:21:38.382Z</time>
      </trkpt>
      <trkpt lat="50.49459" lon="3.26031">
        <ele>47.63</ele>
        <time>2025-05-17T22:21:45.042Z</time>
      </trkpt>
      <trkpt lat="50.49461" lon="3.2602">
        <ele>47.68</ele>
        <time>2025-05-17T22:21:51.703Z</time>
      </trkpt>
      <trkpt lat="50.49462" lon="3.26009">
        <ele>47.7</ele>
        <time>2025-05-17T22:21:58.365Z</time>
      </trkpt>
      <trkpt lat="50.49463" lon="3.25998">
        <ele>47.71</ele>
        <time>2025-05-17T22:22:05.028Z</time>
      </trkpt>
      <trkpt lat="50.49464" lon="3.25987">
        <ele>47.71</ele>
        <time>2025-05-17T22:22:11.692Z</time>
      </trkpt>
      <trkpt lat="50.49466" lon="3.25975">
        <ele>47.7</ele>
        <time>2025-05-17T22:22:18.358Z</time>
      </trkpt>
      <trkpt lat="50.49467" lon="3.25964">
        <ele>47.69</ele>
        <time>2025-05-17T22:22:25.025Z</time>
      </trkpt>
      <trkpt lat="50.49468" lon="3.25952">
        <ele>47.65</ele>
        <time>2025-05-17T22:22:31.693Z</time>
      </trkpt>
      <trkpt lat="50.4947" lon="3.25941">
        <ele>47.6</ele>
        <time>2025-05-17T22:22:38.362Z</time>
      </trkpt>
      <trkpt lat="50.49472" lon="3.25929">
        <ele>47.57</ele>
        <time>2025-05-17T22:22:45.033Z</time>
      </trkpt>
      <trkpt lat="50.49473" lon="3.25918">
        <ele>47.55</ele>
        <time>2025-05-17T22:22:51.705Z</time>
      </trkpt>
      <trkpt lat="50.49475" lon="3.25907">
        <ele>47.52</ele>
        <time>2025-05-17T22:22:58.378Z</time>
      </trkpt>
      <trkpt lat="50.49477" lon="3.25896">
        <ele>47.46</ele>
        <time>2025-05-17T22:23:05.052Z</time>
      </trkpt>
      <trkpt lat="50.49479" lon="3.25885">
        <ele>47.41</ele>
        <time>2025-05-17T22:23:11.728Z</time>
      </trkpt>
      <trkpt lat="50.49481" lon="3.25874">
        <ele>47.34</ele>
        <time>2025-05-17T22:23:18.405Z</time>
      </trkpt>
      <trkpt lat="50.49483" lon="3.25863">
        <ele>47.27</ele>
        <time>2025-05-17T22:23:25.083Z</time>
      </trkpt>
      <trkpt lat="50.49485" lon="3.25852">
        <ele>47.18</ele>
        <time>2025-05-17T22:23:31.762Z</time>
      </trkpt>
      <trkpt lat="50.49487" lon="3.25841">
        <ele>47.09</ele>
        <time>2025-05-17T22:23:38.442Z</time>
      </trkpt>
      <trkpt lat="50.49489" lon="3.2583">
        <ele>47.02</ele>
        <time>2025-05-17T22:23:45.124Z</time>
      </trkpt>
      <trkpt lat="50.49491" lon="3.25819">
        <ele>46.95</ele>
        <time>2025-05-17T22:23:51.807Z</time>
      </trkpt>
      <trkpt lat="50.49493" lon="3.25808">
        <ele>46.86</ele>
        <time>2025-05-17T22:23:58.491Z</time>
      </trkpt>
      <trkpt lat="50.49495" lon="3.25797">
        <ele>46.77</ele>
        <time>2025-05-17T22:24:05.176Z</time>
      </trkpt>
      <trkpt lat="50.49498" lon="3.25786">
        <ele>46.71</ele>
        <time>2025-05-17T22:24:11.863Z</time>
      </trkpt>
      <trkpt lat="50.495" lon="3.25775">
        <ele>46.65</ele>
        <time>2025-05-17T22:24:18.551Z</time>
      </trkpt>
      <trkpt lat="50.49503" lon="3.25764">
        <ele>46.59</ele>
        <time>2025-05-17T22:24:25.240Z</time>
      </trkpt>
      <trkpt lat="50.49506" lon="3.25754">
        <ele>46.54</ele>
        <time>2025-05-17T22:24:31.930Z</time>
      </trkpt>
      <trkpt lat="50.49511" lon="3.25745">
        <ele>46.5</ele>
        <time>2025-05-17T22:24:38.622Z</time>
      </trkpt>
      <trkpt lat="50.49515" lon="3.25736">
        <ele>46.46</ele>
        <time>2025-05-17T22:24:45.315Z</time>
      </trkpt>
      <trkpt lat="50.4952" lon="3.25727">
        <ele>46.43</ele>
        <time>2025-05-17T22:24:52.009Z</time>
      </trkpt>
      <trkpt lat="50.49525" lon="3.25718">
        <ele>46.41</ele>
        <time>2025-05-17T22:24:58.704Z</time>
      </trkpt>
      <trkpt lat="50.4953" lon="3.2571">
        <ele>46.39</ele>
        <time>2025-05-17T22:25:05.401Z</time>
      </trkpt>
      <trkpt lat="50.49535" lon="3.25701">
        <ele>46.39</ele>
        <time>2025-05-17T22:25:12.099Z</time>
      </trkpt>
      <trkpt lat="50.4954" lon="3.25693">
        <ele>46.38</ele>
        <time>2025-05-17T22:25:18.798Z</time>
      </trkpt>
      <trkpt lat="50.49544" lon="3.25684">
        <ele>46.39</ele>
        <time>2025-05-17T22:25:25.498Z</time>
      </trkpt>
      <trkpt lat="50.49549" lon="3.25676">
        <ele>46.4</ele>
        <time>2025-05-17T22:25:32.199Z</time>
      </trkpt>
      <trkpt lat="50.49554" lon="3.25668">
        <ele>46.42</ele>
        <time>2025-05-17T22:25:38.902Z</time>
      </trkpt>
      <trkpt lat="50.49559" lon="3.25659">
        <ele>46.46</ele>
        <time>2025-05-17T22:25:45.606Z</time>
      </trkpt>
      <trkpt lat="50.49563" lon="3.25651">
        <ele>46.5</ele>
        <time>2025-05-17T22:25:52.311Z</time>
      </trkpt>
      <trkpt lat="50.49568" lon="3.25642">
        <ele>46.55</ele>
        <time>2025-05-17T22:25:59.017Z</time>
      </trkpt>
      <trkpt lat="50.49573" lon="3.25633">
        <ele>46.58</ele>
        <time>2025-05-17T22:26:05.724Z</time>
      </trkpt>
      <trkpt lat="50.49577" lon="3.25625">
        <ele>46.64</ele>
        <time>2025-05-17T22:26:12.433Z</time>
      </trkpt>
      <trkpt lat="50.49582" lon="3.25616">
        <ele>46.68</ele>
        <time>2025-05-17T22:26:19.143Z</time>
      </trkpt>
      <trkpt lat="50.49586" lon="3.25607">
        <ele>46.73</ele>
        <time>2025-05-17T22:26:25.854Z</time>
      </trkpt>
      <trkpt lat="50.4959" lon="3.25598">
        <ele>46.79</ele>
        <time>2025-05-17T22:26:32.566Z</time>
      </trkpt>
      <trkpt lat="50.49594" lon="3.25589">
        <ele>46.84</ele>
        <time>2025-05-17T22:26:39.279Z</time>
      </trkpt>
      <trkpt lat="50.49597" lon="3.2558">
        <ele>46.9</ele>
        <time>2025-05-17T22:26:45.994Z</time>
      </trkpt>
      <trkpt lat="50.49601" lon="3.25571">
        <ele>46.96</ele>
        <time>2025-05-17T22:26:52.710Z</time>
      </trkpt>
      <trkpt lat="50.49604" lon="3.25562">
        <ele>47.01</ele>
        <time>2025-05-17T22:26:59.427Z</time>
      </trkpt>
      <trkpt lat="50.49607" lon="3.25553">
        <ele>47.06</ele>
        <time>2025-05-17T22:27:06.145Z</time>
      </trkpt>
      <trkpt lat="50.4961" lon="3.25543">
        <ele>47.11</ele>
        <time>2025-05-17T22:27:12.864Z</time>
      </trkpt>
      <trkpt lat="50.49612" lon="3.25533">
        <ele>47.16</ele>
        <time>2025-05-17T22:27:19.584Z</time>
      </trkpt>
      <trkpt lat="50.49614" lon="3.25523">
        <ele>47.2</ele>
        <time>2025-05-17T22:27:26.305Z</time>
      </trkpt>
      <trkpt lat="50.49616" lon="3.25513">
        <ele>47.23</ele>
        <time>2025-05-17T22:27:33.027Z</time>
      </trkpt>
      <trkpt lat="50.49618" lon="3.25503">
        <ele>47.25</ele>
        <time>2025-05-17T22:27:39.751Z</time>
      </trkpt>
      <trkpt lat="50.49621" lon="3.25493">
        <ele>47.29</ele>
        <time>2025-05-17T22:27:46.476Z</time>
      </trkpt>
      <trkpt lat="50.49623" lon="3.25483">
        <ele>47.33</ele>
        <time>2025-05-17T22:27:53.202Z</time>
      </trkpt>
      <trkpt lat="50.49626" lon="3.25474">
        <ele>47.36</ele>
        <time>2025-05-17T22:27:59.929Z</time>
      </trkpt>
      <trkpt lat="50.4963" lon="3.25465">
        <ele>47.38</ele>
        <time>2025-05-17T22:28:06.657Z</time>
      </trkpt>
      <trkpt lat="50.49633" lon="3.25456">
        <ele>47.42</ele>
        <time>2025-05-17T22:28:13.386Z</time>
      </trkpt>
      <trkpt lat="50.49637" lon="3.25447">
        <ele>47.44</ele>
        <time>2025-05-17T22:28:20.116Z</time>
      </trkpt>
      <trkpt lat="50.49641" lon="3.25439">
        <ele>47.47</ele>
        <time>2025-05-17T22:28:26.847Z</time>
      </trkpt>
      <trkpt lat="50.49645" lon="3.25431">
        <ele>47.51</ele>
        <time>2025-05-17T22:28:33.580Z</time>
      </trkpt>
      <trkpt lat="50.4965" lon="3.25424">
        <ele>47.55</ele>
        <time>2025-05-17T22:28:40.314Z</time>
      </trkpt>
      <trkpt lat="50.49654" lon="3.25417">
        <ele>47.57</ele>
        <time>2025-05-17T22:28:47.049Z</time>
      </trkpt>
      <trkpt lat="50.49659" lon="3.2541">
        <ele>47.59</ele>
        <time>2025-05-17T22:28:53.785Z</time>
      </trkpt>
      <trkpt lat="50.49663" lon="3.25404">
        <ele>47.61</ele>
        <time>2025-05-17T22:29:00.522Z</time>
      </trkpt>
      <trkpt lat="50.49668" lon="3.25399">
        <ele>47.63</ele>
        <time>2025-05-17T22:29:07.260Z</time>
      </trkpt>
      <trkpt lat="50.49673" lon="3.25395">
        <ele>47.65</ele>
        <time>2025-05-17T22:29:13.999Z</time>
      </trkpt>
      <trkpt lat="50.49678" lon="3.2539">
        <ele>47.68</ele>
        <time>2025-05-17T22:29:20.739Z</time>
      </trkpt>
      <trkpt lat="50.49684" lon="3.25386">
        <ele>47.7</ele>
        <time>2025-05-17T22:29:27.480Z</time>
      </trkpt>
      <trkpt lat="50.49689" lon="3.25382">
        <ele>47.73</ele>
        <time>2025-05-17T22:29:34.222Z</time>
      </trkpt>
      <trkpt lat="50.49694" lon="3.25378">
        <ele>47.75</ele>
        <time>2025-05-17T22:29:40.965Z</time>
      </trkpt>
      <trkpt lat="50.49699" lon="3.25375">
        <ele>47.78</ele>
        <time>2025-05-17T22:29:47.708Z</time>
      </trkpt>
      <trkpt lat="50.49704" lon="3.25373">
        <ele>47.81</ele>
        <time>2025-05-17T22:29:54.452Z</time>
      </trkpt>
      <trkpt lat="50.49721" lon="3.25364">
        <ele>47.87</ele>
        <time>2025-05-17T22:30:01.199Z</time>
      </trkpt>
      <trkpt lat="50.49725" lon="3.25362">
        <ele>47.89</ele>
        <time>2025-05-17T22:30:07.947Z</time>
      </trkpt>
      <trkpt lat="50.49727" lon="3.25361">
        <ele>47.9</ele>
        <time>2025-05-17T22:30:14.695Z</time>
      </trkpt>
      <trkpt lat="50.49728" lon="3.2536">
        <ele>47.91</ele>
        <time>2025-05-17T22:30:21.444Z</time>
      </trkpt>
      <trkpt lat="50.49729" lon="3.2536">
        <ele>47.91</ele>
        <time>2025-05-17T22:30:28.193Z</time>
      </trkpt>
      <trkpt lat="50.49742" lon="3.25363">
        <ele>47.9</ele>
        <time>2025-05-17T22:30:34.944Z</time>
      </trkpt>
      <trkpt lat="50.49743" lon="3.25364">
        <ele>47.89</ele>
        <time>2025-05-17T22:30:41.695Z</time>
      </trkpt>
      <trkpt lat="50.49744" lon="3.25377">
        <ele>47.86</ele>
        <time>2025-05-17T22:30:48.448Z</time>
      </trkpt>
      <trkpt lat="50.49745" lon="3.25382">
        <ele>47.84</ele>
        <time>2025-05-17T22:30:55.201Z</time>
      </trkpt>
      <trkpt lat="50.49745" lon="3.25388">
        <ele>47.82</ele>
        <time>2025-05-17T22:31:01.955Z</time>
      </trkpt>
      <trkpt lat="50.49746" lon="3.25394">
        <ele>47.8</ele>
        <time>2025-05-17T22:31:08.709Z</time>
      </trkpt>
      <trkpt lat="50.49746" lon="3.25402">
        <ele>47.77</ele>
        <time>2025-05-17T22:31:15.464Z</time>
      </trkpt>
      <trkpt lat="50.49747" lon="3.2541">
        <ele>47.74</ele>
        <time>2025-05-17T22:31:22.220Z</time>
      </trkpt>
      <trkpt lat="50.49747" lon="3.25419">
        <ele>47.72</ele>
        <time>2025-05-17T22:31:28.977Z</time>
      </trkpt>
      <trkpt lat="50.49748" lon="3.25428">
        <ele>47.71</ele>
        <time>2025-05-17T22:31:35.735Z</time>
      </trkpt>
      <trkpt lat="50.49749" lon="3.25437">
        <ele>47.69</ele>
        <time>2025-05-17T22:31:42.494Z</time>
      </trkpt>
      <trkpt lat="50.4975" lon="3.25446">
        <ele>47.68</ele>
        <time>2025-05-17T22:31:49.254Z</time>
      </trkpt>
      <trkpt lat="50.49751" lon="3.25456">
        <ele>47.66</ele>
        <time>2025-05-17T22:31:56.015Z</time>
      </trkpt>
      <trkpt lat="50.49752" lon="3.25466">
        <ele>47.65</ele>
        <time>2025-05-17T22:32:02.777Z</time>
      </trkpt>
      <trkpt lat="50.49753" lon="3.25476">
        <ele>47.65</ele>
        <time>2025-05-17T22:32:09.540Z</time>
      </trkpt>
      <trkpt lat="50.49754" lon="3.25486">
        <ele>47.65</ele>
        <time>2025-05-17T22:32:16.304Z</time>
      </trkpt>
      <trkpt lat="50.49755" lon="3.25496">
        <ele>47.65</ele>
        <time>2025-05-17T22:32:23.069Z</time>
      </trkpt>
      <trkpt lat="50.49756" lon="3.25506">
        <ele>47.64</ele>
        <time>2025-05-17T22:32:29.836Z</time>
      </trkpt>
      <trkpt lat="50.49758" lon="3.25517">
        <ele>47.62</ele>
        <time>2025-05-17T22:32:36.604Z</time>
      </trkpt>
      <trkpt lat="50.4976" lon="3.25527">
        <ele>47.61</ele>
        <time>2025-05-17T22:32:43.373Z</time>
      </trkpt>
      <trkpt lat="50.49763" lon="3.25536">
        <ele>47.6</ele>
        <time>2025-05-17T22:32:50.143Z</time>
      </trkpt>
      <trkpt lat="50.49766" lon="3.25546">
        <ele>47.59</ele>
        <time>2025-05-17T22:32:56.914Z</time>
      </trkpt>
      <trkpt lat="50.49769" lon="3.25555">
        <ele>47.57</ele>
        <time>2025-05-17T22:33:03.686Z</time>
      </trkpt>
      <trkpt lat="50.49773" lon="3.25563">
        <ele>47.55</ele>
        <time>2025-05-17T22:33:10.459Z</time>
      </trkpt>
      <trkpt lat="50.49778" lon="3.2557">
        <ele>47.52</ele>
        <time>2025-05-17T22:33:17.233Z</time>
      </trkpt>
      <trkpt lat="50.49784" lon="3.25575">
        <ele>47.51</ele>
        <time>2025-05-17T22:33:24.009Z</time>
      </trkpt>
      <trkpt lat="50.4979" lon="3.25579">
        <ele>47.5</ele>
        <time>2025-05-17T22:33:30.786Z</time>
      </trkpt>
      <trkpt lat="50.49795" lon="3.25582">
        <ele>47.49</ele>
        <time>2025-05-17T22:33:37.564Z</time>
      </trkpt>
      <trkpt lat="50.49801" lon="3.25585">
        <ele>47.49</ele>
        <time>2025-05-17T22:33:44.343Z</time>
      </trkpt>
      <trkpt lat="50.49807" lon="3.25588">
        <ele>47.48</ele>
        <time>2025-05-17T22:33:51.123Z</time>
      </trkpt>
      <trkpt lat="50.49812" lon="3.25591">
        <ele>47.47</ele>
        <time>2025-05-17T22:33:57.904Z</time>
      </trkpt>
      <trkpt lat="50.49816" lon="3.25594">
        <ele>47.46</ele>
        <time>2025-05-17T22:34:04.685Z</time>
      </trkpt>
      <trkpt lat="50.4982" lon="3.25597">
        <ele>47.44</ele>
        <time>2025-05-17T22:34:11.467Z</time>
      </trkpt>
      <trkpt lat="50.49823" lon="3.25599">
        <ele>47.42</ele>
        <time>2025-05-17T22:34:18.250Z</time>
      </trkpt>
      <trkpt lat="50.49826" lon="3.25601">
        <ele>47.4</ele>
        <time>2025-05-17T22:34:25.033Z</time>
      </trkpt>
      <trkpt lat="50.49827" lon="3.25602">
        <ele>47.38</ele>
        <time>2025-05-17T22:34:31.816Z</time>
      </trkpt>
      <trkpt lat="50.49828" lon="3.25602">
        <ele>47.36</ele>
        <time>2025-05-17T22:34:38.600Z</time>
      </trkpt>
      <trkpt lat="50.49828" lon="3.25602">
        <ele>47.33</ele>
        <time>2025-05-17T22:34:45.384Z</time>
      </trkpt>
      <trkpt lat="50.49828" lon="3.25602">
        <ele>47.29</ele>
        <time>2025-05-17T22:34:52.168Z</time>
      </trkpt>
      <trkpt lat="50.49836" lon="3.25604">
        <ele>47.26</ele>
        <time>2025-05-17T22:34:58.953Z</time>
      </trkpt>
      <trkpt lat="50.49838" lon="3.25605">
        <ele>47.23</ele>
        <time>2025-05-17T22:35:05.738Z</time>
      </trkpt>
      <trkpt lat="50.49841" lon="3.25605">
        <ele>47.19</ele>
        <time>2025-05-17T22:35:12.524Z</time>
      </trkpt>
      <trkpt lat="50.49843" lon="3.25604">
        <ele>47.16</ele>
        <time>2025-05-17T22:35:19.310Z</time>
      </trkpt>
      <trkpt lat="50.49844" lon="3.25604">
        <ele>47.12</ele>
        <time>2025-05-17T22:35:26.096Z</time>
      </trkpt>
      <trkpt lat="50.4985" lon="3.256">
        <ele>47.07</ele>
        <time>2025-05-17T22:35:32.883Z</time>
      </trkpt>
      <trkpt lat="50.49852" lon="3.25596">
        <ele>47.03</ele>
        <time>2025-05-17T22:35:39.671Z</time>
      </trkpt>
      <trkpt lat="50.49854" lon="3.25591">
        <ele>46.97</ele>
        <time>2025-05-17T22:35:46.460Z</time>
      </trkpt>
      <trkpt lat="50.49857" lon="3.25586">
        <ele>46.92</ele>
        <time>2025-05-17T22:35:53.249Z</time>
      </trkpt>
      <trkpt lat="50.4986" lon="3.2558">
        <ele>46.86</ele>
        <time>2025-05-17T22:36:00.039Z</time>
      </trkpt>
      <trkpt lat="50.49864" lon="3.25573">
        <ele>46.82</ele>
        <time>2025-05-17T22:36:06.830Z</time>
      </trkpt>
      <trkpt lat="50.49867" lon="3.25566">
        <ele>46.79</ele>
        <time>2025-05-17T22:36:13.622Z</time>
      </trkpt>
      <trkpt lat="50.49871" lon="3.25558">
        <ele>46.77</ele>
        <time>2025-05-17T22:36:20.415Z</time>
      </trkpt>
      <trkpt lat="50.49874" lon="3.2555">
        <ele>46.75</ele>
        <time>2025-05-17T22:36:27.209Z</time>
      </trkpt>
      <trkpt lat="50.49876" lon="3.25541">
        <ele>46.75</ele>
        <time>2025-05-17T22:36:34.004Z</time>
      </trkpt>
      <trkpt lat="50.49879" lon="3.25531">
        <ele>46.75</ele>
        <time>2025-05-17T22:36:40.800Z</time>
      </trkpt>
      <trkpt lat="50.49881" lon="3.25521">
        <ele>46.76</ele>
        <time>2025-05-17T22:36:47.597Z</time>
      </trkpt>
      <trkpt lat="50.49882" lon="3.25511">
        <ele>46.78</ele>
        <time>2025-05-17T22:36:54.396Z</time>
      </trkpt>
      <trkpt lat="50.49883" lon="3.255">
        <ele>46.8</ele>
        <time>2025-05-17T22:37:01.196Z</time>
      </trkpt>
      <trkpt lat="50.49883" lon="3.2549">
        <ele>46.83</ele>
        <time>2025-05-17T22:37:07.997Z</time>
      </trkpt>
      <trkpt lat="50.49884" lon="3.25479">
        <ele>46.87</ele>
        <time>2025-05-17T22:37:14.799Z</time>
      </trkpt>
      <trkpt lat="50.49885" lon="3.25469">
        <ele>46.92</ele>
        <time>2025-05-17T22:37:21.602Z</time>
      </trkpt>
      <trkpt lat="50.49886" lon="3.25459">
        <ele>46.98</ele>
        <time>2025-05-17T22:37:28.406Z</time>
      </trkpt>
      <trkpt lat="50.49889" lon="3.2545">
        <ele>47.03</ele>
        <time>2025-05-17T22:37:35.211Z</time>
      </trkpt>
      <trkpt lat="50.49892" lon="3.25441">
        <ele>47.08</ele>
        <time>2025-05-17T22:37:42.017Z</time>
      </trkpt>
      <trkpt lat="50.49896" lon="3.25433">
        <ele>47.12</ele>
        <time>2025-05-17T22:37:48.824Z</time>
      </trkpt>
      <trkpt lat="50.499" lon="3.25426">
        <ele>47.16</ele>
        <time>2025-05-17T22:37:55.632Z</time>
      </trkpt>
      <trkpt lat="50.49905" lon="3.25418">
        <ele>47.2</ele>
        <time>2025-05-17T22:38:02.442Z</time>
      </trkpt>
      <trkpt lat="50.49909" lon="3.25411">
        <ele>47.23</ele>
        <time>2025-05-17T22:38:09.253Z</time>
      </trkpt>
      <trkpt lat="50.49914" lon="3.25403">
        <ele>47.25</ele>
        <time>2025-05-17T22:38:16.065Z</time>
      </trkpt>
      <trkpt lat="50.49918" lon="3.25395">
        <ele>47.27</ele>
        <time>2025-05-17T22:38:22.878Z</time>
      </trkpt>
      <trkpt lat="50.49922" lon="3.25387">
        <ele>47.28</ele>
        <time>2025-05-17T22:38:29.692Z</time>
      </trkpt>
      <trkpt lat="50.49927" lon="3.25379">
        <ele>47.29</ele>
        <time>2025-05-17T22:38:36.507Z</time>
      </trkpt>
      <trkpt lat="50.49931" lon="3.25372">
        <ele>47.3</ele>
        <time>2025-05-17T22:38:43.323Z</time>
      </trkpt>
      <trkpt lat="50.49936" lon="3.25364">
        <ele>47.3</ele>
        <time>2025-05-17T22:38:50.140Z</time>
      </trkpt>
      <trkpt lat="50.4994" lon="3.25357">
        <ele>47.3</ele>
        <time>2025-05-17T22:38:56.958Z</time>
      </trkpt>
      <trkpt lat="50.49945" lon="3.25349">
        <ele>47.3</ele>
        <time>2025-05-17T22:39:03.778Z</time>
      </trkpt>
      <trkpt lat="50.49949" lon="3.25342">
        <ele>47.3</ele>
        <time>2025-05-17T22:39:10.599Z</time>
      </trkpt>
      <trkpt lat="50.49954" lon="3.25335">
        <ele>47.29</ele>
        <time>2025-05-17T22:39:17.421Z</time>
      </trkpt>
      <trkpt lat="50.49959" lon="3.25329">
        <ele>47.29</ele>
        <time>2025-05-17T22:39:24.244Z</time>
      </trkpt>
      <trkpt lat="50.49964" lon="3.25323">
        <ele>47.28</ele>
        <time>2025-05-17T22:39:31.068Z</time>
      </trkpt>
      <trkpt lat="50.49969" lon="3.25317">
        <ele>47.27</ele>
        <time>2025-05-17T22:39:37.893Z</time>
      </trkpt>
      <trkpt lat="50.49973" lon="3.25311">
        <ele>47.25</ele>
        <time>2025-05-17T22:39:44.719Z</time>
      </trkpt>
      <trkpt lat="50.49978" lon="3.25306">
        <ele>47.22</ele>
        <time>2025-05-17T22:39:51.546Z</time>
      </trkpt>
      <trkpt lat="50.49983" lon="3.25301">
        <ele>47.2</ele>
        <time>2025-05-17T22:39:58.374Z</time>
      </trkpt>
      <trkpt lat="50.49987" lon="3.25296">
        <ele>47.18</ele>
        <time>2025-05-17T22:40:05.203Z</time>
      </trkpt>
      <trkpt lat="50.49992" lon="3.25291">
        <ele>47.15</ele>
        <time>2025-05-17T22:40:12.033Z</time>
      </trkpt>
      <trkpt lat="50.49996" lon="3.25287">
        <ele>47.12</ele>
        <time>2025-05-17T22:40:18.864Z</time>
      </trkpt>
      <trkpt lat="50.5" lon="3.25282">
        <ele>47.09</ele>
        <time>2025-05-17T22:40:25.695Z</time>
      </trkpt>
      <trkpt lat="50.50004" lon="3.25278">
        <ele>47.05</ele>
        <time>2025-05-17T22:40:32.527Z</time>
      </trkpt>
      <trkpt lat="50.50008" lon="3.25275">
        <ele>47</ele>
        <time>2025-05-17T22:40:39.360Z</time>
      </trkpt>
      <trkpt lat="50.5001" lon="3.25271">
        <ele>46.96</ele>
        <time>2025-05-17T22:40:46.193Z</time>
      </trkpt>
      <trkpt lat="50.50012" lon="3.25268">
        <ele>46.91</ele>
        <time>2025-05-17T22:40:53.027Z</time>
      </trkpt>
      <trkpt lat="50.50013" lon="3.25266">
        <ele>46.86</ele>
        <time>2025-05-17T22:40:59.861Z</time>
      </trkpt>
      <trkpt lat="50.50013" lon="3.25266">
        <ele>46.81</ele>
        <time>2025-05-17T22:41:06.695Z</time>
      </trkpt>
      <trkpt lat="50.5002" lon="3.25258">
        <ele>46.76</ele>
        <time>2025-05-17T22:41:13.531Z</time>
      </trkpt>
      <trkpt lat="50.50023" lon="3.25257">
        <ele>46.7</ele>
        <time>2025-05-17T22:41:20.367Z</time>
      </trkpt>
      <trkpt lat="50.50027" lon="3.25255">
        <ele>46.65</ele>
        <time>2025-05-17T22:41:27.204Z</time>
      </trkpt>
      <trkpt lat="50.5003" lon="3.25253">
        <ele>46.6</ele>
        <time>2025-05-17T22:41:34.041Z</time>
      </trkpt>
      <trkpt lat="50.50034" lon="3.25252">
        <ele>46.54</ele>
        <time>2025-05-17T22:41:40.879Z</time>
      </trkpt>
      <trkpt lat="50.50037" lon="3.2525">
        <ele>46.48</ele>
        <time>2025-05-17T22:41:47.718Z</time>
      </trkpt>
      <trkpt lat="50.50041" lon="3.25248">
        <ele>46.41</ele>
        <time>2025-05-17T22:41:54.557Z</time>
      </trkpt>
      <trkpt lat="50.50044" lon="3.25245">
        <ele>46.34</ele>
        <time>2025-05-17T22:42:01.397Z</time>
      </trkpt>
      <trkpt lat="50.50046" lon="3.25244">
        <ele>46.26</ele>
        <time>2025-05-17T22:42:08.237Z</time>
      </trkpt>
      <trkpt lat="50.50046" lon="3.25244">
        <ele>46.19</ele>
        <time>2025-05-17T22:42:15.077Z</time>
      </trkpt>
      <trkpt lat="50.50054" lon="3.25236">
        <ele>46.11</ele>
        <time>2025-05-17T22:42:21.919Z</time>
      </trkpt>
      <trkpt lat="50.50057" lon="3.25232">
        <ele>46.04</ele>
        <time>2025-05-17T22:42:28.762Z</time>
      </trkpt>
      <trkpt lat="50.50061" lon="3.25228">
        <ele>45.96</ele>
        <time>2025-05-17T22:42:35.605Z</time>
      </trkpt>
      <trkpt lat="50.50064" lon="3.25224">
        <ele>45.88</ele>
        <time>2025-05-17T22:42:42.449Z</time>
      </trkpt>
      <trkpt lat="50.50068" lon="3.2522">
        <ele>45.8</ele>
        <time>2025-05-17T22:42:49.294Z</time>
      </trkpt>
      <trkpt lat="50.50071" lon="3.25215">
        <ele>45.72</ele>
        <time>2025-05-17T22:42:56.139Z</time>
      </trkpt>
      <trkpt lat="50.50075" lon="3.2521">
        <ele>45.64</ele>
        <time>2025-05-17T22:43:02.985Z</time>
      </trkpt>
      <trkpt lat="50.50078" lon="3.25205">
        <ele>45.57</ele>
        <time>2025-05-17T22:43:09.832Z</time>
      </trkpt>
      <trkpt lat="50.50082" lon="3.25201">
        <ele>45.49</ele>
        <time>2025-05-17T22:43:16.680Z</time>
      </trkpt>
      <trkpt lat="50.50085" lon="3.25195">
        <ele>45.41</ele>
        <time>2025-05-17T22:43:23.529Z</time>
      </trkpt>
      <trkpt lat="50.5009" lon="3.2519">
        <ele>45.34</ele>
        <time>2025-05-17T22:43:30.379Z</time>
      </trkpt>
      <trkpt lat="50.50094" lon="3.25184">
        <ele>45.27</ele>
        <time>2025-05-17T22:43:37.230Z</time>
      </trkpt>
      <trkpt lat="50.50098" lon="3.25177">
        <ele>45.2</ele>
        <time>2025-05-17T22:43:44.082Z</time>
      </trkpt>
      <trkpt lat="50.50103" lon="3.25171">
        <ele>45.13</ele>
        <time>2025-05-17T22:43:50.935Z</time>
      </trkpt>
      <trkpt lat="50.50108" lon="3.25164">
        <ele>45.07</ele>
        <time>2025-05-17T22:43:57.789Z</time>
      </trkpt>
      <trkpt lat="50.50112" lon="3.25156">
        <ele>45</ele>
        <time>2025-05-17T22:44:04.644Z</time>
      </trkpt>
      <trkpt lat="50.50117" lon="3.25149">
        <ele>44.95</ele>
        <time>2025-05-17T22:44:11.500Z</time>
      </trkpt>
      <trkpt lat="50.50122" lon="3.25141">
        <ele>44.89</ele>
        <time>2025-05-17T22:44:18.357Z</time>
      </trkpt>
      <trkpt lat="50.50127" lon="3.25133">
        <ele>44.81</ele>
        <time>2025-05-17T22:44:25.215Z</time>
      </trkpt>
      <trkpt lat="50.50132" lon="3.25126">
        <ele>44.73</ele>
        <time>2025-05-17T22:44:32.074Z</time>
      </trkpt>
      <trkpt lat="50.50138" lon="3.25119">
        <ele>44.67</ele>
        <time>2025-05-17T22:44:38.935Z</time>
      </trkpt>
      <trkpt lat="50.50143" lon="3.25112">
        <ele>44.62</ele>
        <time>2025-05-17T22:44:45.797Z</time>
      </trkpt>
      <trkpt lat="50.50149" lon="3.25106">
        <ele>44.54</ele>
        <time>2025-05-17T22:44:52.660Z</time>
      </trkpt>
      <trkpt lat="50.50156" lon="3.251">
        <ele>44.46</ele>
        <time>2025-05-17T22:44:59.524Z</time>
      </trkpt>
      <trkpt lat="50.50162" lon="3.25095">
        <ele>44.38</ele>
        <time>2025-05-17T22:45:06.389Z</time>
      </trkpt>
      <trkpt lat="50.50168" lon="3.2509">
        <ele>44.31</ele>
        <time>2025-05-17T22:45:13.256Z</time>
      </trkpt>
      <trkpt lat="50.50175" lon="3.25085">
        <ele>44.24</ele>
        <time>2025-05-17T22:45:20.124Z</time>
      </trkpt>
      <trkpt lat="50.50181" lon="3.25079">
        <ele>44.16</ele>
        <time>2025-05-17T22:45:26.993Z</time>
      </trkpt>
      <trkpt lat="50.50188" lon="3.25074">
        <ele>44.08</ele>
        <time>2025-05-17T22:45:33.863Z</time>
      </trkpt>
      <trkpt lat="50.50195" lon="3.2507">
        <ele>44.02</ele>
        <time>2025-05-17T22:45:40.735Z</time>
      </trkpt>
      <trkpt lat="50.50202" lon="3.25066">
        <ele>43.96</ele>
        <time>2025-05-17T22:45:47.608Z</time>
      </trkpt>
      <trkpt lat="50.50209" lon="3.25061">
        <ele>43.91</ele>
        <time>2025-05-17T22:45:54.482Z</time>
      </trkpt>
      <trkpt lat="50.50216" lon="3.25057">
        <ele>43.87</ele>
        <time>2025-05-17T22:46:01.357Z</time>
      </trkpt>
      <trkpt lat="50.50223" lon="3.25054">
        <ele>43.83</ele>
        <time>2025-05-17T22:46:08.234Z</time>
      </trkpt>
      <trkpt lat="50.5023" lon="3.2505">
        <ele>43.79</ele>
        <time>2025-05-17T22:46:15.112Z</time>
      </trkpt>
      <trkpt lat="50.50237" lon="3.25047">
        <ele>43.75</ele>
        <time>2025-05-17T22:46:21.991Z</time>
      </trkpt>
      <trkpt lat="50.50244" lon="3.25043">
        <ele>43.72</ele>
        <time>2025-05-17T22:46:28.871Z</time>
      </trkpt>
      <trkpt lat="50.50251" lon="3.2504">
        <ele>43.71</ele>
        <time>2025-05-17T22:46:35.753Z</time>
      </trkpt>
      <trkpt lat="50.50258" lon="3.25037">
        <ele>43.72</ele>
        <time>2025-05-17T22:46:42.636Z</time>
      </trkpt>
      <trkpt lat="50.50265" lon="3.25034">
        <ele>43.73</ele>
        <time>2025-05-17T22:46:49.520Z</time>
      </trkpt>
      <trkpt lat="50.50272" lon="3.25032">
        <ele>43.74</ele>
        <time>2025-05-17T22:46:56.405Z</time>
      </trkpt>
      <trkpt lat="50.50279" lon="3.2503">
        <ele>43.76</ele>
        <time>2025-05-17T22:47:03.291Z</time>
      </trkpt>
      <trkpt lat="50.50286" lon="3.25029">
        <ele>43.8</ele>
        <time>2025-05-17T22:47:10.179Z</time>
      </trkpt>
      <trkpt lat="50.50292" lon="3.25027">
        <ele>43.85</ele>
        <time>2025-05-17T22:47:17.068Z</time>
      </trkpt>
      <trkpt lat="50.50299" lon="3.25025">
        <ele>43.92</ele>
        <time>2025-05-17T22:47:23.958Z</time>
      </trkpt>
      <trkpt lat="50.50305" lon="3.25023">
        <ele>43.98</ele>
        <time>2025-05-17T22:47:30.849Z</time>
      </trkpt>
      <trkpt lat="50.50311" lon="3.2502">
        <ele>44.03</ele>
        <time>2025-05-17T22:47:37.741Z</time>
      </trkpt>
      <trkpt lat="50.50317" lon="3.25017">
        <ele>44.08</ele>
        <time>2025-05-17T22:47:44.634Z</time>
      </trkpt>
      <trkpt lat="50.50323" lon="3.25013">
        <ele>44.13</ele>
        <time>2025-05-17T22:47:51.528Z</time>
      </trkpt>
      <trkpt lat="50.50329" lon="3.25009">
        <ele>44.2</ele>
        <time>2025-05-17T22:47:58.423Z</time>
      </trkpt>
      <trkpt lat="50.50335" lon="3.25005">
        <ele>44.28</ele>
        <time>2025-05-17T22:48:05.319Z</time>
      </trkpt>
      <trkpt lat="50.50341" lon="3.25">
        <ele>44.34</ele>
        <time>2025-05-17T22:48:12.216Z</time>
      </trkpt>
      <trkpt lat="50.50346" lon="3.24995">
        <ele>44.4</ele>
        <time>2025-05-17T22:48:19.114Z</time>
      </trkpt>
      <trkpt lat="50.50352" lon="3.24989">
        <ele>44.45</ele>
        <time>2025-05-17T22:48:26.014Z</time>
      </trkpt>
      <trkpt lat="50.50378" lon="3.24957">
        <ele>44.52</ele>
        <time>2025-05-17T22:48:32.919Z</time>
      </trkpt>
      <trkpt lat="50.50383" lon="3.2495">
        <ele>44.6</ele>
        <time>2025-05-17T22:48:39.825Z</time>
      </trkpt>
      <trkpt lat="50.50388" lon="3.24943">
        <ele>44.68</ele>
        <time>2025-05-17T22:48:46.732Z</time>
      </trkpt>
      <trkpt lat="50.50393" lon="3.24936">
        <ele>44.78</ele>
        <time>2025-05-17T22:48:53.641Z</time>
      </trkpt>
      <trkpt lat="50.50398" lon="3.24929">
        <ele>44.88</ele>
        <time>2025-05-17T22:49:00.551Z</time>
      </trkpt>
      <trkpt lat="50.50404" lon="3.24923">
        <ele>44.98</ele>
        <time>2025-05-17T22:49:07.462Z</time>
      </trkpt>
      <trkpt lat="50.50409" lon="3.24916">
        <ele>45.07</ele>
        <time>2025-05-17T22:49:14.374Z</time>
      </trkpt>
      <trkpt lat="50.50468" lon="3.24832">
        <ele>45.16</ele>
        <time>2025-05-17T22:49:21.299Z</time>
      </trkpt>
      <trkpt lat="50.50472" lon="3.24823">
        <ele>45.24</ele>
        <time>2025-05-17T22:49:28.225Z</time>
      </trkpt>
      <trkpt lat="50.50476" lon="3.24815">
        <ele>45.33</ele>
        <time>2025-05-17T22:49:35.153Z</time>
      </trkpt>
      <trkpt lat="50.5048" lon="3.24807">
        <ele>45.42</ele>
        <time>2025-05-17T22:49:42.082Z</time>
      </trkpt>
      <trkpt lat="50.50484" lon="3.24798">
        <ele>45.5</ele>
        <time>2025-05-17T22:49:49.012Z</time>
      </trkpt>
      <trkpt lat="50.50488" lon="3.24789">
        <ele>45.57</ele>
        <time>2025-05-17T22:49:55.943Z</time>
      </trkpt>
      <trkpt lat="50.50492" lon="3.2478">
        <ele>45.63</ele>
        <time>2025-05-17T22:50:02.875Z</time>
      </trkpt>
      <trkpt lat="50.50496" lon="3.24771">
        <ele>45.69</ele>
        <time>2025-05-17T22:50:09.808Z</time>
      </trkpt>
      <trkpt lat="50.505" lon="3.24762">
        <ele>45.76</ele>
        <time>2025-05-17T22:50:16.743Z</time>
      </trkpt>
      <trkpt lat="50.50504" lon="3.24753">
        <ele>45.84</ele>
        <time>2025-05-17T22:50:23.679Z</time>
      </trkpt>
      <trkpt lat="50.50508" lon="3.24743">
        <ele>45.89</ele>
        <time>2025-05-17T22:50:30.616Z</time>
      </trkpt>
      <trkpt lat="50.50511" lon="3.24734">
        <ele>45.94</ele>
        <time>2025-05-17T22:50:37.554Z</time>
      </trkpt>
      <trkpt lat="50.50515" lon="3.24724">
        <ele>45.98</ele>
        <time>2025-05-17T22:50:44.493Z</time>
      </trkpt>
      <trkpt lat="50.50518" lon="3.24714">
        <ele>46.03</ele>
        <time>2025-05-17T22:50:51.434Z</time>
      </trkpt>
      <trkpt lat="50.50521" lon="3.24703">
        <ele>46.07</ele>
        <time>2025-05-17T22:50:58.376Z</time>
      </trkpt>
      <trkpt lat="50.50525" lon="3.24693">
        <ele>46.08</ele>
        <time>2025-05-17T22:51:05.319Z</time>
      </trkpt>
      <trkpt lat="50.50528" lon="3.24683">
        <ele>46.09</ele>
        <time>2025-05-17T22:51:12.263Z</time>
      </trkpt>
      <trkpt lat="50.50532" lon="3.24673">
        <ele>46.09</ele>
        <time>2025-05-17T22:51:19.208Z</time>
      </trkpt>
      <trkpt lat="50.50536" lon="3.24664">
        <ele>46.07</ele>
        <time>2025-05-17T22:51:26.155Z</time>
      </trkpt>
      <trkpt lat="50.50541" lon="3.24656">
        <ele>46.05</ele>
        <time>2025-05-17T22:51:33.103Z</time>
      </trkpt>
      <trkpt lat="50.50546" lon="3.24648">
        <ele>46.03</ele>
        <time>2025-05-17T22:51:40.052Z</time>
      </trkpt>
      <trkpt lat="50.50551" lon="3.2464">
        <ele>45.99</ele>
        <time>2025-05-17T22:51:47.002Z</time>
      </trkpt>
      <trkpt lat="50.50556" lon="3.24633">
        <ele>45.94</ele>
        <time>2025-05-17T22:51:53.953Z</time>
      </trkpt>
      <trkpt lat="50.50561" lon="3.24625">
        <ele>45.9</ele>
        <time>2025-05-17T22:52:00.906Z</time>
      </trkpt>
      <trkpt lat="50.50566" lon="3.24617">
        <ele>45.85</ele>
        <time>2025-05-17T22:52:07.860Z</time>
      </trkpt>
      <trkpt lat="50.50571" lon="3.24609">
        <ele>45.81</ele>
        <time>2025-05-17T22:52:14.815Z</time>
      </trkpt>
      <trkpt lat="50.50575" lon="3.246">
        <ele>45.76</ele>
        <time>2025-05-17T22:52:21.771Z</time>
      </trkpt>
      <trkpt lat="50.50579" lon="3.24592">
        <ele>45.71</ele>
        <time>2025-05-17T22:52:28.728Z</time>
      </trkpt>
      <trkpt lat="50.50584" lon="3.24584">
        <ele>45.67</ele>
        <time>2025-05-17T22:52:35.686Z</time>
      </trkpt>
      <trkpt lat="50.50587" lon="3.24576">
        <ele>45.63</ele>
        <time>2025-05-17T22:52:42.645Z</time>
      </trkpt>
      <trkpt lat="50.50591" lon="3.24568">
        <ele>45.6</ele>
        <time>2025-05-17T22:52:49.605Z</time>
      </trkpt>
      <trkpt lat="50.50595" lon="3.2456">
        <ele>45.57</ele>
        <time>2025-05-17T22:52:56.567Z</time>
      </trkpt>
      <trkpt lat="50.50598" lon="3.24553">
        <ele>45.54</ele>
        <time>2025-05-17T22:53:03.530Z</time>
      </trkpt>
      <trkpt lat="50.50601" lon="3.24544">
        <ele>45.52</ele>
        <time>2025-05-17T22:53:10.494Z</time>
      </trkpt>
      <trkpt lat="50.50603" lon="3.24535">
        <ele>45.5</ele>
        <time>2025-05-17T22:53:17.459Z</time>
      </trkpt>
      <trkpt lat="50.50606" lon="3.24527">
        <ele>45.49</ele>
        <time>2025-05-17T22:53:24.425Z</time>
      </trkpt>
      <trkpt lat="50.50609" lon="3.24518">
        <ele>45.48</ele>
        <time>2025-05-17T22:53:31.392Z</time>
      </trkpt>
      <trkpt lat="50.50611" lon="3.24509">
        <ele>45.48</ele>
        <time>2025-05-17T22:53:38.360Z</time>
      </trkpt>
      <trkpt lat="50.50612" lon="3.245">
        <ele>45.48</ele>
        <time>2025-05-17T22:53:45.329Z</time>
      </trkpt>
      <trkpt lat="50.50613" lon="3.2449">
        <ele>45.49</ele>
        <time>2025-05-17T22:53:52.299Z</time>
      </trkpt>
      <trkpt lat="50.50613" lon="3.24481">
        <ele>45.5</ele>
        <time>2025-05-17T22:53:59.270Z</time>
      </trkpt>
      <trkpt lat="50.50613" lon="3.24471">
        <ele>45.52</ele>
        <time>2025-05-17T22:54:06.242Z</time>
      </trkpt>
      <trkpt lat="50.50613" lon="3.24461">
        <ele>45.54</ele>
        <time>2025-05-17T22:54:13.215Z</time>
      </trkpt>
      <trkpt lat="50.50612" lon="3.24455">
        <ele>45.57</ele>
        <time>2025-05-17T22:54:20.189Z</time>
      </trkpt>
      <trkpt lat="50.50612" lon="3.24452">
        <ele>45.6</ele>
        <time>2025-05-17T22:54:27.163Z</time>
      </trkpt>
      <trkpt lat="50.50612" lon="3.2445">
        <ele>45.63</ele>
        <time>2025-05-17T22:54:34.137Z</time>
      </trkpt>
      <trkpt lat="50.50609" lon="3.24414">
        <ele>45.67</ele>
        <time>2025-05-17T22:54:41.115Z</time>
      </trkpt>
      <trkpt lat="50.50608" lon="3.24378">
        <ele>45.74</ele>
        <time>2025-05-17T22:54:48.097Z</time>
      </trkpt>
      <trkpt lat="50.50597" lon="3.2438">
        <ele>45.78</ele>
        <time>2025-05-17T22:54:55.081Z</time>
      </trkpt>
      <trkpt lat="50.5059" lon="3.24384">
        <ele>45.82</ele>
        <time>2025-05-17T22:55:02.066Z</time>
      </trkpt>
      <trkpt lat="50.50572" lon="3.24395">
        <ele>45.91</ele>
        <time>2025-05-17T22:55:09.054Z</time>
      </trkpt>
      <trkpt lat="50.50565" lon="3.24401">
        <ele>45.96</ele>
        <time>2025-05-17T22:55:16.044Z</time>
      </trkpt>
      <trkpt lat="50.50561" lon="3.24404">
        <ele>45.99</ele>
        <time>2025-05-17T22:55:23.034Z</time>
      </trkpt>
      <trkpt lat="50.50557" lon="3.24406">
        <ele>46.03</ele>
        <time>2025-05-17T22:55:30.025Z</time>
      </trkpt>
      <trkpt lat="50.50553" lon="3.24409">
        <ele>46.05</ele>
        <time>2025-05-17T22:55:37.017Z</time>
      </trkpt>
      <trkpt lat="50.5055" lon="3.24412">
        <ele>46.07</ele>
        <time>2025-05-17T22:55:44.009Z</time>
      </trkpt>
      <trkpt lat="50.50547" lon="3.24415">
        <ele>46.09</ele>
        <time>2025-05-17T22:55:51.002Z</time>
      </trkpt>
      <trkpt lat="50.50544" lon="3.24418">
        <ele>46.1</ele>
        <time>2025-05-17T22:55:57.996Z</time>
      </trkpt>
      <trkpt lat="50.50541" lon="3.24421">
        <ele>46.11</ele>
        <time>2025-05-17T22:56:04.990Z</time>
      </trkpt>
      <trkpt lat="50.50538" lon="3.24423">
        <ele>46.11</ele>
        <time>2025-05-17T22:56:11.985Z</time>
      </trkpt>
      <trkpt lat="50.50534" lon="3.24426">
        <ele>46.1</ele>
        <time>2025-05-17T22:56:18.980Z</time>
      </trkpt>
      <trkpt lat="50.50532" lon="3.24428">
        <ele>46.1</ele>
        <time>2025-05-17T22:56:25.976Z</time>
      </trkpt>
      <trkpt lat="50.50529" lon="3.24431">
        <ele>46.09</ele>
        <time>2025-05-17T22:56:32.972Z</time>
      </trkpt>
      <trkpt lat="50.50526" lon="3.24433">
        <ele>46.08</ele>
        <time>2025-05-17T22:56:39.969Z</time>
      </trkpt>
      <trkpt lat="50.50522" lon="3.24437">
        <ele>46.05</ele>
        <time>2025-05-17T22:56:46.967Z</time>
      </trkpt>
      <trkpt lat="50.50518" lon="3.24441">
        <ele>46.02</ele>
        <time>2025-05-17T22:56:53.965Z</time>
      </trkpt>
      <trkpt lat="50.50514" lon="3.24446">
        <ele>45.99</ele>
        <time>2025-05-17T22:57:00.964Z</time>
      </trkpt>
      <trkpt lat="50.5051" lon="3.24451">
        <ele>45.96</ele>
        <time>2025-05-17T22:57:07.964Z</time>
      </trkpt>
      <trkpt lat="50.50506" lon="3.24456">
        <ele>45.93</ele>
        <time>2025-05-17T22:57:14.965Z</time>
      </trkpt>
      <trkpt lat="50.50501" lon="3.24461">
        <ele>45.9</ele>
        <time>2025-05-17T22:57:21.967Z</time>
      </trkpt>
      <trkpt lat="50.50497" lon="3.24467">
        <ele>45.89</ele>
        <time>2025-05-17T22:57:28.970Z</time>
      </trkpt>
      <trkpt lat="50.50493" lon="3.24474">
        <ele>45.88</ele>
        <time>2025-05-17T22:57:35.974Z</time>
      </trkpt>
      <trkpt lat="50.50489" lon="3.2448">
        <ele>45.89</ele>
        <time>2025-05-17T22:57:42.979Z</time>
      </trkpt>
      <trkpt lat="50.50485" lon="3.24487">
        <ele>45.89</ele>
        <time>2025-05-17T22:57:49.985Z</time>
      </trkpt>
      <trkpt lat="50.50481" lon="3.24495">
        <ele>45.91</ele>
        <time>2025-05-17T22:57:56.992Z</time>
      </trkpt>
      <trkpt lat="50.50477" lon="3.24502">
        <ele>45.92</ele>
        <time>2025-05-17T22:58:04.000Z</time>
      </trkpt>
      <trkpt lat="50.50473" lon="3.2451">
        <ele>45.95</ele>
        <time>2025-05-17T22:58:11.009Z</time>
      </trkpt>
      <trkpt lat="50.50469" lon="3.24518">
        <ele>45.99</ele>
        <time>2025-05-17T22:58:18.019Z</time>
      </trkpt>
      <trkpt lat="50.50466" lon="3.24526">
        <ele>46.03</ele>
        <time>2025-05-17T22:58:25.030Z</time>
      </trkpt>
      <trkpt lat="50.50462" lon="3.24533">
        <ele>46.08</ele>
        <time>2025-05-17T22:58:32.042Z</time>
      </trkpt>
      <trkpt lat="50.50458" lon="3.24539">
        <ele>46.14</ele>
        <time>2025-05-17T22:58:39.055Z</time>
      </trkpt>
      <trkpt lat="50.50454" lon="3.24546">
        <ele>46.2</ele>
        <time>2025-05-17T22:58:46.069Z</time>
      </trkpt>
      <trkpt lat="50.5045" lon="3.24551">
        <ele>46.27</ele>
        <time>2025-05-17T22:58:53.084Z</time>
      </trkpt>
      <trkpt lat="50.50446" lon="3.24557">
        <ele>46.34</ele>
        <time>2025-05-17T22:59:00.100Z</time>
      </trkpt>
      <trkpt lat="50.50442" lon="3.24564">
        <ele>46.42</ele>
        <time>2025-05-17T22:59:07.117Z</time>
      </trkpt>
      <trkpt lat="50.50438" lon="3.24569">
        <ele>46.51</ele>
        <time>2025-05-17T22:59:14.135Z</time>
      </trkpt>
      <trkpt lat="50.50434" lon="3.24574">
        <ele>46.59</ele>
        <time>2025-05-17T22:59:21.154Z</time>
      </trkpt>
      <trkpt lat="50.50428" lon="3.24576">
        <ele>46.67</ele>
        <time>2025-05-17T22:59:28.174Z</time>
      </trkpt>
      <trkpt lat="50.50423" lon="3.24576">
        <ele>46.74</ele>
        <time>2025-05-17T22:59:35.195Z</time>
      </trkpt>
      <trkpt lat="50.50417" lon="3.24575">
        <ele>46.81</ele>
        <time>2025-05-17T22:59:42.217Z</time>
      </trkpt>
      <trkpt lat="50.50411" lon="3.24573">
        <ele>46.88</ele>
        <time>2025-05-17T22:59:49.240Z</time>
      </trkpt>
      <trkpt lat="50.50404" lon="3.24571">
        <ele>46.94</ele>
        <time>2025-05-17T22:59:56.264Z</time>
      </trkpt>
      <trkpt lat="50.50398" lon="3.24569">
        <ele>47</ele>
        <time>2025-05-17T23:00:03.289Z</time>
      </trkpt>
      <trkpt lat="50.50391" lon="3.24567">
        <ele>47.06</ele>
        <time>2025-05-17T23:00:10.315Z</time>
      </trkpt>
      <trkpt lat="50.50384" lon="3.24565">
        <ele>47.1</ele>
        <time>2025-05-17T23:00:17.342Z</time>
      </trkpt>
      <trkpt lat="50.50377" lon="3.24563">
        <ele>47.14</ele>
        <time>2025-05-17T23:00:24.370Z</time>
      </trkpt>
      <trkpt lat="50.5037" lon="3.2456">
        <ele>47.18</ele>
        <time>2025-05-17T23:00:31.400Z</time>
      </trkpt>
      <trkpt lat="50.50363" lon="3.24558">
        <ele>47.22</ele>
        <time>2025-05-17T23:00:38.431Z</time>
      </trkpt>
      <trkpt lat="50.50328" lon="3.24547">
        <ele>47.26</ele>
        <time>2025-05-17T23:00:45.468Z</time>
      </trkpt>
      <trkpt lat="50.5032" lon="3.24545">
        <ele>47.3</ele>
        <time>2025-05-17T23:00:52.506Z</time>
      </trkpt>
      <trkpt lat="50.50313" lon="3.24543">
        <ele>47.34</ele>
        <time>2025-05-17T23:00:59.545Z</time>
      </trkpt>
      <trkpt lat="50.50306" lon="3.2454">
        <ele>47.38</ele>
        <time>2025-05-17T23:01:06.586Z</time>
      </trkpt>
      <trkpt lat="50.50299" lon="3.24538">
        <ele>47.42</ele>
        <time>2025-05-17T23:01:13.628Z</time>
      </trkpt>
      <trkpt lat="50.50291" lon="3.24536">
        <ele>47.46</ele>
        <time>2025-05-17T23:01:20.671Z</time>
      </trkpt>
      <trkpt lat="50.50201" lon="3.24516">
        <ele>47.56</ele>
        <time>2025-05-17T23:01:27.729Z</time>
      </trkpt>
      <trkpt lat="50.50193" lon="3.24516">
        <ele>47.62</ele>
        <time>2025-05-17T23:01:34.789Z</time>
      </trkpt>
      <trkpt lat="50.50186" lon="3.24517">
        <ele>47.66</ele>
        <time>2025-05-17T23:01:41.850Z</time>
      </trkpt>
      <trkpt lat="50.50179" lon="3.24518">
        <ele>47.7</ele>
        <time>2025-05-17T23:01:48.912Z</time>
      </trkpt>
      <trkpt lat="50.50172" lon="3.24519">
        <ele>47.74</ele>
        <time>2025-05-17T23:01:55.975Z</time>
      </trkpt>
      <trkpt lat="50.50165" lon="3.24519">
        <ele>47.78</ele>
        <time>2025-05-17T23:02:03.040Z</time>
      </trkpt>
      <trkpt lat="50.50158" lon="3.24521">
        <ele>47.82</ele>
        <time>2025-05-17T23:02:10.106Z</time>
      </trkpt>
      <trkpt lat="50.50151" lon="3.24522">
        <ele>47.85</ele>
        <time>2025-05-17T23:02:17.173Z</time>
      </trkpt>
      <trkpt lat="50.50145" lon="3.24524">
        <ele>47.89</ele>
        <time>2025-05-17T23:02:24.241Z</time>
      </trkpt>
      <trkpt lat="50.50138" lon="3.24525">
        <ele>47.92</ele>
        <time>2025-05-17T23:02:31.310Z</time>
      </trkpt>
      <trkpt lat="50.50132" lon="3.24527">
        <ele>47.95</ele>
        <time>2025-05-17T23:02:38.380Z</time>
      </trkpt>
      <trkpt lat="50.50125" lon="3.24528">
        <ele>47.97</ele>
        <time>2025-05-17T23:02:45.451Z</time>
      </trkpt>
      <trkpt lat="50.50119" lon="3.24529">
        <ele>48</ele>
        <time>2025-05-17T23:02:52.523Z</time>
      </trkpt>
      <trkpt lat="50.50113" lon="3.2453">
        <ele>48.04</ele>
        <time>2025-05-17T23:02:59.596Z</time>
      </trkpt>
      <trkpt lat="50.50107" lon="3.24532">
        <ele>48.09</ele>
        <time>2025-05-17T23:03:06.670Z</time>
      </trkpt>
      <trkpt lat="50.50101" lon="3.24532">
        <ele>48.14</ele>
        <time>2025-05-17T23:03:13.745Z</time>
      </trkpt>
      <trkpt lat="50.50095" lon="3.24532">
        <ele>48.19</ele>
        <time>2025-05-17T23:03:20.821Z</time>
      </trkpt>
      <trkpt lat="50.50089" lon="3.24531">
        <ele>48.23</ele>
        <time>2025-05-17T23:03:27.898Z</time>
      </trkpt>
      <trkpt lat="50.50083" lon="3.24529">
        <ele>48.28</ele>
        <time>2025-05-17T23:03:34.976Z</time>
      </trkpt>
      <trkpt lat="50.50077" lon="3.24525">
        <ele>48.33</ele>
        <time>2025-05-17T23:03:42.055Z</time>
      </trkpt>
      <trkpt lat="50.50072" lon="3.24522">
        <ele>48.38</ele>
        <time>2025-05-17T23:03:49.135Z</time>
      </trkpt>
      <trkpt lat="50.50068" lon="3.24518">
        <ele>48.42</ele>
        <time>2025-05-17T23:03:56.216Z</time>
      </trkpt>
      <trkpt lat="50.50065" lon="3.24516">
        <ele>48.46</ele>
        <time>2025-05-17T23:04:03.298Z</time>
      </trkpt>
      <trkpt lat="50.50063" lon="3.24514">
        <ele>48.49</ele>
        <time>2025-05-17T23:04:10.380Z</time>
      </trkpt>
      <trkpt lat="50.50062" lon="3.24513">
        <ele>48.52</ele>
        <time>2025-05-17T23:04:17.462Z</time>
      </trkpt>
      <trkpt lat="50.50058" lon="3.24506">
        <ele>48.55</ele>
        <time>2025-05-17T23:04:24.545Z</time>
      </trkpt>
      <trkpt lat="50.50059" lon="3.24503">
        <ele>48.56</ele>
        <time>2025-05-17T23:04:31.629Z</time>
      </trkpt>
      <trkpt lat="50.50059" lon="3.24501">
        <ele>48.58</ele>
        <time>2025-05-17T23:04:38.713Z</time>
      </trkpt>
      <trkpt lat="50.50059" lon="3.24499">
        <ele>48.58</ele>
        <time>2025-05-17T23:04:45.797Z</time>
      </trkpt>
      <trkpt lat="50.50059" lon="3.24498">
        <ele>48.59</ele>
        <time>2025-05-17T23:04:52.881Z</time>
      </trkpt>
      <trkpt lat="50.50064" lon="3.2449">
        <ele>48.58</ele>
        <time>2025-05-17T23:04:59.966Z</time>
      </trkpt>
      <trkpt lat="50.50066" lon="3.24487">
        <ele>48.58</ele>
        <time>2025-05-17T23:05:07.052Z</time>
      </trkpt>
      <trkpt lat="50.50067" lon="3.24484">
        <ele>48.57</ele>
        <time>2025-05-17T23:05:14.138Z</time>
      </trkpt>
      <trkpt lat="50.5007" lon="3.24481">
        <ele>48.56</ele>
        <time>2025-05-17T23:05:21.225Z</time>
      </trkpt>
      <trkpt lat="50.50072" lon="3.24477">
        <ele>48.54</ele>
        <time>2025-05-17T23:05:28.312Z</time>
      </trkpt>
      <trkpt lat="50.50075" lon="3.24472">
        <ele>48.51</ele>
        <time>2025-05-17T23:05:35.400Z</time>
      </trkpt>
      <trkpt lat="50.50078" lon="3.24467">
        <ele>48.48</ele>
        <time>2025-05-17T23:05:42.489Z</time>
      </trkpt>
      <trkpt lat="50.50082" lon="3.24461">
        <ele>48.43</ele>
        <time>2025-05-17T23:05:49.579Z</time>
      </trkpt>
      <trkpt lat="50.50086" lon="3.24455">
        <ele>48.4</ele>
        <time>2025-05-17T23:05:56.669Z</time>
      </trkpt>
      <trkpt lat="50.5009" lon="3.24449">
        <ele>48.36</ele>
        <time>2025-05-17T23:06:03.760Z</time>
      </trkpt>
      <trkpt lat="50.50095" lon="3.24442">
        <ele>48.33</ele>
        <time>2025-05-17T23:06:10.852Z</time>
      </trkpt>
      <trkpt lat="50.50099" lon="3.24436">
        <ele>48.31</ele>
        <time>2025-05-17T23:06:17.946Z</time>
      </trkpt>
      <trkpt lat="50.50104" lon="3.2443">
        <ele>48.27</ele>
        <time>2025-05-17T23:06:25.041Z</time>
      </trkpt>
      <trkpt lat="50.50109" lon="3.24423">
        <ele>48.24</ele>
        <time>2025-05-17T23:06:32.137Z</time>
      </trkpt>
      <trkpt lat="50.50114" lon="3.24416">
        <ele>48.2</ele>
        <time>2025-05-17T23:06:39.234Z</time>
      </trkpt>
      <trkpt lat="50.50119" lon="3.24409">
        <ele>48.16</ele>
        <time>2025-05-17T23:06:46.332Z</time>
      </trkpt>
      <trkpt lat="50.50124" lon="3.24402">
        <ele>48.12</ele>
        <time>2025-05-17T23:06:53.431Z</time>
      </trkpt>
      <trkpt lat="50.50129" lon="3.24395">
        <ele>48.08</ele>
        <time>2025-05-17T23:07:00.531Z</time>
      </trkpt>
      <trkpt lat="50.50133" lon="3.24387">
        <ele>48.05</ele>
        <time>2025-05-17T23:07:07.632Z</time>
      </trkpt>
      <trkpt lat="50.50137" lon="3.24378">
        <ele>48.02</ele>
        <time>2025-05-17T23:07:14.734Z</time>
      </trkpt>
      <trkpt lat="50.50141" lon="3.2437">
        <ele>47.99</ele>
        <time>2025-05-17T23:07:21.838Z</time>
      </trkpt>
      <trkpt lat="50.50144" lon="3.2436">
        <ele>47.96</ele>
        <time>2025-05-17T23:07:28.943Z</time>
      </trkpt>
      <trkpt lat="50.50148" lon="3.24351">
        <ele>47.93</ele>
        <time>2025-05-17T23:07:36.049Z</time>
      </trkpt>
      <trkpt lat="50.50151" lon="3.24341">
        <ele>47.9</ele>
        <time>2025-05-17T23:07:43.156Z</time>
      </trkpt>
      <trkpt lat="50.50154" lon="3.2433">
        <ele>47.86</ele>
        <time>2025-05-17T23:07:50.264Z</time>
      </trkpt>
      <trkpt lat="50.50157" lon="3.2432">
        <ele>47.82</ele>
        <time>2025-05-17T23:07:57.374Z</time>
      </trkpt>
      <trkpt lat="50.5016" lon="3.24309">
        <ele>47.79</ele>
        <time>2025-05-17T23:08:04.485Z</time>
      </trkpt>
      <trkpt lat="50.50163" lon="3.24299">
        <ele>47.76</ele>
        <time>2025-05-17T23:08:11.597Z</time>
      </trkpt>
      <trkpt lat="50.50167" lon="3.2429">
        <ele>47.72</ele>
        <time>2025-05-17T23:08:18.710Z</time>
      </trkpt>
      <trkpt lat="50.50171" lon="3.2428">
        <ele>47.68</ele>
        <time>2025-05-17T23:08:25.824Z</time>
      </trkpt>
      <trkpt lat="50.50175" lon="3.24271">
        <ele>47.65</ele>
        <time>2025-05-17T23:08:32.940Z</time>
      </trkpt>
      <trkpt lat="50.50179" lon="3.24261">
        <ele>47.64</ele>
        <time>2025-05-17T23:08:40.057Z</time>
      </trkpt>
      <trkpt lat="50.50183" lon="3.24252">
        <ele>47.62</ele>
        <time>2025-05-17T23:08:47.175Z</time>
      </trkpt>
      <trkpt lat="50.50188" lon="3.24242">
        <ele>47.61</ele>
        <time>2025-05-17T23:08:54.294Z</time>
      </trkpt>
      <trkpt lat="50.50192" lon="3.24233">
        <ele>47.59</ele>
        <time>2025-05-17T23:09:01.415Z</time>
      </trkpt>
      <trkpt lat="50.50196" lon="3.24223">
        <ele>47.56</ele>
        <time>2025-05-17T23:09:08.537Z</time>
      </trkpt>
      <trkpt lat="50.502" lon="3.24214">
        <ele>47.54</ele>
        <time>2025-05-17T23:09:15.660Z</time>
      </trkpt>
      <trkpt lat="50.50204" lon="3.24204">
        <ele>47.55</ele>
        <time>2025-05-17T23:09:22.784Z</time>
      </trkpt>
      <trkpt lat="50.50208" lon="3.24195">
        <ele>47.55</ele>
        <time>2025-05-17T23:09:29.909Z</time>
      </trkpt>
      <trkpt lat="50.50212" lon="3.24186">
        <ele>47.54</ele>
        <time>2025-05-17T23:09:37.036Z</time>
      </trkpt>
      <trkpt lat="50.50216" lon="3.24176">
        <ele>47.54</ele>
        <time>2025-05-17T23:09:44.164Z</time>
      </trkpt>
      <trkpt lat="50.5022" lon="3.24167">
        <ele>47.55</ele>
        <time>2025-05-17T23:09:51.293Z</time>
      </trkpt>
      <trkpt lat="50.50237" lon="3.24131">
        <ele>47.57</ele>
        <time>2025-05-17T23:09:58.427Z</time>
      </trkpt>
      <trkpt lat="50.50244" lon="3.24124">
        <ele>47.57</ele>
        <time>2025-05-17T23:10:05.562Z</time>
      </trkpt>
      <trkpt lat="50.50249" lon="3.24117">
        <ele>47.57</ele>
        <time>2025-05-17T23:10:12.698Z</time>
      </trkpt>
      <trkpt lat="50.50255" lon="3.24111">
        <ele>47.59</ele>
        <time>2025-05-17T23:10:19.836Z</time>
      </trkpt>
      <trkpt lat="50.50262" lon="3.24106">
        <ele>47.59</ele>
        <time>2025-05-17T23:10:26.975Z</time>
      </trkpt>
      <trkpt lat="50.50268" lon="3.24101">
        <ele>47.59</ele>
        <time>2025-05-17T23:10:34.115Z</time>
      </trkpt>
      <trkpt lat="50.50275" lon="3.24096">
        <ele>47.6</ele>
        <time>2025-05-17T23:10:41.256Z</time>
      </trkpt>
      <trkpt lat="50.50281" lon="3.2409">
        <ele>47.61</ele>
        <time>2025-05-17T23:10:48.399Z</time>
      </trkpt>
      <trkpt lat="50.50288" lon="3.24085">
        <ele>47.62</ele>
        <time>2025-05-17T23:10:55.543Z</time>
      </trkpt>
      <trkpt lat="50.50294" lon="3.24079">
        <ele>47.62</ele>
        <time>2025-05-17T23:11:02.688Z</time>
      </trkpt>
      <trkpt lat="50.503" lon="3.24072">
        <ele>47.63</ele>
        <time>2025-05-17T23:11:09.834Z</time>
      </trkpt>
      <trkpt lat="50.50306" lon="3.24065">
        <ele>47.64</ele>
        <time>2025-05-17T23:11:16.982Z</time>
      </trkpt>
      <trkpt lat="50.50311" lon="3.24056">
        <ele>47.65</ele>
        <time>2025-05-17T23:11:24.131Z</time>
      </trkpt>
      <trkpt lat="50.50316" lon="3.24047">
        <ele>47.66</ele>
        <time>2025-05-17T23:11:31.281Z</time>
      </trkpt>
      <trkpt lat="50.50321" lon="3.24038">
        <ele>47.67</ele>
        <time>2025-05-17T23:11:38.432Z</time>
      </trkpt>
      <trkpt lat="50.50325" lon="3.24028">
        <ele>47.69</ele>
        <time>2025-05-17T23:11:45.585Z</time>
      </trkpt>
      <trkpt lat="50.50329" lon="3.24018">
        <ele>47.71</ele>
        <time>2025-05-17T23:11:52.739Z</time>
      </trkpt>
      <trkpt lat="50.50332" lon="3.24008">
        <ele>47.73</ele>
        <time>2025-05-17T23:11:59.894Z</time>
      </trkpt>
      <trkpt lat="50.50335" lon="3.23997">
        <ele>47.75</ele>
        <time>2025-05-17T23:12:07.050Z</time>
      </trkpt>
      <trkpt lat="50.50338" lon="3.23986">
        <ele>47.77</ele>
        <time>2025-05-17T23:12:14.208Z</time>
      </trkpt>
      <trkpt lat="50.5034" lon="3.23975">
        <ele>47.8</ele>
        <time>2025-05-17T23:12:21.367Z</time>
      </trkpt>
      <trkpt lat="50.50342" lon="3.23964">
        <ele>47.85</ele>
        <time>2025-05-17T23:12:28.527Z</time>
      </trkpt>
      <trkpt lat="50.50344" lon="3.23953">
        <ele>47.89</ele>
        <time>2025-05-17T23:12:35.688Z</time>
      </trkpt>
      <trkpt lat="50.50347" lon="3.23942">
        <ele>47.93</ele>
        <time>2025-05-17T23:12:42.851Z</time>
      </trkpt>
      <trkpt lat="50.5035" lon="3.23931">
        <ele>47.98</ele>
        <time>2025-05-17T23:12:50.015Z</time>
      </trkpt>
      <trkpt lat="50.50353" lon="3.23921">
        <ele>48.03</ele>
        <time>2025-05-17T23:12:57.180Z</time>
      </trkpt>
      <trkpt lat="50.50357" lon="3.23911">
        <ele>48.09</ele>
        <time>2025-05-17T23:13:04.346Z</time>
      </trkpt>
      <trkpt lat="50.50361" lon="3.23901">
        <ele>48.14</ele>
        <time>2025-05-17T23:13:11.514Z</time>
      </trkpt>
      <trkpt lat="50.50365" lon="3.23891">
        <ele>48.18</ele>
        <time>2025-05-17T23:13:18.683Z</time>
      </trkpt>
      <trkpt lat="50.50368" lon="3.23882">
        <ele>48.24</ele>
        <time>2025-05-17T23:13:25.853Z</time>
      </trkpt>
      <trkpt lat="50.50372" lon="3.23872">
        <ele>48.32</ele>
        <time>2025-05-17T23:13:33.024Z</time>
      </trkpt>
      <trkpt lat="50.50376" lon="3.23862">
        <ele>48.41</ele>
        <time>2025-05-17T23:13:40.196Z</time>
      </trkpt>
      <trkpt lat="50.50379" lon="3.23852">
        <ele>48.5</ele>
        <time>2025-05-17T23:13:47.370Z</time>
      </trkpt>
      <trkpt lat="50.50383" lon="3.23842">
        <ele>48.59</ele>
        <time>2025-05-17T23:13:54.545Z</time>
      </trkpt>
      <trkpt lat="50.50386" lon="3.23832">
        <ele>48.67</ele>
        <time>2025-05-17T23:14:01.721Z</time>
      </trkpt>
      <trkpt lat="50.50389" lon="3.23821">
        <ele>48.78</ele>
        <time>2025-05-17T23:14:08.898Z</time>
      </trkpt>
      <trkpt lat="50.50392" lon="3.23811">
        <ele>48.91</ele>
        <time>2025-05-17T23:14:16.076Z</time>
      </trkpt>
      <trkpt lat="50.50395" lon="3.23801">
        <ele>49.06</ele>
        <time>2025-05-17T23:14:23.256Z</time>
      </trkpt>
      <trkpt lat="50.50398" lon="3.23791">
        <ele>49.19</ele>
        <time>2025-05-17T23:14:30.437Z</time>
      </trkpt>
      <trkpt lat="50.50401" lon="3.23781">
        <ele>49.32</ele>
        <time>2025-05-17T23:14:37.619Z</time>
      </trkpt>
      <trkpt lat="50.50404" lon="3.23771">
        <ele>49.47</ele>
        <time>2025-05-17T23:14:44.802Z</time>
      </trkpt>
      <trkpt lat="50.50407" lon="3.23761">
        <ele>49.62</ele>
        <time>2025-05-17T23:14:51.986Z</time>
      </trkpt>
      <trkpt lat="50.5041" lon="3.23751">
        <ele>49.77</ele>
        <time>2025-05-17T23:14:59.172Z</time>
      </trkpt>
      <trkpt lat="50.50413" lon="3.23741">
        <ele>49.93</ele>
        <time>2025-05-17T23:15:06.359Z</time>
      </trkpt>
      <trkpt lat="50.50416" lon="3.23731">
        <ele>50.09</ele>
        <time>2025-05-17T23:15:13.547Z</time>
      </trkpt>
      <trkpt lat="50.50419" lon="3.23721">
        <ele>50.26</ele>
        <time>2025-05-17T23:15:20.736Z</time>
      </trkpt>
      <trkpt lat="50.50422" lon="3.23711">
        <ele>50.42</ele>
        <time>2025-05-17T23:15:27.926Z</time>
      </trkpt>
      <trkpt lat="50.50425" lon="3.23701">
        <ele>50.59</ele>
        <time>2025-05-17T23:15:35.118Z</time>
      </trkpt>
      <trkpt lat="50.50428" lon="3.23691">
        <ele>50.76</ele>
        <time>2025-05-17T23:15:42.311Z</time>
      </trkpt>
      <trkpt lat="50.50431" lon="3.23681">
        <ele>50.95</ele>
        <time>2025-05-17T23:15:49.505Z</time>
      </trkpt>
      <trkpt lat="50.50434" lon="3.23671">
        <ele>51.14</ele>
        <time>2025-05-17T23:15:56.700Z</time>
      </trkpt>
      <trkpt lat="50.50437" lon="3.23661">
        <ele>51.33</ele>
        <time>2025-05-17T23:16:03.896Z</time>
      </trkpt>
      <trkpt lat="50.5044" lon="3.23651">
        <ele>51.52</ele>
        <time>2025-05-17T23:16:11.094Z</time>
      </trkpt>
      <trkpt lat="50.50443" lon="3.2364">
        <ele>51.7</ele>
        <time>2025-05-17T23:16:18.293Z</time>
      </trkpt>
      <trkpt lat="50.50446" lon="3.2363">
        <ele>51.89</ele>
        <time>2025-05-17T23:16:25.493Z</time>
      </trkpt>
      <trkpt lat="50.50449" lon="3.2362">
        <ele>52.07</ele>
        <time>2025-05-17T23:16:32.694Z</time>
      </trkpt>
      <trkpt lat="50.50453" lon="3.23611">
        <ele>52.25</ele>
        <time>2025-05-17T23:16:39.896Z</time>
      </trkpt>
      <trkpt lat="50.50456" lon="3.23601">
        <ele>52.4</ele>
        <time>2025-05-17T23:16:47.099Z</time>
      </trkpt>
      <trkpt lat="50.50459" lon="3.23591">
        <ele>52.55</ele>
        <time>2025-05-17T23:16:54.304Z</time>
      </trkpt>
      <trkpt lat="50.50462" lon="3.23581">
        <ele>52.68</ele>
        <time>2025-05-17T23:17:01.510Z</time>
      </trkpt>
      <trkpt lat="50.50465" lon="3.23571">
        <ele>52.81</ele>
        <time>2025-05-17T23:17:08.717Z</time>
      </trkpt>
      <trkpt lat="50.50468" lon="3.23561">
        <ele>52.94</ele>
        <time>2025-05-17T23:17:15.925Z</time>
      </trkpt>
      <trkpt lat="50.50471" lon="3.2355">
        <ele>53.05</ele>
        <time>2025-05-17T23:17:23.134Z</time>
      </trkpt>
      <trkpt lat="50.50474" lon="3.2354">
        <ele>53.15</ele>
        <time>2025-05-17T23:17:30.345Z</time>
      </trkpt>
      <trkpt lat="50.50477" lon="3.2353">
        <ele>53.25</ele>
        <time>2025-05-17T23:17:37.557Z</time>
      </trkpt>
      <trkpt lat="50.5048" lon="3.2352">
        <ele>53.33</ele>
        <time>2025-05-17T23:17:44.770Z</time>
      </trkpt>
      <trkpt lat="50.50482" lon="3.2351">
        <ele>53.41</ele>
        <time>2025-05-17T23:17:51.984Z</time>
      </trkpt>
      <trkpt lat="50.50485" lon="3.235">
        <ele>53.48</ele>
        <time>2025-05-17T23:17:59.199Z</time>
      </trkpt>
      <trkpt lat="50.50488" lon="3.23491">
        <ele>53.53</ele>
        <time>2025-05-17T23:18:06.415Z</time>
      </trkpt>
      <trkpt lat="50.50491" lon="3.23481">
        <ele>53.59</ele>
        <time>2025-05-17T23:18:13.633Z</time>
      </trkpt>
      <trkpt lat="50.50494" lon="3.23471">
        <ele>53.65</ele>
        <time>2025-05-17T23:18:20.852Z</time>
      </trkpt>
      <trkpt lat="50.50497" lon="3.23462">
        <ele>53.7</ele>
        <time>2025-05-17T23:18:28.072Z</time>
      </trkpt>
      <trkpt lat="50.505" lon="3.23453">
        <ele>53.75</ele>
        <time>2025-05-17T23:18:35.293Z</time>
      </trkpt>
      <trkpt lat="50.50503" lon="3.23444">
        <ele>53.78</ele>
        <time>2025-05-17T23:18:42.515Z</time>
      </trkpt>
      <trkpt lat="50.50506" lon="3.23435">
        <ele>53.81</ele>
        <time>2025-05-17T23:18:49.738Z</time>
      </trkpt>
      <trkpt lat="50.5051" lon="3.23425">
        <ele>53.81</ele>
        <time>2025-05-17T23:18:56.962Z</time>
      </trkpt>
      <trkpt lat="50.50513" lon="3.23416">
        <ele>53.8</ele>
        <time>2025-05-17T23:19:04.187Z</time>
      </trkpt>
      <trkpt lat="50.50517" lon="3.23406">
        <ele>53.79</ele>
        <time>2025-05-17T23:19:11.414Z</time>
      </trkpt>
      <trkpt lat="50.5052" lon="3.23396">
        <ele>53.76</ele>
        <time>2025-05-17T23:19:18.642Z</time>
      </trkpt>
      <trkpt lat="50.50522" lon="3.23386">
        <ele>53.73</ele>
        <time>2025-05-17T23:19:25.871Z</time>
      </trkpt>
      <trkpt lat="50.50524" lon="3.23375">
        <ele>53.68</ele>
        <time>2025-05-17T23:19:33.101Z</time>
      </trkpt>
      <trkpt lat="50.50526" lon="3.23364">
        <ele>53.63</ele>
        <time>2025-05-17T23:19:40.332Z</time>
      </trkpt>
      <trkpt lat="50.50526" lon="3.23353">
        <ele>53.58</ele>
        <time>2025-05-17T23:19:47.565Z</time>
      </trkpt>
      <trkpt lat="50.50526" lon="3.23342">
        <ele>53.5</ele>
        <time>2025-05-17T23:19:54.799Z</time>
      </trkpt>
      <trkpt lat="50.50525" lon="3.2333">
        <ele>53.41</ele>
        <time>2025-05-17T23:20:02.034Z</time>
      </trkpt>
      <trkpt lat="50.50524" lon="3.23318">
        <ele>53.33</ele>
        <time>2025-05-17T23:20:09.270Z</time>
      </trkpt>
      <trkpt lat="50.50524" lon="3.23307">
        <ele>53.26</ele>
        <time>2025-05-17T23:20:16.508Z</time>
      </trkpt>
      <trkpt lat="50.50525" lon="3.23295">
        <ele>53.19</ele>
        <time>2025-05-17T23:20:23.747Z</time>
      </trkpt>
      <trkpt lat="50.50527" lon="3.23284">
        <ele>53.11</ele>
        <time>2025-05-17T23:20:30.987Z</time>
      </trkpt>
      <trkpt lat="50.5053" lon="3.23274">
        <ele>53.03</ele>
        <time>2025-05-17T23:20:38.228Z</time>
      </trkpt>
      <trkpt lat="50.50534" lon="3.23263">
        <ele>52.94</ele>
        <time>2025-05-17T23:20:45.471Z</time>
      </trkpt>
      <trkpt lat="50.50538" lon="3.23253">
        <ele>52.85</ele>
        <time>2025-05-17T23:20:52.715Z</time>
      </trkpt>
      <trkpt lat="50.50541" lon="3.23242">
        <ele>52.76</ele>
        <time>2025-05-17T23:20:59.960Z</time>
      </trkpt>
      <trkpt lat="50.50545" lon="3.23232">
        <ele>52.68</ele>
        <time>2025-05-17T23:21:07.206Z</time>
      </trkpt>
      <trkpt lat="50.50548" lon="3.23221">
        <ele>52.6</ele>
        <time>2025-05-17T23:21:14.454Z</time>
      </trkpt>
      <trkpt lat="50.50552" lon="3.23211">
        <ele>52.52</ele>
        <time>2025-05-17T23:21:21.703Z</time>
      </trkpt>
      <trkpt lat="50.50555" lon="3.23201">
        <ele>52.47</ele>
        <time>2025-05-17T23:21:28.953Z</time>
      </trkpt>
      <trkpt lat="50.50559" lon="3.23191">
        <ele>52.42</ele>
        <time>2025-05-17T23:21:36.204Z</time>
      </trkpt>
      <trkpt lat="50.50562" lon="3.23181">
        <ele>52.38</ele>
        <time>2025-05-17T23:21:43.457Z</time>
      </trkpt>
      <trkpt lat="50.50566" lon="3.2317">
        <ele>52.33</ele>
        <time>2025-05-17T23:21:50.711Z</time>
      </trkpt>
      <trkpt lat="50.50569" lon="3.2316">
        <ele>52.28</ele>
        <time>2025-05-17T23:21:57.966Z</time>
      </trkpt>
      <trkpt lat="50.50573" lon="3.2315">
        <ele>52.24</ele>
        <time>2025-05-17T23:22:05.222Z</time>
      </trkpt>
      <trkpt lat="50.50576" lon="3.2314">
        <ele>52.21</ele>
        <time>2025-05-17T23:22:12.480Z</time>
      </trkpt>
      <trkpt lat="50.5058" lon="3.2313">
        <ele>52.17</ele>
        <time>2025-05-17T23:22:19.739Z</time>
      </trkpt>
      <trkpt lat="50.50584" lon="3.23121">
        <ele>52.14</ele>
        <time>2025-05-17T23:22:26.999Z</time>
      </trkpt>
      <trkpt lat="50.50587" lon="3.23111">
        <ele>52.12</ele>
        <time>2025-05-17T23:22:34.260Z</time>
      </trkpt>
      <trkpt lat="50.5059" lon="3.231">
        <ele>52.09</ele>
        <time>2025-05-17T23:22:41.522Z</time>
      </trkpt>
      <trkpt lat="50.50594" lon="3.2309">
        <ele>52.07</ele>
        <time>2025-05-17T23:22:48.786Z</time>
      </trkpt>
      <trkpt lat="50.50597" lon="3.2308">
        <ele>52.07</ele>
        <time>2025-05-17T23:22:56.051Z</time>
      </trkpt>
      <trkpt lat="50.50601" lon="3.2307">
        <ele>52.06</ele>
        <time>2025-05-17T23:23:03.317Z</time>
      </trkpt>
      <trkpt lat="50.50604" lon="3.2306">
        <ele>52.05</ele>
        <time>2025-05-17T23:23:10.584Z</time>
      </trkpt>
      <trkpt lat="50.50608" lon="3.2305">
        <ele>52.04</ele>
        <time>2025-05-17T23:23:17.853Z</time>
      </trkpt>
      <trkpt lat="50.50611" lon="3.23039">
        <ele>52.02</ele>
        <time>2025-05-17T23:23:25.123Z</time>
      </trkpt>
      <trkpt lat="50.50614" lon="3.23028">
        <ele>51.98</ele>
        <time>2025-05-17T23:23:32.394Z</time>
      </trkpt>
      <trkpt lat="50.50617" lon="3.23017">
        <ele>51.96</ele>
        <time>2025-05-17T23:23:39.666Z</time>
      </trkpt>
      <trkpt lat="50.50619" lon="3.23006">
        <ele>51.95</ele>
        <time>2025-05-17T23:23:46.940Z</time>
      </trkpt>
      <trkpt lat="50.50621" lon="3.22995">
        <ele>51.93</ele>
        <time>2025-05-17T23:23:54.215Z</time>
      </trkpt>
      <trkpt lat="50.50623" lon="3.22983">
        <ele>51.89</ele>
        <time>2025-05-17T23:24:01.491Z</time>
      </trkpt>
      <trkpt lat="50.50625" lon="3.22972">
        <ele>51.87</ele>
        <time>2025-05-17T23:24:08.768Z</time>
      </trkpt>
      <trkpt lat="50.50627" lon="3.22961">
        <ele>51.85</ele>
        <time>2025-05-17T23:24:16.047Z</time>
      </trkpt>
      <trkpt lat="50.50629" lon="3.22949">
        <ele>51.83</ele>
        <time>2025-05-17T23:24:23.327Z</time>
      </trkpt>
      <trkpt lat="50.50631" lon="3.22939">
        <ele>51.79</ele>
        <time>2025-05-17T23:24:30.608Z</time>
      </trkpt>
      <trkpt lat="50.50632" lon="3.22928">
        <ele>51.77</ele>
        <time>2025-05-17T23:24:37.890Z</time>
      </trkpt>
      <trkpt lat="50.50634" lon="3.22918">
        <ele>51.75</ele>
        <time>2025-05-17T23:24:45.173Z</time>
      </trkpt>
      <trkpt lat="50.50635" lon="3.22907">
        <ele>51.73</ele>
        <time>2025-05-17T23:24:52.458Z</time>
      </trkpt>
      <trkpt lat="50.50637" lon="3.22897">
        <ele>51.7</ele>
        <time>2025-05-17T23:24:59.744Z</time>
      </trkpt>
      <trkpt lat="50.50645" lon="3.22805">
        <ele>51.76</ele>
        <time>2025-05-17T23:25:07.040Z</time>
      </trkpt>
      <trkpt lat="50.50646" lon="3.22793">
        <ele>51.74</ele>
        <time>2025-05-17T23:25:14.337Z</time>
      </trkpt>
      <trkpt lat="50.50646" lon="3.22781">
        <ele>51.7</ele>
        <time>2025-05-17T23:25:21.635Z</time>
      </trkpt>
      <trkpt lat="50.50645" lon="3.22769">
        <ele>51.67</ele>
        <time>2025-05-17T23:25:28.935Z</time>
      </trkpt>
      <trkpt lat="50.50645" lon="3.22757">
        <ele>51.63</ele>
        <time>2025-05-17T23:25:36.236Z</time>
      </trkpt>
      <trkpt lat="50.50644" lon="3.22745">
        <ele>51.58</ele>
        <time>2025-05-17T23:25:43.538Z</time>
      </trkpt>
      <trkpt lat="50.50644" lon="3.22733">
        <ele>51.52</ele>
        <time>2025-05-17T23:25:50.841Z</time>
      </trkpt>
      <trkpt lat="50.50644" lon="3.22721">
        <ele>51.45</ele>
        <time>2025-05-17T23:25:58.146Z</time>
      </trkpt>
      <trkpt lat="50.50674" lon="3.22583">
        <ele>51.3</ele>
        <time>2025-05-17T23:26:05.466Z</time>
      </trkpt>
      <trkpt lat="50.50678" lon="3.22572">
        <ele>51.24</ele>
        <time>2025-05-17T23:26:12.788Z</time>
      </trkpt>
      <trkpt lat="50.50682" lon="3.22562">
        <ele>51.17</ele>
        <time>2025-05-17T23:26:20.111Z</time>
      </trkpt>
      <trkpt lat="50.50687" lon="3.22552">
        <ele>51.12</ele>
        <time>2025-05-17T23:26:27.435Z</time>
      </trkpt>
      <trkpt lat="50.50693" lon="3.22544">
        <ele>51.08</ele>
        <time>2025-05-17T23:26:34.761Z</time>
      </trkpt>
      <trkpt lat="50.50699" lon="3.22538">
        <ele>51.03</ele>
        <time>2025-05-17T23:26:42.088Z</time>
      </trkpt>
      <trkpt lat="50.50706" lon="3.22533">
        <ele>50.99</ele>
        <time>2025-05-17T23:26:49.416Z</time>
      </trkpt>
      <trkpt lat="50.50712" lon="3.22527">
        <ele>50.95</ele>
        <time>2025-05-17T23:26:56.745Z</time>
      </trkpt>
      <trkpt lat="50.50718" lon="3.2252">
        <ele>50.9</ele>
        <time>2025-05-17T23:27:04.076Z</time>
      </trkpt>
      <trkpt lat="50.50723" lon="3.22512">
        <ele>50.86</ele>
        <time>2025-05-17T23:27:11.408Z</time>
      </trkpt>
      <trkpt lat="50.50728" lon="3.22503">
        <ele>50.81</ele>
        <time>2025-05-17T23:27:18.741Z</time>
      </trkpt>
      <trkpt lat="50.50732" lon="3.22494">
        <ele>50.76</ele>
        <time>2025-05-17T23:27:26.075Z</time>
      </trkpt>
      <trkpt lat="50.50737" lon="3.22484">
        <ele>50.7</ele>
        <time>2025-05-17T23:27:33.411Z</time>
      </trkpt>
      <trkpt lat="50.50741" lon="3.22475">
        <ele>50.63</ele>
        <time>2025-05-17T23:27:40.748Z</time>
      </trkpt>
      <trkpt lat="50.50744" lon="3.22465">
        <ele>50.56</ele>
        <time>2025-05-17T23:27:48.086Z</time>
      </trkpt>
      <trkpt lat="50.50748" lon="3.22456">
        <ele>50.5</ele>
        <time>2025-05-17T23:27:55.425Z</time>
      </trkpt>
      <trkpt lat="50.50753" lon="3.22447">
        <ele>50.43</ele>
        <time>2025-05-17T23:28:02.765Z</time>
      </trkpt>
      <trkpt lat="50.50757" lon="3.22439">
        <ele>50.36</ele>
        <time>2025-05-17T23:28:10.106Z</time>
      </trkpt>
      <trkpt lat="50.50762" lon="3.22434">
        <ele>50.3</ele>
        <time>2025-05-17T23:28:17.448Z</time>
      </trkpt>
      <trkpt lat="50.50768" lon="3.22431">
        <ele>50.25</ele>
        <time>2025-05-17T23:28:24.791Z</time>
      </trkpt>
      <trkpt lat="50.50773" lon="3.22429">
        <ele>50.19</ele>
        <time>2025-05-17T23:28:32.135Z</time>
      </trkpt>
      <trkpt lat="50.50777" lon="3.2243">
        <ele>50.13</ele>
        <time>2025-05-17T23:28:39.480Z</time>
      </trkpt>
      <trkpt lat="50.50779" lon="3.22431">
        <ele>50.07</ele>
        <time>2025-05-17T23:28:46.825Z</time>
      </trkpt>
      <trkpt lat="50.50779" lon="3.22431">
        <ele>50.01</ele>
        <time>2025-05-17T23:28:54.170Z</time>
      </trkpt>
      <trkpt lat="50.50786" lon="3.22432">
        <ele>49.94</ele>
        <time>2025-05-17T23:29:01.517Z</time>
      </trkpt>
      <trkpt lat="50.50789" lon="3.22432">
        <ele>49.87</ele>
        <time>2025-05-17T23:29:08.864Z</time>
      </trkpt>
      <trkpt lat="50.50791" lon="3.2243">
        <ele>49.81</ele>
        <time>2025-05-17T23:29:16.211Z</time>
      </trkpt>
      <trkpt lat="50.50793" lon="3.22428">
        <ele>49.75</ele>
        <time>2025-05-17T23:29:23.559Z</time>
      </trkpt>
      <trkpt lat="50.50795" lon="3.22426">
        <ele>49.69</ele>
        <time>2025-05-17T23:29:30.907Z</time>
      </trkpt>
      <trkpt lat="50.50796" lon="3.22424">
        <ele>49.63</ele>
        <time>2025-05-17T23:29:38.256Z</time>
      </trkpt>
      <trkpt lat="50.50796" lon="3.22423">
        <ele>49.58</ele>
        <time>2025-05-17T23:29:45.605Z</time>
      </trkpt>
      <trkpt lat="50.50799" lon="3.22414">
        <ele>49.52</ele>
        <time>2025-05-17T23:29:52.955Z</time>
      </trkpt>
      <trkpt lat="50.508" lon="3.22411">
        <ele>49.48</ele>
        <time>2025-05-17T23:30:00.305Z</time>
      </trkpt>
      <trkpt lat="50.50802" lon="3.22407">
        <ele>49.44</ele>
        <time>2025-05-17T23:30:07.656Z</time>
      </trkpt>
      <trkpt lat="50.50803" lon="3.22403">
        <ele>49.41</ele>
        <time>2025-05-17T23:30:15.007Z</time>
      </trkpt>
      <trkpt lat="50.50805" lon="3.22398">
        <ele>49.39</ele>
        <time>2025-05-17T23:30:22.359Z</time>
      </trkpt>
      <trkpt lat="50.50806" lon="3.22393">
        <ele>49.38</ele>
        <time>2025-05-17T23:30:29.711Z</time>
      </trkpt>
      <trkpt lat="50.50808" lon="3.22388">
        <ele>49.37</ele>
        <time>2025-05-17T23:30:37.064Z</time>
      </trkpt>
      <trkpt lat="50.50809" lon="3.22383">
        <ele>49.37</ele>
        <time>2025-05-17T23:30:44.417Z</time>
      </trkpt>
      <trkpt lat="50.50811" lon="3.22377">
        <ele>49.37</ele>
        <time>2025-05-17T23:30:51.771Z</time>
      </trkpt>
      <trkpt lat="50.50813" lon="3.22372">
        <ele>49.38</ele>
        <time>2025-05-17T23:30:59.126Z</time>
      </trkpt>
      <trkpt lat="50.50814" lon="3.22366">
        <ele>49.4</ele>
        <time>2025-05-17T23:31:06.481Z</time>
      </trkpt>
      <trkpt lat="50.50816" lon="3.22361">
        <ele>49.43</ele>
        <time>2025-05-17T23:31:13.837Z</time>
      </trkpt>
      <trkpt lat="50.50817" lon="3.22356">
        <ele>49.47</ele>
        <time>2025-05-17T23:31:21.194Z</time>
      </trkpt>
      <trkpt lat="50.50818" lon="3.22352">
        <ele>49.51</ele>
        <time>2025-05-17T23:31:28.551Z</time>
      </trkpt>
      <trkpt lat="50.50818" lon="3.2235">
        <ele>49.56</ele>
        <time>2025-05-17T23:31:35.908Z</time>
      </trkpt>
      <trkpt lat="50.50819" lon="3.2235">
        <ele>49.6</ele>
        <time>2025-05-17T23:31:43.265Z</time>
      </trkpt>
      <trkpt lat="50.50819" lon="3.22338">
        <ele>49.66</ele>
        <time>2025-05-17T23:31:50.624Z</time>
      </trkpt>
      <trkpt lat="50.50819" lon="3.22334">
        <ele>49.71</ele>
        <time>2025-05-17T23:31:57.983Z</time>
      </trkpt>
      <trkpt lat="50.50818" lon="3.22331">
        <ele>49.76</ele>
        <time>2025-05-17T23:32:05.342Z</time>
      </trkpt>
      <trkpt lat="50.50817" lon="3.22327">
        <ele>49.82</ele>
        <time>2025-05-17T23:32:12.702Z</time>
      </trkpt>
      <trkpt lat="50.50817" lon="3.22325">
        <ele>49.87</ele>
        <time>2025-05-17T23:32:20.062Z</time>
      </trkpt>
      <trkpt lat="50.50816" lon="3.22324">
        <ele>49.92</ele>
        <time>2025-05-17T23:32:27.422Z</time>
      </trkpt>
      <trkpt lat="50.50816" lon="3.22324">
        <ele>49.98</ele>
        <time>2025-05-17T23:32:34.782Z</time>
      </trkpt>
      <trkpt lat="50.5081" lon="3.22315">
        <ele>50.03</ele>
        <time>2025-05-17T23:32:42.144Z</time>
      </trkpt>
      <trkpt lat="50.50808" lon="3.22312">
        <ele>50.08</ele>
        <time>2025-05-17T23:32:49.506Z</time>
      </trkpt>
      <trkpt lat="50.50805" lon="3.2231">
        <ele>50.13</ele>
        <time>2025-05-17T23:32:56.869Z</time>
      </trkpt>
      <trkpt lat="50.50802" lon="3.22307">
        <ele>50.19</ele>
        <time>2025-05-17T23:33:04.232Z</time>
      </trkpt>
      <trkpt lat="50.50799" lon="3.22305">
        <ele>50.24</ele>
        <time>2025-05-17T23:33:11.596Z</time>
      </trkpt>
      <trkpt lat="50.50796" lon="3.22302">
        <ele>50.28</ele>
        <time>2025-05-17T23:33:18.960Z</time>
      </trkpt>
      <trkpt lat="50.50792" lon="3.22299">
        <ele>50.33</ele>
        <time>2025-05-17T23:33:26.325Z</time>
      </trkpt>
      <trkpt lat="50.50788" lon="3.22296">
        <ele>50.37</ele>
        <time>2025-05-17T23:33:33.691Z</time>
      </trkpt>
      <trkpt lat="50.50784" lon="3.22293">
        <ele>50.4</ele>
        <time>2025-05-17T23:33:41.058Z</time>
      </trkpt>
      <trkpt lat="50.50779" lon="3.22289">
        <ele>50.43</ele>
        <time>2025-05-17T23:33:48.426Z</time>
      </trkpt>
      <trkpt lat="50.50774" lon="3.22285">
        <ele>50.45</ele>
        <time>2025-05-17T23:33:55.794Z</time>
      </trkpt>
      <trkpt lat="50.50769" lon="3.2228">
        <ele>50.47</ele>
        <time>2025-05-17T23:34:03.163Z</time>
      </trkpt>
      <trkpt lat="50.50763" lon="3.22275">
        <ele>50.47</ele>
        <time>2025-05-17T23:34:10.534Z</time>
      </trkpt>
      <trkpt lat="50.50757" lon="3.2227">
        <ele>50.47</ele>
        <time>2025-05-17T23:34:17.906Z</time>
      </trkpt>
      <trkpt lat="50.50751" lon="3.22264">
        <ele>50.47</ele>
        <time>2025-05-17T23:34:25.279Z</time>
      </trkpt>
      <trkpt lat="50.50745" lon="3.22258">
        <ele>50.45</ele>
        <time>2025-05-17T23:34:32.653Z</time>
      </trkpt>
      <trkpt lat="50.50738" lon="3.22252">
        <ele>50.43</ele>
        <time>2025-05-17T23:34:40.028Z</time>
      </trkpt>
      <trkpt lat="50.50731" lon="3.22246">
        <ele>50.4</ele>
        <time>2025-05-17T23:34:47.405Z</time>
      </trkpt>
      <trkpt lat="50.50724" lon="3.22241">
        <ele>50.36</ele>
        <time>2025-05-17T23:34:54.783Z</time>
      </trkpt>
      <trkpt lat="50.50717" lon="3.22236">
        <ele>50.33</ele>
        <time>2025-05-17T23:35:02.162Z</time>
      </trkpt>
      <trkpt lat="50.50709" lon="3.22231">
        <ele>50.28</ele>
        <time>2025-05-17T23:35:09.543Z</time>
      </trkpt>
      <trkpt lat="50.50702" lon="3.22226">
        <ele>50.24</ele>
        <time>2025-05-17T23:35:16.925Z</time>
      </trkpt>
      <trkpt lat="50.50694" lon="3.22221">
        <ele>50.2</ele>
        <time>2025-05-17T23:35:24.309Z</time>
      </trkpt>
      <trkpt lat="50.50686" lon="3.22216">
        <ele>50.16</ele>
        <time>2025-05-17T23:35:31.694Z</time>
      </trkpt>
      <trkpt lat="50.50678" lon="3.2221">
        <ele>50.13</ele>
        <time>2025-05-17T23:35:39.080Z</time>
      </trkpt>
      <trkpt lat="50.50671" lon="3.22205">
        <ele>50.11</ele>
        <time>2025-05-17T23:35:46.468Z</time>
      </trkpt>
      <trkpt lat="50.50663" lon="3.22199">
        <ele>50.08</ele>
        <time>2025-05-17T23:35:53.857Z</time>
      </trkpt>
      <trkpt lat="50.50655" lon="3.22193">
        <ele>50.05</ele>
        <time>2025-05-17T23:36:01.248Z</time>
      </trkpt>
      <trkpt lat="50.50648" lon="3.22186">
        <ele>50.02</ele>
        <time>2025-05-17T23:36:08.640Z</time>
      </trkpt>
      <trkpt lat="50.50641" lon="3.22178">
        <ele>49.99</ele>
        <time>2025-05-17T23:36:16.034Z</time>
      </trkpt>
      <trkpt lat="50.50634" lon="3.2217">
        <ele>49.95</ele>
        <time>2025-05-17T23:36:23.429Z</time>
      </trkpt>
      <trkpt lat="50.50627" lon="3.22161">
        <ele>49.9</ele>
        <time>2025-05-17T23:36:30.826Z</time>
      </trkpt>
      <trkpt lat="50.50621" lon="3.22152">
        <ele>49.85</ele>
        <time>2025-05-17T23:36:38.224Z</time>
      </trkpt>
      <trkpt lat="50.50614" lon="3.22143">
        <ele>49.79</ele>
        <time>2025-05-17T23:36:45.624Z</time>
      </trkpt>
      <trkpt lat="50.50607" lon="3.22134">
        <ele>49.73</ele>
        <time>2025-05-17T23:36:53.025Z</time>
      </trkpt>
      <trkpt lat="50.50601" lon="3.22125">
        <ele>49.66</ele>
        <time>2025-05-17T23:37:00.427Z</time>
      </trkpt>
      <trkpt lat="50.50594" lon="3.22116">
        <ele>49.6</ele>
        <time>2025-05-17T23:37:07.831Z</time>
      </trkpt>
      <trkpt lat="50.50587" lon="3.22108">
        <ele>49.53</ele>
        <time>2025-05-17T23:37:15.236Z</time>
      </trkpt>
      <trkpt lat="50.50579" lon="3.22101">
        <ele>49.47</ele>
        <time>2025-05-17T23:37:22.643Z</time>
      </trkpt>
      <trkpt lat="50.50572" lon="3.22094">
        <ele>49.4</ele>
        <time>2025-05-17T23:37:30.051Z</time>
      </trkpt>
      <trkpt lat="50.50564" lon="3.22087">
        <ele>49.34</ele>
        <time>2025-05-17T23:37:37.461Z</time>
      </trkpt>
      <trkpt lat="50.50556" lon="3.22081">
        <ele>49.27</ele>
        <time>2025-05-17T23:37:44.872Z</time>
      </trkpt>
      <trkpt lat="50.50548" lon="3.22075">
        <ele>49.23</ele>
        <time>2025-05-17T23:37:52.285Z</time>
      </trkpt>
      <trkpt lat="50.50541" lon="3.2207">
        <ele>49.2</ele>
        <time>2025-05-17T23:37:59.699Z</time>
      </trkpt>
      <trkpt lat="50.50533" lon="3.22065">
        <ele>49.17</ele>
        <time>2025-05-17T23:38:07.115Z</time>
      </trkpt>
      <trkpt lat="50.50525" lon="3.22061">
        <ele>49.12</ele>
        <time>2025-05-17T23:38:14.532Z</time>
      </trkpt>
      <trkpt lat="50.50517" lon="3.22058">
        <ele>49.06</ele>
        <time>2025-05-17T23:38:21.950Z</time>
      </trkpt>
      <trkpt lat="50.50509" lon="3.22053">
        <ele>49</ele>
        <time>2025-05-17T23:38:29.370Z</time>
      </trkpt>
      <trkpt lat="50.50502" lon="3.22049">
        <ele>48.94</ele>
        <time>2025-05-17T23:38:36.791Z</time>
      </trkpt>
      <trkpt lat="50.50495" lon="3.22045">
        <ele>48.87</ele>
        <time>2025-05-17T23:38:44.213Z</time>
      </trkpt>
      <trkpt lat="50.50487" lon="3.22042">
        <ele>48.8</ele>
        <time>2025-05-17T23:38:51.637Z</time>
      </trkpt>
      <trkpt lat="50.5048" lon="3.22039">
        <ele>48.73</ele>
        <time>2025-05-17T23:38:59.062Z</time>
      </trkpt>
      <trkpt lat="50.50472" lon="3.22036">
        <ele>48.65</ele>
        <time>2025-05-17T23:39:06.488Z</time>
      </trkpt>
      <trkpt lat="50.50464" lon="3.22033">
        <ele>48.59</ele>
        <time>2025-05-17T23:39:13.916Z</time>
      </trkpt>
      <trkpt lat="50.50456" lon="3.22029">
        <ele>48.52</ele>
        <time>2025-05-17T23:39:21.345Z</time>
      </trkpt>
      <trkpt lat="50.50447" lon="3.22024">
        <ele>48.45</ele>
        <time>2025-05-17T23:39:28.776Z</time>
      </trkpt>
      <trkpt lat="50.50439" lon="3.22019">
        <ele>48.37</ele>
        <time>2025-05-17T23:39:36.208Z</time>
      </trkpt>
      <trkpt lat="50.50431" lon="3.22013">
        <ele>48.29</ele>
        <time>2025-05-17T23:39:43.642Z</time>
      </trkpt>
      <trkpt lat="50.50423" lon="3.22008">
        <ele>48.2</ele>
        <time>2025-05-17T23:39:51.077Z</time>
      </trkpt>
      <trkpt lat="50.50415" lon="3.22002">
        <ele>48.1</ele>
        <time>2025-05-17T23:39:58.513Z</time>
      </trkpt>
      <trkpt lat="50.50408" lon="3.21997">
        <ele>48</ele>
        <time>2025-05-17T23:40:05.951Z</time>
      </trkpt>
      <trkpt lat="50.504" lon="3.21991">
        <ele>47.91</ele>
        <time>2025-05-17T23:40:13.390Z</time>
      </trkpt>
      <trkpt lat="50.50392" lon="3.21985">
        <ele>47.81</ele>
        <time>2025-05-17T23:40:20.831Z</time>
      </trkpt>
      <trkpt lat="50.50384" lon="3.21978">
        <ele>47.71</ele>
        <time>2025-05-17T23:40:28.273Z</time>
      </trkpt>
      <trkpt lat="50.50377" lon="3.21972">
        <ele>47.62</ele>
        <time>2025-05-17T23:40:35.717Z</time>
      </trkpt>
      <trkpt lat="50.50369" lon="3.21965">
        <ele>47.52</ele>
        <time>2025-05-17T23:40:43.162Z</time>
      </trkpt>
      <trkpt lat="50.50361" lon="3.21959">
        <ele>47.4</ele>
        <time>2025-05-17T23:40:50.609Z</time>
      </trkpt>
      <trkpt lat="50.50353" lon="3.21953">
        <ele>47.3</ele>
        <time>2025-05-17T23:40:58.057Z</time>
      </trkpt>
      <trkpt lat="50.50345" lon="3.21947">
        <ele>47.18</ele>
        <time>2025-05-17T23:41:05.507Z</time>
      </trkpt>
      <trkpt lat="50.50338" lon="3.2194">
        <ele>47.05</ele>
        <time>2025-05-17T23:41:12.958Z</time>
      </trkpt>
      <trkpt lat="50.5033" lon="3.21934">
        <ele>46.9</ele>
        <time>2025-05-17T23:41:20.411Z</time>
      </trkpt>
      <trkpt lat="50.50322" lon="3.21928">
        <ele>46.72</ele>
        <time>2025-05-17T23:41:27.865Z</time>
      </trkpt>
      <trkpt lat="50.50314" lon="3.21921">
        <ele>46.54</ele>
        <time>2025-05-17T23:41:35.321Z</time>
      </trkpt>
      <trkpt lat="50.50307" lon="3.21915">
        <ele>46.34</ele>
        <time>2025-05-17T23:41:42.778Z</time>
      </trkpt>
      <trkpt lat="50.50299" lon="3.21909">
        <ele>46.11</ele>
        <time>2025-05-17T23:41:50.236Z</time>
      </trkpt>
      <trkpt lat="50.50292" lon="3.21903">
        <ele>45.86</ele>
        <time>2025-05-17T23:41:57.696Z</time>
      </trkpt>
      <trkpt lat="50.50284" lon="3.21897">
        <ele>45.61</ele>
        <time>2025-05-17T23:42:05.157Z</time>
      </trkpt>
      <trkpt lat="50.50277" lon="3.21891">
        <ele>45.35</ele>
        <time>2025-05-17T23:42:12.620Z</time>
      </trkpt>
      <trkpt lat="50.5027" lon="3.21884">
        <ele>45.08</ele>
        <time>2025-05-17T23:42:20.084Z</time>
      </trkpt>
      <trkpt lat="50.50263" lon="3.21878">
        <ele>44.8</ele>
        <time>2025-05-17T23:42:27.549Z</time>
      </trkpt>
      <trkpt lat="50.50255" lon="3.21872">
        <ele>44.52</ele>
        <time>2025-05-17T23:42:35.016Z</time>
      </trkpt>
      <trkpt lat="50.50248" lon="3.21866">
        <ele>44.25</ele>
        <time>2025-05-17T23:42:42.484Z</time>
      </trkpt>
      <trkpt lat="50.50241" lon="3.2186">
        <ele>44</ele>
        <time>2025-05-17T23:42:49.953Z</time>
      </trkpt>
      <trkpt lat="50.50235" lon="3.21854">
        <ele>43.76</ele>
        <time>2025-05-17T23:42:57.424Z</time>
      </trkpt>
      <trkpt lat="50.50228" lon="3.21847">
        <ele>43.53</ele>
        <time>2025-05-17T23:43:04.896Z</time>
      </trkpt>
      <trkpt lat="50.50222" lon="3.21841">
        <ele>43.3</ele>
        <time>2025-05-17T23:43:12.369Z</time>
      </trkpt>
      <trkpt lat="50.50215" lon="3.21835">
        <ele>43.09</ele>
        <time>2025-05-17T23:43:19.844Z</time>
      </trkpt>
      <trkpt lat="50.50209" lon="3.21829">
        <ele>42.89</ele>
        <time>2025-05-17T23:43:27.320Z</time>
      </trkpt>
      <trkpt lat="50.50202" lon="3.21823">
        <ele>42.7</ele>
        <time>2025-05-17T23:43:34.797Z</time>
      </trkpt>
      <trkpt lat="50.50196" lon="3.21817">
        <ele>42.53</ele>
        <time>2025-05-17T23:43:42.275Z</time>
      </trkpt>
      <trkpt lat="50.5019" lon="3.21812">
        <ele>42.38</ele>
        <time>2025-05-17T23:43:49.754Z</time>
      </trkpt>
      <trkpt lat="50.50185" lon="3.21807">
        <ele>42.26</ele>
        <time>2025-05-17T23:43:57.234Z</time>
      </trkpt>
      <trkpt lat="50.5018" lon="3.21803">
        <ele>42.16</ele>
        <time>2025-05-17T23:44:04.715Z</time>
      </trkpt>
      <trkpt lat="50.50177" lon="3.21799">
        <ele>42.08</ele>
        <time>2025-05-17T23:44:12.197Z</time>
      </trkpt>
      <trkpt lat="50.50175" lon="3.21797">
        <ele>42.02</ele>
        <time>2025-05-17T23:44:19.679Z</time>
      </trkpt>
      <trkpt lat="50.50174" lon="3.21796">
        <ele>41.97</ele>
        <time>2025-05-17T23:44:27.162Z</time>
      </trkpt>
      <trkpt lat="50.50169" lon="3.21789">
        <ele>41.96</ele>
        <time>2025-05-17T23:44:34.646Z</time>
      </trkpt>
      <trkpt lat="50.50168" lon="3.21786">
        <ele>41.96</ele>
        <time>2025-05-17T23:44:42.130Z</time>
      </trkpt>
      <trkpt lat="50.50168" lon="3.21784">
        <ele>41.97</ele>
        <time>2025-05-17T23:44:49.614Z</time>
      </trkpt>
      <trkpt lat="50.50168" lon="3.21783">
        <ele>42.01</ele>
        <time>2025-05-17T23:44:57.098Z</time>
      </trkpt>
      <trkpt lat="50.50184" lon="3.21738">
        <ele>42.03</ele>
        <time>2025-05-17T23:45:04.588Z</time>
      </trkpt>
      <trkpt lat="50.50183" lon="3.21731">
        <ele>42.1</ele>
        <time>2025-05-17T23:45:12.079Z</time>
      </trkpt>
      <trkpt lat="50.50181" lon="3.21724">
        <ele>42.19</ele>
        <time>2025-05-17T23:45:19.571Z</time>
      </trkpt>
      <trkpt lat="50.50177" lon="3.21716">
        <ele>42.29</ele>
        <time>2025-05-17T23:45:27.064Z</time>
      </trkpt>
      <trkpt lat="50.50173" lon="3.2171">
        <ele>42.41</ele>
        <time>2025-05-17T23:45:34.558Z</time>
      </trkpt>
      <trkpt lat="50.50107" lon="3.21619">
        <ele>42.64</ele>
        <time>2025-05-17T23:45:42.066Z</time>
      </trkpt>
      <trkpt lat="50.50101" lon="3.2161">
        <ele>42.79</ele>
        <time>2025-05-17T23:45:49.576Z</time>
      </trkpt>
      <trkpt lat="50.50096" lon="3.21602">
        <ele>42.94</ele>
        <time>2025-05-17T23:45:57.087Z</time>
      </trkpt>
      <trkpt lat="50.5009" lon="3.21593">
        <ele>43.1</ele>
        <time>2025-05-17T23:46:04.599Z</time>
      </trkpt>
      <trkpt lat="50.50084" lon="3.21585">
        <ele>43.27</ele>
        <time>2025-05-17T23:46:12.113Z</time>
      </trkpt>
      <trkpt lat="50.50078" lon="3.21576">
        <ele>43.44</ele>
        <time>2025-05-17T23:46:19.628Z</time>
      </trkpt>
      <trkpt lat="50.50073" lon="3.21567">
        <ele>43.59</ele>
        <time>2025-05-17T23:46:27.144Z</time>
      </trkpt>
      <trkpt lat="50.50068" lon="3.21558">
        <ele>43.74</ele>
        <time>2025-05-17T23:46:34.662Z</time>
      </trkpt>
      <trkpt lat="50.50062" lon="3.21549">
        <ele>43.89</ele>
        <time>2025-05-17T23:46:42.181Z</time>
      </trkpt>
      <trkpt lat="50.50058" lon="3.21539">
        <ele>44.03</ele>
        <time>2025-05-17T23:46:49.701Z</time>
      </trkpt>
      <trkpt lat="50.50055" lon="3.21528">
        <ele>44.18</ele>
        <time>2025-05-17T23:46:57.222Z</time>
      </trkpt>
      <trkpt lat="50.50055" lon="3.21517">
        <ele>44.32</ele>
        <time>2025-05-17T23:47:04.745Z</time>
      </trkpt>
      <trkpt lat="50.50056" lon="3.21505">
        <ele>44.44</ele>
        <time>2025-05-17T23:47:12.269Z</time>
      </trkpt>
      <trkpt lat="50.50059" lon="3.21493">
        <ele>44.56</ele>
        <time>2025-05-17T23:47:19.794Z</time>
      </trkpt>
      <trkpt lat="50.50063" lon="3.21482">
        <ele>44.7</ele>
        <time>2025-05-17T23:47:27.321Z</time>
      </trkpt>
      <trkpt lat="50.50066" lon="3.2147">
        <ele>44.82</ele>
        <time>2025-05-17T23:47:34.849Z</time>
      </trkpt>
      <trkpt lat="50.50069" lon="3.21459">
        <ele>44.95</ele>
        <time>2025-05-17T23:47:42.378Z</time>
      </trkpt>
      <trkpt lat="50.50073" lon="3.21447">
        <ele>45.07</ele>
        <time>2025-05-17T23:47:49.909Z</time>
      </trkpt>
      <trkpt lat="50.50076" lon="3.21436">
        <ele>45.17</ele>
        <time>2025-05-17T23:47:57.441Z</time>
      </trkpt>
      <trkpt lat="50.50079" lon="3.21425">
        <ele>45.31</ele>
        <time>2025-05-17T23:48:04.974Z</time>
      </trkpt>
      <trkpt lat="50.50082" lon="3.21414">
        <ele>45.46</ele>
        <time>2025-05-17T23:48:12.509Z</time>
      </trkpt>
      <trkpt lat="50.50086" lon="3.21404">
        <ele>45.61</ele>
        <time>2025-05-17T23:48:20.045Z</time>
      </trkpt>
      <trkpt lat="50.50089" lon="3.21393">
        <ele>45.76</ele>
        <time>2025-05-17T23:48:27.582Z</time>
      </trkpt>
      <trkpt lat="50.50092" lon="3.21382">
        <ele>45.91</ele>
        <time>2025-05-17T23:48:35.120Z</time>
      </trkpt>
      <trkpt lat="50.50095" lon="3.21371">
        <ele>46.05</ele>
        <time>2025-05-17T23:48:42.660Z</time>
      </trkpt>
      <trkpt lat="50.50098" lon="3.2136">
        <ele>46.19</ele>
        <time>2025-05-17T23:48:50.201Z</time>
      </trkpt>
      <trkpt lat="50.50102" lon="3.21349">
        <ele>46.35</ele>
        <time>2025-05-17T23:48:57.743Z</time>
      </trkpt>
      <trkpt lat="50.50105" lon="3.21338">
        <ele>46.48</ele>
        <time>2025-05-17T23:49:05.287Z</time>
      </trkpt>
      <trkpt lat="50.50108" lon="3.21327">
        <ele>46.6</ele>
        <time>2025-05-17T23:49:12.832Z</time>
      </trkpt>
      <trkpt lat="50.50112" lon="3.21316">
        <ele>46.75</ele>
        <time>2025-05-17T23:49:20.378Z</time>
      </trkpt>
      <trkpt lat="50.50115" lon="3.21304">
        <ele>46.91</ele>
        <time>2025-05-17T23:49:27.926Z</time>
      </trkpt>
      <trkpt lat="50.50118" lon="3.21293">
        <ele>47.03</ele>
        <time>2025-05-17T23:49:35.475Z</time>
      </trkpt>
      <trkpt lat="50.50121" lon="3.21282">
        <ele>47.15</ele>
        <time>2025-05-17T23:49:43.025Z</time>
      </trkpt>
      <trkpt lat="50.50124" lon="3.21271">
        <ele>47.25</ele>
        <time>2025-05-17T23:49:50.577Z</time>
      </trkpt>
      <trkpt lat="50.50127" lon="3.2126">
        <ele>47.33</ele>
        <time>2025-05-17T23:49:58.130Z</time>
      </trkpt>
      <trkpt lat="50.50131" lon="3.21249">
        <ele>47.41</ele>
        <time>2025-05-17T23:50:05.684Z</time>
      </trkpt>
      <trkpt lat="50.50134" lon="3.21238">
        <ele>47.49</ele>
        <time>2025-05-17T23:50:13.239Z</time>
      </trkpt>
      <trkpt lat="50.50136" lon="3.21228">
        <ele>47.53</ele>
        <time>2025-05-17T23:50:20.796Z</time>
      </trkpt>
      <trkpt lat="50.50139" lon="3.21217">
        <ele>47.55</ele>
        <time>2025-05-17T23:50:28.354Z</time>
      </trkpt>
      <trkpt lat="50.50143" lon="3.21207">
        <ele>47.59</ele>
        <time>2025-05-17T23:50:35.913Z</time>
      </trkpt>
      <trkpt lat="50.50146" lon="3.21198">
        <ele>47.62</ele>
        <time>2025-05-17T23:50:43.473Z</time>
      </trkpt>
      <trkpt lat="50.50148" lon="3.2119">
        <ele>47.61</ele>
        <time>2025-05-17T23:50:51.034Z</time>
      </trkpt>
      <trkpt lat="50.50152" lon="3.21181">
        <ele>47.58</ele>
        <time>2025-05-17T23:50:58.596Z</time>
      </trkpt>
      <trkpt lat="50.50155" lon="3.21171">
        <ele>47.52</ele>
        <time>2025-05-17T23:51:06.159Z</time>
      </trkpt>
      <trkpt lat="50.50158" lon="3.2116">
        <ele>47.46</ele>
        <time>2025-05-17T23:51:13.724Z</time>
      </trkpt>
      <trkpt lat="50.50161" lon="3.21148">
        <ele>47.38</ele>
        <time>2025-05-17T23:51:21.290Z</time>
      </trkpt>
      <trkpt lat="50.50165" lon="3.21137">
        <ele>47.3</ele>
        <time>2025-05-17T23:51:28.857Z</time>
      </trkpt>
      <trkpt lat="50.50168" lon="3.21125">
        <ele>47.19</ele>
        <time>2025-05-17T23:51:36.426Z</time>
      </trkpt>
      <trkpt lat="50.50172" lon="3.21114">
        <ele>47.07</ele>
        <time>2025-05-17T23:51:43.996Z</time>
      </trkpt>
      <trkpt lat="50.50175" lon="3.21103">
        <ele>46.96</ele>
        <time>2025-05-17T23:51:51.567Z</time>
      </trkpt>
      <trkpt lat="50.50178" lon="3.21092">
        <ele>46.84</ele>
        <time>2025-05-17T23:51:59.140Z</time>
      </trkpt>
      <trkpt lat="50.50181" lon="3.2108">
        <ele>46.71</ele>
        <time>2025-05-17T23:52:06.714Z</time>
      </trkpt>
      <trkpt lat="50.50184" lon="3.21068">
        <ele>46.59</ele>
        <time>2025-05-17T23:52:14.290Z</time>
      </trkpt>
      <trkpt lat="50.50188" lon="3.21056">
        <ele>46.48</ele>
        <time>2025-05-17T23:52:21.867Z</time>
      </trkpt>
      <trkpt lat="50.50191" lon="3.21045">
        <ele>46.38</ele>
        <time>2025-05-17T23:52:29.445Z</time>
      </trkpt>
      <trkpt lat="50.50195" lon="3.21034">
        <ele>46.3</ele>
        <time>2025-05-17T23:52:37.025Z</time>
      </trkpt>
      <trkpt lat="50.50199" lon="3.21022">
        <ele>46.21</ele>
        <time>2025-05-17T23:52:44.606Z</time>
      </trkpt>
      <trkpt lat="50.50202" lon="3.21011">
        <ele>46.12</ele>
        <time>2025-05-17T23:52:52.188Z</time>
      </trkpt>
      <trkpt lat="50.50206" lon="3.21">
        <ele>46.05</ele>
        <time>2025-05-17T23:52:59.772Z</time>
      </trkpt>
      <trkpt lat="50.50209" lon="3.20989">
        <ele>46.01</ele>
        <time>2025-05-17T23:53:07.357Z</time>
      </trkpt>
      <trkpt lat="50.50214" lon="3.20978">
        <ele>45.96</ele>
        <time>2025-05-17T23:53:14.943Z</time>
      </trkpt>
      <trkpt lat="50.50218" lon="3.20968">
        <ele>45.94</ele>
        <time>2025-05-17T23:53:22.531Z</time>
      </trkpt>
      <trkpt lat="50.50221" lon="3.20957">
        <ele>45.93</ele>
        <time>2025-05-17T23:53:30.120Z</time>
      </trkpt>
      <trkpt lat="50.50224" lon="3.20945">
        <ele>45.92</ele>
        <time>2025-05-17T23:53:37.710Z</time>
      </trkpt>
      <trkpt lat="50.50227" lon="3.20933">
        <ele>45.91</ele>
        <time>2025-05-17T23:53:45.302Z</time>
      </trkpt>
      <trkpt lat="50.50229" lon="3.20921">
        <ele>45.89</ele>
        <time>2025-05-17T23:53:52.895Z</time>
      </trkpt>
      <trkpt lat="50.50233" lon="3.2091">
        <ele>45.87</ele>
        <time>2025-05-17T23:54:00.489Z</time>
      </trkpt>
      <trkpt lat="50.50236" lon="3.20898">
        <ele>45.84</ele>
        <time>2025-05-17T23:54:08.085Z</time>
      </trkpt>
      <trkpt lat="50.50239" lon="3.20887">
        <ele>45.85</ele>
        <time>2025-05-17T23:54:15.682Z</time>
      </trkpt>
      <trkpt lat="50.50242" lon="3.20875">
        <ele>45.86</ele>
        <time>2025-05-17T23:54:23.280Z</time>
      </trkpt>
      <trkpt lat="50.50245" lon="3.20864">
        <ele>45.88</ele>
        <time>2025-05-17T23:54:30.880Z</time>
      </trkpt>
      <trkpt lat="50.50248" lon="3.20852">
        <ele>45.92</ele>
        <time>2025-05-17T23:54:38.481Z</time>
      </trkpt>
      <trkpt lat="50.50251" lon="3.2084">
        <ele>45.98</ele>
        <time>2025-05-17T23:54:46.083Z</time>
      </trkpt>
      <trkpt lat="50.50253" lon="3.20827">
        <ele>46.05</ele>
        <time>2025-05-17T23:54:53.687Z</time>
      </trkpt>
      <trkpt lat="50.50255" lon="3.20814">
        <ele>46.12</ele>
        <time>2025-05-17T23:55:01.292Z</time>
      </trkpt>
      <trkpt lat="50.50256" lon="3.20802">
        <ele>46.2</ele>
        <time>2025-05-17T23:55:08.899Z</time>
      </trkpt>
      <trkpt lat="50.50256" lon="3.20789">
        <ele>46.28</ele>
        <time>2025-05-17T23:55:16.507Z</time>
      </trkpt>
      <trkpt lat="50.50257" lon="3.20776">
        <ele>46.37</ele>
        <time>2025-05-17T23:55:24.116Z</time>
      </trkpt>
      <trkpt lat="50.50258" lon="3.20764">
        <ele>46.45</ele>
        <time>2025-05-17T23:55:31.727Z</time>
      </trkpt>
      <trkpt lat="50.50258" lon="3.20752">
        <ele>46.52</ele>
        <time>2025-05-17T23:55:39.339Z</time>
      </trkpt>
      <trkpt lat="50.50259" lon="3.2074">
        <ele>46.59</ele>
        <time>2025-05-17T23:55:46.952Z</time>
      </trkpt>
      <trkpt lat="50.50259" lon="3.20728">
        <ele>46.66</ele>
        <time>2025-05-17T23:55:54.567Z</time>
      </trkpt>
      <trkpt lat="50.50259" lon="3.20717">
        <ele>46.73</ele>
        <time>2025-05-17T23:56:02.183Z</time>
      </trkpt>
      <trkpt lat="50.5026" lon="3.20705">
        <ele>46.79</ele>
        <time>2025-05-17T23:56:09.800Z</time>
      </trkpt>
      <trkpt lat="50.5026" lon="3.20694">
        <ele>46.85</ele>
        <time>2025-05-17T23:56:17.418Z</time>
      </trkpt>
      <trkpt lat="50.50261" lon="3.20684">
        <ele>46.92</ele>
        <time>2025-05-17T23:56:25.037Z</time>
      </trkpt>
      <trkpt lat="50.50261" lon="3.20674">
        <ele>46.99</ele>
        <time>2025-05-17T23:56:32.657Z</time>
      </trkpt>
      <trkpt lat="50.50262" lon="3.20664">
        <ele>47.06</ele>
        <time>2025-05-17T23:56:40.278Z</time>
      </trkpt>
      <trkpt lat="50.50263" lon="3.20654">
        <ele>47.13</ele>
        <time>2025-05-17T23:56:47.900Z</time>
      </trkpt>
      <trkpt lat="50.50263" lon="3.20644">
        <ele>47.19</ele>
        <time>2025-05-17T23:56:55.524Z</time>
      </trkpt>
      <trkpt lat="50.50263" lon="3.20634">
        <ele>47.26</ele>
        <time>2025-05-17T23:57:03.149Z</time>
      </trkpt>
      <trkpt lat="50.50263" lon="3.20624">
        <ele>47.33</ele>
        <time>2025-05-17T23:57:10.775Z</time>
      </trkpt>
      <trkpt lat="50.50261" lon="3.20614">
        <ele>47.39</ele>
        <time>2025-05-17T23:57:18.402Z</time>
      </trkpt>
      <trkpt lat="50.5026" lon="3.20605">
        <ele>47.44</ele>
        <time>2025-05-17T23:57:26.030Z</time>
      </trkpt>
      <trkpt lat="50.50258" lon="3.20596">
        <ele>47.5</ele>
        <time>2025-05-17T23:57:33.659Z</time>
      </trkpt>
      <trkpt lat="50.50257" lon="3.20587">
        <ele>47.56</ele>
        <time>2025-05-17T23:57:41.289Z</time>
      </trkpt>
      <trkpt lat="50.50256" lon="3.20578">
        <ele>47.62</ele>
        <time>2025-05-17T23:57:48.920Z</time>
      </trkpt>
      <trkpt lat="50.50256" lon="3.20567">
        <ele>47.68</ele>
        <time>2025-05-17T23:57:56.552Z</time>
      </trkpt>
      <trkpt lat="50.50256" lon="3.20556">
        <ele>47.73</ele>
        <time>2025-05-17T23:58:04.185Z</time>
      </trkpt>
      <trkpt lat="50.50256" lon="3.20546">
        <ele>47.8</ele>
        <time>2025-05-17T23:58:11.819Z</time>
      </trkpt>
      <trkpt lat="50.50256" lon="3.20535">
        <ele>47.84</ele>
        <time>2025-05-17T23:58:19.454Z</time>
      </trkpt>
      <trkpt lat="50.50256" lon="3.20525">
        <ele>47.89</ele>
        <time>2025-05-17T23:58:27.090Z</time>
      </trkpt>
      <trkpt lat="50.50256" lon="3.20514">
        <ele>47.95</ele>
        <time>2025-05-17T23:58:34.728Z</time>
      </trkpt>
      <trkpt lat="50.50255" lon="3.20503">
        <ele>47.99</ele>
        <time>2025-05-17T23:58:42.367Z</time>
      </trkpt>
      <trkpt lat="50.50255" lon="3.20492">
        <ele>48.05</ele>
        <time>2025-05-17T23:58:50.007Z</time>
      </trkpt>
      <trkpt lat="50.50255" lon="3.20482">
        <ele>48.08</ele>
        <time>2025-05-17T23:58:57.648Z</time>
      </trkpt>
      <trkpt lat="50.50254" lon="3.20471">
        <ele>48.1</ele>
        <time>2025-05-17T23:59:05.290Z</time>
      </trkpt>
      <trkpt lat="50.50253" lon="3.2046">
        <ele>48.11</ele>
        <time>2025-05-17T23:59:12.933Z</time>
      </trkpt>
      <trkpt lat="50.50252" lon="3.2045">
        <ele>48.1</ele>
        <time>2025-05-17T23:59:20.578Z</time>
      </trkpt>
      <trkpt lat="50.50251" lon="3.20439">
        <ele>48.08</ele>
        <time>2025-05-17T23:59:28.224Z</time>
      </trkpt>
      <trkpt lat="50.50251" lon="3.20428">
        <ele>48.03</ele>
        <time>2025-05-17T23:59:35.871Z</time>
      </trkpt>
      <trkpt lat="50.5025" lon="3.20417">
        <ele>47.98</ele>
        <time>2025-05-17T23:59:43.519Z</time>
      </trkpt>
      <trkpt lat="50.50249" lon="3.20405">
        <ele>47.93</ele>
        <time>2025-05-17T23:59:51.168Z</time>
      </trkpt>
      <trkpt lat="50.50249" lon="3.20395">
        <ele>47.88</ele>
        <time>2025-05-17T23:59:58.818Z</time>
      </trkpt>
      <trkpt lat="50.50248" lon="3.20384">
        <ele>47.82</ele>
        <time>2025-05-18T00:00:06.470Z</time>
      </trkpt>
      <trkpt lat="50.50248" lon="3.20372">
        <ele>47.77</ele>
        <time>2025-05-18T00:00:14.123Z</time>
      </trkpt>
      <trkpt lat="50.50247" lon="3.20361">
        <ele>47.72</ele>
        <time>2025-05-18T00:00:21.777Z</time>
      </trkpt>
      <trkpt lat="50.50246" lon="3.2035">
        <ele>47.67</ele>
        <time>2025-05-18T00:00:29.432Z</time>
      </trkpt>
      <trkpt lat="50.50244" lon="3.20339">
        <ele>47.62</ele>
        <time>2025-05-18T00:00:37.088Z</time>
      </trkpt>
      <trkpt lat="50.50243" lon="3.20328">
        <ele>47.57</ele>
        <time>2025-05-18T00:00:44.746Z</time>
      </trkpt>
      <trkpt lat="50.5024" lon="3.20317">
        <ele>47.52</ele>
        <time>2025-05-18T00:00:52.405Z</time>
      </trkpt>
      <trkpt lat="50.50237" lon="3.20306">
        <ele>47.46</ele>
        <time>2025-05-18T00:01:00.065Z</time>
      </trkpt>
      <trkpt lat="50.50234" lon="3.20296">
        <ele>47.4</ele>
        <time>2025-05-18T00:01:07.726Z</time>
      </trkpt>
      <trkpt lat="50.5023" lon="3.20285">
        <ele>47.36</ele>
        <time>2025-05-18T00:01:15.389Z</time>
      </trkpt>
      <trkpt lat="50.50226" lon="3.20275">
        <ele>47.32</ele>
        <time>2025-05-18T00:01:23.053Z</time>
      </trkpt>
      <trkpt lat="50.50222" lon="3.20265">
        <ele>47.28</ele>
        <time>2025-05-18T00:01:30.718Z</time>
      </trkpt>
      <trkpt lat="50.50216" lon="3.20257">
        <ele>47.24</ele>
        <time>2025-05-18T00:01:38.385Z</time>
      </trkpt>
      <trkpt lat="50.5021" lon="3.2025">
        <ele>47.2</ele>
        <time>2025-05-18T00:01:46.053Z</time>
      </trkpt>
      <trkpt lat="50.50204" lon="3.20243">
        <ele>47.16</ele>
        <time>2025-05-18T00:01:53.722Z</time>
      </trkpt>
      <trkpt lat="50.50198" lon="3.20236">
        <ele>47.12</ele>
        <time>2025-05-18T00:02:01.392Z</time>
      </trkpt>
      <trkpt lat="50.50192" lon="3.20228">
        <ele>47.07</ele>
        <time>2025-05-18T00:02:09.064Z</time>
      </trkpt>
      <trkpt lat="50.50186" lon="3.20221">
        <ele>47.03</ele>
        <time>2025-05-18T00:02:16.737Z</time>
      </trkpt>
      <trkpt lat="50.50181" lon="3.20213">
        <ele>46.99</ele>
        <time>2025-05-18T00:02:24.411Z</time>
      </trkpt>
      <trkpt lat="50.50175" lon="3.20206">
        <ele>46.96</ele>
        <time>2025-05-18T00:02:32.086Z</time>
      </trkpt>
      <trkpt lat="50.50169" lon="3.20198">
        <ele>46.94</ele>
        <time>2025-05-18T00:02:39.763Z</time>
      </trkpt>
      <trkpt lat="50.50163" lon="3.20191">
        <ele>46.92</ele>
        <time>2025-05-18T00:02:47.441Z</time>
      </trkpt>
      <trkpt lat="50.50157" lon="3.20184">
        <ele>46.91</ele>
        <time>2025-05-18T00:02:55.120Z</time>
      </trkpt>
      <trkpt lat="50.50151" lon="3.20176">
        <ele>46.91</ele>
        <time>2025-05-18T00:03:02.801Z</time>
      </trkpt>
      <trkpt lat="50.50145" lon="3.20169">
        <ele>46.91</ele>
        <time>2025-05-18T00:03:10.483Z</time>
      </trkpt>
      <trkpt lat="50.50139" lon="3.20162">
        <ele>46.9</ele>
        <time>2025-05-18T00:03:18.166Z</time>
      </trkpt>
      <trkpt lat="50.50133" lon="3.20155">
        <ele>46.88</ele>
        <time>2025-05-18T00:03:25.850Z</time>
      </trkpt>
      <trkpt lat="50.50128" lon="3.20148">
        <ele>46.85</ele>
        <time>2025-05-18T00:03:33.535Z</time>
      </trkpt>
      <trkpt lat="50.50122" lon="3.20141">
        <ele>46.82</ele>
        <time>2025-05-18T00:03:41.222Z</time>
      </trkpt>
      <trkpt lat="50.50117" lon="3.20135">
        <ele>46.79</ele>
        <time>2025-05-18T00:03:48.910Z</time>
      </trkpt>
      <trkpt lat="50.50111" lon="3.20128">
        <ele>46.74</ele>
        <time>2025-05-18T00:03:56.599Z</time>
      </trkpt>
      <trkpt lat="50.50106" lon="3.20121">
        <ele>46.69</ele>
        <time>2025-05-18T00:04:04.289Z</time>
      </trkpt>
      <trkpt lat="50.50103" lon="3.20112">
        <ele>46.63</ele>
        <time>2025-05-18T00:04:11.980Z</time>
      </trkpt>
      <trkpt lat="50.50102" lon="3.20102">
        <ele>46.56</ele>
        <time>2025-05-18T00:04:19.672Z</time>
      </trkpt>
      <trkpt lat="50.50104" lon="3.20092">
        <ele>46.5</ele>
        <time>2025-05-18T00:04:27.365Z</time>
      </trkpt>
      <trkpt lat="50.50107" lon="3.20084">
        <ele>46.46</ele>
        <time>2025-05-18T00:04:35.059Z</time>
      </trkpt>
      <trkpt lat="50.5011" lon="3.20078">
        <ele>46.41</ele>
        <time>2025-05-18T00:04:42.754Z</time>
      </trkpt>
      <trkpt lat="50.50111" lon="3.20074">
        <ele>46.36</ele>
        <time>2025-05-18T00:04:50.450Z</time>
      </trkpt>
      <trkpt lat="50.50112" lon="3.20072">
        <ele>46.3</ele>
        <time>2025-05-18T00:04:58.146Z</time>
      </trkpt>
      <trkpt lat="50.50113" lon="3.20071">
        <ele>46.24</ele>
        <time>2025-05-18T00:05:05.842Z</time>
      </trkpt>
      <trkpt lat="50.50116" lon="3.20064">
        <ele>46.18</ele>
        <time>2025-05-18T00:05:13.539Z</time>
      </trkpt>
      <trkpt lat="50.50117" lon="3.20061">
        <ele>46.12</ele>
        <time>2025-05-18T00:05:21.236Z</time>
      </trkpt>
      <trkpt lat="50.50118" lon="3.20057">
        <ele>46.07</ele>
        <time>2025-05-18T00:05:28.934Z</time>
      </trkpt>
      <trkpt lat="50.50119" lon="3.20053">
        <ele>46.02</ele>
        <time>2025-05-18T00:05:36.632Z</time>
      </trkpt>
      <trkpt lat="50.50119" lon="3.20049">
        <ele>45.97</ele>
        <time>2025-05-18T00:05:44.331Z</time>
      </trkpt>
      <trkpt lat="50.50119" lon="3.20045">
        <ele>45.93</ele>
        <time>2025-05-18T00:05:52.030Z</time>
      </trkpt>
      <trkpt lat="50.50118" lon="3.20042">
        <ele>45.89</ele>
        <time>2025-05-18T00:05:59.730Z</time>
      </trkpt>
      <trkpt lat="50.50118" lon="3.20039">
        <ele>45.86</ele>
        <time>2025-05-18T00:06:07.430Z</time>
      </trkpt>
      <trkpt lat="50.50118" lon="3.20038">
        <ele>45.84</ele>
        <time>2025-05-18T00:06:15.130Z</time>
      </trkpt>
      <trkpt lat="50.50115" lon="3.20029">
        <ele>45.82</ele>
        <time>2025-05-18T00:06:22.831Z</time>
      </trkpt>
      <trkpt lat="50.50114" lon="3.20025">
        <ele>45.81</ele>
        <time>2025-05-18T00:06:30.533Z</time>
      </trkpt>
      <trkpt lat="50.50112" lon="3.20019">
        <ele>45.81</ele>
        <time>2025-05-18T00:06:38.235Z</time>
      </trkpt>
      <trkpt lat="50.50111" lon="3.20014">
        <ele>45.82</ele>
        <time>2025-05-18T00:06:45.938Z</time>
      </trkpt>
      <trkpt lat="50.50109" lon="3.20009">
        <ele>45.85</ele>
        <time>2025-05-18T00:06:53.641Z</time>
      </trkpt>
      <trkpt lat="50.50107" lon="3.20004">
        <ele>45.89</ele>
        <time>2025-05-18T00:07:01.345Z</time>
      </trkpt>
      <trkpt lat="50.50104" lon="3.19998">
        <ele>45.93</ele>
        <time>2025-05-18T00:07:09.050Z</time>
      </trkpt>
      <trkpt lat="50.50101" lon="3.19992">
        <ele>45.99</ele>
        <time>2025-05-18T00:07:16.756Z</time>
      </trkpt>
      <trkpt lat="50.50098" lon="3.19985">
        <ele>46.05</ele>
        <time>2025-05-18T00:07:24.463Z</time>
      </trkpt>
      <trkpt lat="50.50094" lon="3.19978">
        <ele>46.13</ele>
        <time>2025-05-18T00:07:32.171Z</time>
      </trkpt>
      <trkpt lat="50.50091" lon="3.1997">
        <ele>46.21</ele>
        <time>2025-05-18T00:07:39.880Z</time>
      </trkpt>
      <trkpt lat="50.50087" lon="3.19961">
        <ele>46.3</ele>
        <time>2025-05-18T00:07:47.590Z</time>
      </trkpt>
      <trkpt lat="50.50084" lon="3.19953">
        <ele>46.39</ele>
        <time>2025-05-18T00:07:55.301Z</time>
      </trkpt>
      <trkpt lat="50.5008" lon="3.19944">
        <ele>46.49</ele>
        <time>2025-05-18T00:08:03.013Z</time>
      </trkpt>
      <trkpt lat="50.50076" lon="3.19936">
        <ele>46.59</ele>
        <time>2025-05-18T00:08:10.726Z</time>
      </trkpt>
      <trkpt lat="50.50072" lon="3.19927">
        <ele>46.67</ele>
        <time>2025-05-18T00:08:18.440Z</time>
      </trkpt>
      <trkpt lat="50.50068" lon="3.19917">
        <ele>46.75</ele>
        <time>2025-05-18T00:08:26.155Z</time>
      </trkpt>
      <trkpt lat="50.50064" lon="3.19908">
        <ele>46.84</ele>
        <time>2025-05-18T00:08:33.872Z</time>
      </trkpt>
      <trkpt lat="50.5006" lon="3.19898">
        <ele>46.93</ele>
        <time>2025-05-18T00:08:41.590Z</time>
      </trkpt>
      <trkpt lat="50.50057" lon="3.19888">
        <ele>47.03</ele>
        <time>2025-05-18T00:08:49.309Z</time>
      </trkpt>
      <trkpt lat="50.50053" lon="3.19879">
        <ele>47.12</ele>
        <time>2025-05-18T00:08:57.029Z</time>
      </trkpt>
      <trkpt lat="50.50049" lon="3.19869">
        <ele>47.2</ele>
        <time>2025-05-18T00:09:04.751Z</time>
      </trkpt>
      <trkpt lat="50.50045" lon="3.1986">
        <ele>47.28</ele>
        <time>2025-05-18T00:09:12.474Z</time>
      </trkpt>
      <trkpt lat="50.50041" lon="3.1985">
        <ele>47.37</ele>
        <time>2025-05-18T00:09:20.198Z</time>
      </trkpt>
      <trkpt lat="50.50036" lon="3.19841">
        <ele>47.48</ele>
        <time>2025-05-18T00:09:27.923Z</time>
      </trkpt>
      <trkpt lat="50.50031" lon="3.19832">
        <ele>47.58</ele>
        <time>2025-05-18T00:09:35.649Z</time>
      </trkpt>
      <trkpt lat="50.50027" lon="3.19823">
        <ele>47.7</ele>
        <time>2025-05-18T00:09:43.377Z</time>
      </trkpt>
      <trkpt lat="50.50022" lon="3.19815">
        <ele>47.82</ele>
        <time>2025-05-18T00:09:51.106Z</time>
      </trkpt>
      <trkpt lat="50.50017" lon="3.19806">
        <ele>47.95</ele>
        <time>2025-05-18T00:09:58.836Z</time>
      </trkpt>
      <trkpt lat="50.50012" lon="3.19798">
        <ele>48.08</ele>
        <time>2025-05-18T00:10:06.567Z</time>
      </trkpt>
      <trkpt lat="50.50007" lon="3.19789">
        <ele>48.22</ele>
        <time>2025-05-18T00:10:14.300Z</time>
      </trkpt>
      <trkpt lat="50.50002" lon="3.19781">
        <ele>48.35</ele>
        <time>2025-05-18T00:10:22.034Z</time>
      </trkpt>
      <trkpt lat="50.49997" lon="3.19772">
        <ele>48.49</ele>
        <time>2025-05-18T00:10:29.769Z</time>
      </trkpt>
      <trkpt lat="50.49953" lon="3.19696">
        <ele>48.57</ele>
        <time>2025-05-18T00:10:37.515Z</time>
      </trkpt>
      <trkpt lat="50.49948" lon="3.19687">
        <ele>48.7</ele>
        <time>2025-05-18T00:10:45.262Z</time>
      </trkpt>
      <trkpt lat="50.49943" lon="3.19679">
        <ele>48.82</ele>
        <time>2025-05-18T00:10:53.011Z</time>
      </trkpt>
      <trkpt lat="50.49938" lon="3.1967">
        <ele>48.96</ele>
        <time>2025-05-18T00:11:00.761Z</time>
      </trkpt>
      <trkpt lat="50.49933" lon="3.19662">
        <ele>49.09</ele>
        <time>2025-05-18T00:11:08.512Z</time>
      </trkpt>
      <trkpt lat="50.49928" lon="3.19654">
        <ele>49.22</ele>
        <time>2025-05-18T00:11:16.264Z</time>
      </trkpt>
      <trkpt lat="50.49923" lon="3.19646">
        <ele>49.36</ele>
        <time>2025-05-18T00:11:24.017Z</time>
      </trkpt>
      <trkpt lat="50.49861" lon="3.19534">
        <ele>49.53</ele>
        <time>2025-05-18T00:11:31.786Z</time>
      </trkpt>
      <trkpt lat="50.49856" lon="3.19526">
        <ele>49.65</ele>
        <time>2025-05-18T00:11:39.557Z</time>
      </trkpt>
      <trkpt lat="50.49852" lon="3.19517">
        <ele>49.77</ele>
        <time>2025-05-18T00:11:47.329Z</time>
      </trkpt>
      <trkpt lat="50.49847" lon="3.19508">
        <ele>49.88</ele>
        <time>2025-05-18T00:11:55.102Z</time>
      </trkpt>
      <trkpt lat="50.49843" lon="3.19499">
        <ele>49.99</ele>
        <time>2025-05-18T00:12:02.876Z</time>
      </trkpt>
      <trkpt lat="50.49838" lon="3.19491">
        <ele>50.1</ele>
        <time>2025-05-18T00:12:10.651Z</time>
      </trkpt>
      <trkpt lat="50.49834" lon="3.19482">
        <ele>50.2</ele>
        <time>2025-05-18T00:12:18.428Z</time>
      </trkpt>
      <trkpt lat="50.49829" lon="3.19474">
        <ele>50.31</ele>
        <time>2025-05-18T00:12:26.206Z</time>
      </trkpt>
      <trkpt lat="50.49825" lon="3.19465">
        <ele>50.41</ele>
        <time>2025-05-18T00:12:33.985Z</time>
      </trkpt>
      <trkpt lat="50.4982" lon="3.19457">
        <ele>50.49</ele>
        <time>2025-05-18T00:12:41.765Z</time>
      </trkpt>
      <trkpt lat="50.49816" lon="3.19448">
        <ele>50.56</ele>
        <time>2025-05-18T00:12:49.546Z</time>
      </trkpt>
      <trkpt lat="50.49811" lon="3.1944">
        <ele>50.63</ele>
        <time>2025-05-18T00:12:57.328Z</time>
      </trkpt>
      <trkpt lat="50.49807" lon="3.19431">
        <ele>50.69</ele>
        <time>2025-05-18T00:13:05.112Z</time>
      </trkpt>
      <trkpt lat="50.49802" lon="3.19423">
        <ele>50.74</ele>
        <time>2025-05-18T00:13:12.897Z</time>
      </trkpt>
      <trkpt lat="50.49798" lon="3.19414">
        <ele>50.78</ele>
        <time>2025-05-18T00:13:20.683Z</time>
      </trkpt>
      <trkpt lat="50.49794" lon="3.19406">
        <ele>50.82</ele>
        <time>2025-05-18T00:13:28.470Z</time>
      </trkpt>
      <trkpt lat="50.4979" lon="3.19397">
        <ele>50.87</ele>
        <time>2025-05-18T00:13:36.258Z</time>
      </trkpt>
      <trkpt lat="50.49786" lon="3.19388">
        <ele>50.91</ele>
        <time>2025-05-18T00:13:44.047Z</time>
      </trkpt>
      <trkpt lat="50.49782" lon="3.19379">
        <ele>50.95</ele>
        <time>2025-05-18T00:13:51.838Z</time>
      </trkpt>
      <trkpt lat="50.49779" lon="3.19369">
        <ele>50.97</ele>
        <time>2025-05-18T00:13:59.630Z</time>
      </trkpt>
      <trkpt lat="50.49776" lon="3.1936">
        <ele>50.99</ele>
        <time>2025-05-18T00:14:07.423Z</time>
      </trkpt>
      <trkpt lat="50.49773" lon="3.1935">
        <ele>51.01</ele>
        <time>2025-05-18T00:14:15.217Z</time>
      </trkpt>
      <trkpt lat="50.49769" lon="3.19341">
        <ele>51.03</ele>
        <time>2025-05-18T00:14:23.012Z</time>
      </trkpt>
      <trkpt lat="50.49767" lon="3.19331">
        <ele>51.05</ele>
        <time>2025-05-18T00:14:30.808Z</time>
      </trkpt>
      <trkpt lat="50.49764" lon="3.19321">
        <ele>51.06</ele>
        <time>2025-05-18T00:14:38.605Z</time>
      </trkpt>
      <trkpt lat="50.49761" lon="3.19312">
        <ele>51.08</ele>
        <time>2025-05-18T00:14:46.404Z</time>
      </trkpt>
      <trkpt lat="50.49758" lon="3.19303">
        <ele>51.09</ele>
        <time>2025-05-18T00:14:54.204Z</time>
      </trkpt>
      <trkpt lat="50.49755" lon="3.19293">
        <ele>51.1</ele>
        <time>2025-05-18T00:15:02.005Z</time>
      </trkpt>
      <trkpt lat="50.49752" lon="3.19284">
        <ele>51.11</ele>
        <time>2025-05-18T00:15:09.807Z</time>
      </trkpt>
      <trkpt lat="50.49748" lon="3.19275">
        <ele>51.11</ele>
        <time>2025-05-18T00:15:17.610Z</time>
      </trkpt>
      <trkpt lat="50.49745" lon="3.19266">
        <ele>51.13</ele>
        <time>2025-05-18T00:15:25.414Z</time>
      </trkpt>
      <trkpt lat="50.49741" lon="3.19257">
        <ele>51.16</ele>
        <time>2025-05-18T00:15:33.219Z</time>
      </trkpt>
      <trkpt lat="50.49737" lon="3.19248">
        <ele>51.2</ele>
        <time>2025-05-18T00:15:41.026Z</time>
      </trkpt>
      <trkpt lat="50.49732" lon="3.19241">
        <ele>51.23</ele>
        <time>2025-05-18T00:15:48.834Z</time>
      </trkpt>
      <trkpt lat="50.49727" lon="3.19234">
        <ele>51.28</ele>
        <time>2025-05-18T00:15:56.643Z</time>
      </trkpt>
      <trkpt lat="50.49721" lon="3.19227">
        <ele>51.32</ele>
        <time>2025-05-18T00:16:04.453Z</time>
      </trkpt>
      <trkpt lat="50.49715" lon="3.19221">
        <ele>51.36</ele>
        <time>2025-05-18T00:16:12.264Z</time>
      </trkpt>
      <trkpt lat="50.49709" lon="3.19214">
        <ele>51.4</ele>
        <time>2025-05-18T00:16:20.076Z</time>
      </trkpt>
      <trkpt lat="50.49704" lon="3.19208">
        <ele>51.45</ele>
        <time>2025-05-18T00:16:27.890Z</time>
      </trkpt>
      <trkpt lat="50.49698" lon="3.19201">
        <ele>51.5</ele>
        <time>2025-05-18T00:16:35.705Z</time>
      </trkpt>
      <trkpt lat="50.49692" lon="3.19194">
        <ele>51.55</ele>
        <time>2025-05-18T00:16:43.521Z</time>
      </trkpt>
      <trkpt lat="50.49687" lon="3.19188">
        <ele>51.61</ele>
        <time>2025-05-18T00:16:51.338Z</time>
      </trkpt>
      <trkpt lat="50.49681" lon="3.19182">
        <ele>51.67</ele>
        <time>2025-05-18T00:16:59.156Z</time>
      </trkpt>
      <trkpt lat="50.49676" lon="3.19176">
        <ele>51.73</ele>
        <time>2025-05-18T00:17:06.975Z</time>
      </trkpt>
      <trkpt lat="50.49671" lon="3.1917">
        <ele>51.8</ele>
        <time>2025-05-18T00:17:14.795Z</time>
      </trkpt>
      <trkpt lat="50.49666" lon="3.19164">
        <ele>51.86</ele>
        <time>2025-05-18T00:17:22.617Z</time>
      </trkpt>
      <trkpt lat="50.49661" lon="3.19158">
        <ele>51.91</ele>
        <time>2025-05-18T00:17:30.440Z</time>
      </trkpt>
      <trkpt lat="50.49656" lon="3.19153">
        <ele>51.96</ele>
        <time>2025-05-18T00:17:38.264Z</time>
      </trkpt>
      <trkpt lat="50.49651" lon="3.19147">
        <ele>52.01</ele>
        <time>2025-05-18T00:17:46.089Z</time>
      </trkpt>
      <trkpt lat="50.49646" lon="3.19141">
        <ele>52.06</ele>
        <time>2025-05-18T00:17:53.915Z</time>
      </trkpt>
      <trkpt lat="50.49642" lon="3.19136">
        <ele>52.1</ele>
        <time>2025-05-18T00:18:01.742Z</time>
      </trkpt>
      <trkpt lat="50.49639" lon="3.19131">
        <ele>52.14</ele>
        <time>2025-05-18T00:18:09.569Z</time>
      </trkpt>
      <trkpt lat="50.49637" lon="3.19127">
        <ele>52.19</ele>
        <time>2025-05-18T00:18:17.397Z</time>
      </trkpt>
      <trkpt lat="50.49636" lon="3.19125">
        <ele>52.22</ele>
        <time>2025-05-18T00:18:25.225Z</time>
      </trkpt>
      <trkpt lat="50.49636" lon="3.19125">
        <ele>52.25</ele>
        <time>2025-05-18T00:18:33.053Z</time>
      </trkpt>
      <trkpt lat="50.49633" lon="3.19118">
        <ele>52.29</ele>
        <time>2025-05-18T00:18:40.882Z</time>
      </trkpt>
      <trkpt lat="50.49632" lon="3.19115">
        <ele>52.31</ele>
        <time>2025-05-18T00:18:48.711Z</time>
      </trkpt>
      <trkpt lat="50.49631" lon="3.19111">
        <ele>52.33</ele>
        <time>2025-05-18T00:18:56.541Z</time>
      </trkpt>
      <trkpt lat="50.49629" lon="3.19107">
        <ele>52.34</ele>
        <time>2025-05-18T00:19:04.371Z</time>
      </trkpt>
      <trkpt lat="50.49628" lon="3.19103">
        <ele>52.35</ele>
        <time>2025-05-18T00:19:12.202Z</time>
      </trkpt>
      <trkpt lat="50.49626" lon="3.191">
        <ele>52.36</ele>
        <time>2025-05-18T00:19:20.033Z</time>
      </trkpt>
      <trkpt lat="50.49625" lon="3.19097">
        <ele>52.35</ele>
        <time>2025-05-18T00:19:27.865Z</time>
      </trkpt>
      <trkpt lat="50.49625" lon="3.19096">
        <ele>52.34</ele>
        <time>2025-05-18T00:19:35.697Z</time>
      </trkpt>
      <trkpt lat="50.49621" lon="3.19086">
        <ele>52.33</ele>
        <time>2025-05-18T00:19:43.530Z</time>
      </trkpt>
      <trkpt lat="50.49619" lon="3.19081">
        <ele>52.31</ele>
        <time>2025-05-18T00:19:51.364Z</time>
      </trkpt>
      <trkpt lat="50.49617" lon="3.19077">
        <ele>52.29</ele>
        <time>2025-05-18T00:19:59.198Z</time>
      </trkpt>
      <trkpt lat="50.49615" lon="3.19071">
        <ele>52.26</ele>
        <time>2025-05-18T00:20:07.033Z</time>
      </trkpt>
      <trkpt lat="50.49612" lon="3.19066">
        <ele>52.21</ele>
        <time>2025-05-18T00:20:14.869Z</time>
      </trkpt>
      <trkpt lat="50.4961" lon="3.1906">
        <ele>52.16</ele>
        <time>2025-05-18T00:20:22.705Z</time>
      </trkpt>
      <trkpt lat="50.49608" lon="3.19053">
        <ele>52.1</ele>
        <time>2025-05-18T00:20:30.542Z</time>
      </trkpt>
      <trkpt lat="50.49605" lon="3.19047">
        <ele>52.04</ele>
        <time>2025-05-18T00:20:38.380Z</time>
      </trkpt>
      <trkpt lat="50.49603" lon="3.19041">
        <ele>51.99</ele>
        <time>2025-05-18T00:20:46.219Z</time>
      </trkpt>
      <trkpt lat="50.496" lon="3.19033">
        <ele>51.93</ele>
        <time>2025-05-18T00:20:54.059Z</time>
      </trkpt>
      <trkpt lat="50.49597" lon="3.19026">
        <ele>51.88</ele>
        <time>2025-05-18T00:21:01.900Z</time>
      </trkpt>
      <trkpt lat="50.49594" lon="3.19017">
        <ele>51.82</ele>
        <time>2025-05-18T00:21:09.742Z</time>
      </trkpt>
      <trkpt lat="50.49591" lon="3.19009">
        <ele>51.76</ele>
        <time>2025-05-18T00:21:17.585Z</time>
      </trkpt>
      <trkpt lat="50.49588" lon="3.19">
        <ele>51.7</ele>
        <time>2025-05-18T00:21:25.429Z</time>
      </trkpt>
      <trkpt lat="50.49585" lon="3.18991">
        <ele>51.64</ele>
        <time>2025-05-18T00:21:33.274Z</time>
      </trkpt>
      <trkpt lat="50.49582" lon="3.18982">
        <ele>51.58</ele>
        <time>2025-05-18T00:21:41.120Z</time>
      </trkpt>
      <trkpt lat="50.49579" lon="3.18973">
        <ele>51.53</ele>
        <time>2025-05-18T00:21:48.967Z</time>
      </trkpt>
      <trkpt lat="50.49576" lon="3.18964">
        <ele>51.48</ele>
        <time>2025-05-18T00:21:56.815Z</time>
      </trkpt>
      <trkpt lat="50.49573" lon="3.18954">
        <ele>51.43</ele>
        <time>2025-05-18T00:22:04.664Z</time>
      </trkpt>
      <trkpt lat="50.4957" lon="3.18945">
        <ele>51.38</ele>
        <time>2025-05-18T00:22:12.514Z</time>
      </trkpt>
      <trkpt lat="50.49567" lon="3.18935">
        <ele>51.34</ele>
        <time>2025-05-18T00:22:20.366Z</time>
      </trkpt>
      <trkpt lat="50.49563" lon="3.18925">
        <ele>51.29</ele>
        <time>2025-05-18T00:22:28.219Z</time>
      </trkpt>
      <trkpt lat="50.4956" lon="3.18915">
        <ele>51.25</ele>
        <time>2025-05-18T00:22:36.073Z</time>
      </trkpt>
      <trkpt lat="50.49557" lon="3.18906">
        <ele>51.22</ele>
        <time>2025-05-18T00:22:43.928Z</time>
      </trkpt>
      <trkpt lat="50.49554" lon="3.18896">
        <ele>51.19</ele>
        <time>2025-05-18T00:22:51.784Z</time>
      </trkpt>
      <trkpt lat="50.4955" lon="3.18887">
        <ele>51.18</ele>
        <time>2025-05-18T00:22:59.641Z</time>
      </trkpt>
      <trkpt lat="50.49547" lon="3.18878">
        <ele>51.18</ele>
        <time>2025-05-18T00:23:07.500Z</time>
      </trkpt>
      <trkpt lat="50.49543" lon="3.18868">
        <ele>51.22</ele>
        <time>2025-05-18T00:23:15.360Z</time>
      </trkpt>
      <trkpt lat="50.4954" lon="3.18858">
        <ele>51.25</ele>
        <time>2025-05-18T00:23:23.221Z</time>
      </trkpt>
      <trkpt lat="50.49537" lon="3.18849">
        <ele>51.3</ele>
        <time>2025-05-18T00:23:31.083Z</time>
      </trkpt>
      <trkpt lat="50.49534" lon="3.18839">
        <ele>51.36</ele>
        <time>2025-05-18T00:23:38.946Z</time>
      </trkpt>
      <trkpt lat="50.49531" lon="3.1883">
        <ele>51.42</ele>
        <time>2025-05-18T00:23:46.810Z</time>
      </trkpt>
      <trkpt lat="50.49528" lon="3.1882">
        <ele>51.5</ele>
        <time>2025-05-18T00:23:54.675Z</time>
      </trkpt>
      <trkpt lat="50.49527" lon="3.1881">
        <ele>51.58</ele>
        <time>2025-05-18T00:24:02.542Z</time>
      </trkpt>
      <trkpt lat="50.49526" lon="3.18799">
        <ele>51.66</ele>
        <time>2025-05-18T00:24:10.410Z</time>
      </trkpt>
      <trkpt lat="50.49526" lon="3.18789">
        <ele>51.77</ele>
        <time>2025-05-18T00:24:18.279Z</time>
      </trkpt>
      <trkpt lat="50.49526" lon="3.18778">
        <ele>51.89</ele>
        <time>2025-05-18T00:24:26.149Z</time>
      </trkpt>
      <trkpt lat="50.49527" lon="3.18767">
        <ele>52.01</ele>
        <time>2025-05-18T00:24:34.020Z</time>
      </trkpt>
      <trkpt lat="50.49527" lon="3.18757">
        <ele>52.12</ele>
        <time>2025-05-18T00:24:41.892Z</time>
      </trkpt>
      <trkpt lat="50.49527" lon="3.18746">
        <ele>52.23</ele>
        <time>2025-05-18T00:24:49.765Z</time>
      </trkpt>
      <trkpt lat="50.49527" lon="3.18735">
        <ele>52.35</ele>
        <time>2025-05-18T00:24:57.640Z</time>
      </trkpt>
      <trkpt lat="50.49527" lon="3.18725">
        <ele>52.49</ele>
        <time>2025-05-18T00:25:05.516Z</time>
      </trkpt>
      <trkpt lat="50.49527" lon="3.18714">
        <ele>52.62</ele>
        <time>2025-05-18T00:25:13.393Z</time>
      </trkpt>
      <trkpt lat="50.49528" lon="3.18704">
        <ele>52.73</ele>
        <time>2025-05-18T00:25:21.271Z</time>
      </trkpt>
      <trkpt lat="50.49528" lon="3.18693">
        <ele>52.84</ele>
        <time>2025-05-18T00:25:29.150Z</time>
      </trkpt>
      <trkpt lat="50.49528" lon="3.18683">
        <ele>52.95</ele>
        <time>2025-05-18T00:25:37.030Z</time>
      </trkpt>
      <trkpt lat="50.49528" lon="3.18672">
        <ele>53.05</ele>
        <time>2025-05-18T00:25:44.911Z</time>
      </trkpt>
      <trkpt lat="50.49528" lon="3.18661">
        <ele>53.14</ele>
        <time>2025-05-18T00:25:52.793Z</time>
      </trkpt>
      <trkpt lat="50.49528" lon="3.18651">
        <ele>53.24</ele>
        <time>2025-05-18T00:26:00.677Z</time>
      </trkpt>
      <trkpt lat="50.49529" lon="3.1864">
        <ele>53.34</ele>
        <time>2025-05-18T00:26:08.562Z</time>
      </trkpt>
      <trkpt lat="50.49529" lon="3.18629">
        <ele>53.42</ele>
        <time>2025-05-18T00:26:16.448Z</time>
      </trkpt>
      <trkpt lat="50.49529" lon="3.18619">
        <ele>53.48</ele>
        <time>2025-05-18T00:26:24.335Z</time>
      </trkpt>
      <trkpt lat="50.49529" lon="3.18608">
        <ele>53.53</ele>
        <time>2025-05-18T00:26:32.223Z</time>
      </trkpt>
      <trkpt lat="50.49529" lon="3.18597">
        <ele>53.58</ele>
        <time>2025-05-18T00:26:40.112Z</time>
      </trkpt>
      <trkpt lat="50.49529" lon="3.18587">
        <ele>53.63</ele>
        <time>2025-05-18T00:26:48.002Z</time>
      </trkpt>
      <trkpt lat="50.49529" lon="3.18576">
        <ele>53.66</ele>
        <time>2025-05-18T00:26:55.894Z</time>
      </trkpt>
      <trkpt lat="50.49529" lon="3.18565">
        <ele>53.67</ele>
        <time>2025-05-18T00:27:03.787Z</time>
      </trkpt>
      <trkpt lat="50.49529" lon="3.18554">
        <ele>53.66</ele>
        <time>2025-05-18T00:27:11.681Z</time>
      </trkpt>
      <trkpt lat="50.49529" lon="3.18543">
        <ele>53.63</ele>
        <time>2025-05-18T00:27:19.576Z</time>
      </trkpt>
      <trkpt lat="50.4953" lon="3.18532">
        <ele>53.58</ele>
        <time>2025-05-18T00:27:27.472Z</time>
      </trkpt>
      <trkpt lat="50.4953" lon="3.18521">
        <ele>53.53</ele>
        <time>2025-05-18T00:27:35.370Z</time>
      </trkpt>
      <trkpt lat="50.4953" lon="3.1851">
        <ele>53.46</ele>
        <time>2025-05-18T00:27:43.269Z</time>
      </trkpt>
      <trkpt lat="50.4953" lon="3.18498">
        <ele>53.38</ele>
        <time>2025-05-18T00:27:51.169Z</time>
      </trkpt>
      <trkpt lat="50.4953" lon="3.18487">
        <ele>53.31</ele>
        <time>2025-05-18T00:27:59.070Z</time>
      </trkpt>
      <trkpt lat="50.4953" lon="3.18475">
        <ele>53.24</ele>
        <time>2025-05-18T00:28:06.972Z</time>
      </trkpt>
      <trkpt lat="50.4953" lon="3.18464">
        <ele>53.17</ele>
        <time>2025-05-18T00:28:14.876Z</time>
      </trkpt>
      <trkpt lat="50.4953" lon="3.18452">
        <ele>53.07</ele>
        <time>2025-05-18T00:28:22.781Z</time>
      </trkpt>
      <trkpt lat="50.4953" lon="3.18441">
        <ele>52.97</ele>
        <time>2025-05-18T00:28:30.687Z</time>
      </trkpt>
      <trkpt lat="50.49529" lon="3.18429">
        <ele>52.89</ele>
        <time>2025-05-18T00:28:38.594Z</time>
      </trkpt>
      <trkpt lat="50.49529" lon="3.18418">
        <ele>52.81</ele>
        <time>2025-05-18T00:28:46.503Z</time>
      </trkpt>
      <trkpt lat="50.49527" lon="3.18407">
        <ele>52.72</ele>
        <time>2025-05-18T00:28:54.413Z</time>
      </trkpt>
      <trkpt lat="50.49525" lon="3.18396">
        <ele>52.65</ele>
        <time>2025-05-18T00:29:02.324Z</time>
      </trkpt>
      <trkpt lat="50.49522" lon="3.18386">
        <ele>52.57</ele>
        <time>2025-05-18T00:29:10.236Z</time>
      </trkpt>
      <trkpt lat="50.49518" lon="3.18376">
        <ele>52.5</ele>
        <time>2025-05-18T00:29:18.149Z</time>
      </trkpt>
      <trkpt lat="50.49513" lon="3.18366">
        <ele>52.43</ele>
        <time>2025-05-18T00:29:26.064Z</time>
      </trkpt>
      <trkpt lat="50.49509" lon="3.18357">
        <ele>52.36</ele>
        <time>2025-05-18T00:29:33.980Z</time>
      </trkpt>
      <trkpt lat="50.49505" lon="3.18347">
        <ele>52.3</ele>
        <time>2025-05-18T00:29:41.897Z</time>
      </trkpt>
      <trkpt lat="50.495" lon="3.18337">
        <ele>52.25</ele>
        <time>2025-05-18T00:29:49.816Z</time>
      </trkpt>
      <trkpt lat="50.49496" lon="3.18328">
        <ele>52.2</ele>
        <time>2025-05-18T00:29:57.736Z</time>
      </trkpt>
      <trkpt lat="50.49491" lon="3.18318">
        <ele>52.15</ele>
        <time>2025-05-18T00:30:05.657Z</time>
      </trkpt>
      <trkpt lat="50.49487" lon="3.18309">
        <ele>52.11</ele>
        <time>2025-05-18T00:30:13.579Z</time>
      </trkpt>
      <trkpt lat="50.49482" lon="3.18299">
        <ele>52.08</ele>
        <time>2025-05-18T00:30:21.503Z</time>
      </trkpt>
      <trkpt lat="50.49478" lon="3.1829">
        <ele>52.05</ele>
        <time>2025-05-18T00:30:29.428Z</time>
      </trkpt>
      <trkpt lat="50.49473" lon="3.18281">
        <ele>52.03</ele>
        <time>2025-05-18T00:30:37.354Z</time>
      </trkpt>
      <trkpt lat="50.49469" lon="3.18271">
        <ele>52.02</ele>
        <time>2025-05-18T00:30:45.281Z</time>
      </trkpt>
      <trkpt lat="50.49464" lon="3.18262">
        <ele>52.01</ele>
        <time>2025-05-18T00:30:53.210Z</time>
      </trkpt>
      <trkpt lat="50.4946" lon="3.18252">
        <ele>52</ele>
        <time>2025-05-18T00:31:01.140Z</time>
      </trkpt>
      <trkpt lat="50.49455" lon="3.18243">
        <ele>52.01</ele>
        <time>2025-05-18T00:31:09.071Z</time>
      </trkpt>
      <trkpt lat="50.49451" lon="3.18233">
        <ele>52.03</ele>
        <time>2025-05-18T00:31:17.003Z</time>
      </trkpt>
      <trkpt lat="50.49446" lon="3.18223">
        <ele>52.06</ele>
        <time>2025-05-18T00:31:24.937Z</time>
      </trkpt>
      <trkpt lat="50.49442" lon="3.18214">
        <ele>52.09</ele>
        <time>2025-05-18T00:31:32.872Z</time>
      </trkpt>
      <trkpt lat="50.49437" lon="3.18205">
        <ele>52.11</ele>
        <time>2025-05-18T00:31:40.808Z</time>
      </trkpt>
      <trkpt lat="50.49433" lon="3.18196">
        <ele>52.14</ele>
        <time>2025-05-18T00:31:48.745Z</time>
      </trkpt>
      <trkpt lat="50.49429" lon="3.18186">
        <ele>52.17</ele>
        <time>2025-05-18T00:31:56.684Z</time>
      </trkpt>
      <trkpt lat="50.49425" lon="3.18177">
        <ele>52.2</ele>
        <time>2025-05-18T00:32:04.624Z</time>
      </trkpt>
      <trkpt lat="50.4942" lon="3.18167">
        <ele>52.24</ele>
        <time>2025-05-18T00:32:12.565Z</time>
      </trkpt>
      <trkpt lat="50.49416" lon="3.18158">
        <ele>52.28</ele>
        <time>2025-05-18T00:32:20.507Z</time>
      </trkpt>
      <trkpt lat="50.49412" lon="3.18149">
        <ele>52.31</ele>
        <time>2025-05-18T00:32:28.451Z</time>
      </trkpt>
      <trkpt lat="50.49408" lon="3.18139">
        <ele>52.34</ele>
        <time>2025-05-18T00:32:36.396Z</time>
      </trkpt>
      <trkpt lat="50.49404" lon="3.18129">
        <ele>52.38</ele>
        <time>2025-05-18T00:32:44.342Z</time>
      </trkpt>
      <trkpt lat="50.494" lon="3.1812">
        <ele>52.41</ele>
        <time>2025-05-18T00:32:52.289Z</time>
      </trkpt>
      <trkpt lat="50.49397" lon="3.1811">
        <ele>52.46</ele>
        <time>2025-05-18T00:33:00.237Z</time>
      </trkpt>
      <trkpt lat="50.49393" lon="3.18101">
        <ele>52.51</ele>
        <time>2025-05-18T00:33:08.187Z</time>
      </trkpt>
      <trkpt lat="50.4939" lon="3.18091">
        <ele>52.59</ele>
        <time>2025-05-18T00:33:16.138Z</time>
      </trkpt>
      <trkpt lat="50.49386" lon="3.18082">
        <ele>52.68</ele>
        <time>2025-05-18T00:33:24.090Z</time>
      </trkpt>
      <trkpt lat="50.49384" lon="3.18072">
        <ele>52.76</ele>
        <time>2025-05-18T00:33:32.043Z</time>
      </trkpt>
      <trkpt lat="50.49381" lon="3.18061">
        <ele>52.83</ele>
        <time>2025-05-18T00:33:39.997Z</time>
      </trkpt>
      <trkpt lat="50.4938" lon="3.18051">
        <ele>52.91</ele>
        <time>2025-05-18T00:33:47.952Z</time>
      </trkpt>
      <trkpt lat="50.4938" lon="3.1804">
        <ele>52.99</ele>
        <time>2025-05-18T00:33:55.909Z</time>
      </trkpt>
      <trkpt lat="50.4938" lon="3.18029">
        <ele>53.08</ele>
        <time>2025-05-18T00:34:03.867Z</time>
      </trkpt>
      <trkpt lat="50.49381" lon="3.18018">
        <ele>53.17</ele>
        <time>2025-05-18T00:34:11.826Z</time>
      </trkpt>
      <trkpt lat="50.49381" lon="3.18008">
        <ele>53.25</ele>
        <time>2025-05-18T00:34:19.786Z</time>
      </trkpt>
      <trkpt lat="50.49382" lon="3.17998">
        <ele>53.33</ele>
        <time>2025-05-18T00:34:27.747Z</time>
      </trkpt>
      <trkpt lat="50.49382" lon="3.17987">
        <ele>53.39</ele>
        <time>2025-05-18T00:34:35.709Z</time>
      </trkpt>
      <trkpt lat="50.49383" lon="3.17977">
        <ele>53.44</ele>
        <time>2025-05-18T00:34:43.672Z</time>
      </trkpt>
      <trkpt lat="50.49383" lon="3.17966">
        <ele>53.48</ele>
        <time>2025-05-18T00:34:51.637Z</time>
      </trkpt>
      <trkpt lat="50.49383" lon="3.17956">
        <ele>53.52</ele>
        <time>2025-05-18T00:34:59.603Z</time>
      </trkpt>
      <trkpt lat="50.49383" lon="3.17946">
        <ele>53.54</ele>
        <time>2025-05-18T00:35:07.570Z</time>
      </trkpt>
      <trkpt lat="50.49384" lon="3.17936">
        <ele>53.56</ele>
        <time>2025-05-18T00:35:15.538Z</time>
      </trkpt>
      <trkpt lat="50.49385" lon="3.17925">
        <ele>53.58</ele>
        <time>2025-05-18T00:35:23.507Z</time>
      </trkpt>
      <trkpt lat="50.49385" lon="3.17915">
        <ele>53.59</ele>
        <time>2025-05-18T00:35:31.477Z</time>
      </trkpt>
      <trkpt lat="50.49385" lon="3.17904">
        <ele>53.59</ele>
        <time>2025-05-18T00:35:39.448Z</time>
      </trkpt>
      <trkpt lat="50.49386" lon="3.17894">
        <ele>53.57</ele>
        <time>2025-05-18T00:35:47.420Z</time>
      </trkpt>
      <trkpt lat="50.49386" lon="3.17882">
        <ele>53.54</ele>
        <time>2025-05-18T00:35:55.394Z</time>
      </trkpt>
      <trkpt lat="50.49387" lon="3.17871">
        <ele>53.48</ele>
        <time>2025-05-18T00:36:03.369Z</time>
      </trkpt>
      <trkpt lat="50.49387" lon="3.1786">
        <ele>53.41</ele>
        <time>2025-05-18T00:36:11.345Z</time>
      </trkpt>
      <trkpt lat="50.49388" lon="3.17849">
        <ele>53.34</ele>
        <time>2025-05-18T00:36:19.322Z</time>
      </trkpt>
      <trkpt lat="50.49388" lon="3.17838">
        <ele>53.25</ele>
        <time>2025-05-18T00:36:27.300Z</time>
      </trkpt>
      <trkpt lat="50.49388" lon="3.17826">
        <ele>53.17</ele>
        <time>2025-05-18T00:36:35.280Z</time>
      </trkpt>
      <trkpt lat="50.49389" lon="3.17815">
        <ele>53.09</ele>
        <time>2025-05-18T00:36:43.261Z</time>
      </trkpt>
      <trkpt lat="50.49389" lon="3.17804">
        <ele>53.02</ele>
        <time>2025-05-18T00:36:51.243Z</time>
      </trkpt>
      <trkpt lat="50.4939" lon="3.17792">
        <ele>52.94</ele>
        <time>2025-05-18T00:36:59.226Z</time>
      </trkpt>
      <trkpt lat="50.4939" lon="3.17781">
        <ele>52.86</ele>
        <time>2025-05-18T00:37:07.210Z</time>
      </trkpt>
      <trkpt lat="50.49391" lon="3.1777">
        <ele>52.79</ele>
        <time>2025-05-18T00:37:15.196Z</time>
      </trkpt>
      <trkpt lat="50.49391" lon="3.17758">
        <ele>52.72</ele>
        <time>2025-05-18T00:37:23.183Z</time>
      </trkpt>
      <trkpt lat="50.49392" lon="3.17747">
        <ele>52.65</ele>
        <time>2025-05-18T00:37:31.171Z</time>
      </trkpt>
      <trkpt lat="50.49396" lon="3.17608">
        <ele>52.55</ele>
        <time>2025-05-18T00:37:39.174Z</time>
      </trkpt>
      <trkpt lat="50.49396" lon="3.17597">
        <ele>52.49</ele>
        <time>2025-05-18T00:37:47.178Z</time>
      </trkpt>
      <trkpt lat="50.49397" lon="3.17585">
        <ele>52.45</ele>
        <time>2025-05-18T00:37:55.183Z</time>
      </trkpt>
      <trkpt lat="50.49397" lon="3.17573">
        <ele>52.39</ele>
        <time>2025-05-18T00:38:03.190Z</time>
      </trkpt>
      <trkpt lat="50.49398" lon="3.17562">
        <ele>52.34</ele>
        <time>2025-05-18T00:38:11.198Z</time>
      </trkpt>
      <trkpt lat="50.49398" lon="3.1755">
        <ele>52.31</ele>
        <time>2025-05-18T00:38:19.207Z</time>
      </trkpt>
      <trkpt lat="50.49398" lon="3.17538">
        <ele>52.32</ele>
        <time>2025-05-18T00:38:27.217Z</time>
      </trkpt>
      <trkpt lat="50.49399" lon="3.17526">
        <ele>52.34</ele>
        <time>2025-05-18T00:38:35.229Z</time>
      </trkpt>
      <trkpt lat="50.49399" lon="3.17515">
        <ele>52.37</ele>
        <time>2025-05-18T00:38:43.242Z</time>
      </trkpt>
      <trkpt lat="50.494" lon="3.17503">
        <ele>52.4</ele>
        <time>2025-05-18T00:38:51.256Z</time>
      </trkpt>
      <trkpt lat="50.494" lon="3.17491">
        <ele>52.43</ele>
        <time>2025-05-18T00:38:59.272Z</time>
      </trkpt>
      <trkpt lat="50.494" lon="3.1748">
        <ele>52.48</ele>
        <time>2025-05-18T00:39:07.289Z</time>
      </trkpt>
      <trkpt lat="50.49401" lon="3.17469">
        <ele>52.55</ele>
        <time>2025-05-18T00:39:15.307Z</time>
      </trkpt>
      <trkpt lat="50.49401" lon="3.17458">
        <ele>52.63</ele>
        <time>2025-05-18T00:39:23.326Z</time>
      </trkpt>
      <trkpt lat="50.49401" lon="3.17447">
        <ele>52.7</ele>
        <time>2025-05-18T00:39:31.346Z</time>
      </trkpt>
      <trkpt lat="50.49401" lon="3.17436">
        <ele>52.77</ele>
        <time>2025-05-18T00:39:39.367Z</time>
      </trkpt>
      <trkpt lat="50.49402" lon="3.17425">
        <ele>52.87</ele>
        <time>2025-05-18T00:39:47.390Z</time>
      </trkpt>
      <trkpt lat="50.49403" lon="3.17415">
        <ele>52.98</ele>
        <time>2025-05-18T00:39:55.414Z</time>
      </trkpt>
      <trkpt lat="50.49404" lon="3.17405">
        <ele>53.11</ele>
        <time>2025-05-18T00:40:03.439Z</time>
      </trkpt>
      <trkpt lat="50.49407" lon="3.17396">
        <ele>53.23</ele>
        <time>2025-05-18T00:40:11.465Z</time>
      </trkpt>
      <trkpt lat="50.49411" lon="3.17388">
        <ele>53.35</ele>
        <time>2025-05-18T00:40:19.492Z</time>
      </trkpt>
      <trkpt lat="50.49415" lon="3.1738">
        <ele>53.47</ele>
        <time>2025-05-18T00:40:27.520Z</time>
      </trkpt>
      <trkpt lat="50.49419" lon="3.17372">
        <ele>53.6</ele>
        <time>2025-05-18T00:40:35.549Z</time>
      </trkpt>
      <trkpt lat="50.49423" lon="3.17365">
        <ele>53.73</ele>
        <time>2025-05-18T00:40:43.579Z</time>
      </trkpt>
      <trkpt lat="50.49427" lon="3.17358">
        <ele>53.85</ele>
        <time>2025-05-18T00:40:51.610Z</time>
      </trkpt>
      <trkpt lat="50.4943" lon="3.17351">
        <ele>53.98</ele>
        <time>2025-05-18T00:40:59.642Z</time>
      </trkpt>
      <trkpt lat="50.49434" lon="3.17344">
        <ele>54.09</ele>
        <time>2025-05-18T00:41:07.675Z</time>
      </trkpt>
      <trkpt lat="50.49437" lon="3.17339">
        <ele>54.2</ele>
        <time>2025-05-18T00:41:15.709Z</time>
      </trkpt>
      <trkpt lat="50.49439" lon="3.17334">
        <ele>54.3</ele>
        <time>2025-05-18T00:41:23.743Z</time>
      </trkpt>
      <trkpt lat="50.4944" lon="3.17331">
        <ele>54.39</ele>
        <time>2025-05-18T00:41:31.778Z</time>
      </trkpt>
      <trkpt lat="50.4944" lon="3.1733">
        <ele>54.46</ele>
        <time>2025-05-18T00:41:39.813Z</time>
      </trkpt>
      <trkpt lat="50.49446" lon="3.17321">
        <ele>54.53</ele>
        <time>2025-05-18T00:41:47.849Z</time>
      </trkpt>
      <trkpt lat="50.49447" lon="3.17317">
        <ele>54.58</ele>
        <time>2025-05-18T00:41:55.886Z</time>
      </trkpt>
      <trkpt lat="50.49447" lon="3.17313">
        <ele>54.61</ele>
        <time>2025-05-18T00:42:03.923Z</time>
      </trkpt>
      <trkpt lat="50.49446" lon="3.17309">
        <ele>54.64</ele>
        <time>2025-05-18T00:42:11.961Z</time>
      </trkpt>
      <trkpt lat="50.49445" lon="3.17307">
        <ele>54.65</ele>
        <time>2025-05-18T00:42:19.999Z</time>
      </trkpt>
      <trkpt lat="50.49445" lon="3.17306">
        <ele>54.64</ele>
        <time>2025-05-18T00:42:28.037Z</time>
      </trkpt>
      <trkpt lat="50.4944" lon="3.17299">
        <ele>54.62</ele>
        <time>2025-05-18T00:42:36.076Z</time>
      </trkpt>
      <trkpt lat="50.49438" lon="3.17296">
        <ele>54.58</ele>
        <time>2025-05-18T00:42:44.116Z</time>
      </trkpt>
      <trkpt lat="50.49436" lon="3.17293">
        <ele>54.53</ele>
        <time>2025-05-18T00:42:52.156Z</time>
      </trkpt>
      <trkpt lat="50.49434" lon="3.1729">
        <ele>54.47</ele>
        <time>2025-05-18T00:43:00.197Z</time>
      </trkpt>
      <trkpt lat="50.49431" lon="3.17286">
        <ele>54.39</ele>
        <time>2025-05-18T00:43:08.238Z</time>
      </trkpt>
      <trkpt lat="50.49428" lon="3.17283">
        <ele>54.29</ele>
        <time>2025-05-18T00:43:16.280Z</time>
      </trkpt>
      <trkpt lat="50.49425" lon="3.17279">
        <ele>54.19</ele>
        <time>2025-05-18T00:43:24.322Z</time>
      </trkpt>
      <trkpt lat="50.49422" lon="3.17275">
        <ele>54.07</ele>
        <time>2025-05-18T00:43:32.365Z</time>
      </trkpt>
      <trkpt lat="50.4942" lon="3.17271">
        <ele>53.95</ele>
        <time>2025-05-18T00:43:40.409Z</time>
      </trkpt>
      <trkpt lat="50.49417" lon="3.17267">
        <ele>53.81</ele>
        <time>2025-05-18T00:43:48.453Z</time>
      </trkpt>
      <trkpt lat="50.49414" lon="3.17263">
        <ele>53.65</ele>
        <time>2025-05-18T00:43:56.498Z</time>
      </trkpt>
      <trkpt lat="50.49412" lon="3.17258">
        <ele>53.49</ele>
        <time>2025-05-18T00:44:04.544Z</time>
      </trkpt>
      <trkpt lat="50.4941" lon="3.17253">
        <ele>53.33</ele>
        <time>2025-05-18T00:44:12.590Z</time>
      </trkpt>
      <trkpt lat="50.49408" lon="3.17248">
        <ele>53.16</ele>
        <time>2025-05-18T00:44:20.637Z</time>
      </trkpt>
      <trkpt lat="50.49406" lon="3.17242">
        <ele>52.98</ele>
        <time>2025-05-18T00:44:28.685Z</time>
      </trkpt>
      <trkpt lat="50.49405" lon="3.17235">
        <ele>52.8</ele>
        <time>2025-05-18T00:44:36.733Z</time>
      </trkpt>
      <trkpt lat="50.49402" lon="3.17229">
        <ele>52.62</ele>
        <time>2025-05-18T00:44:44.782Z</time>
      </trkpt>
      <trkpt lat="50.494" lon="3.17221">
        <ele>52.44</ele>
        <time>2025-05-18T00:44:52.832Z</time>
      </trkpt>
      <trkpt lat="50.49398" lon="3.17214">
        <ele>52.26</ele>
        <time>2025-05-18T00:45:00.883Z</time>
      </trkpt>
      <trkpt lat="50.49395" lon="3.17206">
        <ele>52.08</ele>
        <time>2025-05-18T00:45:08.935Z</time>
      </trkpt>
      <trkpt lat="50.49393" lon="3.17198">
        <ele>51.91</ele>
        <time>2025-05-18T00:45:16.988Z</time>
      </trkpt>
      <trkpt lat="50.4939" lon="3.1719">
        <ele>51.74</ele>
        <time>2025-05-18T00:45:25.042Z</time>
      </trkpt>
      <trkpt lat="50.49387" lon="3.17182">
        <ele>51.57</ele>
        <time>2025-05-18T00:45:33.097Z</time>
      </trkpt>
      <trkpt lat="50.49385" lon="3.17174">
        <ele>51.42</ele>
        <time>2025-05-18T00:45:41.153Z</time>
      </trkpt>
      <trkpt lat="50.49383" lon="3.17165">
        <ele>51.28</ele>
        <time>2025-05-18T00:45:49.210Z</time>
      </trkpt>
      <trkpt lat="50.4938" lon="3.17157">
        <ele>51.14</ele>
        <time>2025-05-18T00:45:57.268Z</time>
      </trkpt>
      <trkpt lat="50.49377" lon="3.17149">
        <ele>51.03</ele>
        <time>2025-05-18T00:46:05.327Z</time>
      </trkpt>
      <trkpt lat="50.49364" lon="3.1711">
        <ele>50.93</ele>
        <time>2025-05-18T00:46:13.390Z</time>
      </trkpt>
      <trkpt lat="50.49352" lon="3.1707">
        <ele>50.84</ele>
        <time>2025-05-18T00:46:21.458Z</time>
      </trkpt>
      <trkpt lat="50.4934" lon="3.1703">
        <ele>50.76</ele>
        <time>2025-05-18T00:46:29.531Z</time>
      </trkpt>
      <trkpt lat="50.49327" lon="3.1699">
        <ele>50.67</ele>
        <time>2025-05-18T00:46:37.609Z</time>
      </trkpt>
      <trkpt lat="50.49315" lon="3.16951">
        <ele>50.57</ele>
        <time>2025-05-18T00:46:45.691Z</time>
      </trkpt>
      <trkpt lat="50.49303" lon="3.16911">
        <ele>50.48</ele>
        <time>2025-05-18T00:46:53.778Z</time>
      </trkpt>
      <trkpt lat="50.49291" lon="3.16872">
        <ele>50.41</ele>
        <time>2025-05-18T00:47:01.870Z</time>
      </trkpt>
      <trkpt lat="50.49281" lon="3.1684">
        <ele>50.35</ele>
        <time>2025-05-18T00:47:09.966Z</time>
      </trkpt>
      <trkpt lat="50.49271" lon="3.16808">
        <ele>50.3</ele>
        <time>2025-05-18T00:47:18.065Z</time>
      </trkpt>
      <trkpt lat="50.49289" lon="3.16782">
        <ele>50.2</ele>
        <time>2025-05-18T00:47:26.168Z</time>
      </trkpt>
      <trkpt lat="50.49307" lon="3.16757">
        <ele>50.06</ele>
        <time>2025-05-18T00:47:34.275Z</time>
      </trkpt>
      <trkpt lat="50.49325" lon="3.16732">
        <ele>49.95</ele>
        <time>2025-05-18T00:47:42.386Z</time>
      </trkpt>
      <trkpt lat="50.49342" lon="3.16707">
        <ele>49.81</ele>
        <time>2025-05-18T00:47:50.501Z</time>
      </trkpt>
      <trkpt lat="50.49357" lon="3.16681">
        <ele>49.7</ele>
        <time>2025-05-18T00:47:58.620Z</time>
      </trkpt>
      <trkpt lat="50.49372" lon="3.16655">
        <ele>49.58</ele>
        <time>2025-05-18T00:48:06.743Z</time>
      </trkpt>
      <trkpt lat="50.49383" lon="3.16634">
        <ele>49.47</ele>
        <time>2025-05-18T00:48:14.869Z</time>
      </trkpt>
      <trkpt lat="50.49394" lon="3.16612">
        <ele>49.4</ele>
        <time>2025-05-18T00:48:22.998Z</time>
      </trkpt>
      <trkpt lat="50.49411" lon="3.16576">
        <ele>49.3</ele>
        <time>2025-05-18T00:48:31.132Z</time>
      </trkpt>
      <trkpt lat="50.49428" lon="3.1654">
        <ele>49.17</ele>
        <time>2025-05-18T00:48:39.270Z</time>
      </trkpt>
      <trkpt lat="50.49445" lon="3.16504">
        <ele>49.09</ele>
        <time>2025-05-18T00:48:47.413Z</time>
      </trkpt>
      <trkpt lat="50.49462" lon="3.16468">
        <ele>49.04</ele>
        <time>2025-05-18T00:48:55.561Z</time>
      </trkpt>
      <trkpt lat="50.49477" lon="3.16434">
        <ele>49</ele>
        <time>2025-05-18T00:49:03.713Z</time>
      </trkpt>
      <trkpt lat="50.49492" lon="3.16399">
        <ele>48.94</ele>
        <time>2025-05-18T00:49:11.870Z</time>
      </trkpt>
      <trkpt lat="50.49507" lon="3.16364">
        <ele>48.88</ele>
        <time>2025-05-18T00:49:20.031Z</time>
      </trkpt>
      <trkpt lat="50.49522" lon="3.16329">
        <ele>48.82</ele>
        <time>2025-05-18T00:49:28.197Z</time>
      </trkpt>
      <trkpt lat="50.49536" lon="3.16292">
        <ele>48.76</ele>
        <time>2025-05-18T00:49:36.368Z</time>
      </trkpt>
      <trkpt lat="50.49549" lon="3.16255">
        <ele>48.69</ele>
        <time>2025-05-18T00:49:44.543Z</time>
      </trkpt>
      <trkpt lat="50.49562" lon="3.16218">
        <ele>48.64</ele>
        <time>2025-05-18T00:49:52.723Z</time>
      </trkpt>
      <trkpt lat="50.49576" lon="3.16181">
        <ele>48.57</ele>
        <time>2025-05-18T00:50:00.907Z</time>
      </trkpt>
      <trkpt lat="50.49589" lon="3.16144">
        <ele>48.56</ele>
        <time>2025-05-18T00:50:09.096Z</time>
      </trkpt>
      <trkpt lat="50.49603" lon="3.16105">
        <ele>48.56</ele>
        <time>2025-05-18T00:50:17.289Z</time>
      </trkpt>
      <trkpt lat="50.49616" lon="3.16065">
        <ele>48.52</ele>
        <time>2025-05-18T00:50:25.487Z</time>
      </trkpt>
      <trkpt lat="50.4963" lon="3.16026">
        <ele>48.49</ele>
        <time>2025-05-18T00:50:33.690Z</time>
      </trkpt>
      <trkpt lat="50.49644" lon="3.15986">
        <ele>48.48</ele>
        <time>2025-05-18T00:50:41.898Z</time>
      </trkpt>
      <trkpt lat="50.49658" lon="3.15947">
        <ele>48.51</ele>
        <time>2025-05-18T00:50:50.111Z</time>
      </trkpt>
      <trkpt lat="50.49668" lon="3.15928">
        <ele>48.48</ele>
        <time>2025-05-18T00:50:58.326Z</time>
      </trkpt>
      <trkpt lat="50.4969" lon="3.15959">
        <ele>48.41</ele>
        <time>2025-05-18T00:51:06.546Z</time>
      </trkpt>
      <trkpt lat="50.49711" lon="3.1599">
        <ele>48.38</ele>
        <time>2025-05-18T00:51:14.771Z</time>
      </trkpt>
      <trkpt lat="50.49733" lon="3.16021">
        <ele>48.35</ele>
        <time>2025-05-18T00:51:23.001Z</time>
      </trkpt>
      <trkpt lat="50.49754" lon="3.16052">
        <ele>48.33</ele>
        <time>2025-05-18T00:51:31.236Z</time>
      </trkpt>
      <trkpt lat="50.49776" lon="3.16084">
        <ele>48.34</ele>
        <time>2025-05-18T00:51:39.476Z</time>
      </trkpt>
      <trkpt lat="50.49797" lon="3.16114">
        <ele>48.34</ele>
        <time>2025-05-18T00:51:47.721Z</time>
      </trkpt>
      <trkpt lat="50.49812" lon="3.16137">
        <ele>48.29</ele>
        <time>2025-05-18T00:51:55.969Z</time>
      </trkpt>
      <trkpt lat="50.49827" lon="3.16159">
        <ele>48.19</ele>
        <time>2025-05-18T00:52:04.221Z</time>
      </trkpt>
      <trkpt lat="50.49841" lon="3.16187">
        <ele>48.13</ele>
        <time>2025-05-18T00:52:12.477Z</time>
      </trkpt>
      <trkpt lat="50.49856" lon="3.16214">
        <ele>48.07</ele>
        <time>2025-05-18T00:52:20.736Z</time>
      </trkpt>
      <trkpt lat="50.4987" lon="3.16241">
        <ele>48.05</ele>
        <time>2025-05-18T00:52:28.999Z</time>
      </trkpt>
      <trkpt lat="50.49889" lon="3.16268">
        <ele>48</ele>
        <time>2025-05-18T00:52:37.267Z</time>
      </trkpt>
      <trkpt lat="50.49909" lon="3.16295">
        <ele>47.86</ele>
        <time>2025-05-18T00:52:45.539Z</time>
      </trkpt>
      <trkpt lat="50.49928" lon="3.16322">
        <ele>47.77</ele>
        <time>2025-05-18T00:52:53.815Z</time>
      </trkpt>
      <trkpt lat="50.49935" lon="3.16331">
        <ele>47.69</ele>
        <time>2025-05-18T00:53:02.093Z</time>
      </trkpt>
      <trkpt lat="50.49947" lon="3.16348">
        <ele>47.61</ele>
        <time>2025-05-18T00:53:10.374Z</time>
      </trkpt>
      <trkpt lat="50.49952" lon="3.16355">
        <ele>47.52</ele>
        <time>2025-05-18T00:53:18.656Z</time>
      </trkpt>
      <trkpt lat="50.49952" lon="3.16355">
        <ele>47.43</ele>
        <time>2025-05-18T00:53:26.938Z</time>
      </trkpt>
      <trkpt lat="50.49969" lon="3.16385">
        <ele>47.33</ele>
        <time>2025-05-18T00:53:35.224Z</time>
      </trkpt>
      <trkpt lat="50.49987" lon="3.16416">
        <ele>47.23</ele>
        <time>2025-05-18T00:53:43.514Z</time>
      </trkpt>
      <trkpt lat="50.50005" lon="3.16447">
        <ele>47.14</ele>
        <time>2025-05-18T00:53:51.809Z</time>
      </trkpt>
      <trkpt lat="50.50022" lon="3.16477">
        <ele>47.02</ele>
        <time>2025-05-18T00:54:00.108Z</time>
      </trkpt>
      <trkpt lat="50.50036" lon="3.16505">
        <ele>46.86</ele>
        <time>2025-05-18T00:54:08.411Z</time>
      </trkpt>
      <trkpt lat="50.5005" lon="3.16533">
        <ele>46.7</ele>
        <time>2025-05-18T00:54:16.718Z</time>
      </trkpt>
      <trkpt lat="50.50065" lon="3.16562">
        <ele>46.57</ele>
        <time>2025-05-18T00:54:25.029Z</time>
      </trkpt>
      <trkpt lat="50.5008" lon="3.16592">
        <ele>46.44</ele>
        <time>2025-05-18T00:54:33.344Z</time>
      </trkpt>
      <trkpt lat="50.50095" lon="3.16621">
        <ele>46.32</ele>
        <time>2025-05-18T00:54:41.663Z</time>
      </trkpt>
      <trkpt lat="50.50119" lon="3.16653">
        <ele>46.2</ele>
        <time>2025-05-18T00:54:49.987Z</time>
      </trkpt>
      <trkpt lat="50.50136" lon="3.16673">
        <ele>46.06</ele>
        <time>2025-05-18T00:54:58.315Z</time>
      </trkpt>
      <trkpt lat="50.50153" lon="3.16694">
        <ele>45.92</ele>
        <time>2025-05-18T00:55:06.646Z</time>
      </trkpt>
      <trkpt lat="50.50179" lon="3.1672">
        <ele>45.77</ele>
        <time>2025-05-18T00:55:14.983Z</time>
      </trkpt>
      <trkpt lat="50.50205" lon="3.16745">
        <ele>45.63</ele>
        <time>2025-05-18T00:55:23.325Z</time>
      </trkpt>
      <trkpt lat="50.50228" lon="3.16765">
        <ele>45.49</ele>
        <time>2025-05-18T00:55:31.671Z</time>
      </trkpt>
      <trkpt lat="50.50252" lon="3.16785">
        <ele>45.31</ele>
        <time>2025-05-18T00:55:40.022Z</time>
      </trkpt>
      <trkpt lat="50.50276" lon="3.16804">
        <ele>45.13</ele>
        <time>2025-05-18T00:55:48.377Z</time>
      </trkpt>
      <trkpt lat="50.50299" lon="3.16824">
        <ele>44.98</ele>
        <time>2025-05-18T00:55:56.737Z</time>
      </trkpt>
      <trkpt lat="50.50323" lon="3.16844">
        <ele>44.85</ele>
        <time>2025-05-18T00:56:05.101Z</time>
      </trkpt>
      <trkpt lat="50.50346" lon="3.16863">
        <ele>44.69</ele>
        <time>2025-05-18T00:56:13.470Z</time>
      </trkpt>
      <trkpt lat="50.50364" lon="3.16875">
        <ele>44.47</ele>
        <time>2025-05-18T00:56:21.842Z</time>
      </trkpt>
      <trkpt lat="50.50381" lon="3.16887">
        <ele>44.17</ele>
        <time>2025-05-18T00:56:30.217Z</time>
      </trkpt>
      <trkpt lat="50.5041" lon="3.16902">
        <ele>43.84</ele>
        <time>2025-05-18T00:56:38.597Z</time>
      </trkpt>
      <trkpt lat="50.50439" lon="3.16917">
        <ele>43.62</ele>
        <time>2025-05-18T00:56:46.982Z</time>
      </trkpt>
      <trkpt lat="50.50468" lon="3.16932">
        <ele>43.38</ele>
        <time>2025-05-18T00:56:55.372Z</time>
      </trkpt>
      <trkpt lat="50.50497" lon="3.16947">
        <ele>43.19</ele>
        <time>2025-05-18T00:57:03.767Z</time>
      </trkpt>
      <trkpt lat="50.5052" lon="3.16957">
        <ele>43</ele>
        <time>2025-05-18T00:57:12.167Z</time>
      </trkpt>
      <trkpt lat="50.50544" lon="3.16967">
        <ele>42.85</ele>
        <time>2025-05-18T00:57:20.571Z</time>
      </trkpt>
      <trkpt lat="50.50567" lon="3.16977">
        <ele>42.71</ele>
        <time>2025-05-18T00:57:28.979Z</time>
      </trkpt>
      <trkpt lat="50.50593" lon="3.16976">
        <ele>42.55</ele>
        <time>2025-05-18T00:57:37.391Z</time>
      </trkpt>
      <trkpt lat="50.50619" lon="3.16974">
        <ele>42.4</ele>
        <time>2025-05-18T00:57:45.807Z</time>
      </trkpt>
      <trkpt lat="50.50645" lon="3.16973">
        <ele>42.24</ele>
        <time>2025-05-18T00:57:54.228Z</time>
      </trkpt>
      <trkpt lat="50.50666" lon="3.16968">
        <ele>42.13</ele>
        <time>2025-05-18T00:58:02.652Z</time>
      </trkpt>
      <trkpt lat="50.50675" lon="3.16975">
        <ele>42.04</ele>
        <time>2025-05-18T00:58:11.078Z</time>
      </trkpt>
      <trkpt lat="50.50683" lon="3.16988">
        <ele>41.97</ele>
        <time>2025-05-18T00:58:19.506Z</time>
      </trkpt>
      <trkpt lat="50.5069" lon="3.16996">
        <ele>41.92</ele>
        <time>2025-05-18T00:58:27.935Z</time>
      </trkpt>
      <trkpt lat="50.50694" lon="3.16986">
        <ele>41.87</ele>
        <time>2025-05-18T00:58:36.366Z</time>
      </trkpt>
      <trkpt lat="50.50724" lon="3.16996">
        <ele>41.84</ele>
        <time>2025-05-18T00:58:44.802Z</time>
      </trkpt>
      <trkpt lat="50.50737" lon="3.17005">
        <ele>41.78</ele>
        <time>2025-05-18T00:58:53.240Z</time>
      </trkpt>
      <trkpt lat="50.5075" lon="3.17024">
        <ele>41.74</ele>
        <time>2025-05-18T00:59:01.681Z</time>
      </trkpt>
      <trkpt lat="50.50763" lon="3.17044">
        <ele>41.76</ele>
        <time>2025-05-18T00:59:10.125Z</time>
      </trkpt>
      <trkpt lat="50.50786" lon="3.17068">
        <ele>41.8</ele>
        <time>2025-05-18T00:59:18.574Z</time>
      </trkpt>
      <trkpt lat="50.5081" lon="3.17093">
        <ele>41.87</ele>
        <time>2025-05-18T00:59:27.028Z</time>
      </trkpt>
      <trkpt lat="50.50816" lon="3.1711">
        <ele>41.96</ele>
        <time>2025-05-18T00:59:35.484Z</time>
      </trkpt>
      <trkpt lat="50.50827" lon="3.17112">
        <ele>42.07</ele>
        <time>2025-05-18T00:59:43.942Z</time>
      </trkpt>
      <trkpt lat="50.50848" lon="3.17119">
        <ele>42.25</ele>
        <time>2025-05-18T00:59:52.403Z</time>
      </trkpt>
      <trkpt lat="50.5087" lon="3.17125">
        <ele>42.4</ele>
        <time>2025-05-18T01:00:00.868Z</time>
      </trkpt>
      <trkpt lat="50.50885" lon="3.17129">
        <ele>42.52</ele>
        <time>2025-05-18T01:00:09.336Z</time>
      </trkpt>
      <trkpt lat="50.50896" lon="3.17132">
        <ele>42.67</ele>
        <time>2025-05-18T01:00:17.805Z</time>
      </trkpt>
      <trkpt lat="50.50913" lon="3.17138">
        <ele>42.83</ele>
        <time>2025-05-18T01:00:26.277Z</time>
      </trkpt>
      <trkpt lat="50.50926" lon="3.17142">
        <ele>43.01</ele>
        <time>2025-05-18T01:00:34.752Z</time>
      </trkpt>
      <trkpt lat="50.50942" lon="3.17147">
        <ele>43.2</ele>
        <time>2025-05-18T01:00:43.229Z</time>
      </trkpt>
      <trkpt lat="50.50958" lon="3.17151">
        <ele>43.42</ele>
        <time>2025-05-18T01:00:51.709Z</time>
      </trkpt>
      <trkpt lat="50.50977" lon="3.17157">
        <ele>43.64</ele>
        <time>2025-05-18T01:01:00.192Z</time>
      </trkpt>
      <trkpt lat="50.5099" lon="3.17162">
        <ele>43.84</ele>
        <time>2025-05-18T01:01:08.678Z</time>
      </trkpt>
      <trkpt lat="50.51018" lon="3.1717">
        <ele>44.06</ele>
        <time>2025-05-18T01:01:17.168Z</time>
      </trkpt>
      <trkpt lat="50.51037" lon="3.17174">
        <ele>44.29</ele>
        <time>2025-05-18T01:01:25.662Z</time>
      </trkpt>
      <trkpt lat="50.51067" lon="3.17177">
        <ele>44.5</ele>
        <time>2025-05-18T01:01:34.161Z</time>
      </trkpt>
      <trkpt lat="50.51097" lon="3.17179">
        <ele>44.7</ele>
        <time>2025-05-18T01:01:42.665Z</time>
      </trkpt>
      <trkpt lat="50.51112" lon="3.17177">
        <ele>44.91</ele>
        <time>2025-05-18T01:01:51.171Z</time>
      </trkpt>
      <trkpt lat="50.51138" lon="3.17168">
        <ele>45.15</ele>
        <time>2025-05-18T01:01:59.682Z</time>
      </trkpt>
      <trkpt lat="50.51157" lon="3.17148">
        <ele>45.34</ele>
        <time>2025-05-18T01:02:08.197Z</time>
      </trkpt>
      <trkpt lat="50.51177" lon="3.17127">
        <ele>45.55</ele>
        <time>2025-05-18T01:02:16.716Z</time>
      </trkpt>
      <trkpt lat="50.51185" lon="3.17119">
        <ele>45.72</ele>
        <time>2025-05-18T01:02:25.236Z</time>
      </trkpt>
      <trkpt lat="50.51201" lon="3.171">
        <ele>45.91</ele>
        <time>2025-05-18T01:02:33.760Z</time>
      </trkpt>
      <trkpt lat="50.51218" lon="3.17082">
        <ele>46.1</ele>
        <time>2025-05-18T01:02:42.287Z</time>
      </trkpt>
      <trkpt lat="50.51245" lon="3.17067">
        <ele>46.29</ele>
        <time>2025-05-18T01:02:50.819Z</time>
      </trkpt>
      <trkpt lat="50.51263" lon="3.17062">
        <ele>46.43</ele>
        <time>2025-05-18T01:02:59.354Z</time>
      </trkpt>
      <trkpt lat="50.5128" lon="3.17056">
        <ele>46.59</ele>
        <time>2025-05-18T01:03:07.892Z</time>
      </trkpt>
      <trkpt lat="50.51291" lon="3.17052">
        <ele>46.69</ele>
        <time>2025-05-18T01:03:16.432Z</time>
      </trkpt>
      <trkpt lat="50.51314" lon="3.17037">
        <ele>46.74</ele>
        <time>2025-05-18T01:03:24.976Z</time>
      </trkpt>
      <trkpt lat="50.51323" lon="3.17044">
        <ele>46.79</ele>
        <time>2025-05-18T01:03:33.521Z</time>
      </trkpt>
      <trkpt lat="50.51331" lon="3.17071">
        <ele>46.78</ele>
        <time>2025-05-18T01:03:42.070Z</time>
      </trkpt>
      <trkpt lat="50.51344" lon="3.17104">
        <ele>46.78</ele>
        <time>2025-05-18T01:03:50.623Z</time>
      </trkpt>
      <trkpt lat="50.51357" lon="3.17123">
        <ele>46.77</ele>
        <time>2025-05-18T01:03:59.179Z</time>
      </trkpt>
      <trkpt lat="50.51376" lon="3.1714">
        <ele>46.76</ele>
        <time>2025-05-18T01:04:07.739Z</time>
      </trkpt>
      <trkpt lat="50.51398" lon="3.17149">
        <ele>46.72</ele>
        <time>2025-05-18T01:04:16.302Z</time>
      </trkpt>
      <trkpt lat="50.51419" lon="3.17157">
        <ele>46.63</ele>
        <time>2025-05-18T01:04:24.869Z</time>
      </trkpt>
      <trkpt lat="50.51419" lon="3.17157">
        <ele>46.52</ele>
        <time>2025-05-18T01:04:33.436Z</time>
      </trkpt>
      <trkpt lat="50.51432" lon="3.17157">
        <ele>46.39</ele>
        <time>2025-05-18T01:04:42.005Z</time>
      </trkpt>
      <trkpt lat="50.51454" lon="3.17151">
        <ele>46.24</ele>
        <time>2025-05-18T01:04:50.578Z</time>
      </trkpt>
      <trkpt lat="50.51477" lon="3.1714">
        <ele>46.06</ele>
        <time>2025-05-18T01:04:59.155Z</time>
      </trkpt>
      <trkpt lat="50.51499" lon="3.17129">
        <ele>45.87</ele>
        <time>2025-05-18T01:05:07.736Z</time>
      </trkpt>
      <trkpt lat="50.51505" lon="3.17125">
        <ele>45.66</ele>
        <time>2025-05-18T01:05:16.318Z</time>
      </trkpt>
      <trkpt lat="50.51524" lon="3.17121">
        <ele>45.43</ele>
        <time>2025-05-18T01:05:24.903Z</time>
      </trkpt>
      <trkpt lat="50.51531" lon="3.17132">
        <ele>45.17</ele>
        <time>2025-05-18T01:05:33.490Z</time>
      </trkpt>
      <trkpt lat="50.51537" lon="3.17149">
        <ele>44.91</ele>
        <time>2025-05-18T01:05:42.079Z</time>
      </trkpt>
      <trkpt lat="50.51545" lon="3.17192">
        <ele>44.64</ele>
        <time>2025-05-18T01:05:50.673Z</time>
      </trkpt>
      <trkpt lat="50.51553" lon="3.17235">
        <ele>44.32</ele>
        <time>2025-05-18T01:05:59.271Z</time>
      </trkpt>
      <trkpt lat="50.51561" lon="3.17277">
        <ele>44.02</ele>
        <time>2025-05-18T01:06:07.874Z</time>
      </trkpt>
      <trkpt lat="50.51582" lon="3.17306">
        <ele>43.72</ele>
        <time>2025-05-18T01:06:16.482Z</time>
      </trkpt>
      <trkpt lat="50.51602" lon="3.17334">
        <ele>43.39</ele>
        <time>2025-05-18T01:06:25.094Z</time>
      </trkpt>
      <trkpt lat="50.51623" lon="3.17363">
        <ele>43.08</ele>
        <time>2025-05-18T01:06:33.711Z</time>
      </trkpt>
      <trkpt lat="50.51643" lon="3.17391">
        <ele>42.79</ele>
        <time>2025-05-18T01:06:42.333Z</time>
      </trkpt>
      <trkpt lat="50.51664" lon="3.17419">
        <ele>42.46</ele>
        <time>2025-05-18T01:06:50.959Z</time>
      </trkpt>
      <trkpt lat="50.51688" lon="3.17436">
        <ele>42.15</ele>
        <time>2025-05-18T01:06:59.590Z</time>
      </trkpt>
      <trkpt lat="50.51713" lon="3.17453">
        <ele>41.9</ele>
        <time>2025-05-18T01:07:08.225Z</time>
      </trkpt>
      <trkpt lat="50.51737" lon="3.17469">
        <ele>41.7</ele>
        <time>2025-05-18T01:07:16.865Z</time>
      </trkpt>
      <trkpt lat="50.51762" lon="3.17486">
        <ele>41.55</ele>
        <time>2025-05-18T01:07:25.509Z</time>
      </trkpt>
      <trkpt lat="50.51786" lon="3.17503">
        <ele>41.38</ele>
        <time>2025-05-18T01:07:34.158Z</time>
      </trkpt>
      <trkpt lat="50.51804" lon="3.17519">
        <ele>41.25</ele>
        <time>2025-05-18T01:07:42.810Z</time>
      </trkpt>
      <trkpt lat="50.51823" lon="3.17535">
        <ele>41.18</ele>
        <time>2025-05-18T01:07:51.466Z</time>
      </trkpt>
      <trkpt lat="50.5184" lon="3.17554">
        <ele>41.14</ele>
        <time>2025-05-18T01:08:00.125Z</time>
      </trkpt>
      <trkpt lat="50.51857" lon="3.17574">
        <ele>41.14</ele>
        <time>2025-05-18T01:08:08.788Z</time>
      </trkpt>
      <trkpt lat="50.51883" lon="3.17589">
        <ele>41.21</ele>
        <time>2025-05-18T01:08:17.455Z</time>
      </trkpt>
      <trkpt lat="50.51913" lon="3.176">
        <ele>41.36</ele>
        <time>2025-05-18T01:08:26.128Z</time>
      </trkpt>
      <trkpt lat="50.51943" lon="3.17612">
        <ele>41.53</ele>
        <time>2025-05-18T01:08:34.806Z</time>
      </trkpt>
      <trkpt lat="50.51965" lon="3.1762">
        <ele>41.7</ele>
        <time>2025-05-18T01:08:43.488Z</time>
      </trkpt>
      <trkpt lat="50.51988" lon="3.17627">
        <ele>41.91</ele>
        <time>2025-05-18T01:08:52.174Z</time>
      </trkpt>
      <trkpt lat="50.52009" lon="3.17623">
        <ele>42.12</ele>
        <time>2025-05-18T01:09:00.863Z</time>
      </trkpt>
      <trkpt lat="50.52027" lon="3.1761">
        <ele>42.32</ele>
        <time>2025-05-18T01:09:09.555Z</time>
      </trkpt>
      <trkpt lat="50.52046" lon="3.17584">
        <ele>42.5</ele>
        <time>2025-05-18T01:09:18.252Z</time>
      </trkpt>
      <trkpt lat="50.52065" lon="3.17559">
        <ele>42.69</ele>
        <time>2025-05-18T01:09:26.953Z</time>
      </trkpt>
      <trkpt lat="50.52071" lon="3.17555">
        <ele>42.94</ele>
        <time>2025-05-18T01:09:35.655Z</time>
      </trkpt>
      <trkpt lat="50.52092" lon="3.17544">
        <ele>43.22</ele>
        <time>2025-05-18T01:09:44.361Z</time>
      </trkpt>
      <trkpt lat="50.52112" lon="3.17533">
        <ele>43.46</ele>
        <time>2025-05-18T01:09:53.070Z</time>
      </trkpt>
      <trkpt lat="50.52117" lon="3.17531">
        <ele>43.73</ele>
        <time>2025-05-18T01:10:01.780Z</time>
      </trkpt>
      <trkpt lat="50.52142" lon="3.17522">
        <ele>43.99</ele>
        <time>2025-05-18T01:10:10.494Z</time>
      </trkpt>
      <trkpt lat="50.52174" lon="3.17524">
        <ele>44.35</ele>
        <time>2025-05-18T01:10:19.214Z</time>
      </trkpt>
      <trkpt lat="50.52205" lon="3.17526">
        <ele>44.73</ele>
        <time>2025-05-18T01:10:27.939Z</time>
      </trkpt>
      <trkpt lat="50.52215" lon="3.17481">
        <ele>45.03</ele>
        <time>2025-05-18T01:10:36.669Z</time>
      </trkpt>
      <trkpt lat="50.52222" lon="3.17454">
        <ele>45.32</ele>
        <time>2025-05-18T01:10:45.402Z</time>
      </trkpt>
      <trkpt lat="50.52228" lon="3.17428">
        <ele>45.65</ele>
        <time>2025-05-18T01:10:54.138Z</time>
      </trkpt>
      <trkpt lat="50.52237" lon="3.17395">
        <ele>46.01</ele>
        <time>2025-05-18T01:11:02.878Z</time>
      </trkpt>
      <trkpt lat="50.52245" lon="3.17363">
        <ele>46.32</ele>
        <time>2025-05-18T01:11:11.622Z</time>
      </trkpt>
      <trkpt lat="50.52255" lon="3.17325">
        <ele>46.67</ele>
        <time>2025-05-18T01:11:20.370Z</time>
      </trkpt>
      <trkpt lat="50.52265" lon="3.17287">
        <ele>47</ele>
        <time>2025-05-18T01:11:29.122Z</time>
      </trkpt>
      <trkpt lat="50.52275" lon="3.1725">
        <ele>47.33</ele>
        <time>2025-05-18T01:11:37.879Z</time>
      </trkpt>
      <trkpt lat="50.52288" lon="3.17228">
        <ele>47.74</ele>
        <time>2025-05-18T01:11:46.639Z</time>
      </trkpt>
      <trkpt lat="50.52314" lon="3.17217">
        <ele>48.1</ele>
        <time>2025-05-18T01:11:55.403Z</time>
      </trkpt>
      <trkpt lat="50.52327" lon="3.17217">
        <ele>48.43</ele>
        <time>2025-05-18T01:12:04.170Z</time>
      </trkpt>
      <trkpt lat="50.52338" lon="3.17219">
        <ele>48.76</ele>
        <time>2025-05-18T01:12:12.938Z</time>
      </trkpt>
      <trkpt lat="50.52361" lon="3.17241">
        <ele>49.01</ele>
        <time>2025-05-18T01:12:21.711Z</time>
      </trkpt>
      <trkpt lat="50.52366" lon="3.17245">
        <ele>49.33</ele>
        <time>2025-05-18T01:12:30.485Z</time>
      </trkpt>
      <trkpt lat="50.52387" lon="3.17265">
        <ele>49.68</ele>
        <time>2025-05-18T01:12:39.263Z</time>
      </trkpt>
      <trkpt lat="50.52404" lon="3.17267">
        <ele>50</ele>
        <time>2025-05-18T01:12:48.044Z</time>
      </trkpt>
      <trkpt lat="50.52419" lon="3.17254">
        <ele>50.31</ele>
        <time>2025-05-18T01:12:56.828Z</time>
      </trkpt>
      <trkpt lat="50.52432" lon="3.17227">
        <ele>50.58</ele>
        <time>2025-05-18T01:13:05.615Z</time>
      </trkpt>
      <trkpt lat="50.52445" lon="3.17199">
        <ele>50.87</ele>
        <time>2025-05-18T01:13:14.406Z</time>
      </trkpt>
      <trkpt lat="50.52458" lon="3.17172">
        <ele>51.14</ele>
        <time>2025-05-18T01:13:23.201Z</time>
      </trkpt>
      <trkpt lat="50.52475" lon="3.17134">
        <ele>51.48</ele>
        <time>2025-05-18T01:13:32.001Z</time>
      </trkpt>
      <trkpt lat="50.52479" lon="3.17101">
        <ele>51.7</ele>
        <time>2025-05-18T01:13:40.804Z</time>
      </trkpt>
      <trkpt lat="50.52474" lon="3.17072">
        <ele>51.85</ele>
        <time>2025-05-18T01:13:49.610Z</time>
      </trkpt>
      <trkpt lat="50.52469" lon="3.17044">
        <ele>51.93</ele>
        <time>2025-05-18T01:13:58.420Z</time>
      </trkpt>
      <trkpt lat="50.52473" lon="3.17024">
        <ele>52.02</ele>
        <time>2025-05-18T01:14:07.232Z</time>
      </trkpt>
      <trkpt lat="50.52494" lon="3.16995">
        <ele>52.03</ele>
        <time>2025-05-18T01:14:16.049Z</time>
      </trkpt>
      <trkpt lat="50.52516" lon="3.16965">
        <ele>52.06</ele>
        <time>2025-05-18T01:14:24.870Z</time>
      </trkpt>
      <trkpt lat="50.52537" lon="3.16936">
        <ele>52.04</ele>
        <time>2025-05-18T01:14:33.696Z</time>
      </trkpt>
      <trkpt lat="50.52546" lon="3.16923">
        <ele>51.99</ele>
        <time>2025-05-18T01:14:42.524Z</time>
      </trkpt>
      <trkpt lat="50.52546" lon="3.16923">
        <ele>51.92</ele>
        <time>2025-05-18T01:14:51.352Z</time>
      </trkpt>
      <trkpt lat="50.5255" lon="3.16915">
        <ele>51.82</ele>
        <time>2025-05-18T01:15:00.181Z</time>
      </trkpt>
      <trkpt lat="50.52558" lon="3.1689">
        <ele>51.68</ele>
        <time>2025-05-18T01:15:09.013Z</time>
      </trkpt>
      <trkpt lat="50.52565" lon="3.16865">
        <ele>51.51</ele>
        <time>2025-05-18T01:15:17.848Z</time>
      </trkpt>
      <trkpt lat="50.52578" lon="3.16844">
        <ele>51.31</ele>
        <time>2025-05-18T01:15:26.686Z</time>
      </trkpt>
      <trkpt lat="50.52593" lon="3.16827">
        <ele>51.08</ele>
        <time>2025-05-18T01:15:35.528Z</time>
      </trkpt>
      <trkpt lat="50.52617" lon="3.16805">
        <ele>50.82</ele>
        <time>2025-05-18T01:15:44.374Z</time>
      </trkpt>
      <trkpt lat="50.5264" lon="3.16784">
        <ele>50.52</ele>
        <time>2025-05-18T01:15:53.225Z</time>
      </trkpt>
      <trkpt lat="50.52636" lon="3.16758">
        <ele>50.25</ele>
        <time>2025-05-18T01:16:02.079Z</time>
      </trkpt>
      <trkpt lat="50.52632" lon="3.16732">
        <ele>49.95</ele>
        <time>2025-05-18T01:16:10.935Z</time>
      </trkpt>
      <trkpt lat="50.52632" lon="3.16707">
        <ele>49.64</ele>
        <time>2025-05-18T01:16:19.794Z</time>
      </trkpt>
      <trkpt lat="50.5263" lon="3.16669">
        <ele>49.32</ele>
        <time>2025-05-18T01:16:28.657Z</time>
      </trkpt>
      <trkpt lat="50.52629" lon="3.16631">
        <ele>49.04</ele>
        <time>2025-05-18T01:16:37.524Z</time>
      </trkpt>
      <trkpt lat="50.52627" lon="3.16593">
        <ele>48.69</ele>
        <time>2025-05-18T01:16:46.395Z</time>
      </trkpt>
      <trkpt lat="50.52625" lon="3.16548">
        <ele>48.27</ele>
        <time>2025-05-18T01:16:55.271Z</time>
      </trkpt>
      <trkpt lat="50.52623" lon="3.16533">
        <ele>47.86</ele>
        <time>2025-05-18T01:17:04.149Z</time>
      </trkpt>
      <trkpt lat="50.52632" lon="3.16522">
        <ele>47.44</ele>
        <time>2025-05-18T01:17:13.029Z</time>
      </trkpt>
      <trkpt lat="50.5264" lon="3.165">
        <ele>47</ele>
        <time>2025-05-18T01:17:21.911Z</time>
      </trkpt>
      <trkpt lat="50.52649" lon="3.16477">
        <ele>46.58</ele>
        <time>2025-05-18T01:17:30.796Z</time>
      </trkpt>
      <trkpt lat="50.52666" lon="3.16458">
        <ele>46.18</ele>
        <time>2025-05-18T01:17:39.685Z</time>
      </trkpt>
      <trkpt lat="50.52688" lon="3.16439">
        <ele>45.74</ele>
        <time>2025-05-18T01:17:48.578Z</time>
      </trkpt>
      <trkpt lat="50.5271" lon="3.16421">
        <ele>45.3</ele>
        <time>2025-05-18T01:17:57.475Z</time>
      </trkpt>
      <trkpt lat="50.52732" lon="3.16402">
        <ele>44.86</ele>
        <time>2025-05-18T01:18:06.377Z</time>
      </trkpt>
      <trkpt lat="50.52732" lon="3.16402">
        <ele>44.47</ele>
        <time>2025-05-18T01:18:15.279Z</time>
      </trkpt>
      <trkpt lat="50.5275" lon="3.16381">
        <ele>44.05</ele>
        <time>2025-05-18T01:18:24.184Z</time>
      </trkpt>
      <trkpt lat="50.52764" lon="3.16355">
        <ele>43.7</ele>
        <time>2025-05-18T01:18:33.093Z</time>
      </trkpt>
      <trkpt lat="50.52778" lon="3.16329">
        <ele>43.3</ele>
        <time>2025-05-18T01:18:42.006Z</time>
      </trkpt>
      <trkpt lat="50.52793" lon="3.16303">
        <ele>42.92</ele>
        <time>2025-05-18T01:18:50.922Z</time>
      </trkpt>
      <trkpt lat="50.52812" lon="3.16295">
        <ele>42.55</ele>
        <time>2025-05-18T01:18:59.842Z</time>
      </trkpt>
      <trkpt lat="50.52816" lon="3.16297">
        <ele>42.22</ele>
        <time>2025-05-18T01:19:08.762Z</time>
      </trkpt>
      <trkpt lat="50.5282" lon="3.16295">
        <ele>41.9</ele>
        <time>2025-05-18T01:19:17.683Z</time>
      </trkpt>
      <trkpt lat="50.52825" lon="3.16286">
        <ele>41.6</ele>
        <time>2025-05-18T01:19:26.605Z</time>
      </trkpt>
      <trkpt lat="50.52825" lon="3.16275">
        <ele>41.31</ele>
        <time>2025-05-18T01:19:35.528Z</time>
      </trkpt>
      <trkpt lat="50.52823" lon="3.16269">
        <ele>41.03</ele>
        <time>2025-05-18T01:19:44.452Z</time>
      </trkpt>
      <trkpt lat="50.52818" lon="3.16254">
        <ele>40.8</ele>
        <time>2025-05-18T01:19:53.378Z</time>
      </trkpt>
      <trkpt lat="50.5282" lon="3.16237">
        <ele>40.57</ele>
        <time>2025-05-18T01:20:02.306Z</time>
      </trkpt>
      <trkpt lat="50.52835" lon="3.16209">
        <ele>40.31</ele>
        <time>2025-05-18T01:20:11.238Z</time>
      </trkpt>
      <trkpt lat="50.52845" lon="3.1619">
        <ele>40.09</ele>
        <time>2025-05-18T01:20:20.172Z</time>
      </trkpt>
      <trkpt lat="50.5285" lon="3.16181">
        <ele>39.87</ele>
        <time>2025-05-18T01:20:29.108Z</time>
      </trkpt>
      <trkpt lat="50.52863" lon="3.16164">
        <ele>39.69</ele>
        <time>2025-05-18T01:20:38.046Z</time>
      </trkpt>
      <trkpt lat="50.52876" lon="3.16147">
        <ele>39.52</ele>
        <time>2025-05-18T01:20:46.987Z</time>
      </trkpt>
      <trkpt lat="50.52902" lon="3.16121">
        <ele>39.36</ele>
        <time>2025-05-18T01:20:55.933Z</time>
      </trkpt>
      <trkpt lat="50.52928" lon="3.16096">
        <ele>39.2</ele>
        <time>2025-05-18T01:21:04.884Z</time>
      </trkpt>
      <trkpt lat="50.52954" lon="3.16071">
        <ele>39.1</ele>
        <time>2025-05-18T01:21:13.841Z</time>
      </trkpt>
      <trkpt lat="50.52979" lon="3.16045">
        <ele>39.01</ele>
        <time>2025-05-18T01:21:22.803Z</time>
      </trkpt>
      <trkpt lat="50.53005" lon="3.1602">
        <ele>38.95</ele>
        <time>2025-05-18T01:21:31.770Z</time>
      </trkpt>
      <trkpt lat="50.5299" lon="3.15977">
        <ele>38.91</ele>
        <time>2025-05-18T01:21:40.742Z</time>
      </trkpt>
      <trkpt lat="50.52975" lon="3.15934">
        <ele>38.89</ele>
        <time>2025-05-18T01:21:49.719Z</time>
      </trkpt>
      <trkpt lat="50.5296" lon="3.15891">
        <ele>38.91</ele>
        <time>2025-05-18T01:21:58.702Z</time>
      </trkpt>
      <trkpt lat="50.52954" lon="3.15855">
        <ele>38.96</ele>
        <time>2025-05-18T01:22:07.688Z</time>
      </trkpt>
      <trkpt lat="50.52948" lon="3.15819">
        <ele>39.04</ele>
        <time>2025-05-18T01:22:16.678Z</time>
      </trkpt>
      <trkpt lat="50.52942" lon="3.15783">
        <ele>39.1</ele>
        <time>2025-05-18T01:22:25.672Z</time>
      </trkpt>
      <trkpt lat="50.52936" lon="3.15747">
        <ele>39.16</ele>
        <time>2025-05-18T01:22:34.670Z</time>
      </trkpt>
      <trkpt lat="50.52929" lon="3.15704">
        <ele>39.3</ele>
        <time>2025-05-18T01:22:43.673Z</time>
      </trkpt>
      <trkpt lat="50.52921" lon="3.15661">
        <ele>39.41</ele>
        <time>2025-05-18T01:22:52.681Z</time>
      </trkpt>
      <trkpt lat="50.52914" lon="3.15618">
        <ele>39.5</ele>
        <time>2025-05-18T01:23:01.694Z</time>
      </trkpt>
      <trkpt lat="50.52906" lon="3.15576">
        <ele>39.61</ele>
        <time>2025-05-18T01:23:10.711Z</time>
      </trkpt>
      <trkpt lat="50.52898" lon="3.15531">
        <ele>39.72</ele>
        <time>2025-05-18T01:23:19.733Z</time>
      </trkpt>
      <trkpt lat="50.52889" lon="3.15486">
        <ele>39.77</ele>
        <time>2025-05-18T01:23:28.761Z</time>
      </trkpt>
      <trkpt lat="50.52876" lon="3.15443">
        <ele>39.88</ele>
        <time>2025-05-18T01:23:37.794Z</time>
      </trkpt>
      <trkpt lat="50.52876" lon="3.15443">
        <ele>39.94</ele>
        <time>2025-05-18T01:23:46.827Z</time>
      </trkpt>
      <trkpt lat="50.5286" lon="3.15408">
        <ele>39.99</ele>
        <time>2025-05-18T01:23:55.864Z</time>
      </trkpt>
      <trkpt lat="50.52843" lon="3.15373">
        <ele>40.09</ele>
        <time>2025-05-18T01:24:04.906Z</time>
      </trkpt>
      <trkpt lat="50.52827" lon="3.15337">
        <ele>40.15</ele>
        <time>2025-05-18T01:24:13.953Z</time>
      </trkpt>
      <trkpt lat="50.5281" lon="3.15302">
        <ele>40.11</ele>
        <time>2025-05-18T01:24:23.004Z</time>
      </trkpt>
      <trkpt lat="50.52794" lon="3.15267">
        <ele>40.03</ele>
        <time>2025-05-18T01:24:32.060Z</time>
      </trkpt>
      <trkpt lat="50.52778" lon="3.15233">
        <ele>39.92</ele>
        <time>2025-05-18T01:24:41.121Z</time>
      </trkpt>
      <trkpt lat="50.52767" lon="3.15207">
        <ele>39.82</ele>
        <time>2025-05-18T01:24:50.185Z</time>
      </trkpt>
      <trkpt lat="50.52765" lon="3.15183">
        <ele>39.67</ele>
        <time>2025-05-18T01:24:59.251Z</time>
      </trkpt>
      <trkpt lat="50.52771" lon="3.15166">
        <ele>39.49</ele>
        <time>2025-05-18T01:25:08.320Z</time>
      </trkpt>
      <trkpt lat="50.52784" lon="3.15151">
        <ele>39.26</ele>
        <time>2025-05-18T01:25:17.391Z</time>
      </trkpt>
      <trkpt lat="50.52797" lon="3.15136">
        <ele>39.02</ele>
        <time>2025-05-18T01:25:26.465Z</time>
      </trkpt>
      <trkpt lat="50.52816" lon="3.15113">
        <ele>38.76</ele>
        <time>2025-05-18T01:25:35.543Z</time>
      </trkpt>
      <trkpt lat="50.52836" lon="3.15091">
        <ele>38.5</ele>
        <time>2025-05-18T01:25:44.625Z</time>
      </trkpt>
      <trkpt lat="50.52855" lon="3.15068">
        <ele>38.19</ele>
        <time>2025-05-18T01:25:53.711Z</time>
      </trkpt>
      <trkpt lat="50.52874" lon="3.15046">
        <ele>37.84</ele>
        <time>2025-05-18T01:26:02.801Z</time>
      </trkpt>
      <trkpt lat="50.52898" lon="3.15026">
        <ele>37.46</ele>
        <time>2025-05-18T01:26:11.896Z</time>
      </trkpt>
      <trkpt lat="50.52921" lon="3.15006">
        <ele>37.08</ele>
        <time>2025-05-18T01:26:20.995Z</time>
      </trkpt>
      <trkpt lat="50.52945" lon="3.14986">
        <ele>36.7</ele>
        <time>2025-05-18T01:26:30.099Z</time>
      </trkpt>
      <trkpt lat="50.52958" lon="3.14966">
        <ele>36.36</ele>
        <time>2025-05-18T01:26:39.206Z</time>
      </trkpt>
      <trkpt lat="50.52971" lon="3.14947">
        <ele>36.02</ele>
        <time>2025-05-18T01:26:48.316Z</time>
      </trkpt>
      <trkpt lat="50.52979" lon="3.14923">
        <ele>35.69</ele>
        <time>2025-05-18T01:26:57.428Z</time>
      </trkpt>
      <trkpt lat="50.52988" lon="3.149">
        <ele>35.38</ele>
        <time>2025-05-18T01:27:06.543Z</time>
      </trkpt>
      <trkpt lat="50.53011" lon="3.14904">
        <ele>35.09</ele>
        <time>2025-05-18T01:27:15.662Z</time>
      </trkpt>
      <trkpt lat="50.53033" lon="3.14917">
        <ele>34.82</ele>
        <time>2025-05-18T01:27:24.785Z</time>
      </trkpt>
      <trkpt lat="50.53054" lon="3.1493">
        <ele>34.5</ele>
        <time>2025-05-18T01:27:33.912Z</time>
      </trkpt>
      <trkpt lat="50.53077" lon="3.14935">
        <ele>34.16</ele>
        <time>2025-05-18T01:27:43.043Z</time>
      </trkpt>
      <trkpt lat="50.53099" lon="3.14941">
        <ele>33.82</ele>
        <time>2025-05-18T01:27:52.178Z</time>
      </trkpt>
      <trkpt lat="50.53112" lon="3.14939">
        <ele>33.51</ele>
        <time>2025-05-18T01:28:01.315Z</time>
      </trkpt>
      <trkpt lat="50.53128" lon="3.1493">
        <ele>33.2</ele>
        <time>2025-05-18T01:28:10.455Z</time>
      </trkpt>
      <trkpt lat="50.53144" lon="3.14921">
        <ele>32.9</ele>
        <time>2025-05-18T01:28:19.598Z</time>
      </trkpt>
      <trkpt lat="50.53149" lon="3.14911">
        <ele>32.62</ele>
        <time>2025-05-18T01:28:28.742Z</time>
      </trkpt>
      <trkpt lat="50.53151" lon="3.14893">
        <ele>32.36</ele>
        <time>2025-05-18T01:28:37.888Z</time>
      </trkpt>
      <trkpt lat="50.53151" lon="3.14844">
        <ele>32.17</ele>
        <time>2025-05-18T01:28:47.039Z</time>
      </trkpt>
      <trkpt lat="50.53151" lon="3.14795">
        <ele>31.99</ele>
        <time>2025-05-18T01:28:56.195Z</time>
      </trkpt>
      <trkpt lat="50.53149" lon="3.14769">
        <ele>31.8</ele>
        <time>2025-05-18T01:29:05.354Z</time>
      </trkpt>
      <trkpt lat="50.53147" lon="3.14743">
        <ele>31.66</ele>
        <time>2025-05-18T01:29:14.516Z</time>
      </trkpt>
      <trkpt lat="50.53153" lon="3.14722">
        <ele>31.49</ele>
        <time>2025-05-18T01:29:23.681Z</time>
      </trkpt>
      <trkpt lat="50.53179" lon="3.14707">
        <ele>31.24</ele>
        <time>2025-05-18T01:29:32.850Z</time>
      </trkpt>
      <trkpt lat="50.5321" lon="3.14701">
        <ele>31.07</ele>
        <time>2025-05-18T01:29:42.024Z</time>
      </trkpt>
      <trkpt lat="50.53241" lon="3.14696">
        <ele>30.94</ele>
        <time>2025-05-18T01:29:51.204Z</time>
      </trkpt>
      <trkpt lat="50.53266" lon="3.14699">
        <ele>30.85</ele>
        <time>2025-05-18T01:30:00.388Z</time>
      </trkpt>
      <trkpt lat="50.53291" lon="3.14701">
        <ele>30.74</ele>
        <time>2025-05-18T01:30:09.576Z</time>
      </trkpt>
      <trkpt lat="50.53295" lon="3.14701">
        <ele>30.61</ele>
        <time>2025-05-18T01:30:18.765Z</time>
      </trkpt>
      <trkpt lat="50.5332" lon="3.14704">
        <ele>30.51</ele>
        <time>2025-05-18T01:30:27.958Z</time>
      </trkpt>
      <trkpt lat="50.53345" lon="3.14706">
        <ele>30.33</ele>
        <time>2025-05-18T01:30:37.155Z</time>
      </trkpt>
      <trkpt lat="50.5337" lon="3.14709">
        <ele>30.17</ele>
        <time>2025-05-18T01:30:46.356Z</time>
      </trkpt>
      <trkpt lat="50.53391" lon="3.14704">
        <ele>30.05</ele>
        <time>2025-05-18T01:30:55.561Z</time>
      </trkpt>
      <trkpt lat="50.53413" lon="3.14698">
        <ele>30</ele>
        <time>2025-05-18T01:31:04.770Z</time>
      </trkpt>
      <trkpt lat="50.53441" lon="3.14684">
        <ele>29.87</ele>
        <time>2025-05-18T01:31:13.984Z</time>
      </trkpt>
      <trkpt lat="50.53468" lon="3.1467">
        <ele>29.6</ele>
        <time>2025-05-18T01:31:23.202Z</time>
      </trkpt>
      <trkpt lat="50.53496" lon="3.14655">
        <ele>29.59</ele>
        <time>2025-05-18T01:31:32.425Z</time>
      </trkpt>
      <trkpt lat="50.53511" lon="3.14664">
        <ele>29.51</ele>
        <time>2025-05-18T01:31:41.651Z</time>
      </trkpt>
      <trkpt lat="50.53527" lon="3.1469">
        <ele>29.42</ele>
        <time>2025-05-18T01:31:50.881Z</time>
      </trkpt>
      <trkpt lat="50.53544" lon="3.14715">
        <ele>29.25</ele>
        <time>2025-05-18T01:32:00.115Z</time>
      </trkpt>
      <trkpt lat="50.53552" lon="3.1472">
        <ele>29.11</ele>
        <time>2025-05-18T01:32:09.350Z</time>
      </trkpt>
      <trkpt lat="50.5358" lon="3.1471">
        <ele>28.96</ele>
        <time>2025-05-18T01:32:18.590Z</time>
      </trkpt>
      <trkpt lat="50.53608" lon="3.147">
        <ele>28.85</ele>
        <time>2025-05-18T01:32:27.835Z</time>
      </trkpt>
      <trkpt lat="50.53636" lon="3.1469">
        <ele>28.79</ele>
        <time>2025-05-18T01:32:37.085Z</time>
      </trkpt>
      <trkpt lat="50.53657" lon="3.14685">
        <ele>28.72</ele>
        <time>2025-05-18T01:32:46.338Z</time>
      </trkpt>
      <trkpt lat="50.53677" lon="3.1469">
        <ele>28.61</ele>
        <time>2025-05-18T01:32:55.595Z</time>
      </trkpt>
      <trkpt lat="50.53703" lon="3.14701">
        <ele>28.48</ele>
        <time>2025-05-18T01:33:04.856Z</time>
      </trkpt>
      <trkpt lat="50.5373" lon="3.14713">
        <ele>28.41</ele>
        <time>2025-05-18T01:33:14.122Z</time>
      </trkpt>
      <trkpt lat="50.53758" lon="3.14711">
        <ele>28.39</ele>
        <time>2025-05-18T01:33:23.393Z</time>
      </trkpt>
      <trkpt lat="50.53777" lon="3.14709">
        <ele>28.35</ele>
        <time>2025-05-18T01:33:32.667Z</time>
      </trkpt>
      <trkpt lat="50.53788" lon="3.14715">
        <ele>28.28</ele>
        <time>2025-05-18T01:33:41.943Z</time>
      </trkpt>
      <trkpt lat="50.53809" lon="3.14738">
        <ele>28.19</ele>
        <time>2025-05-18T01:33:51.223Z</time>
      </trkpt>
      <trkpt lat="50.5383" lon="3.1476">
        <ele>28.18</ele>
        <time>2025-05-18T01:34:00.507Z</time>
      </trkpt>
      <trkpt lat="50.5385" lon="3.14782">
        <ele>28.21</ele>
        <time>2025-05-18T01:34:09.796Z</time>
      </trkpt>
      <trkpt lat="50.53878" lon="3.14803">
        <ele>28.28</ele>
        <time>2025-05-18T01:34:19.090Z</time>
      </trkpt>
      <trkpt lat="50.53906" lon="3.14825">
        <ele>28.29</ele>
        <time>2025-05-18T01:34:28.389Z</time>
      </trkpt>
      <trkpt lat="50.53906" lon="3.14825">
        <ele>28.32</ele>
        <time>2025-05-18T01:34:37.688Z</time>
      </trkpt>
      <trkpt lat="50.53928" lon="3.1484">
        <ele>28.33</ele>
        <time>2025-05-18T01:34:46.991Z</time>
      </trkpt>
      <trkpt lat="50.5395" lon="3.14856">
        <ele>28.38</ele>
        <time>2025-05-18T01:34:56.298Z</time>
      </trkpt>
      <trkpt lat="50.53972" lon="3.14872">
        <ele>28.51</ele>
        <time>2025-05-18T01:35:05.609Z</time>
      </trkpt>
      <trkpt lat="50.53994" lon="3.14887">
        <ele>28.63</ele>
        <time>2025-05-18T01:35:14.924Z</time>
      </trkpt>
      <trkpt lat="50.5402" lon="3.14893">
        <ele>28.71</ele>
        <time>2025-05-18T01:35:24.244Z</time>
      </trkpt>
      <trkpt lat="50.54046" lon="3.14899">
        <ele>28.78</ele>
        <time>2025-05-18T01:35:33.568Z</time>
      </trkpt>
      <trkpt lat="50.54071" lon="3.14905">
        <ele>28.84</ele>
        <time>2025-05-18T01:35:42.896Z</time>
      </trkpt>
      <trkpt lat="50.54097" lon="3.14911">
        <ele>28.89</ele>
        <time>2025-05-18T01:35:52.229Z</time>
      </trkpt>
      <trkpt lat="50.54119" lon="3.14911">
        <ele>28.96</ele>
        <time>2025-05-18T01:36:01.565Z</time>
      </trkpt>
      <trkpt lat="50.54142" lon="3.14911">
        <ele>29.08</ele>
        <time>2025-05-18T01:36:10.905Z</time>
      </trkpt>
      <trkpt lat="50.54164" lon="3.14911">
        <ele>29.2</ele>
        <time>2025-05-18T01:36:20.249Z</time>
      </trkpt>
      <trkpt lat="50.54174" lon="3.14904">
        <ele>29.34</ele>
        <time>2025-05-18T01:36:29.595Z</time>
      </trkpt>
      <trkpt lat="50.542" lon="3.14885">
        <ele>29.47</ele>
        <time>2025-05-18T01:36:38.946Z</time>
      </trkpt>
      <trkpt lat="50.54228" lon="3.14876">
        <ele>29.77</ele>
        <time>2025-05-18T01:36:48.301Z</time>
      </trkpt>
      <trkpt lat="50.54227" lon="3.14849">
        <ele>29.84</ele>
        <time>2025-05-18T01:36:57.659Z</time>
      </trkpt>
      <trkpt lat="50.54226" lon="3.14823">
        <ele>29.87</ele>
        <time>2025-05-18T01:37:07.020Z</time>
      </trkpt>
      <trkpt lat="50.54228" lon="3.14791">
        <ele>29.94</ele>
        <time>2025-05-18T01:37:16.384Z</time>
      </trkpt>
      <trkpt lat="50.5423" lon="3.1476">
        <ele>30.01</ele>
        <time>2025-05-18T01:37:25.752Z</time>
      </trkpt>
      <trkpt lat="50.54237" lon="3.14724">
        <ele>30.07</ele>
        <time>2025-05-18T01:37:35.124Z</time>
      </trkpt>
      <trkpt lat="50.54254" lon="3.14683">
        <ele>30.05</ele>
        <time>2025-05-18T01:37:44.501Z</time>
      </trkpt>
      <trkpt lat="50.54256" lon="3.14657">
        <ele>30.06</ele>
        <time>2025-05-18T01:37:53.881Z</time>
      </trkpt>
      <trkpt lat="50.54254" lon="3.14638">
        <ele>30.13</ele>
        <time>2025-05-18T01:38:03.263Z</time>
      </trkpt>
      <trkpt lat="50.54246" lon="3.14612">
        <ele>30.25</ele>
        <time>2025-05-18T01:38:12.648Z</time>
      </trkpt>
      <trkpt lat="50.54239" lon="3.14587">
        <ele>30.32</ele>
        <time>2025-05-18T01:38:22.036Z</time>
      </trkpt>
      <trkpt lat="50.54237" lon="3.14564">
        <ele>30.35</ele>
        <time>2025-05-18T01:38:31.426Z</time>
      </trkpt>
      <trkpt lat="50.54237" lon="3.14563">
        <ele>30.34</ele>
        <time>2025-05-18T01:38:40.817Z</time>
      </trkpt>
      <trkpt lat="50.5424" lon="3.14516">
        <ele>30.29</ele>
        <time>2025-05-18T01:38:50.213Z</time>
      </trkpt>
      <trkpt lat="50.54242" lon="3.1447">
        <ele>30.27</ele>
        <time>2025-05-18T01:38:59.614Z</time>
      </trkpt>
      <trkpt lat="50.54245" lon="3.14424">
        <ele>30.22</ele>
        <time>2025-05-18T01:39:09.020Z</time>
      </trkpt>
      <trkpt lat="50.54239" lon="3.14376">
        <ele>30.19</ele>
        <time>2025-05-18T01:39:18.431Z</time>
      </trkpt>
      <trkpt lat="50.54232" lon="3.14329">
        <ele>30.18</ele>
        <time>2025-05-18T01:39:27.847Z</time>
      </trkpt>
      <trkpt lat="50.54232" lon="3.1431">
        <ele>30.19</ele>
        <time>2025-05-18T01:39:37.265Z</time>
      </trkpt>
      <trkpt lat="50.54242" lon="3.14263">
        <ele>30.19</ele>
        <time>2025-05-18T01:39:46.688Z</time>
      </trkpt>
      <trkpt lat="50.54251" lon="3.14216">
        <ele>30.2</ele>
        <time>2025-05-18T01:39:56.116Z</time>
      </trkpt>
      <trkpt lat="50.5426" lon="3.14169">
        <ele>30.14</ele>
        <time>2025-05-18T01:40:05.550Z</time>
      </trkpt>
      <trkpt lat="50.54269" lon="3.14123">
        <ele>30.1</ele>
        <time>2025-05-18T01:40:14.989Z</time>
      </trkpt>
      <trkpt lat="50.54277" lon="3.14081">
        <ele>29.97</ele>
        <time>2025-05-18T01:40:24.432Z</time>
      </trkpt>
      <trkpt lat="50.54284" lon="3.1404">
        <ele>29.89</ele>
        <time>2025-05-18T01:40:33.880Z</time>
      </trkpt>
      <trkpt lat="50.54292" lon="3.13998">
        <ele>29.8</ele>
        <time>2025-05-18T01:40:43.333Z</time>
      </trkpt>
      <trkpt lat="50.543" lon="3.13956">
        <ele>29.73</ele>
        <time>2025-05-18T01:40:52.790Z</time>
      </trkpt>
      <trkpt lat="50.54307" lon="3.13915">
        <ele>29.71</ele>
        <time>2025-05-18T01:41:02.252Z</time>
      </trkpt>
      <trkpt lat="50.54311" lon="3.13885">
        <ele>29.69</ele>
        <time>2025-05-18T01:41:11.717Z</time>
      </trkpt>
      <trkpt lat="50.54314" lon="3.13855">
        <ele>29.68</ele>
        <time>2025-05-18T01:41:21.186Z</time>
      </trkpt>
      <trkpt lat="50.54316" lon="3.13842">
        <ele>29.64</ele>
        <time>2025-05-18T01:41:30.656Z</time>
      </trkpt>
      <trkpt lat="50.54318" lon="3.13833">
        <ele>29.63</ele>
        <time>2025-05-18T01:41:40.127Z</time>
      </trkpt>
      <trkpt lat="50.54335" lon="3.13805">
        <ele>29.65</ele>
        <time>2025-05-18T01:41:49.602Z</time>
      </trkpt>
      <trkpt lat="50.54351" lon="3.13777">
        <ele>29.65</ele>
        <time>2025-05-18T01:41:59.081Z</time>
      </trkpt>
      <trkpt lat="50.54368" lon="3.13748">
        <ele>29.7</ele>
        <time>2025-05-18T01:42:08.564Z</time>
      </trkpt>
      <trkpt lat="50.54385" lon="3.1372">
        <ele>29.74</ele>
        <time>2025-05-18T01:42:18.051Z</time>
      </trkpt>
      <trkpt lat="50.54358" lon="3.13695">
        <ele>29.67</ele>
        <time>2025-05-18T01:42:27.544Z</time>
      </trkpt>
      <trkpt lat="50.54331" lon="3.1367">
        <ele>29.66</ele>
        <time>2025-05-18T01:42:37.042Z</time>
      </trkpt>
      <trkpt lat="50.54304" lon="3.13646">
        <ele>29.67</ele>
        <time>2025-05-18T01:42:46.545Z</time>
      </trkpt>
      <trkpt lat="50.54277" lon="3.13621">
        <ele>29.72</ele>
        <time>2025-05-18T01:42:56.053Z</time>
      </trkpt>
      <trkpt lat="50.5425" lon="3.13596">
        <ele>29.78</ele>
        <time>2025-05-18T01:43:05.567Z</time>
      </trkpt>
      <trkpt lat="50.54224" lon="3.13572">
        <ele>29.85</ele>
        <time>2025-05-18T01:43:15.086Z</time>
      </trkpt>
      <trkpt lat="50.54197" lon="3.13547">
        <ele>29.89</ele>
        <time>2025-05-18T01:43:24.610Z</time>
      </trkpt>
      <trkpt lat="50.5417" lon="3.13522">
        <ele>30.01</ele>
        <time>2025-05-18T01:43:34.139Z</time>
      </trkpt>
      <trkpt lat="50.54143" lon="3.13497">
        <ele>30.16</ele>
        <time>2025-05-18T01:43:43.674Z</time>
      </trkpt>
      <trkpt lat="50.54116" lon="3.13473">
        <ele>30.29</ele>
        <time>2025-05-18T01:43:53.214Z</time>
      </trkpt>
      <trkpt lat="50.54099" lon="3.13451">
        <ele>30.5</ele>
        <time>2025-05-18T01:44:02.757Z</time>
      </trkpt>
      <trkpt lat="50.54082" lon="3.1343">
        <ele>30.75</ele>
        <time>2025-05-18T01:44:12.304Z</time>
      </trkpt>
      <trkpt lat="50.54066" lon="3.13394">
        <ele>30.93</ele>
        <time>2025-05-18T01:44:21.856Z</time>
      </trkpt>
      <trkpt lat="50.5405" lon="3.13357">
        <ele>31.09</ele>
        <time>2025-05-18T01:44:31.413Z</time>
      </trkpt>
      <trkpt lat="50.54037" lon="3.13324">
        <ele>31.26</ele>
        <time>2025-05-18T01:44:40.974Z</time>
      </trkpt>
      <trkpt lat="50.54024" lon="3.13291">
        <ele>31.32</ele>
        <time>2025-05-18T01:44:50.539Z</time>
      </trkpt>
      <trkpt lat="50.54016" lon="3.13252">
        <ele>31.34</ele>
        <time>2025-05-18T01:45:00.108Z</time>
      </trkpt>
      <trkpt lat="50.54012" lon="3.13212">
        <ele>31.34</ele>
        <time>2025-05-18T01:45:09.682Z</time>
      </trkpt>
      <trkpt lat="50.54009" lon="3.13173">
        <ele>31.29</ele>
        <time>2025-05-18T01:45:19.260Z</time>
      </trkpt>
      <trkpt lat="50.54005" lon="3.13151">
        <ele>31.26</ele>
        <time>2025-05-18T01:45:28.840Z</time>
      </trkpt>
      <trkpt lat="50.53989" lon="3.13129">
        <ele>31.21</ele>
        <time>2025-05-18T01:45:38.424Z</time>
      </trkpt>
      <trkpt lat="50.53973" lon="3.13107">
        <ele>31.22</ele>
        <time>2025-05-18T01:45:48.011Z</time>
      </trkpt>
      <trkpt lat="50.53958" lon="3.13085">
        <ele>31.21</ele>
        <time>2025-05-18T01:45:57.602Z</time>
      </trkpt>
      <trkpt lat="50.53963" lon="3.13044">
        <ele>31.24</ele>
        <time>2025-05-18T01:46:07.197Z</time>
      </trkpt>
      <trkpt lat="50.53968" lon="3.13003">
        <ele>31.16</ele>
        <time>2025-05-18T01:46:16.797Z</time>
      </trkpt>
      <trkpt lat="50.53973" lon="3.12966">
        <ele>31.04</ele>
        <time>2025-05-18T01:46:26.401Z</time>
      </trkpt>
      <trkpt lat="50.53977" lon="3.1293">
        <ele>30.96</ele>
        <time>2025-05-18T01:46:36.009Z</time>
      </trkpt>
      <trkpt lat="50.53981" lon="3.12894">
        <ele>30.77</ele>
        <time>2025-05-18T01:46:45.621Z</time>
      </trkpt>
      <trkpt lat="50.53986" lon="3.12872">
        <ele>30.58</ele>
        <time>2025-05-18T01:46:55.235Z</time>
      </trkpt>
      <trkpt lat="50.53992" lon="3.12855">
        <ele>30.46</ele>
        <time>2025-05-18T01:47:04.851Z</time>
      </trkpt>
      <trkpt lat="50.54007" lon="3.12821">
        <ele>30.43</ele>
        <time>2025-05-18T01:47:14.472Z</time>
      </trkpt>
      <trkpt lat="50.54022" lon="3.12786">
        <ele>30.54</ele>
        <time>2025-05-18T01:47:24.097Z</time>
      </trkpt>
      <trkpt lat="50.53998" lon="3.12773">
        <ele>30.61</ele>
        <time>2025-05-18T01:47:33.726Z</time>
      </trkpt>
      <trkpt lat="50.53975" lon="3.12761">
        <ele>30.89</ele>
        <time>2025-05-18T01:47:43.360Z</time>
      </trkpt>
      <trkpt lat="50.53953" lon="3.12751">
        <ele>31.2</ele>
        <time>2025-05-18T01:47:52.997Z</time>
      </trkpt>
      <trkpt lat="50.53932" lon="3.12741">
        <ele>31.52</ele>
        <time>2025-05-18T01:48:02.638Z</time>
      </trkpt>
      <trkpt lat="50.53913" lon="3.12735">
        <ele>31.78</ele>
        <time>2025-05-18T01:48:12.282Z</time>
      </trkpt>
      <trkpt lat="50.53902" lon="3.12726">
        <ele>31.97</ele>
        <time>2025-05-18T01:48:21.928Z</time>
      </trkpt>
      <trkpt lat="50.539" lon="3.12724">
        <ele>32.18</ele>
        <time>2025-05-18T01:48:31.575Z</time>
      </trkpt>
      <trkpt lat="50.53891" lon="3.12703">
        <ele>32.42</ele>
        <time>2025-05-18T01:48:41.225Z</time>
      </trkpt>
      <trkpt lat="50.53881" lon="3.12681">
        <ele>32.62</ele>
        <time>2025-05-18T01:48:50.877Z</time>
      </trkpt>
    </trkseg>
  </trk>
</gpx>